GFSWCAN_prec_snow_018.txt.gz
Snowfall_Accumulation
0.0 0.0 0.0 0.0 0.0 0.0 0.0 0.0 0.0 0.0 0.0 0.0 0.0 0.0 0.0 0.0 0.0 0.0 0.0 0.0 0.0 0.0 0.0 0.0 0.0 0.0 0.0 0.0 0.0 0.0 0.0 0.0 0.0 0.0 0.0 0.0 0.0 0.0 0.0 0.0 0.0 0.0 0.0 0.0 0.0 0.1 0.0 0.0 0.0 0.0 0.0 0.0 0.0 0.0
0.0 0.0 0.0 0.0 0.0 0.0 0.0 0.0 0.0 0.0 0.0 0.0 0.0 0.0 0.0 0.0 0.0 0.0 0.0 0.0 0.0 0.0 0.0 0.0 0.0 0.0 0.0 0.0 0.0 0.0 0.0 0.0 0.0 0.0 0.0 0.0 0.0 0.0 0.0 0.0 0.0 0.0 0.0 0.0 0.0 0.0 0.0 0.0 0.0 0.0 0.0 0.0 0.0 0.0
0.0 0.0 0.0 0.0 0.0 0.0 0.0 0.0 0.0 0.0 0.0 0.0 0.0 0.0 0.0 0.0 0.0 0.0 0.0 0.0 0.0 0.0 0.0 0.0 0.0 0.0 0.0 0.0 0.0 0.0 0.0 0.0 0.0 0.0 0.0 0.0 0.0 0.0 0.0 0.0 0.0 0.0 0.0 0.0 0.0 0.0 0.0 0.0 0.0 0.0 0.0 0.0 0.0 0.0
0.0 0.0 0.0 0.0 0.0 0.0 0.0 0.0 0.0 0.0 0.0 0.0 0.0 0.0 0.0 0.0 0.0 0.0 0.0 0.0 0.0 0.0 0.0 0.0 0.0 0.0 0.0 0.0 0.0 0.0 0.0 0.0 0.0 0.0 0.0 0.0 0.0 0.0 0.0 0.0 0.0 0.0 0.0 0.0 0.0 0.0 0.0 0.0 0.0 0.0 0.0 0.0 0.0 0.0
0.0 0.0 0.0 0.0 0.0 0.0 0.0 0.0 0.0 0.0 0.0 0.0 0.0 0.0 0.0 0.0 0.0 0.0 0.0 0.0 0.0 0.0 0.0 0.0 0.0 0.0 0.0 0.0 0.0 0.0 0.0 0.0 0.0 0.0 0.0 0.0 0.0 0.0 0.0 0.0 0.0 0.0 0.0 0.0 0.0 0.0 0.0 0.0 0.0 0.0 0.0 0.0 0.0 0.0
0.0 0.0 0.0 0.0 0.0 0.0 0.0 0.0 0.0 0.0 0.0 0.0 0.0 0.0 0.0 0.0 0.0 0.0 0.0 0.0 0.0 0.0 0.0 0.0 0.0 0.0 0.0 0.0 0.0 0.0 0.0 0.0 0.0 0.0 0.0 0.0 0.0 0.0 0.0 0.0 0.0 0.0 0.0 0.0 0.0 0.0 0.0 0.0 0.0 0.0 0.0 0.0 0.0 0.0
0.0 0.0 0.0 0.0 0.0 0.0 0.0 0.0 0.0 0.0 0.0 0.0 0.0 0.0 0.0 0.0 0.0 0.0 0.0 0.0 0.0 0.0 0.0 0.0 0.0 0.0 0.0 0.0 0.0 0.0 0.0 0.0 0.0 0.0 0.0 0.0 0.0 0.0 0.0 0.0 0.0 0.0 0.0 0.0 0.0 0.0 0.0 0.0 0.0 0.0 0.0 0.0 0.0 0.0
0.0 0.0 0.0 0.0 0.0 0.0 0.0 0.0 0.0 0.0 0.0 0.0 0.0 0.0 0.0 0.0 0.0 0.0 0.0 0.0 0.0 0.0 0.0 0.0 0.0 0.0 0.0 0.0 0.0 0.0 0.0 0.0 0.0 0.0 0.0 0.0 0.0 0.0 0.0 0.0 0.0 0.0 0.0 0.0 0.0 0.0 0.0 0.0 0.0 0.0 0.0 0.0 0.0 0.0
0.0 0.0 0.0 0.0 0.0 0.0 0.0 0.0 0.0 0.0 0.0 0.0 0.0 0.0 0.0 0.0 0.0 0.0 0.0 0.0 0.0 0.0 0.0 0.0 0.0 0.0 0.0 0.0 0.0 0.0 0.0 0.0 0.0 0.0 0.0 0.0 0.0 0.0 0.0 0.0 0.0 0.0 0.0 0.0 0.0 0.0 0.0 0.0 0.0 0.0 0.0 0.0 0.0 0.0
0.0 0.0 0.0 0.0 0.0 0.0 0.0 0.0 0.0 0.0 0.0 0.0 0.0 0.0 0.0 0.0 0.0 0.0 0.0 0.0 0.0 0.0 0.0 0.0 0.0 0.0 0.0 0.0 0.0 0.0 0.0 0.0 0.0 0.0 0.0 0.0 0.0 0.0 0.0 0.0 0.0 0.0 0.0 0.0 0.0 0.0 0.0 0.0 0.0 0.0 0.0 0.0 0.0 0.0
0.0 0.0 0.0 0.0 0.0 0.0 0.0 0.0 0.0 0.0 0.0 0.0 0.0 0.0 0.0 0.0 0.0 0.0 0.0 0.0 0.0 0.0 0.0 0.0 0.0 0.0 0.0 0.0 0.0 0.0 0.0 0.0 0.0 0.0 0.0 0.0 0.0 0.0 0.0 0.0 0.0 0.0 0.0 0.0 0.0 0.0 0.0 0.0 0.0 0.0 0.0 0.0 0.0 0.0
0.0 0.0 0.0 0.0 0.0 0.0 0.0 0.0 0.0 0.0 7.2 0.0 0.0 0.0 0.0 0.0 0.0 0.0 0.0 0.0 0.0 0.0 0.0 0.0 0.0 0.0 0.0 0.0 0.0 0.0 0.0 0.0 0.0 0.0 0.0 0.0 0.0 0.0 0.0 0.0 0.0 0.0 0.0 0.0 0.0 0.0 0.0 0.0 0.0 0.0 0.0 0.0 0.0 0.0
0.0 0.0 0.0 0.0 0.0 0.0 0.0 0.0 0.0 0.0 0.0 0.0 0.0 0.0 0.0 0.9 0.4 0.0 0.0 0.0 0.0 0.0 0.0 0.0 0.0 0.0 0.0 0.0 0.0 0.0 0.0 0.0 0.0 0.0 0.0 0.0 0.0 0.0 0.0 0.0 0.0 0.0 0.0 0.0 0.0 0.0 0.0 0.0 0.0 0.0 0.0 0.0 0.0 0.0
0.0 0.0 0.0 0.0 0.0 0.0 0.0 0.0 0.0 0.0 4.3 0.0 11.3 5.9 0.9 1.5 0.0 0.0 0.0 0.0 0.0 0.0 0.0 0.0 0.0 0.0 0.0 0.0 0.0 0.0 0.0 0.0 0.0 0.0 0.0 0.0 0.0 0.0 0.0 0.0 0.0 0.0 0.0 0.0 0.0 0.0 0.0 0.0 0.0 0.0 0.0 0.0 0.0 0.0
0.0 0.0 0.0 0.0 0.0 0.0 0.0 0.0 0.0 0.0 4.1 12.1 3.6 1.1 0.1 0.0 0.0 0.0 0.0 0.0 0.0 0.0 0.0 0.0 0.0 0.0 0.0 0.0 0.0 0.0 0.2 0.0 0.0 0.0 0.0 0.0 0.0 0.0 0.0 0.0 0.0 0.0 0.0 0.0 0.0 0.0 0.0 0.0 0.0 0.0 0.0 0.0 0.0 0.0
0.0 0.0 0.0 0.0 0.0 0.0 0.0 0.0 0.0 0.0 16.1 11.1 3.9 1.1 0.0 0.0 0.0 0.0 0.0 0.0 0.0 0.0 0.0 0.0 0.0 0.0 0.0 0.0 0.0 0.0 0.0 0.0 0.0 0.0 0.0 0.0 0.0 0.0 0.0 0.0 0.0 0.0 0.0 0.0 0.0 0.0 0.0 0.0 0.0 0.0 0.0 0.0 0.0 0.0
0.0 0.0 0.0 0.0 0.0 0.0 0.0 3.7 6.7 15.4 16.4 11.4 2.5 0.0 0.0 0.0 0.0 0.0 0.0 0.0 0.0 0.0 0.0 0.0 0.0 0.0 0.0 0.0 0.0 0.0 0.0 0.0 0.0 0.0 0.0 0.0 0.0 0.0 0.0 0.0 0.0 0.0 0.0 0.0 0.0 0.0 0.0 0.0 0.0 0.0 0.0 0.0 0.0 0.0
0.0 0.0 0.0 0.0 0.0 0.0 0.0 12.7 16.6 15.7 12.6 6.1 0.5 0.0 0.0 0.0 0.0 0.0 0.0 0.0 0.0 0.0 0.0 0.0 0.0 0.0 0.0 0.0 0.0 0.0 0.0 0.0 0.0 0.0 0.0 0.0 0.0 0.0 0.0 0.0 0.0 0.0 0.0 0.0 0.0 0.0 0.0 0.0 0.0 0.0 0.0 0.0 0.0 0.0
0.0 0.0 0.0 0.0 0.0 3.0 6.8 9.4 11.5 9.5 5.8 2.1 0.2 0.0 0.0 0.0 0.0 0.0 0.0 0.0 0.0 0.0 0.0 0.0 0.0 0.0 0.0 0.0 0.0 0.0 0.0 0.0 0.0 0.0 0.0 0.0 0.0 0.0 0.0 0.0 0.0 0.0 0.0 0.0 0.0 0.0 0.0 0.0 0.0 0.0 0.0 0.0 0.0 0.0
0.0 0.0 0.0 0.0 0.0 3.4 4.5 7.0 5.0 5.5 3.4 2.3 1.0 0.4 0.2 0.2 0.2 0.1 0.1 0.1 0.0 0.0 0.0 0.0 0.0 0.0 0.0 0.0 0.0 0.0 0.0 0.0 0.0 0.0 0.0 0.0 0.0 0.0 0.0 0.0 0.0 0.0 0.0 0.0 0.0 0.0 0.0 0.0 0.0 0.0 0.0 0.0 0.0 0.0
0.0 0.0 0.0 0.0 2.0 3.0 4.1 3.7 5.4 4.5 3.6 2.9 3.5 1.8 1.7 0.5 0.6 1.1 2.4 0.2 2.1 1.8 0.2 0.0 0.0 0.0 0.0 0.0 0.0 0.0 0.0 0.0 0.0 0.0 0.0 0.0 0.0 0.0 0.0 0.0 0.0 0.0 0.0 0.0 0.0 0.0 0.0 0.0 0.0 0.0 0.0 0.0 0.0 0.0
0.0 0.0 0.0 0.0 2.2 2.1 2.3 3.1 3.9 3.7 2.4 3.3 4.5 3.4 3.3 2.5 2.1 2.5 3.0 3.8 3.7 1.4 0.5 0.1 0.1 0.0 0.0 0.0 0.0 0.0 0.0 0.0 0.0 0.0 0.0 0.0 0.0 0.0 0.0 0.0 0.0 0.0 0.0 0.0 0.0 0.0 0.0 0.0 0.0 0.0 0.0 0.0 0.0 0.0
0.0 0.0 0.7 0.9 1.4 0.6 1.9 2.2 2.5 3.2 3.1 3.7 4.0 3.2 3.5 3.6 4.3 4.2 4.7 3.8 2.1 1.0 0.4 0.5 0.5 0.3 0.0 0.0 0.0 0.0 0.0 0.0 0.0 0.0 0.0 0.0 0.0 0.0 0.0 0.0 0.0 0.0 0.0 0.0 0.0 0.0 0.0 0.0 0.0 0.0 0.0 0.0 0.0 0.0
0.0 0.0 0.0 0.0 0.5 1.1 1.1 1.9 1.6 2.0 2.4 2.6 3.1 2.7 2.0 2.8 3.6 3.8 2.3 1.1 1.3 1.2 0.5 0.4 0.2 0.1 0.0 0.0 0.0 0.0 0.0 0.0 0.0 0.0 0.0 0.0 0.0 0.0 0.0 0.0 0.0 0.0 0.0 0.0 0.0 0.0 0.0 0.0 0.0 0.0 0.0 0.0 0.0 0.0
0.0 0.0 0.0 0.0 0.0 0.1 0.4 1.2 1.4 1.1 1.7 2.3 2.6 2.6 2.5 2.6 3.0 2.1 1.5 1.3 2.0 2.3 1.5 0.4 0.0 0.0 0.0 0.0 0.0 0.0 0.0 0.0 0.0 0.0 0.0 0.0 0.0 0.0 0.0 0.0 0.0 0.0 0.0 0.0 0.0 0.0 0.0 0.0 0.0 0.0 0.0 0.0 0.0 0.0
0.0 0.0 0.0 0.0 0.0 0.0 0.0 0.5 1.1 1.6 1.8 2.1 2.2 2.2 2.2 2.0 1.7 1.6 1.0 1.4 2.3 2.7 2.3 1.1 0.1 0.0 0.0 0.0 0.0 0.0 0.0 0.0 0.0 0.0 0.0 0.0 0.0 0.0 0.0 0.0 0.0 0.0 0.0 0.0 0.0 0.0 0.0 0.0 0.0 0.0 0.0 0.0 0.0 0.0
0.0 0.0 0.0 0.0 0.0 0.0 0.0 0.0 0.0 0.0 0.6 1.2 1.3 1.3 1.1 1.2 1.4 0.6 0.7 1.5 2.2 2.5 2.5 2.1 0.9 0.0 0.0 0.0 0.0 0.0 0.0 0.0 0.0 0.0 0.0 0.0 0.0 0.0 0.0 0.0 0.0 0.0 0.0 0.0 0.0 0.0 0.0 0.0 0.0 0.0 0.0 0.0 0.0 0.0
0.0 0.0 0.0 0.0 0.0 0.0 0.0 0.0 0.0 0.0 0.0 0.1 0.8 0.7 0.6 0.4 0.2 0.3 0.7 1.3 2.1 2.4 2.3 2.1 1.5 0.5 0.0 0.0 0.0 0.0 0.0 0.0 0.0 0.0 0.0 0.0 0.0 0.0 0.0 0.0 0.0 0.0 0.0 0.0 0.0 0.0 0.0 0.0 0.0 0.0 0.0 0.0 0.0 0.0
0.0 0.0 0.0 0.0 0.0 0.0 0.0 0.0 0.0 0.0 0.0 0.0 0.0 0.2 0.2 0.2 0.3 0.5 0.8 1.2 1.5 1.7 1.7 1.6 1.5 1.1 0.7 0.4 0.3 0.1 0.0 0.0 0.0 0.0 0.0 0.0 0.0 0.0 0.0 0.0 0.0 0.0 0.0 0.0 0.0 0.0 0.0 0.0 0.0 0.0 0.0 0.0 0.0 0.0
0.0 0.0 0.0 0.0 0.0 0.0 0.0 0.0 0.0 0.0 0.0 0.0 0.0 0.0 0.0 0.2 0.4 0.6 0.8 1.0 1.3 1.5 1.5 1.4 1.2 0.9 0.5 0.3 0.2 0.1 0.0 0.0 0.0 0.0 0.0 0.0 0.0 0.0 0.0 0.0 0.0 0.0 0.0 0.0 0.0 0.0 0.0 0.0 0.0 0.0 0.0 0.0 0.0 0.0
0.0 0.0 0.0 0.0 0.0 0.0 0.0 0.1 0.1 0.0 0.0 0.0 0.0 0.0 0.0 0.0 0.2 0.4 0.5 0.7 0.9 1.0 1.1 1.0 0.8 0.6 0.3 0.1 0.0 0.0 0.0 0.1 0.0 0.0 0.0 0.0 0.0 0.0 0.0 0.0 0.0 0.0 0.0 0.0 0.0 0.0 0.0 0.0 0.0 0.0 0.0 0.0 0.0 0.0
0.0 0.0 0.0 0.0 0.0 0.1 0.1 0.1 0.1 0.0 0.0 0.0 0.0 0.0 0.0 0.0 0.0 0.1 0.1 0.2 0.3 0.3 0.4 0.3 0.2 0.2 0.0 0.1 0.1 0.1 0.1 0.1 0.0 0.0 0.0 0.0 0.0 0.0 0.0 0.0 0.0 0.0 0.0 0.0 0.0 0.0 0.0 0.0 0.0 0.0 0.0 0.0 0.0 0.0
0.4 0.4 0.4 0.2 0.0 0.0 0.1 0.0 0.0 0.0 0.0 0.0 0.0 0.0 0.0 0.1 0.1 0.0 0.0 0.1 0.1 0.1 0.1 0.1 0.1 0.2 0.2 0.2 0.2 0.3 0.3 0.2 0.2 0.1 0.1 0.0 0.1 0.0 0.0 0.0 0.0 0.0 0.0 0.0 0.0 0.0 0.0 0.0 0.0 0.0 0.0 0.0 0.0 0.0

GFSWCAN_prec_snow_021.txt.gz
Snowfall_Accumulation
0.0 0.0 0.0 0.0 0.0 0.0 0.0 0.0 0.0 0.0 0.0 0.0 0.0 0.0 0.0 0.0 0.0 0.0 0.0 0.0 0.0 0.0 0.0 0.0 0.0 0.0 0.0 0.0 0.0 0.0 0.0 0.0 0.0 0.0 0.0 0.0 0.0 0.0 0.0 0.0 0.0 0.0 0.0 0.0 0.0 0.1 0.0 0.0 0.0 0.0 0.0 0.0 0.0 0.0
0.0 0.0 0.0 0.0 0.0 0.0 0.0 0.0 0.0 0.0 0.0 0.0 0.0 0.0 0.0 0.0 0.0 0.0 0.0 0.0 0.0 0.0 0.0 0.0 0.0 0.0 0.0 0.0 0.0 0.0 0.0 0.0 0.0 0.0 0.0 0.0 0.0 0.0 0.0 0.0 0.0 0.0 0.0 0.0 0.0 0.0 0.0 0.0 0.0 0.0 0.0 0.0 0.0 0.0
0.0 0.0 0.0 0.0 0.0 0.0 0.0 0.0 0.0 0.0 0.0 0.0 0.0 0.0 0.0 0.0 0.0 0.0 0.0 0.0 0.0 0.0 0.0 0.0 0.0 0.0 0.0 0.0 0.0 0.0 0.0 0.0 0.0 0.0 0.0 0.0 0.0 0.0 0.0 0.0 0.0 0.0 0.0 0.0 0.0 0.0 0.0 0.0 0.0 0.0 0.0 0.0 0.0 0.0
0.0 0.0 0.0 0.0 0.0 0.0 0.0 0.0 0.0 0.0 0.0 0.0 0.0 0.0 0.0 0.0 0.0 0.0 0.0 0.0 0.0 0.0 0.0 0.0 0.0 0.0 0.0 0.0 0.0 0.0 0.0 0.0 0.0 0.0 0.0 0.0 0.0 0.0 0.0 0.0 0.0 0.0 0.0 0.0 0.0 0.0 0.0 0.0 0.0 0.0 0.0 0.0 0.0 0.0
0.0 0.0 0.0 0.0 0.0 0.0 0.0 0.0 0.0 0.0 0.0 0.0 0.0 0.0 0.0 0.0 0.0 0.0 0.0 0.0 0.0 0.0 0.0 0.0 0.0 0.0 0.0 0.0 0.0 0.0 0.0 0.0 0.0 0.0 0.0 0.0 0.0 0.0 0.0 0.0 0.0 0.0 0.0 0.0 0.0 0.0 0.0 0.0 0.0 0.0 0.0 0.0 0.0 0.0
0.0 0.0 0.0 0.0 0.0 0.0 0.0 0.0 0.0 0.0 0.0 0.0 0.0 0.0 0.0 0.0 0.0 0.0 0.0 0.0 0.0 0.0 0.0 0.0 0.0 0.0 0.0 0.0 0.0 0.0 0.0 0.0 0.0 0.0 0.0 0.0 0.0 0.0 0.0 0.0 0.0 0.0 0.0 0.0 0.0 0.0 0.0 0.0 0.0 0.0 0.0 0.0 0.0 0.0
0.0 0.0 0.0 0.0 0.0 0.0 0.0 0.0 0.0 0.0 0.0 0.0 0.0 0.0 0.0 0.0 0.0 0.0 0.0 0.0 0.0 0.0 0.0 0.0 0.0 0.0 0.0 0.0 0.0 0.0 0.0 0.0 0.0 0.0 0.0 0.0 0.0 0.0 0.0 0.0 0.0 0.0 0.0 0.0 0.0 0.0 0.0 0.0 0.0 0.0 0.0 0.0 0.0 0.0
0.0 0.0 0.0 0.0 0.0 0.0 0.0 0.0 0.0 0.0 0.0 0.0 0.0 0.0 0.0 0.0 0.0 0.0 0.0 0.0 0.0 0.0 0.0 0.0 0.0 0.0 0.0 0.0 0.0 0.0 0.0 0.0 0.0 0.0 0.0 0.0 0.0 0.0 0.0 0.0 0.0 0.0 0.0 0.0 0.0 0.0 0.0 0.0 0.0 0.0 0.0 0.0 0.0 0.0
0.0 0.0 0.0 0.0 0.0 0.0 0.0 0.0 0.0 0.0 0.0 0.0 0.0 0.0 0.0 0.0 0.0 0.0 0.0 0.0 0.0 0.0 0.0 0.0 0.0 0.0 0.0 0.0 0.0 0.0 0.0 0.0 0.0 0.0 0.0 0.0 0.0 0.0 0.0 0.0 0.0 0.0 0.0 0.0 0.0 0.0 0.0 0.0 0.0 0.0 0.0 0.0 0.0 0.0
0.0 0.0 0.0 0.0 0.0 0.0 0.0 0.0 0.0 0.0 0.0 0.0 0.0 0.0 0.0 0.0 0.0 0.0 0.0 0.0 0.0 0.0 0.0 0.0 0.0 0.0 0.0 0.0 0.0 0.0 0.0 0.0 0.0 0.0 0.0 0.0 0.0 0.0 0.0 0.0 0.0 0.0 0.0 0.0 0.0 0.0 0.0 0.0 0.0 0.0 0.0 0.0 0.0 0.0
0.0 0.0 0.0 0.0 0.0 0.0 0.0 0.0 0.0 0.0 0.0 0.0 0.0 0.0 0.0 0.0 0.0 0.0 0.0 0.0 0.0 0.0 0.0 0.0 0.0 0.0 0.0 0.0 0.0 0.0 0.0 0.0 0.0 0.0 0.0 0.0 0.0 0.0 0.0 0.0 0.0 0.0 0.0 0.0 0.0 0.0 0.0 0.0 0.0 0.0 0.0 0.0 0.0 0.0
0.0 0.0 0.0 0.0 0.0 0.0 0.0 0.0 0.0 0.0 7.2 0.0 0.0 0.0 0.0 0.0 0.0 0.0 0.0 0.0 0.0 0.0 0.0 0.0 0.0 0.0 0.0 0.0 0.0 0.0 0.0 0.0 0.0 0.0 0.0 0.0 0.0 0.0 0.0 0.0 0.0 0.0 0.0 0.0 0.0 0.0 0.0 0.0 0.0 0.0 0.0 0.0 0.0 0.0
0.0 0.0 0.0 0.0 0.0 0.0 0.0 0.0 0.0 0.0 0.0 0.0 2.9 5.1 2.6 0.9 0.7 0.0 0.0 0.0 0.0 0.0 0.0 0.0 0.0 0.0 0.0 0.0 0.0 0.0 0.0 0.0 0.0 0.0 0.0 0.0 0.0 0.0 0.0 0.0 0.0 0.0 0.0 0.0 0.0 0.0 0.0 0.0 0.0 0.0 0.0 0.0 0.0 0.0
0.0 0.0 0.0 0.0 0.0 0.0 0.0 0.0 0.0 0.0 7.1 2.8 14.4 9.9 1.9 1.5 0.0 0.0 0.0 0.0 0.0 0.0 0.0 0.0 0.0 0.0 0.0 0.0 0.0 0.0 0.0 0.0 0.0 0.0 0.0 0.0 0.0 0.0 0.0 0.0 0.0 0.0 0.0 0.0 0.0 0.0 0.0 0.0 0.0 0.0 0.0 0.0 0.0 0.0
0.0 0.0 0.0 0.0 0.0 0.0 0.0 0.0 0.0 0.0 6.3 14.7 5.9 2.4 0.3 0.0 0.0 0.0 0.0 0.0 0.0 0.0 0.0 0.0 0.0 0.0 0.0 0.0 0.0 0.0 0.2 0.0 0.0 0.0 0.0 0.0 0.0 0.0 0.0 0.0 0.0 0.0 0.0 0.0 0.0 0.0 0.0 0.0 0.0 0.0 0.0 0.0 0.0 0.0
0.0 0.0 0.0 0.0 0.0 0.0 0.0 0.0 0.0 0.0 18.2 13.6 5.5 1.5 0.0 0.0 0.0 0.0 0.0 0.0 0.0 0.0 0.0 0.0 0.0 0.0 0.0 0.0 0.0 0.0 0.0 0.0 0.0 0.0 0.0 0.0 0.0 0.0 0.0 0.0 0.0 0.0 0.0 0.0 0.0 0.0 0.0 0.0 0.0 0.0 0.0 0.0 0.0 0.0
0.0 0.0 0.0 0.0 0.0 0.0 0.0 3.7 7.1 16.5 18.4 13.2 3.2 0.0 0.0 0.0 0.0 0.0 0.0 0.0 0.0 0.0 0.0 0.0 0.0 0.0 0.0 0.0 0.0 0.0 0.0 0.0 0.0 0.0 0.0 0.0 0.0 0.0 0.0 0.0 0.0 0.0 0.0 0.0 0.0 0.0 0.0 0.0 0.0 0.0 0.0 0.0 0.0 0.0
0.0 0.0 0.0 0.0 0.0 0.0 0.0 12.7 17.3 17.1 14.1 6.9 0.5 0.1 0.0 0.0 0.0 0.0 0.0 0.0 0.0 0.0 0.0 0.0 0.0 0.0 0.0 0.0 0.0 0.0 0.0 0.0 0.0 0.0 0.0 0.0 0.0 0.0 0.0 0.0 0.0 0.0 0.0 0.0 0.0 0.0 0.0 0.0 0.0 0.0 0.0 0.0 0.0 0.0
0.0 0.0 0.0 0.0 0.0 3.0 6.8 9.4 11.5 10.6 6.7 2.5 0.2 0.2 0.0 0.0 0.0 0.0 0.0 0.0 0.0 0.0 0.0 0.0 0.0 0.0 0.0 0.0 0.0 0.0 0.0 0.0 0.0 0.0 0.0 0.0 0.0 0.0 0.0 0.0 0.0 0.0 0.0 0.0 0.0 0.0 0.0 0.0 0.0 0.0 0.0 0.0 0.0 0.0
0.0 0.0 0.0 0.0 0.0 3.4 4.5 7.0 5.0 6.2 4.0 2.8 1.4 0.8 0.3 0.2 0.2 0.1 0.1 0.1 0.0 0.0 0.0 0.0 0.0 0.0 0.0 0.0 0.0 0.0 0.0 0.0 0.0 0.0 0.0 0.0 0.0 0.0 0.0 0.0 0.0 0.0 0.0 0.0 0.0 0.0 0.0 0.0 0.0 0.0 0.0 0.0 0.0 0.0
0.0 0.0 0.0 0.0 2.0 3.0 4.1 3.7 5.4 5.0 4.0 3.3 4.2 2.4 2.2 0.8 0.8 1.2 2.4 0.2 2.1 1.8 0.2 0.0 0.0 0.0 0.0 0.0 0.0 0.0 0.0 0.0 0.0 0.0 0.0 0.0 0.0 0.0 0.0 0.0 0.0 0.0 0.0 0.0 0.0 0.0 0.0 0.0 0.0 0.0 0.0 0.0 0.0 0.0
0.0 0.0 0.0 0.0 2.2 2.1 2.3 3.1 3.9 4.0 2.9 3.8 5.1 4.4 4.2 3.2 2.8 3.2 3.7 4.7 4.6 1.9 0.5 0.1 0.1 0.0 0.0 0.0 0.0 0.0 0.0 0.0 0.0 0.0 0.0 0.0 0.0 0.0 0.0 0.0 0.0 0.0 0.0 0.0 0.0 0.0 0.0 0.0 0.0 0.0 0.0 0.0 0.0 0.0
0.0 0.0 0.7 0.9 1.4 0.6 1.9 2.2 2.5 3.2 3.4 4.1 4.5 4.0 4.5 4.3 4.8 4.8 5.4 4.6 2.5 1.4 0.8 0.9 0.5 0.3 0.0 0.0 0.0 0.0 0.0 0.0 0.0 0.0 0.0 0.0 0.0 0.0 0.0 0.0 0.0 0.0 0.0 0.0 0.0 0.0 0.0 0.0 0.0 0.0 0.0 0.0 0.0 0.0
0.0 0.0 0.0 0.0 0.5 1.1 1.1 1.9 1.6 2.0 2.6 3.0 3.6 3.3 2.7 3.5 4.4 4.3 2.6 1.1 1.5 1.5 1.0 1.1 0.9 0.6 0.2 0.0 0.0 0.0 0.0 0.0 0.0 0.0 0.0 0.0 0.0 0.0 0.0 0.0 0.0 0.0 0.0 0.0 0.0 0.0 0.0 0.0 0.0 0.0 0.0 0.0 0.0 0.0
0.0 0.0 0.0 0.0 0.0 0.1 0.4 1.2 1.4 1.1 1.7 2.6 3.1 3.2 3.1 3.4 3.8 2.6 1.6 1.4 2.2 2.6 2.1 1.2 0.5 0.2 0.1 0.1 0.1 0.2 0.0 0.0 0.0 0.0 0.0 0.0 0.0 0.0 0.0 0.0 0.0 0.0 0.0 0.0 0.0 0.0 0.0 0.0 0.0 0.0 0.0 0.0 0.0 0.0
0.0 0.0 0.0 0.0 0.0 0.0 0.0 0.5 1.1 1.6 1.8 2.3 2.6 2.8 3.0 2.9 2.5 2.2 1.3 1.7 2.7 3.4 3.2 2.1 1.0 0.4 0.2 0.1 0.1 0.2 0.1 0.0 0.0 0.0 0.0 0.0 0.0 0.0 0.0 0.0 0.0 0.0 0.0 0.0 0.0 0.0 0.0 0.0 0.0 0.0 0.0 0.0 0.0 0.0
0.0 0.0 0.0 0.0 0.0 0.0 0.0 0.0 0.0 0.0 0.6 1.3 1.5 1.7 1.7 1.9 2.1 1.1 1.1 1.9 2.8 3.3 3.4 3.2 1.9 0.6 0.3 0.1 0.1 0.0 0.0 0.0 0.0 0.0 0.0 0.0 0.0 0.0 0.0 0.0 0.0 0.0 0.0 0.0 0.0 0.0 0.0 0.0 0.0 0.0 0.0 0.0 0.0 0.0
0.0 0.0 0.0 0.0 0.0 0.0 0.0 0.0 0.0 0.0 0.0 0.1 0.9 0.9 0.9 0.8 0.6 0.7 1.1 1.9 2.8 3.1 3.3 3.2 2.6 1.2 0.5 0.3 0.1 0.0 0.0 0.0 0.0 0.0 0.0 0.0 0.0 0.0 0.0 0.0 0.0 0.0 0.0 0.0 0.0 0.0 0.0 0.0 0.0 0.0 0.0 0.0 0.0 0.0
0.0 0.0 0.0 0.0 0.0 0.0 0.0 0.0 0.0 0.0 0.0 0.0 0.0 0.3 0.2 0.3 0.5 0.8 1.2 1.7 2.3 2.7 2.8 2.7 2.6 2.1 1.5 1.0 0.7 0.4 0.0 0.0 0.0 0.0 0.0 0.0 0.0 0.1 0.0 0.0 0.0 0.0 0.0 0.0 0.0 0.0 0.0 0.0 0.0 0.0 0.0 0.0 0.0 0.0
0.0 0.0 0.0 0.0 0.0 0.0 0.0 0.0 0.0 0.0 0.0 0.0 0.0 0.0 0.0 0.2 0.5 0.8 1.2 1.6 2.0 2.3 2.5 2.5 2.3 2.0 1.6 1.2 1.1 0.8 0.4 0.2 0.1 0.0 0.0 0.0 0.0 0.0 0.0 0.0 0.0 0.0 0.0 0.0 0.0 0.0 0.0 0.0 0.0 0.0 0.0 0.0 0.0 0.0
0.0 0.0 0.0 0.0 0.0 0.0 0.0 0.1 0.1 0.0 0.0 0.0 0.0 0.0 0.0 0.0 0.3 0.6 0.9 1.3 1.6 1.8 2.0 2.0 1.8 1.6 1.2 0.9 0.6 0.3 0.1 0.1 0.0 0.0 0.0 0.0 0.0 0.0 0.0 0.0 0.0 0.0 0.0 0.0 0.0 0.0 0.0 0.0 0.0 0.0 0.0 0.0 0.0 0.0
0.0 0.0 0.0 0.0 0.0 0.1 0.2 0.1 0.1 0.0 0.0 0.0 0.0 0.0 0.1 0.1 0.1 0.2 0.4 0.7 0.9 1.1 1.1 1.1 0.9 0.9 0.6 0.5 0.2 0.1 0.1 0.1 0.0 0.0 0.0 0.0 0.0 0.0 0.0 0.0 0.0 0.0 0.0 0.0 0.0 0.0 0.0 0.0 0.0 0.0 0.0 0.0 0.0 0.0
0.5 0.4 0.4 0.2 0.0 0.0 0.1 0.0 0.0 0.0 0.0 0.0 0.0 0.0 0.0 0.1 0.1 0.1 0.1 0.3 0.4 0.5 0.5 0.5 0.5 0.4 0.3 0.2 0.2 0.3 0.3 0.2 0.2 0.1 0.1 0.0 0.1 0.0 0.0 0.0 0.0 0.0 0.0 0.0 0.0 0.0 0.0 0.0 0.0 0.0 0.0 0.0 0.0 0.0

GFSWCAN_prec_snow_027.txt.gz
Snowfall_Accumulation
0.0 0.0 0.0 0.0 0.0 0.0 0.0 0.0 0.0 0.0 0.0 0.0 0.0 0.0 0.0 0.0 0.0 0.0 0.0 0.0 0.0 0.0 0.0 0.0 0.0 0.0 0.0 0.0 0.0 0.0 0.0 0.0 0.0 0.0 0.0 0.0 0.0 0.0 0.0 0.0 0.0 0.0 0.0 0.0 0.0 0.1 0.0 0.0 0.0 0.0 0.0 0.0 0.0 0.0
0.0 0.0 0.0 0.0 0.0 0.0 0.0 0.0 0.0 0.0 0.0 0.0 0.0 0.0 0.0 0.0 0.0 0.0 0.0 0.0 0.0 0.0 0.0 0.0 0.0 0.0 0.0 0.0 0.0 0.0 0.0 0.0 0.0 0.0 0.0 0.0 0.0 0.0 0.0 0.0 0.0 0.0 0.0 0.0 0.0 0.0 0.0 0.0 0.0 0.0 0.0 0.0 0.0 0.0
0.0 0.0 0.0 0.0 0.0 0.0 0.0 0.0 0.0 0.0 0.0 0.0 0.0 0.0 0.0 0.0 0.0 0.0 0.0 0.0 0.0 0.0 0.0 0.0 0.0 0.0 0.0 0.0 0.0 0.0 0.0 0.0 0.0 0.0 0.0 0.0 0.0 0.0 0.0 0.0 0.0 0.0 0.0 0.0 0.0 0.0 0.0 0.0 0.0 0.0 0.0 0.0 0.0 0.0
0.0 0.0 0.0 0.0 0.0 0.0 0.0 0.0 0.0 0.0 0.0 0.0 0.0 0.0 0.0 0.0 0.0 0.0 0.0 0.0 0.0 0.0 0.0 0.0 0.0 0.0 0.0 0.0 0.0 0.0 0.0 0.0 0.0 0.0 0.0 0.0 0.0 0.0 0.0 0.0 0.0 0.0 0.0 0.0 0.0 0.0 0.0 0.0 0.0 0.0 0.0 0.0 0.0 0.0
0.0 0.0 0.0 0.0 0.0 0.0 0.0 0.0 0.0 0.0 0.0 0.0 0.0 0.0 0.0 0.0 0.0 0.0 0.0 0.0 0.0 0.0 0.0 0.0 0.0 0.0 0.0 0.0 0.0 0.0 0.0 0.0 0.0 0.0 0.0 0.0 0.0 0.0 0.0 0.0 0.0 0.0 0.0 0.0 0.0 0.0 0.0 0.0 0.0 0.0 0.0 0.0 0.0 0.0
0.0 0.0 0.0 0.0 0.0 0.0 0.0 0.0 0.0 0.0 0.0 0.0 0.0 0.0 0.0 0.0 0.0 0.0 0.0 0.0 0.0 0.0 0.0 0.0 0.0 0.0 0.0 0.0 0.0 0.0 0.0 0.0 0.0 0.0 0.0 0.0 0.0 0.0 0.0 0.0 0.0 0.0 0.0 0.0 0.0 0.0 0.0 0.0 0.0 0.0 0.0 0.0 0.0 0.0
0.0 0.0 0.0 0.0 0.0 0.0 0.0 0.0 0.0 0.0 0.0 0.0 0.0 0.0 0.0 0.0 0.0 0.0 0.0 0.0 0.0 0.0 0.0 0.0 0.0 0.0 0.0 0.0 0.0 0.0 0.0 0.0 0.0 0.0 0.0 0.0 0.0 0.0 0.0 0.0 0.0 0.0 0.0 0.0 0.0 0.0 0.0 0.0 0.0 0.0 0.0 0.0 0.0 0.0
0.0 0.0 0.0 0.0 0.0 0.0 0.0 0.0 0.0 0.0 0.0 0.0 0.0 0.0 0.0 0.0 0.0 0.0 0.0 0.0 0.0 0.0 0.0 0.0 0.0 0.0 0.0 0.0 0.0 0.0 0.0 0.0 0.0 0.0 0.0 0.0 0.0 0.0 0.0 0.0 0.0 0.0 0.0 0.0 0.0 0.0 0.0 0.0 0.0 0.0 0.0 0.0 0.0 0.0
0.0 0.0 0.0 0.0 0.0 0.0 0.0 0.0 0.0 0.0 0.0 0.0 0.0 0.0 0.0 0.0 0.0 0.0 0.0 0.0 0.0 0.0 0.0 0.0 0.0 0.0 0.0 0.0 0.0 0.0 0.0 0.0 0.0 0.0 0.0 0.0 0.0 0.0 0.0 0.0 0.0 0.0 0.0 0.0 0.0 0.0 0.0 0.0 0.0 0.0 0.0 0.0 0.0 0.0
0.0 0.0 0.0 0.0 0.0 0.0 0.0 0.0 0.0 0.0 0.0 0.0 0.0 0.0 0.0 0.0 0.0 0.0 0.0 0.0 0.0 0.0 0.0 0.0 0.0 0.0 0.0 0.0 0.0 0.0 0.0 0.0 0.0 0.0 0.0 0.0 0.0 0.0 0.0 0.0 0.0 0.0 0.0 0.0 0.0 0.0 0.0 0.0 0.0 0.0 0.0 0.0 0.0 0.0
0.0 0.0 0.0 0.0 0.0 0.0 0.0 0.0 0.0 0.0 0.0 0.0 1.8 0.4 0.0 0.0 0.0 0.0 0.0 0.0 0.0 0.0 0.0 0.0 0.0 0.0 0.0 0.0 0.0 0.0 0.0 0.0 0.0 0.0 0.0 0.0 0.0 0.0 0.0 0.0 0.0 0.0 0.0 0.0 0.0 0.0 0.0 0.0 0.0 0.0 0.0 0.0 0.0 0.0
0.0 0.0 0.0 0.0 0.0 0.0 0.0 0.0 0.0 0.0 7.2 0.0 0.0 0.0 0.0 0.0 0.0 0.0 0.0 0.0 0.0 0.0 0.0 0.0 0.0 0.0 0.0 0.0 0.0 0.0 0.0 0.0 0.0 0.0 0.0 0.0 0.0 0.0 0.0 0.0 0.0 0.0 0.0 0.0 0.0 0.0 0.0 0.0 0.0 0.0 0.0 0.0 0.0 0.0
0.0 0.0 0.0 0.0 0.0 0.0 0.0 0.0 0.0 0.0 0.0 0.0 5.5 10.3 7.9 4.3 2.5 0.0 0.2 0.1 0.0 0.0 0.0 0.0 0.0 0.0 0.0 0.0 0.0 0.0 0.0 0.0 0.0 0.0 0.0 0.0 0.0 0.0 0.0 0.0 0.0 0.0 0.0 0.0 0.0 0.0 0.0 0.0 0.0 0.0 0.0 0.0 0.0 0.0
0.0 0.0 0.0 0.0 0.0 0.0 0.0 0.0 0.0 0.0 7.1 4.5 17.8 14.8 4.9 2.8 0.0 0.0 0.0 0.0 0.0 0.0 0.0 0.0 0.0 0.0 0.0 0.0 0.0 0.0 0.0 0.0 0.0 0.0 0.0 0.0 0.0 0.0 0.0 0.0 0.0 0.0 0.0 0.0 0.0 0.0 0.0 0.0 0.0 0.0 0.0 0.0 0.0 0.0
0.0 0.0 0.0 0.0 0.0 0.0 0.0 0.0 0.0 0.0 6.3 16.2 8.6 5.7 2.0 0.3 0.0 0.0 0.0 0.0 0.0 0.0 0.0 0.0 0.0 0.0 0.0 0.0 0.0 0.0 0.2 0.0 0.0 0.0 0.0 0.0 0.0 0.0 0.0 0.0 0.0 0.0 0.0 0.0 0.0 0.0 0.0 0.0 0.0 0.0 0.0 0.0 0.0 0.0
0.0 0.0 0.0 0.0 0.0 0.0 0.0 0.0 0.0 0.0 18.9 14.8 7.5 3.3 0.5 0.0 0.0 0.0 0.0 0.0 0.0 0.0 0.0 0.0 0.0 0.0 0.0 0.0 0.0 0.0 0.0 0.0 0.0 0.0 0.0 0.0 0.0 0.0 0.0 0.0 0.0 0.0 0.0 0.0 0.0 0.0 0.0 0.0 0.0 0.0 0.0 0.0 0.0 0.0
0.0 0.0 0.0 0.0 0.0 0.0 0.0 3.7 7.1 16.5 19.3 14.4 4.0 0.1 0.0 0.0 0.0 0.0 0.0 0.0 0.0 0.0 0.0 0.0 0.0 0.0 0.0 0.0 0.0 0.0 0.0 0.0 0.0 0.0 0.0 0.0 0.0 0.0 0.0 0.0 0.0 0.0 0.0 0.0 0.0 0.0 0.0 0.0 0.0 0.0 0.0 0.0 0.0 0.0
0.0 0.0 0.0 0.0 0.0 0.0 0.0 12.7 17.3 17.1 14.1 7.2 0.5 0.1 0.1 0.0 0.0 0.0 0.0 0.0 0.0 0.0 0.0 0.0 0.0 0.0 0.0 0.0 0.0 0.0 0.0 0.0 0.0 0.0 0.0 0.0 0.0 0.0 0.0 0.0 0.0 0.0 0.0 0.0 0.0 0.0 0.0 0.0 0.0 0.0 0.0 0.0 0.0 0.0
0.0 0.0 0.0 0.0 0.0 3.0 6.8 9.4 11.5 10.6 6.7 2.5 0.2 0.2 0.2 0.1 0.0 0.0 0.0 0.0 0.0 0.0 0.0 0.0 0.0 0.0 0.0 0.0 0.0 0.0 0.0 0.0 0.0 0.0 0.0 0.0 0.0 0.0 0.0 0.0 0.0 0.0 0.0 0.0 0.0 0.0 0.0 0.0 0.0 0.0 0.0 0.0 0.0 0.0
0.0 0.0 0.0 0.0 0.0 3.4 4.5 7.0 5.0 6.2 4.0 2.8 1.4 0.8 0.7 0.4 0.2 0.4 0.2 0.1 0.0 0.0 0.0 0.0 0.0 0.0 0.0 0.0 0.0 0.0 0.0 0.0 0.0 0.0 0.0 0.0 0.0 0.0 0.0 0.0 0.0 0.0 0.0 0.0 0.0 0.0 0.0 0.0 0.0 0.0 0.0 0.0 0.0 0.0
0.0 0.0 0.0 0.0 2.0 3.0 4.1 3.7 5.4 5.0 4.0 3.3 4.2 2.8 2.7 1.6 1.4 1.6 3.3 0.7 2.4 2.2 0.4 0.0 0.0 0.0 0.0 0.0 0.0 0.0 0.0 0.0 0.0 0.0 0.0 0.0 0.0 0.0 0.0 0.0 0.0 0.0 0.0 0.0 0.0 0.0 0.0 0.0 0.0 0.0 0.0 0.0 0.0 0.0
0.0 0.0 0.0 0.0 2.2 2.1 2.3 3.1 3.9 4.0 2.9 3.8 5.1 5.1 4.9 4.2 4.9 5.3 5.7 6.8 6.2 2.4 0.6 0.1 0.1 0.0 0.0 0.0 0.0 0.0 0.0 0.0 0.0 0.0 0.0 0.0 0.0 0.0 0.0 0.0 0.0 0.0 0.0 0.0 0.0 0.0 0.0 0.0 0.0 0.0 0.0 0.0 0.0 0.0
0.0 0.0 0.7 0.9 1.4 0.6 1.9 2.2 2.5 3.2 3.4 4.1 4.5 4.7 5.7 5.2 6.7 7.8 8.9 7.1 3.9 2.0 1.2 1.1 0.6 0.3 0.0 0.0 0.0 0.0 0.0 0.0 0.0 0.0 0.0 0.0 0.0 0.0 0.0 0.0 0.0 0.0 0.0 0.0 0.0 0.0 0.0 0.0 0.0 0.0 0.0 0.0 0.0 0.0
0.0 0.0 0.0 0.0 0.5 1.1 1.1 1.9 1.6 2.0 2.6 3.0 3.6 3.8 3.4 5.1 5.5 6.2 4.7 2.3 2.2 2.0 1.6 1.9 1.4 0.6 0.2 0.0 0.0 0.0 0.0 0.0 0.0 0.0 0.0 0.0 0.0 0.0 0.0 0.0 0.0 0.0 0.0 0.0 0.0 0.0 0.0 0.0 0.0 0.0 0.0 0.0 0.0 0.0
0.0 0.0 0.0 0.0 0.0 0.1 0.4 1.2 1.4 1.1 1.7 2.6 3.1 3.2 3.6 4.2 5.4 4.1 2.3 1.9 3.0 3.6 2.9 2.0 1.3 0.9 0.6 0.3 0.1 0.2 0.0 0.0 0.0 0.0 0.0 0.0 0.0 0.0 0.0 0.0 0.0 0.0 0.0 0.0 0.0 0.0 0.0 0.0 0.0 0.0 0.0 0.0 0.0 0.0
0.0 0.0 0.0 0.0 0.0 0.0 0.0 0.5 1.1 1.6 1.8 2.3 2.7 2.8 3.3 3.5 3.0 2.8 1.8 2.1 3.3 4.2 4.3 3.3 2.0 1.4 1.0 0.8 0.4 0.5 0.2 0.0 0.0 0.0 0.5 0.3 0.2 0.0 0.0 0.0 0.0 0.0 0.0 0.0 0.0 0.0 0.0 0.0 0.0 0.0 0.0 0.0 0.0 0.0
0.0 0.0 0.0 0.0 0.0 0.0 0.0 0.0 0.0 0.0 0.6 1.3 1.5 1.7 1.8 2.2 2.4 1.3 1.2 2.1 3.2 3.9 4.3 4.3 3.3 1.9 1.6 1.4 1.3 1.2 1.2 0.9 0.9 0.6 1.1 1.3 1.1 0.6 0.2 0.1 0.0 0.0 0.0 0.0 0.0 0.0 0.0 0.0 0.0 0.0 0.0 0.0 0.0 0.0
0.0 0.0 0.0 0.0 0.0 0.0 0.0 0.0 0.0 0.0 0.0 0.1 0.9 0.9 1.0 1.0 0.6 0.7 1.3 1.9 3.2 3.8 4.2 4.5 4.1 2.8 2.0 1.8 1.7 1.6 1.7 1.9 1.9 1.4 1.1 1.1 0.9 0.4 0.1 0.0 0.0 0.0 0.0 0.0 0.0 0.0 0.0 0.0 0.0 0.0 0.0 0.0 0.0 0.0
0.0 0.0 0.0 0.0 0.0 0.0 0.0 0.0 0.0 0.0 0.0 0.0 0.0 0.3 0.2 0.3 0.5 0.8 1.2 2.1 2.9 3.4 3.8 4.0 4.2 3.7 3.2 2.8 2.6 2.4 1.9 1.6 1.1 0.9 0.5 0.5 0.4 0.3 0.0 0.0 0.0 0.1 0.0 0.0 0.0 0.0 0.0 0.0 0.0 0.0 0.0 0.0 0.0 0.0
0.0 0.0 0.0 0.0 0.0 0.0 0.0 0.0 0.0 0.0 0.0 0.0 0.0 0.0 0.0 0.2 0.5 0.8 1.2 1.6 2.5 3.1 3.7 4.1 4.1 3.9 3.6 3.1 3.1 3.0 2.9 2.7 2.2 1.2 0.8 0.7 0.2 0.7 0.7 0.6 0.3 0.1 0.0 0.0 0.0 0.0 0.0 0.0 0.0 0.0 0.0 0.0 0.0 0.0
0.0 0.0 0.0 0.0 0.0 0.0 0.0 0.1 0.1 0.0 0.0 0.0 0.0 0.0 0.0 0.0 0.3 0.6 1.0 1.5 2.0 2.7 3.2 3.5 3.7 3.9 3.7 3.5 3.1 2.6 2.3 2.3 2.0 1.8 1.4 1.1 0.9 0.8 0.5 0.2 0.0 0.0 0.0 0.0 0.0 0.0 0.0 0.0 0.0 0.0 0.0 0.0 0.0 0.0
0.0 0.0 0.0 0.0 0.0 0.2 0.2 0.1 0.1 0.0 0.0 0.0 0.0 0.0 0.1 0.1 0.1 0.3 0.5 0.9 1.4 1.8 2.3 2.6 2.6 2.6 2.6 2.5 2.2 2.0 1.7 1.4 1.2 1.0 0.9 0.6 0.4 0.2 0.0 0.0 0.0 0.0 0.0 0.0 0.0 0.0 0.0 0.0 0.0 0.0 0.0 0.0 0.0 0.0
0.5 0.4 0.4 0.2 0.0 0.0 0.1 0.0 0.0 0.0 0.0 0.0 0.0 0.0 0.0 0.1 0.1 0.1 0.3 0.6 0.9 1.3 1.5 1.7 2.0 2.0 1.9 1.8 1.6 1.4 1.2 1.0 0.8 0.6 0.5 0.2 0.1 0.0 0.0 0.0 0.0 0.0 0.0 0.0 0.0 0.0 0.0 0.0 0.0 0.0 0.0 0.0 0.0 0.0

GFSWCAN_prec_snow_030.txt.gz
Snowfall_Accumulation
0.0 0.0 0.0 0.0 0.0 0.0 0.0 0.0 0.0 0.0 0.0 0.0 0.0 0.0 0.0 0.0 0.0 0.0 0.0 0.0 0.0 0.0 0.0 0.0 0.0 0.0 0.0 0.0 0.0 0.0 0.0 0.0 0.0 0.0 0.0 0.0 0.0 0.0 0.0 0.0 0.0 0.0 0.0 0.0 0.0 0.1 0.0 0.0 0.0 0.0 0.0 0.0 0.0 0.0
0.0 0.0 0.0 0.0 0.0 0.0 0.0 0.0 0.0 0.0 0.0 0.0 0.0 0.0 0.0 0.0 0.0 0.0 0.0 0.0 0.0 0.0 0.0 0.0 0.0 0.0 0.0 0.0 0.0 0.0 0.0 0.0 0.0 0.0 0.0 0.0 0.0 0.0 0.0 0.0 0.0 0.0 0.0 0.0 0.0 0.0 0.0 0.0 0.0 0.0 0.0 0.0 0.0 0.0
0.0 0.0 0.0 0.0 0.0 0.0 0.0 0.0 0.0 0.0 0.0 0.0 0.0 0.0 0.0 0.0 0.0 0.0 0.0 0.0 0.0 0.0 0.0 0.0 0.0 0.0 0.0 0.0 0.0 0.0 0.0 0.0 0.0 0.0 0.0 0.0 0.0 0.0 0.0 0.0 0.0 0.0 0.0 0.0 0.0 0.0 0.0 0.0 0.0 0.0 0.0 0.0 0.0 0.0
0.0 0.0 0.0 0.0 0.0 0.0 0.0 0.0 0.0 0.0 0.0 0.0 0.0 0.0 0.0 0.0 0.0 0.0 0.0 0.0 0.0 0.0 0.0 0.0 0.0 0.0 0.0 0.0 0.0 0.0 0.0 0.0 0.0 0.0 0.0 0.0 0.0 0.0 0.0 0.0 0.0 0.0 0.0 0.0 0.0 0.0 0.0 0.0 0.0 0.0 0.0 0.0 0.0 0.0
0.0 0.0 0.0 0.0 0.0 0.0 0.0 0.0 0.0 0.0 0.0 0.0 0.0 0.0 0.0 0.0 0.0 0.0 0.0 0.0 0.0 0.0 0.0 0.0 0.0 0.0 0.0 0.0 0.0 0.0 0.0 0.0 0.0 0.0 0.0 0.0 0.0 0.0 0.0 0.0 0.0 0.0 0.0 0.0 0.0 0.0 0.0 0.0 0.0 0.0 0.0 0.0 0.0 0.0
0.0 0.0 0.0 0.0 0.0 0.0 0.0 0.0 0.0 0.0 0.0 0.0 0.0 0.0 0.0 0.0 0.0 0.0 0.0 0.0 0.0 0.0 0.0 0.0 0.0 0.0 0.0 0.0 0.0 0.0 0.0 0.0 0.0 0.0 0.0 0.0 0.0 0.0 0.0 0.0 0.0 0.0 0.0 0.0 0.0 0.0 0.0 0.0 0.0 0.0 0.0 0.0 0.0 0.0
0.0 0.0 0.0 0.0 0.0 0.0 0.0 0.0 0.0 0.0 0.0 0.0 0.0 0.0 0.0 0.0 0.0 0.0 0.0 0.0 0.0 0.0 0.0 0.0 0.0 0.0 0.0 0.0 0.0 0.0 0.0 0.0 0.0 0.0 0.0 0.0 0.0 0.0 0.0 0.0 0.0 0.0 0.0 0.0 0.0 0.0 0.0 0.0 0.0 0.0 0.0 0.0 0.0 0.0
0.0 0.0 0.0 0.0 0.0 0.0 0.0 0.0 0.0 0.0 0.0 0.0 0.0 0.0 0.0 0.0 0.0 0.0 0.0 0.0 0.0 0.0 0.0 0.0 0.0 0.0 0.0 0.0 0.0 0.0 0.0 0.0 0.0 0.0 0.0 0.0 0.0 0.0 0.0 0.0 0.0 0.0 0.0 0.0 0.0 0.0 0.0 0.0 0.0 0.0 0.0 0.0 0.0 0.0
0.0 0.0 0.0 0.0 0.0 0.0 0.0 0.0 0.0 0.0 0.0 0.0 0.0 0.0 0.0 0.0 0.0 0.0 0.0 0.0 0.0 0.0 0.0 0.0 0.0 0.0 0.0 0.0 0.0 0.0 0.0 0.0 0.0 0.0 0.0 0.0 0.0 0.0 0.0 0.0 0.0 0.0 0.0 0.0 0.0 0.0 0.0 0.0 0.0 0.0 0.0 0.0 0.0 0.0
0.0 0.0 0.0 0.0 0.0 0.0 0.0 0.0 0.0 0.0 0.0 0.0 0.0 0.0 0.0 0.0 0.0 0.0 0.0 0.0 0.0 0.0 0.0 0.0 0.0 0.0 0.0 0.0 0.0 0.0 0.0 0.0 0.0 0.0 0.0 0.0 0.0 0.0 0.0 0.0 0.0 0.0 0.0 0.0 0.0 0.0 0.0 0.0 0.0 0.0 0.0 0.0 0.0 0.0
0.0 0.0 0.0 0.0 0.0 0.0 0.0 0.0 0.0 0.0 0.0 0.0 1.8 0.5 0.0 0.0 0.0 0.0 0.0 0.0 0.0 0.0 0.0 0.0 0.0 0.0 0.0 0.0 0.0 0.0 0.0 0.0 0.0 0.0 0.0 0.0 0.0 0.0 0.0 0.0 0.0 0.0 0.0 0.0 0.0 0.0 0.0 0.0 0.0 0.0 0.0 0.0 0.0 0.0
0.0 0.0 0.0 0.0 0.0 0.0 0.0 0.0 0.0 0.0 7.2 0.0 0.0 0.0 0.0 0.0 0.0 0.0 0.9 0.0 0.0 0.0 0.0 0.0 0.0 0.0 0.0 0.0 0.0 0.0 0.0 0.0 0.0 0.0 0.0 0.0 0.0 0.0 0.0 0.0 0.0 0.0 0.0 0.0 0.0 0.0 0.0 0.0 0.0 0.0 0.0 0.0 0.0 0.0
0.0 0.0 0.0 0.0 0.0 0.0 0.0 0.0 0.0 0.0 0.0 0.0 5.5 11.2 8.9 4.8 3.0 0.0 0.5 0.2 0.0 0.0 0.0 0.0 0.0 0.0 0.0 0.0 0.0 0.0 0.0 0.0 0.0 0.0 0.0 0.0 0.0 0.0 0.0 0.0 0.0 0.0 0.0 0.0 0.0 0.0 0.0 0.0 0.0 0.0 0.0 0.0 0.0 0.0
0.0 0.0 0.0 0.0 0.0 0.0 0.0 0.0 0.0 0.0 7.1 4.5 17.8 15.3 5.4 2.8 0.1 0.1 0.0 0.0 0.0 0.0 0.0 0.0 0.0 0.0 0.0 0.0 0.0 0.0 0.0 0.0 0.0 0.0 0.0 0.0 0.0 0.0 0.0 0.0 0.0 0.0 0.0 0.0 0.0 0.0 0.0 0.0 0.0 0.0 0.0 0.0 0.0 0.0
0.0 0.0 0.0 0.0 0.0 0.0 0.0 0.0 0.0 0.0 6.3 16.2 8.6 5.7 2.4 0.6 0.2 0.1 0.0 0.0 0.0 0.0 0.0 0.0 0.0 0.0 0.0 0.0 0.0 0.0 0.2 0.0 0.0 0.0 0.0 0.0 0.0 0.0 0.0 0.0 0.0 0.0 0.0 0.0 0.0 0.0 0.0 0.0 0.0 0.0 0.0 0.0 0.0 0.0
0.0 0.0 0.0 0.0 0.0 0.0 0.0 0.0 0.0 0.0 18.9 14.8 7.5 3.3 0.5 0.0 0.0 0.0 0.0 0.0 0.0 0.0 0.0 0.0 0.0 0.0 0.0 0.0 0.0 0.0 0.0 0.0 0.0 0.0 0.0 0.0 0.0 0.0 0.0 0.0 0.0 0.0 0.0 0.0 0.0 0.0 0.0 0.0 0.0 0.0 0.0 0.0 0.0 0.0
0.0 0.0 0.0 0.0 0.0 0.0 0.0 3.7 7.1 16.5 19.3 14.4 4.0 0.1 0.0 0.0 0.0 0.2 0.1 0.0 0.0 0.0 0.0 0.0 0.0 0.0 0.0 0.0 0.0 0.0 0.0 0.0 0.0 0.0 0.0 0.0 0.0 0.0 0.0 0.0 0.0 0.0 0.0 0.0 0.0 0.0 0.0 0.0 0.0 0.0 0.0 0.0 0.0 0.0
0.0 0.0 0.0 0.0 0.0 0.0 0.0 12.7 17.3 17.1 14.1 7.2 0.5 0.1 0.1 0.0 0.0 0.0 0.1 0.0 0.0 0.0 0.0 0.0 0.0 0.0 0.0 0.0 0.0 0.0 0.0 0.0 0.0 0.0 0.0 0.0 0.0 0.0 0.0 0.0 0.0 0.0 0.0 0.0 0.0 0.0 0.0 0.0 0.0 0.0 0.0 0.0 0.0 0.0
0.0 0.0 0.0 0.0 0.0 3.0 6.8 9.4 11.5 10.6 6.7 2.5 0.2 0.2 0.2 0.1 0.0 0.0 0.0 0.4 0.0 0.0 0.3 0.2 0.0 0.0 0.0 0.0 0.0 0.0 0.0 0.0 0.0 0.0 0.0 0.0 0.0 0.0 0.0 0.0 0.0 0.0 0.0 0.0 0.0 0.0 0.0 0.0 0.0 0.0 0.0 0.0 0.0 0.0
0.0 0.0 0.0 0.0 0.0 3.4 4.5 7.0 5.0 6.2 4.0 2.8 1.4 0.8 0.7 0.4 0.2 0.4 0.2 0.1 0.6 0.6 1.0 0.7 0.0 0.0 0.0 0.0 0.0 0.0 0.0 0.0 0.0 0.0 0.0 0.0 0.0 0.0 0.0 0.0 0.0 0.0 0.0 0.0 0.0 0.0 0.0 0.0 0.0 0.0 0.0 0.0 0.0 0.0
0.0 0.0 0.0 0.0 2.0 3.0 4.1 3.7 5.4 5.0 4.0 3.3 4.2 2.8 2.7 1.6 1.4 1.6 3.3 1.4 3.9 4.2 1.5 0.5 0.1 0.0 0.0 0.0 0.0 0.0 0.0 0.0 0.0 0.0 0.0 0.0 0.0 0.0 0.0 0.0 0.0 0.0 0.0 0.0 0.0 0.0 0.0 0.0 0.0 0.0 0.0 0.0 0.0 0.0
0.0 0.0 0.0 0.0 2.2 2.1 2.3 3.1 3.9 4.0 2.9 3.8 5.1 5.1 4.9 4.2 4.9 5.5 5.7 8.0 7.8 3.2 1.0 0.4 0.5 0.2 0.0 0.0 0.0 0.0 0.0 0.0 0.0 0.0 0.0 0.0 0.0 0.0 0.0 0.0 0.0 0.0 0.0 0.0 0.0 0.0 0.0 0.0 0.0 0.0 0.0 0.0 0.0 0.0
0.0 0.0 0.7 0.9 1.4 0.6 1.9 2.2 2.5 3.2 3.4 4.1 4.5 4.7 5.7 5.2 6.7 7.8 9.4 7.1 4.5 2.4 1.5 1.4 0.8 0.7 0.3 0.1 0.0 0.0 0.0 0.0 0.0 0.0 0.0 0.0 0.0 0.0 0.0 0.0 0.0 0.0 0.0 0.0 0.0 0.0 0.0 0.0 0.0 0.0 0.0 0.0 0.0 0.0
0.0 0.0 0.0 0.0 0.5 1.1 1.1 1.9 1.6 2.0 2.6 3.0 3.6 3.8 3.4 5.1 5.5 6.2 5.0 2.3 2.2 2.4 1.9 2.1 1.7 0.9 0.5 0.3 0.3 0.1 0.0 0.0 0.0 0.0 0.0 0.0 0.0 0.0 0.0 0.0 0.0 0.0 0.0 0.0 0.0 0.0 0.0 0.0 0.0 0.0 0.0 0.0 0.0 0.0
0.0 0.0 0.0 0.0 0.0 0.1 0.4 1.2 1.4 1.1 1.7 2.6 3.1 3.2 3.6 4.2 5.4 4.1 2.3 1.9 3.0 4.0 3.4 2.4 1.6 1.3 1.0 0.7 0.4 0.4 0.1 0.0 0.0 0.0 0.0 0.0 0.0 0.0 0.0 0.0 0.0 0.0 0.0 0.0 0.0 0.0 0.0 0.0 0.0 0.0 0.0 0.0 0.0 0.0
0.0 0.0 0.0 0.0 0.0 0.0 0.0 0.5 1.1 1.6 1.8 2.3 2.7 2.8 3.3 3.5 3.0 2.8 1.8 2.1 3.3 4.2 4.3 3.7 2.4 1.4 1.5 1.5 1.2 1.3 0.9 0.4 0.1 0.0 0.5 0.3 0.2 0.0 0.0 0.0 0.0 0.0 0.0 0.0 0.0 0.0 0.0 0.0 0.0 0.0 0.0 0.0 0.0 0.0
0.0 0.0 0.0 0.0 0.0 0.0 0.0 0.0 0.0 0.0 0.6 1.3 1.5 1.7 1.8 2.2 2.4 1.3 1.2 2.1 3.2 3.9 4.3 4.3 3.8 2.4 2.1 2.1 2.1 2.1 2.0 1.6 1.2 0.6 1.2 1.3 1.1 0.6 0.5 0.2 0.0 0.0 0.0 0.0 0.0 0.0 0.0 0.0 0.0 0.0 0.0 0.0 0.0 0.0
0.0 0.0 0.0 0.0 0.0 0.0 0.0 0.0 0.0 0.0 0.0 0.1 0.9 0.9 1.0 1.0 0.6 0.7 1.3 1.9 3.2 3.8 4.2 4.5 4.5 3.3 2.6 2.4 2.5 2.6 2.7 2.7 2.5 1.9 1.7 2.0 2.2 2.1 1.5 0.8 0.4 0.3 0.1 0.0 0.0 0.0 0.0 0.0 0.0 0.0 0.0 0.0 0.0 0.0
0.0 0.0 0.0 0.0 0.0 0.0 0.0 0.0 0.0 0.0 0.0 0.0 0.0 0.3 0.2 0.3 0.5 0.8 1.2 2.1 2.9 3.4 3.8 4.0 4.2 4.2 3.7 3.4 3.2 3.2 2.8 2.5 1.7 1.4 0.9 1.0 1.1 1.5 1.3 0.9 0.4 0.3 0.0 0.0 0.0 0.0 0.0 0.0 0.0 0.0 0.0 0.0 0.0 0.0
0.0 0.0 0.0 0.0 0.0 0.0 0.0 0.0 0.0 0.0 0.0 0.0 0.0 0.0 0.0 0.2 0.5 0.8 1.2 1.6 2.5 3.1 3.7 4.1 4.1 4.3 4.1 3.6 3.7 3.6 3.4 3.2 2.8 1.7 1.2 1.0 0.6 1.1 1.3 1.1 0.9 0.1 0.0 0.3 0.1 0.0 0.0 0.0 0.0 0.0 0.0 0.0 0.0 0.0
0.0 0.0 0.0 0.0 0.0 0.0 0.0 0.1 0.1 0.0 0.0 0.0 0.0 0.0 0.0 0.0 0.3 0.6 1.0 1.5 2.0 2.7 3.2 3.5 3.7 4.2 4.1 4.1 3.8 3.3 3.0 3.0 2.8 2.8 2.3 1.8 1.6 1.6 1.5 1.4 1.2 0.8 0.4 0.1 0.0 0.0 0.0 0.0 0.0 0.0 0.0 0.0 0.0 0.0
0.0 0.0 0.0 0.0 0.0 0.2 0.2 0.1 0.1 0.0 0.0 0.0 0.0 0.0 0.1 0.1 0.1 0.3 0.5 0.9 1.4 1.8 2.5 2.8 2.8 3.0 3.1 3.1 3.0 2.9 2.6 2.3 2.1 2.2 2.0 1.7 1.5 1.3 1.1 0.8 0.5 0.2 0.1 0.0 0.0 0.0 0.0 0.0 0.0 0.0 0.0 0.0 0.0 0.0
0.6 0.4 0.4 0.2 0.0 0.0 0.1 0.0 0.0 0.0 0.0 0.0 0.0 0.0 0.0 0.1 0.1 0.1 0.3 0.6 0.9 1.4 1.7 2.1 2.4 2.5 2.5 2.5 2.4 2.5 2.5 2.4 2.2 2.1 2.0 1.6 1.1 0.7 0.3 0.1 0.0 0.0 0.0 0.0 0.0 0.0 0.0 0.0 0.0 0.0 0.0 0.0 0.0 0.0

GFSWCAN_prec_snow_033.txt.gz
Snowfall_Accumulation
0.0 0.0 0.0 0.0 0.0 0.0 0.0 0.0 0.0 0.0 0.0 0.0 0.0 0.0 0.0 0.0 0.0 0.0 0.0 0.0 0.0 0.0 0.0 0.0 0.0 0.0 0.0 0.0 0.0 0.0 0.0 0.0 0.0 0.4 0.1 0.0 0.0 0.0 0.0 0.0 0.0 0.0 0.0 0.0 0.0 0.1 0.0 0.0 0.0 0.0 0.0 0.0 0.0 0.0
0.0 0.0 0.0 0.0 0.0 0.0 0.0 0.0 0.0 0.0 0.0 0.0 0.0 0.0 0.0 0.0 0.0 0.0 0.0 0.0 0.0 0.0 0.0 0.0 0.0 0.0 0.0 0.0 0.0 0.0 0.0 0.0 0.0 0.0 0.0 0.0 0.0 0.0 0.0 0.0 0.0 0.0 0.0 0.0 0.0 0.0 0.0 0.0 0.0 0.0 0.0 0.0 0.0 0.0
0.0 0.0 0.0 0.0 0.0 0.0 0.0 0.0 0.0 0.0 0.0 0.0 0.0 0.0 0.0 0.0 0.0 0.0 0.0 0.0 0.0 0.0 0.0 0.0 0.0 0.0 0.0 0.0 0.0 0.0 0.0 0.0 0.0 0.0 0.0 0.0 0.0 0.0 0.0 0.0 0.0 0.0 0.0 0.0 0.0 0.0 0.0 0.0 0.0 0.0 0.0 0.0 0.0 0.0
0.0 0.0 0.0 0.0 0.0 0.0 0.0 0.0 0.0 0.0 0.0 0.0 0.0 0.0 0.0 0.0 0.0 0.0 0.0 0.0 0.0 0.0 0.0 0.0 0.0 0.0 0.0 0.0 0.0 0.0 0.0 0.0 0.0 0.0 0.0 0.0 0.0 0.0 0.0 0.0 0.0 0.0 0.0 0.0 0.0 0.0 0.0 0.0 0.0 0.0 0.0 0.0 0.0 0.0
0.0 0.0 0.0 0.0 0.0 0.0 0.0 0.0 0.0 0.0 0.0 0.0 0.0 0.0 0.0 0.0 0.0 0.0 0.0 0.0 0.0 0.0 0.0 0.0 0.0 0.0 0.0 0.0 0.0 0.0 0.0 0.0 0.0 0.0 0.0 0.0 0.0 0.0 0.0 0.0 0.0 0.0 0.0 0.0 0.0 0.0 0.0 0.0 0.0 0.0 0.0 0.0 0.0 0.0
0.0 0.0 0.0 0.0 0.0 0.0 0.0 0.0 0.0 0.0 0.0 0.0 0.0 0.0 0.0 0.0 0.0 0.0 0.0 0.0 0.0 0.0 0.0 0.0 0.0 0.0 0.0 0.0 0.0 0.0 0.0 0.0 0.0 0.0 0.0 0.0 0.0 0.0 0.0 0.0 0.0 0.0 0.0 0.0 0.0 0.0 0.0 0.0 0.0 0.0 0.0 0.0 0.0 0.0
0.0 0.0 0.0 0.0 0.0 0.0 0.0 0.0 0.0 0.0 0.0 0.0 0.0 0.0 0.0 0.0 0.0 0.0 0.0 0.0 0.0 0.0 0.0 0.0 0.0 0.0 0.0 0.0 0.0 0.0 0.0 0.0 0.0 0.0 0.0 0.0 0.0 0.0 0.0 0.0 0.0 0.0 0.0 0.0 0.0 0.0 0.0 0.0 0.0 0.0 0.0 0.0 0.0 0.0
0.0 0.0 0.0 0.0 0.0 0.0 0.0 0.0 0.0 0.0 0.0 0.0 0.0 0.0 0.0 0.0 0.0 0.0 0.0 0.0 0.0 0.0 0.0 0.0 0.0 0.0 0.0 0.0 0.0 0.0 0.0 0.0 0.0 0.0 0.0 0.0 0.0 0.0 0.0 0.0 0.0 0.0 0.0 0.0 0.0 0.0 0.0 0.0 0.0 0.0 0.0 0.0 0.0 0.0
0.0 0.0 0.0 0.0 0.0 0.0 0.0 0.0 0.0 0.0 0.0 0.0 0.0 0.0 0.0 0.0 0.0 0.0 0.0 0.0 0.0 0.0 0.0 0.0 0.0 0.0 0.0 0.0 0.0 0.0 0.0 0.0 0.0 0.0 0.0 0.0 0.0 0.0 0.0 0.0 0.0 0.0 0.0 0.0 0.0 0.0 0.0 0.0 0.0 0.0 0.0 0.0 0.0 0.0
0.0 0.0 0.0 0.0 0.0 0.0 0.0 0.0 0.0 0.0 0.0 0.0 0.0 0.0 0.0 0.0 0.0 0.0 0.0 0.0 0.0 0.0 0.0 0.0 0.0 0.0 0.0 0.0 0.0 0.0 0.0 0.0 0.0 0.0 0.0 0.0 0.0 0.0 0.0 0.0 0.0 0.0 0.0 0.0 0.0 0.0 0.0 0.0 0.0 0.0 0.0 0.0 0.0 0.0
0.0 0.0 0.0 0.0 0.0 0.0 0.0 0.0 0.0 0.0 0.0 0.0 1.8 0.5 0.0 0.0 0.0 0.0 0.0 0.0 0.0 0.0 0.0 0.0 0.0 0.0 0.0 0.0 0.0 0.0 0.0 0.0 0.0 0.0 0.0 0.0 0.0 0.0 0.0 0.0 0.0 0.0 0.0 0.0 0.0 0.0 0.0 0.0 0.0 0.0 0.0 0.0 0.0 0.0
0.0 0.0 0.0 0.0 0.0 0.0 0.0 0.0 0.0 0.0 7.2 0.0 0.0 0.0 0.0 0.0 0.0 0.0 0.9 0.0 0.0 0.0 0.0 0.0 0.0 0.0 0.0 0.0 0.0 0.0 0.0 0.0 0.0 0.0 0.0 0.0 0.0 0.0 0.0 0.0 0.0 0.0 0.0 0.0 0.0 0.0 0.0 0.0 0.0 0.0 0.0 0.0 0.0 0.0
0.0 0.0 0.0 0.0 0.0 0.0 0.0 0.0 0.0 0.0 0.0 0.0 5.5 11.2 8.9 5.6 4.1 0.1 0.7 0.2 0.0 0.0 0.0 0.0 0.0 0.0 0.0 0.0 0.0 0.0 0.0 0.0 0.0 0.0 0.0 0.0 0.0 0.0 0.0 0.0 0.0 0.0 0.0 0.0 0.0 0.0 0.0 0.0 0.0 0.0 0.0 0.0 0.0 0.0
0.0 0.0 0.0 0.0 0.0 0.0 0.0 0.0 0.0 0.0 7.1 4.5 17.8 15.3 5.4 2.8 0.5 0.5 0.2 0.0 0.0 0.0 0.0 0.0 0.0 0.0 0.0 0.0 0.0 0.0 0.0 0.0 0.0 0.0 0.0 0.0 0.0 0.0 0.0 0.0 0.0 0.0 0.0 0.0 0.0 0.0 0.0 0.0 0.0 0.0 0.0 0.0 0.0 0.0
0.0 0.0 0.0 0.0 0.0 0.0 0.0 0.0 0.0 0.0 6.3 16.2 8.6 5.7 2.4 0.8 0.2 0.1 0.2 0.0 0.0 0.0 0.0 0.0 0.0 0.0 0.0 0.0 0.0 0.0 0.2 0.0 0.0 0.0 0.0 0.0 0.0 0.0 0.0 0.0 0.0 0.0 0.0 0.0 0.0 0.0 0.0 0.0 0.0 0.0 0.0 0.0 0.0 0.0
0.0 0.0 0.0 0.0 0.0 0.0 0.0 0.0 0.0 0.0 18.9 14.8 7.5 3.3 0.5 0.0 0.0 0.0 0.0 0.0 0.0 0.0 0.0 0.0 0.0 0.0 0.0 0.0 0.0 0.0 0.0 0.0 0.0 0.0 0.0 0.0 0.0 0.0 0.0 0.0 0.0 0.0 0.0 0.0 0.0 0.0 0.0 0.0 0.0 0.0 0.0 0.0 0.0 0.0
0.0 0.0 0.0 0.0 0.0 0.0 0.0 3.7 7.1 16.5 19.3 14.4 4.0 0.1 0.0 0.0 0.0 0.2 0.1 0.0 0.0 0.0 0.0 0.0 0.0 0.0 0.0 0.0 0.0 0.0 0.0 0.0 0.0 0.0 0.0 0.0 0.0 0.0 0.0 0.0 0.0 0.0 0.0 0.0 0.0 0.0 0.0 0.0 0.0 0.0 0.0 0.0 0.0 0.0
0.0 0.0 0.0 0.0 0.0 0.0 0.0 12.7 17.3 17.1 14.1 7.2 0.5 0.1 0.1 0.0 0.0 0.0 0.1 0.0 0.0 0.2 0.2 0.3 0.0 0.0 0.0 0.0 0.0 0.0 0.0 0.0 0.0 0.0 0.0 0.0 0.0 0.0 0.0 0.0 0.0 0.0 0.0 0.0 0.0 0.0 0.0 0.0 0.0 0.0 0.0 0.0 0.0 0.0
0.0 0.0 0.0 0.0 0.0 3.0 6.8 9.4 11.5 10.6 6.7 2.5 0.2 0.2 0.2 0.1 0.0 0.0 0.0 0.4 0.0 0.6 1.3 1.2 0.4 0.0 0.0 0.0 0.0 0.0 0.0 0.0 0.0 0.0 0.0 0.0 0.0 0.0 0.0 0.0 0.0 0.0 0.0 0.0 0.0 0.0 0.0 0.0 0.0 0.0 0.0 0.0 0.0 0.0
0.0 0.0 0.0 0.0 0.0 3.4 4.5 7.0 5.0 6.2 4.0 2.8 1.4 0.8 0.7 0.4 0.2 0.4 0.2 0.1 0.6 1.7 2.4 2.0 0.5 0.1 0.0 0.0 0.0 0.0 0.0 0.0 0.0 0.0 0.0 0.0 0.0 0.0 0.0 0.0 0.0 0.0 0.0 0.0 0.0 0.0 0.0 0.0 0.0 0.0 0.0 0.0 0.0 0.0
0.0 0.0 0.0 0.0 2.0 3.0 4.1 3.7 5.4 5.0 4.0 3.3 4.2 2.8 2.7 1.6 1.4 1.6 3.4 1.5 4.2 5.0 2.3 1.0 0.1 0.0 0.2 0.1 0.0 0.0 0.0 0.0 0.0 0.0 0.0 0.0 0.0 0.0 0.0 0.0 0.0 0.0 0.0 0.0 0.0 0.0 0.0 0.0 0.0 0.0 0.0 0.0 0.0 0.0
0.0 0.0 0.0 0.0 2.2 2.1 2.3 3.1 3.9 4.0 2.9 3.8 5.1 5.2 4.9 4.2 4.9 5.5 5.7 8.0 8.1 3.4 1.1 0.4 0.5 0.6 0.3 0.3 0.2 0.1 0.0 0.0 0.0 0.0 0.0 0.0 0.0 0.0 0.0 0.0 0.0 0.0 0.0 0.0 0.0 0.0 0.0 0.0 0.0 0.0 0.0 0.0 0.0 0.0
0.0 0.0 0.7 0.9 1.4 0.6 1.9 2.2 2.5 3.2 3.4 4.1 4.5 4.7 5.7 5.2 6.7 7.8 9.4 7.1 4.5 2.4 1.5 1.4 1.1 1.3 1.1 0.7 0.4 0.1 0.1 0.0 0.0 0.0 0.0 0.0 0.0 0.0 0.0 0.0 0.0 0.0 0.0 0.0 0.0 0.0 0.0 0.0 0.0 0.0 0.0 0.0 0.0 0.0
0.0 0.0 0.0 0.0 0.5 1.1 1.1 1.9 1.6 2.0 2.6 3.0 3.6 3.8 3.4 5.1 5.5 6.2 5.0 2.3 2.2 2.4 1.9 2.1 1.7 0.9 1.1 1.2 1.4 1.1 0.7 0.3 0.1 0.1 0.1 0.0 0.0 0.0 0.0 0.0 0.0 0.0 0.0 0.0 0.0 0.0 0.0 0.0 0.0 0.0 0.0 0.0 0.0 0.0
0.0 0.0 0.0 0.0 0.0 0.1 0.4 1.2 1.4 1.1 1.7 2.6 3.1 3.2 3.6 4.2 5.4 4.1 2.3 1.9 3.0 4.0 3.4 2.4 1.6 1.3 1.0 1.1 1.0 1.3 1.3 1.1 0.7 0.4 0.2 0.0 0.0 0.0 0.0 0.0 0.0 0.0 0.0 0.0 0.0 0.0 0.0 0.0 0.0 0.0 0.0 0.0 0.0 0.0
0.0 0.0 0.0 0.0 0.0 0.0 0.0 0.5 1.1 1.6 1.8 2.3 2.7 2.8 3.3 3.5 3.0 2.8 1.8 2.1 3.3 4.2 4.3 3.7 2.4 1.4 1.5 1.7 1.5 1.7 1.6 1.2 0.8 0.5 0.8 0.4 0.2 0.0 0.0 0.0 0.0 0.0 0.0 0.0 0.0 0.0 0.0 0.0 0.0 0.0 0.0 0.0 0.0 0.0
0.0 0.0 0.0 0.0 0.0 0.0 0.0 0.0 0.0 0.0 0.6 1.3 1.5 1.7 1.8 2.2 2.4 1.3 1.2 2.1 3.2 3.9 4.3 4.3 3.8 2.4 2.1 2.1 2.3 2.4 2.6 2.5 2.0 1.2 1.6 1.5 1.1 0.6 0.5 0.2 0.0 0.0 0.0 0.0 0.0 0.0 0.0 0.0 0.0 0.0 0.0 0.0 0.0 0.0
0.0 0.0 0.0 0.0 0.0 0.0 0.0 0.0 0.0 0.0 0.0 0.1 0.9 0.9 1.0 1.0 0.6 0.7 1.3 1.9 3.2 3.8 4.2 4.5 4.5 3.3 2.6 2.4 2.7 3.0 3.3 3.6 3.5 2.8 2.3 2.5 2.6 2.4 2.1 1.5 1.3 1.1 0.5 0.1 0.1 0.0 0.0 0.0 0.0 0.0 0.0 0.0 0.0 0.0
0.0 0.0 0.0 0.0 0.0 0.0 0.0 0.0 0.0 0.0 0.0 0.0 0.0 0.3 0.2 0.3 0.5 0.8 1.2 2.1 2.9 3.4 3.8 4.0 4.2 4.2 3.7 3.4 3.5 3.6 3.4 3.3 2.7 2.2 1.4 1.3 1.4 1.9 2.1 2.0 1.6 1.4 0.7 0.3 0.1 0.0 0.0 0.0 0.0 0.0 0.0 0.0 0.0 0.0
0.0 0.0 0.0 0.0 0.0 0.0 0.0 0.0 0.0 0.0 0.0 0.0 0.0 0.0 0.0 0.2 0.5 0.8 1.2 1.6 2.5 3.1 3.7 4.1 4.1 4.3 4.1 3.9 4.1 4.2 4.1 4.0 3.7 2.5 1.8 1.5 1.0 1.6 1.9 2.0 1.9 1.0 0.5 0.5 0.1 0.0 0.0 0.2 0.1 0.0 0.0 0.0 0.0 0.0
0.0 0.0 0.0 0.0 0.0 0.0 0.0 0.1 0.1 0.0 0.0 0.0 0.0 0.0 0.0 0.0 0.3 0.6 1.0 1.5 2.0 2.7 3.2 3.5 3.7 4.2 4.2 4.1 4.2 4.0 3.8 3.9 3.8 3.7 3.1 2.8 2.7 2.7 2.6 2.5 2.1 1.5 0.9 0.6 0.0 0.3 0.2 0.1 0.0 0.0 0.0 0.0 0.0 0.0
0.1 0.0 0.0 0.0 0.0 0.2 0.2 0.1 0.1 0.0 0.0 0.0 0.0 0.0 0.1 0.1 0.1 0.3 0.5 0.9 1.4 1.8 2.5 2.8 2.8 3.0 3.2 3.3 3.4 3.5 3.5 3.3 3.2 3.2 3.0 2.5 2.4 2.4 2.2 1.9 1.6 1.2 1.0 0.9 0.6 0.3 0.1 0.0 0.0 0.0 0.0 0.0 0.0 0.0
0.6 0.4 0.4 0.2 0.0 0.0 0.1 0.0 0.0 0.0 0.0 0.0 0.0 0.0 0.0 0.1 0.1 0.1 0.3 0.6 0.9 1.4 1.7 2.1 2.4 2.7 2.8 2.8 2.9 3.2 3.3 3.5 3.6 3.6 3.6 3.0 2.3 1.9 1.5 1.2 0.9 0.7 0.4 0.2 0.1 0.0 0.0 0.0 0.0 0.0 0.0 0.0 0.0 0.0

GFSWCAN_prec_snow_036.txt.gz
Snowfall_Accumulation
0.0 0.0 0.0 0.0 0.0 0.0 0.0 0.0 0.0 0.0 0.0 0.0 0.0 0.0 0.0 0.0 0.0 0.0 0.0 0.0 0.0 0.0 0.0 0.0 0.0 0.0 0.0 0.0 0.0 0.0 0.0 0.0 0.0 0.9 0.3 0.0 0.0 0.0 0.0 0.0 0.0 0.0 0.0 0.0 0.0 0.1 0.0 0.0 0.0 0.0 0.0 0.0 0.0 0.0
0.0 0.0 0.0 0.0 0.0 0.0 0.0 0.0 0.0 0.0 0.0 0.0 0.0 0.0 0.0 0.0 0.0 0.0 0.0 0.0 0.0 0.0 0.0 0.0 0.0 0.0 0.0 0.0 0.0 0.0 0.0 0.0 0.0 0.0 0.0 0.0 0.0 0.0 0.0 0.0 0.0 0.0 0.0 0.0 0.0 0.0 0.0 0.0 0.0 0.0 0.0 0.0 0.0 0.0
0.0 0.0 0.0 0.0 0.0 0.0 0.0 0.0 0.0 0.0 0.0 0.0 0.0 0.0 0.0 0.0 0.0 0.0 0.0 0.0 0.0 0.0 0.0 0.0 0.0 0.0 0.0 0.0 0.0 0.0 0.0 0.0 0.0 0.0 0.0 0.0 0.0 0.0 0.0 0.0 0.0 0.0 0.0 0.0 0.0 0.0 0.0 0.0 0.0 0.0 0.0 0.0 0.0 0.0
0.0 0.0 0.0 0.0 0.0 0.0 0.0 0.0 0.0 0.0 0.0 0.0 0.0 0.0 0.0 0.0 0.0 0.0 0.0 0.0 0.0 0.0 0.0 0.0 0.0 0.0 0.0 0.0 0.0 0.0 0.0 0.0 0.0 0.0 0.0 0.0 0.0 0.0 0.0 0.0 0.0 0.0 0.0 0.0 0.0 0.0 0.0 0.0 0.0 0.0 0.0 0.0 0.0 0.0
0.0 0.0 0.0 0.0 0.0 0.0 0.0 0.0 0.0 0.0 0.0 0.0 0.0 0.0 0.0 0.0 0.0 0.0 0.0 0.0 0.0 0.0 0.0 0.0 0.0 0.0 0.0 0.0 0.0 0.0 0.0 0.0 0.0 0.0 0.0 0.0 0.0 0.0 0.0 0.0 0.0 0.0 0.0 0.0 0.0 0.0 0.0 0.0 0.0 0.0 0.0 0.0 0.0 0.0
0.0 0.0 0.0 0.0 0.0 0.0 0.0 0.0 0.0 0.0 0.0 0.0 0.0 0.0 0.0 0.0 0.0 0.0 0.0 0.0 0.0 0.0 0.0 0.0 0.0 0.0 0.0 0.0 0.0 0.0 0.0 0.0 0.0 0.0 0.0 0.0 0.0 0.0 0.0 0.0 0.0 0.0 0.0 0.0 0.0 0.0 0.0 0.0 0.0 0.0 0.0 0.0 0.0 0.0
0.0 0.0 0.0 0.0 0.0 0.0 0.0 0.0 0.0 0.0 0.0 0.0 0.0 0.0 0.0 0.0 0.0 0.0 0.0 0.0 0.0 0.0 0.0 0.0 0.0 0.0 0.0 0.0 0.0 0.0 0.0 0.0 0.0 0.0 0.0 0.0 0.0 0.0 0.0 0.0 0.0 0.0 0.0 0.0 0.0 0.0 0.0 0.0 0.0 0.0 0.0 0.0 0.0 0.0
0.0 0.0 0.0 0.0 0.0 0.0 0.0 0.0 0.0 0.0 0.0 0.0 0.0 0.0 0.0 0.0 0.0 0.0 0.0 0.0 0.0 0.0 0.0 0.0 0.0 0.0 0.0 0.0 0.0 0.0 0.0 0.0 0.0 0.0 0.0 0.0 0.0 0.0 0.0 0.0 0.0 0.0 0.0 0.0 0.0 0.0 0.0 0.0 0.0 0.0 0.0 0.0 0.0 0.0
0.0 0.0 0.0 0.0 0.0 0.0 0.0 0.0 0.0 0.0 0.0 0.0 0.0 0.0 0.0 0.0 0.0 0.0 0.0 0.0 0.0 0.0 0.0 0.0 0.0 0.0 0.0 0.0 0.0 0.0 0.0 0.0 0.0 0.0 0.0 0.0 0.0 0.0 0.0 0.0 0.0 0.0 0.0 0.0 0.0 0.0 0.0 0.0 0.0 0.0 0.0 0.0 0.0 0.0
0.0 0.0 0.0 0.0 0.0 0.0 0.0 0.0 0.0 0.0 0.0 0.0 0.0 0.0 0.0 0.0 0.0 0.0 0.0 0.0 0.0 0.0 0.0 0.0 0.0 0.0 0.0 0.0 0.0 0.0 0.0 0.0 0.0 0.0 0.0 0.0 0.0 0.0 0.0 0.0 0.0 0.0 0.0 0.0 0.0 0.0 0.0 0.0 0.0 0.0 0.0 0.0 0.0 0.0
0.0 0.0 0.0 0.0 0.0 0.0 0.0 0.0 0.0 0.0 0.0 0.0 1.8 0.5 0.0 0.0 0.0 0.0 0.0 0.0 0.0 0.0 0.0 0.0 0.0 0.0 0.0 0.0 0.0 0.0 0.0 0.0 0.0 0.0 0.0 0.0 0.0 0.0 0.0 0.0 0.0 0.0 0.0 0.0 0.0 0.0 0.0 0.0 0.0 0.0 0.0 0.0 0.0 0.0
0.0 0.0 0.0 0.0 0.0 0.0 0.0 0.0 0.0 0.0 7.2 0.0 0.0 0.0 0.0 0.0 0.0 0.0 0.9 0.0 0.0 0.0 0.0 0.0 0.0 0.0 0.0 0.0 0.0 0.0 0.0 0.0 0.0 0.0 0.0 0.0 0.0 0.0 0.0 0.0 0.0 0.0 0.0 0.0 0.0 0.0 0.0 0.0 0.0 0.0 0.0 0.0 0.0 0.0
0.0 0.0 0.0 0.0 0.0 0.0 0.0 0.0 0.0 0.0 0.0 0.0 5.5 11.2 8.9 5.6 4.3 0.2 0.7 0.2 0.0 0.0 0.0 0.0 0.0 0.0 0.0 0.0 0.0 0.0 0.0 0.0 0.0 0.0 0.0 0.0 0.0 0.0 0.0 0.0 0.0 0.0 0.0 0.0 0.0 0.0 0.0 0.0 0.0 0.0 0.0 0.0 0.0 0.0
0.0 0.0 0.0 0.0 0.0 0.0 0.0 0.0 0.0 0.0 7.1 4.5 17.8 15.3 5.4 2.8 0.5 0.7 0.4 0.0 0.0 0.0 0.0 0.0 0.0 0.0 0.0 0.0 0.0 0.0 0.0 0.0 0.0 0.0 0.0 0.0 0.0 0.0 0.0 0.0 0.0 0.0 0.0 0.0 0.0 0.0 0.0 0.0 0.0 0.0 0.0 0.0 0.0 0.0
0.0 0.0 0.0 0.0 0.0 0.0 0.0 0.0 0.0 0.0 6.3 16.2 8.6 5.7 2.4 0.8 0.2 0.1 0.2 0.0 0.0 0.0 0.0 0.0 0.0 0.0 0.0 0.0 0.0 0.0 0.2 0.0 0.0 0.0 0.0 0.0 0.0 0.0 0.0 0.0 0.0 0.0 0.0 0.0 0.0 0.0 0.0 0.0 0.0 0.0 0.0 0.0 0.0 0.0
0.0 0.0 0.0 0.0 0.0 0.0 0.0 0.0 0.0 0.0 18.9 14.8 7.5 3.3 0.5 0.0 0.0 0.0 0.0 0.0 0.0 0.0 0.0 0.0 0.0 0.0 0.0 0.0 0.0 0.0 0.0 0.0 0.0 0.0 0.0 0.0 0.0 0.0 0.0 0.0 0.0 0.0 0.0 0.0 0.0 0.0 0.0 0.0 0.0 0.0 0.0 0.0 0.0 0.0
0.0 0.0 0.0 0.0 0.0 0.0 0.0 3.7 7.1 16.5 19.3 14.4 4.0 0.1 0.0 0.0 0.0 0.2 0.1 0.0 0.0 0.0 0.0 0.0 0.5 0.0 0.0 0.0 0.0 0.0 0.0 0.0 0.0 0.0 0.0 0.0 0.0 0.0 0.0 0.0 0.0 0.0 0.0 0.0 0.0 0.0 0.0 0.0 0.0 0.0 0.0 0.0 0.0 0.0
0.0 0.0 0.0 0.0 0.0 0.0 0.0 12.7 17.3 17.1 14.1 7.2 0.5 0.1 0.1 0.0 0.0 0.0 0.1 0.0 0.0 0.2 0.4 0.3 0.6 0.4 0.0 0.0 0.0 0.0 0.0 0.0 0.0 0.0 0.0 0.0 0.0 0.0 0.0 0.0 0.0 0.0 0.0 0.0 0.0 0.0 0.0 0.0 0.0 0.0 0.0 0.0 0.0 0.0
0.0 0.0 0.0 0.0 0.0 3.0 6.8 9.4 11.5 10.6 6.7 2.5 0.2 0.2 0.2 0.1 0.0 0.0 0.0 0.4 0.0 0.6 1.3 1.8 1.2 0.4 0.0 0.0 0.0 0.0 0.0 0.0 0.0 0.0 0.0 0.0 0.0 0.0 0.0 0.0 0.0 0.0 0.0 0.0 0.0 0.0 0.0 0.0 0.0 0.0 0.0 0.0 0.0 0.0
0.0 0.0 0.0 0.0 0.0 3.4 4.5 7.0 5.0 6.2 4.0 2.8 1.4 0.8 0.7 0.4 0.2 0.4 0.2 0.1 0.6 1.8 2.7 2.3 0.5 0.1 0.0 0.1 0.1 0.0 0.0 0.0 0.0 0.0 0.0 0.0 0.0 0.0 0.0 0.0 0.0 0.0 0.0 0.0 0.0 0.0 0.0 0.0 0.0 0.0 0.0 0.0 0.0 0.0
0.0 0.0 0.0 0.0 2.0 3.0 4.1 3.7 5.4 5.0 4.0 3.3 4.2 2.8 2.7 1.6 1.4 1.6 3.4 1.5 4.3 5.2 2.4 1.0 0.1 0.0 0.2 0.1 0.0 0.0 0.1 0.0 0.0 0.0 0.0 0.0 0.0 0.0 0.0 0.0 0.0 0.0 0.0 0.0 0.0 0.0 0.0 0.0 0.0 0.0 0.0 0.0 0.0 0.0
0.0 0.0 0.0 0.0 2.2 2.1 2.3 3.1 3.9 4.0 2.9 3.8 5.1 5.2 4.9 4.2 4.9 5.5 5.7 8.0 8.1 3.4 1.1 0.4 0.5 0.6 0.3 0.3 0.2 0.6 0.0 0.3 0.0 0.0 0.0 0.0 0.0 0.0 0.0 0.0 0.0 0.0 0.0 0.0 0.0 0.0 0.0 0.0 0.0 0.0 0.0 0.0 0.0 0.0
0.0 0.0 0.7 0.9 1.4 0.6 1.9 2.2 2.5 3.3 3.4 4.1 4.5 4.7 5.7 5.2 6.7 7.8 9.4 7.1 4.5 2.4 1.5 1.4 1.1 1.3 1.1 0.7 0.4 0.1 0.1 0.0 0.0 0.2 0.1 0.0 0.0 0.0 0.0 0.0 0.0 0.0 0.0 0.0 0.0 0.0 0.0 0.0 0.0 0.0 0.0 0.0 0.0 0.0
0.0 0.0 0.0 0.0 0.5 1.1 1.1 1.9 1.6 2.0 2.6 3.0 3.6 3.8 3.4 5.1 5.5 6.2 5.0 2.3 2.2 2.4 1.9 2.1 1.7 0.9 1.1 1.2 1.4 1.1 0.7 0.3 0.1 0.1 0.7 0.5 0.1 0.0 0.0 0.0 0.0 0.0 0.0 0.0 0.0 0.0 0.0 0.0 0.0 0.0 0.0 0.0 0.0 0.0
0.0 0.0 0.0 0.0 0.0 0.1 0.4 1.2 1.4 1.1 1.7 2.6 3.1 3.2 3.6 4.2 5.4 4.1 2.3 1.9 3.0 4.0 3.4 2.4 1.6 1.3 1.0 1.1 1.0 1.3 1.3 1.6 1.2 0.4 0.2 1.0 0.7 0.4 0.1 0.0 0.0 0.0 0.0 0.0 0.0 0.0 0.0 0.0 0.0 0.0 0.0 0.0 0.0 0.0
0.0 0.0 0.0 0.0 0.0 0.0 0.0 0.5 1.1 1.6 1.8 2.3 2.7 2.8 3.3 3.5 3.0 2.8 1.8 2.1 3.3 4.2 4.3 3.7 2.4 1.4 1.5 1.7 1.5 1.7 1.6 1.6 1.3 1.0 1.6 1.9 1.3 0.7 0.3 0.0 0.0 0.0 0.0 0.0 0.0 0.0 0.0 0.0 0.0 0.0 0.0 0.0 0.0 0.0
0.0 0.0 0.0 0.0 0.0 0.0 0.0 0.0 0.0 0.0 0.6 1.3 1.5 1.7 1.8 2.2 2.4 1.3 1.2 2.1 3.2 3.9 4.3 4.3 3.8 2.4 2.1 2.1 2.3 2.4 2.6 2.5 2.5 1.2 2.4 2.8 2.5 1.7 1.2 0.3 0.0 0.0 0.0 0.0 0.0 0.2 0.1 0.0 0.0 0.0 0.0 0.0 0.0 0.0
0.0 0.0 0.0 0.0 0.0 0.0 0.0 0.0 0.0 0.0 0.0 0.1 0.9 0.9 1.0 1.0 0.6 0.7 1.3 1.9 3.2 3.8 4.2 4.5 4.5 3.3 2.6 2.4 2.7 3.0 3.3 3.6 3.5 3.3 3.0 3.4 3.5 3.4 2.8 1.9 1.5 1.7 1.4 0.9 0.7 0.3 0.0 0.0 0.0 0.0 0.0 0.0 0.0 0.0
0.0 0.0 0.0 0.0 0.0 0.0 0.0 0.0 0.0 0.0 0.0 0.0 0.0 0.3 0.2 0.3 0.5 0.8 1.2 2.1 2.9 3.4 3.8 4.0 4.2 4.2 3.7 3.4 3.5 3.6 3.4 3.6 3.0 2.5 1.9 1.9 2.2 2.8 3.0 2.9 2.6 2.6 1.9 1.4 1.0 0.3 0.0 0.0 0.0 0.0 0.0 0.0 0.0 0.0
0.0 0.0 0.0 0.0 0.0 0.0 0.0 0.0 0.0 0.0 0.0 0.0 0.0 0.0 0.0 0.2 0.5 0.8 1.2 1.6 2.5 3.1 3.7 4.1 4.1 4.3 4.1 3.9 4.1 4.2 4.1 4.0 4.0 2.9 2.2 2.0 1.6 2.5 3.0 3.1 3.0 2.0 1.6 1.5 1.0 0.7 0.2 0.3 0.3 0.0 0.0 0.0 0.0 0.0
0.0 0.0 0.0 0.0 0.0 0.0 0.0 0.1 0.1 0.0 0.0 0.0 0.0 0.0 0.0 0.0 0.3 0.6 1.0 1.5 2.0 2.7 3.2 3.5 3.7 4.2 4.2 4.1 4.2 4.0 3.8 3.9 4.1 4.2 3.7 3.5 3.6 3.6 3.7 3.6 3.3 2.7 2.2 1.6 0.5 0.6 0.5 0.1 0.0 0.4 0.1 0.0 0.0 0.0
0.1 0.0 0.0 0.0 0.0 0.2 0.2 0.1 0.1 0.0 0.0 0.0 0.0 0.0 0.1 0.1 0.1 0.3 0.5 0.9 1.4 1.8 2.5 2.8 2.8 3.0 3.2 3.3 3.4 3.5 3.5 3.3 3.2 3.8 3.7 3.3 3.1 3.3 3.3 3.1 2.9 2.3 2.0 1.7 1.4 1.1 0.9 0.7 0.5 0.3 0.0 0.0 0.0 0.0
0.6 0.4 0.4 0.2 0.0 0.0 0.1 0.0 0.0 0.0 0.0 0.0 0.0 0.0 0.0 0.1 0.1 0.1 0.3 0.6 0.9 1.4 1.7 2.1 2.4 2.7 2.9 3.0 3.1 3.4 3.7 4.1 4.4 4.5 4.7 4.2 3.5 2.9 2.6 2.4 2.1 1.9 1.6 1.3 1.1 0.9 0.7 0.4 0.1 0.0 0.0 0.0 0.0 0.0

GFSWCAN_prec_snow_039.txt.gz
Snowfall_Accumulation
0.0 0.0 0.0 0.0 0.0 0.0 0.0 0.0 0.0 0.0 0.0 0.0 0.0 0.0 0.0 0.0 0.0 0.0 0.0 0.0 0.0 0.0 0.0 0.0 0.0 0.0 0.0 0.0 0.0 0.0 0.0 0.0 0.0 1.2 0.3 0.0 0.0 0.0 0.0 0.0 0.0 0.0 0.0 0.0 0.2 0.4 0.0 0.0 0.0 0.0 0.0 0.0 0.0 0.0
0.0 0.0 0.0 0.0 0.0 0.0 0.0 0.0 0.0 0.0 0.0 0.0 0.0 0.0 0.0 0.0 0.0 0.0 0.0 0.0 0.0 0.0 0.0 0.0 0.0 0.0 0.0 0.0 0.0 0.0 0.0 0.0 0.0 0.0 0.0 0.0 0.0 0.0 0.0 0.0 0.0 0.0 0.0 0.0 0.0 0.0 0.0 0.0 0.0 0.0 0.0 0.0 0.0 0.0
0.0 0.0 0.0 0.0 0.0 0.0 0.0 0.0 0.0 0.0 0.0 0.0 0.0 0.0 0.0 0.0 0.0 0.0 0.0 0.0 0.0 0.0 0.0 0.0 0.0 0.0 0.0 0.0 0.0 0.0 0.0 0.0 0.0 0.0 0.0 0.0 0.0 0.0 0.0 0.0 0.0 0.0 0.0 0.0 0.0 0.0 0.0 0.0 0.0 0.0 0.0 0.0 0.0 0.0
0.0 0.0 0.0 0.0 0.0 0.0 0.0 0.0 0.0 0.0 0.0 0.0 0.0 0.0 0.0 0.0 0.0 0.0 0.0 0.0 0.0 0.0 0.0 0.0 0.0 0.0 0.0 0.0 0.0 0.0 0.0 0.0 0.0 0.0 0.0 0.0 0.0 0.0 0.0 0.0 0.0 0.0 0.0 0.0 0.0 0.0 0.0 0.0 0.0 0.0 0.0 0.0 0.0 0.0
0.0 0.0 0.0 0.0 0.0 0.0 0.0 0.0 0.0 0.0 0.0 0.0 0.0 0.0 0.0 0.0 0.0 0.0 0.0 0.0 0.0 0.0 0.0 0.0 0.0 0.0 0.0 0.0 0.0 0.0 0.0 0.0 0.0 0.0 0.0 0.0 0.0 0.0 0.0 0.0 0.0 0.0 0.0 0.0 0.0 0.0 0.0 0.0 0.0 0.0 0.0 0.0 0.0 0.0
0.0 0.0 0.0 0.0 0.0 0.0 0.0 0.0 0.0 0.0 0.0 0.0 0.0 0.0 0.0 0.0 0.0 0.0 0.0 0.0 0.0 0.0 0.0 0.0 0.0 0.0 0.0 0.0 0.0 0.0 0.0 0.0 0.0 0.0 0.0 0.0 0.0 0.0 0.0 0.0 0.0 0.0 0.0 0.0 0.0 0.0 0.0 0.0 0.0 0.0 0.0 0.0 0.0 0.0
0.0 0.0 0.0 0.0 0.0 0.0 0.0 0.0 0.0 0.0 0.0 0.0 0.0 0.0 0.0 0.0 0.0 0.0 0.0 0.0 0.0 0.0 0.0 0.0 0.0 0.0 0.0 0.0 0.0 0.0 0.0 0.0 0.0 0.0 0.0 0.0 0.0 0.0 0.0 0.0 0.0 0.0 0.0 0.0 0.0 0.0 0.0 0.0 0.0 0.0 0.0 0.0 0.0 0.0
0.0 0.0 0.0 0.0 0.0 0.0 0.0 0.0 0.0 0.0 0.0 0.0 0.0 0.0 0.0 0.0 0.0 0.0 0.0 0.0 0.0 0.0 0.0 0.0 0.0 0.0 0.0 0.0 0.0 0.0 0.0 0.0 0.0 0.0 0.0 0.0 0.0 0.0 0.0 0.0 0.0 0.0 0.0 0.0 0.0 0.0 0.0 0.0 0.0 0.0 0.0 0.0 0.0 0.0
0.0 0.0 0.0 0.0 0.0 0.0 0.0 0.0 0.0 0.0 0.0 0.0 0.0 0.0 0.0 0.0 0.0 0.0 0.0 0.0 0.0 0.0 0.0 0.0 0.0 0.0 0.0 0.0 0.0 0.0 0.0 0.0 0.0 0.0 0.0 0.0 0.0 0.0 0.0 0.0 0.0 0.0 0.0 0.0 0.0 0.0 0.0 0.0 0.0 0.0 0.0 0.0 0.0 0.0
0.0 0.0 0.0 0.0 0.0 0.0 0.0 0.0 0.0 0.0 0.0 0.0 0.0 0.0 0.0 0.0 0.0 0.0 0.0 0.0 0.0 0.0 0.0 0.0 0.0 0.0 0.0 0.0 0.0 0.0 0.0 0.0 0.5 0.0 0.0 0.0 0.0 0.0 0.0 0.0 0.0 0.0 0.0 0.0 0.0 0.0 0.0 0.0 0.0 0.0 0.0 0.0 0.0 0.0
0.0 0.0 0.0 0.0 0.0 0.0 0.0 0.0 0.0 0.0 0.0 0.0 1.8 0.5 0.0 0.0 0.0 0.0 0.0 0.0 0.0 0.0 0.0 0.0 0.0 0.0 0.0 0.0 0.0 0.0 0.0 0.0 0.0 0.0 0.0 0.0 0.0 0.0 0.0 0.0 0.0 0.0 0.0 0.0 0.0 0.0 0.0 0.0 0.0 0.0 0.0 0.0 0.0 0.0
0.0 0.0 0.0 0.0 0.0 0.0 0.0 0.0 0.0 0.0 7.2 0.0 0.0 0.0 0.0 0.0 0.0 0.0 0.9 0.0 0.0 0.0 0.0 0.0 0.0 0.0 0.0 0.0 0.0 0.0 0.0 0.0 0.0 0.0 0.0 0.0 0.0 0.0 0.0 0.0 0.0 0.0 0.0 0.0 0.0 0.0 0.0 0.0 0.0 0.0 0.0 0.0 0.0 0.0
0.0 0.0 0.0 0.0 0.0 0.0 0.0 0.0 0.0 0.0 0.0 0.0 5.5 11.2 8.9 5.6 4.3 0.2 0.7 0.2 0.0 0.0 0.0 0.0 0.0 0.0 0.0 0.0 0.0 0.0 0.0 0.0 0.0 0.0 0.0 0.0 0.0 0.0 0.0 0.0 0.0 0.0 0.0 0.0 0.0 0.0 0.0 0.0 0.0 0.0 0.0 0.0 0.0 0.0
0.0 0.0 0.0 0.0 0.0 0.0 0.0 0.0 0.0 0.0 7.1 4.5 17.8 15.3 5.4 2.8 0.5 0.7 0.4 0.0 0.0 0.0 0.0 0.0 0.0 0.0 0.0 0.0 0.0 0.0 0.0 0.0 0.0 0.0 0.0 0.0 0.0 0.0 0.0 0.0 0.0 0.0 0.0 0.0 0.0 0.0 0.0 0.0 0.0 0.0 0.0 0.0 0.0 0.0
0.0 0.0 0.0 0.0 0.0 0.0 0.0 0.0 0.0 0.0 6.3 16.2 8.6 5.7 2.4 0.8 0.2 0.1 0.2 0.0 0.0 0.0 0.0 0.0 0.0 0.0 0.0 0.0 0.0 0.0 0.2 0.0 0.0 0.0 0.0 0.0 0.0 0.0 0.0 0.0 0.0 0.0 0.0 0.0 0.0 0.0 0.0 0.0 0.0 0.0 0.0 0.0 0.0 0.0
0.0 0.0 0.0 0.0 0.0 0.0 0.0 0.0 0.0 0.0 18.9 14.8 7.5 3.3 0.5 0.0 0.0 0.0 0.0 0.0 0.0 0.0 0.0 0.0 0.0 0.0 0.0 0.0 0.0 0.0 0.0 0.0 0.0 0.0 0.0 0.0 0.0 0.0 0.0 0.0 0.0 0.0 0.0 0.0 0.0 0.0 0.0 0.0 0.0 0.0 0.0 0.0 0.0 0.0
0.0 0.0 0.0 0.0 0.0 0.0 0.0 3.7 7.1 16.5 19.3 14.4 4.0 0.1 0.0 0.0 0.0 0.2 0.1 0.0 0.0 0.0 0.0 0.0 0.8 0.0 0.0 0.0 0.0 0.0 0.0 0.0 0.0 0.0 0.0 0.0 0.0 0.0 0.0 0.0 0.0 0.0 0.0 0.0 0.0 0.0 0.0 0.0 0.0 0.0 0.0 0.0 0.0 0.0
0.0 0.0 0.0 0.0 0.0 0.0 0.0 12.7 17.3 17.1 14.1 7.2 0.5 0.1 0.1 0.0 0.0 0.0 0.1 0.0 0.0 0.2 0.4 0.5 0.6 0.8 0.1 0.0 0.0 0.0 0.0 0.0 0.0 0.0 0.0 0.0 0.0 0.0 0.0 0.0 0.0 0.0 0.0 0.0 0.0 0.0 0.0 0.0 0.0 0.0 0.0 0.0 0.0 0.0
0.0 0.0 0.0 0.0 0.0 3.0 6.8 9.4 11.5 10.6 6.7 2.5 0.2 0.2 0.2 0.1 0.0 0.0 0.0 0.4 0.0 0.6 1.3 2.0 1.4 0.5 0.0 0.0 0.0 0.0 0.0 0.0 0.0 0.0 0.0 0.0 0.0 0.0 0.0 0.0 0.0 0.0 0.0 0.0 0.0 0.0 0.0 0.0 0.0 0.0 0.0 0.0 0.0 0.0
0.0 0.0 0.0 0.0 0.0 3.4 4.5 7.0 5.0 6.2 4.0 2.8 1.4 0.8 0.7 0.4 0.2 0.4 0.2 0.1 0.6 1.8 2.7 2.4 0.5 0.1 0.0 0.1 0.2 0.1 0.0 0.0 0.0 0.0 0.0 0.0 0.0 0.0 0.0 0.0 0.0 0.0 0.0 0.0 0.0 0.0 0.0 0.0 0.0 0.0 0.0 0.0 0.0 0.0
0.0 0.0 0.0 0.0 2.0 3.0 4.1 3.7 5.4 5.0 4.0 3.3 4.2 2.8 2.7 1.6 1.4 1.6 3.4 1.5 4.3 5.2 2.4 1.0 0.1 0.0 0.2 0.1 0.0 0.0 0.1 0.0 0.0 0.0 0.0 0.0 0.0 0.0 0.0 0.0 0.0 0.0 0.0 0.0 0.0 0.0 0.0 0.0 0.0 0.0 0.0 0.0 0.0 0.0
0.0 0.0 0.0 0.0 2.2 2.1 2.3 3.1 3.9 4.0 2.9 3.8 5.1 5.2 4.9 4.2 4.9 5.5 5.7 8.0 8.1 3.4 1.1 0.4 0.5 0.6 0.3 0.3 0.2 0.6 0.0 0.3 0.0 0.0 0.0 0.0 0.0 0.0 0.0 0.0 0.0 0.0 0.0 0.0 0.0 0.0 0.0 0.0 0.0 0.0 0.0 0.0 0.0 0.0
0.0 0.0 0.7 0.9 1.4 0.6 1.9 2.2 2.5 3.3 3.4 4.1 4.5 4.7 5.7 5.2 6.7 7.8 9.4 7.1 4.5 2.4 1.5 1.4 1.1 1.3 1.1 0.7 0.4 0.1 0.1 0.0 0.0 0.2 0.1 0.0 0.0 0.0 0.0 0.0 0.0 0.0 0.0 0.0 0.0 0.0 0.0 0.0 0.0 0.0 0.0 0.0 0.0 0.0
0.0 0.0 0.0 0.0 0.5 1.1 1.1 1.9 1.6 2.0 2.6 3.0 3.6 3.8 3.4 5.1 5.5 6.2 5.0 2.3 2.2 2.4 1.9 2.1 1.7 0.9 1.1 1.2 1.4 1.1 0.7 0.3 0.1 0.1 0.7 0.5 0.1 0.0 0.0 0.0 0.0 0.0 0.0 0.0 0.0 0.0 0.0 0.0 0.0 0.0 0.0 0.0 0.0 0.0
0.2 0.1 0.0 0.0 0.0 0.1 0.4 1.2 1.4 1.1 1.7 2.6 3.1 3.2 3.6 4.2 5.4 4.1 2.3 1.9 3.0 4.0 3.4 2.4 1.6 1.3 1.0 1.1 1.0 1.3 1.3 1.6 1.2 0.4 0.2 1.0 0.7 0.4 0.1 0.5 0.2 0.0 0.0 0.0 0.0 0.0 0.0 0.0 0.0 0.0 0.0 0.0 0.0 0.0
0.2 0.0 0.0 0.0 0.0 0.0 0.0 0.5 1.1 1.6 1.8 2.3 2.7 2.8 3.3 3.5 3.0 2.8 1.8 2.1 3.3 4.2 4.3 3.7 2.4 1.4 1.5 1.7 1.5 1.7 1.6 1.6 1.3 1.0 1.6 1.9 1.3 1.3 1.0 0.8 0.8 0.5 0.0 0.0 0.0 0.0 0.0 0.0 0.0 0.0 0.0 0.0 0.0 0.0
0.1 0.0 0.0 0.0 0.0 0.0 0.0 0.0 0.0 0.0 0.6 1.3 1.5 1.7 1.8 2.2 2.4 1.3 1.2 2.1 3.2 3.9 4.3 4.3 3.8 2.4 2.1 2.1 2.3 2.4 2.6 2.5 2.5 1.2 2.4 2.8 2.5 1.7 1.2 1.1 0.6 0.4 0.3 0.1 0.0 0.3 0.3 0.3 0.2 0.1 0.0 0.0 0.0 0.0
0.0 0.0 0.0 0.0 0.0 0.0 0.0 0.0 0.0 0.0 0.0 0.1 0.9 0.9 1.0 1.0 0.6 0.7 1.3 1.9 3.2 3.8 4.2 4.5 4.5 3.3 2.6 2.4 2.7 3.0 3.3 3.6 3.5 3.3 3.0 3.4 3.5 3.4 2.8 3.1 2.8 2.7 2.2 1.5 1.3 1.4 1.2 0.8 0.6 0.3 0.0 0.0 0.0 0.0
0.0 0.0 0.0 0.0 0.0 0.0 0.0 0.0 0.0 0.0 0.0 0.0 0.0 0.3 0.2 0.3 0.5 0.8 1.2 2.1 2.9 3.4 3.8 4.0 4.2 4.2 3.7 3.4 3.5 3.6 3.4 3.6 3.1 2.6 1.9 1.9 2.2 2.8 4.0 4.2 4.2 4.2 3.3 2.5 2.2 1.5 1.1 0.8 0.5 0.2 0.1 0.0 0.0 0.0
0.0 0.0 0.0 0.0 0.0 0.0 0.0 0.0 0.0 0.0 0.0 0.0 0.0 0.0 0.0 0.2 0.5 0.8 1.2 1.6 2.5 3.1 3.7 4.1 4.1 4.3 4.1 3.9 4.1 4.2 4.1 4.0 4.0 3.0 2.3 2.0 1.6 3.1 4.0 4.3 4.3 3.6 3.4 3.1 2.4 2.2 1.6 1.2 0.7 0.2 0.1 0.1 0.0 0.0
0.0 0.0 0.0 0.0 0.0 0.0 0.0 0.1 0.1 0.0 0.0 0.0 0.0 0.0 0.0 0.0 0.3 0.6 1.0 1.5 2.0 2.7 3.2 3.5 3.7 4.2 4.2 4.1 4.2 4.0 3.8 3.9 4.1 4.2 3.8 3.6 3.6 3.6 4.3 4.5 4.3 4.0 3.6 3.1 2.0 1.6 1.1 0.4 0.0 0.4 0.1 0.0 0.4 0.2
0.1 0.0 0.0 0.0 0.0 0.2 0.2 0.1 0.1 0.0 0.0 0.0 0.0 0.0 0.1 0.1 0.1 0.3 0.5 0.9 1.4 1.8 2.5 2.8 2.8 3.0 3.2 3.3 3.4 3.6 3.5 3.3 3.2 3.8 3.7 3.3 3.1 3.3 3.9 3.9 3.9 3.4 3.2 2.9 2.5 2.1 1.8 1.5 1.2 0.9 0.8 0.8 0.5 0.1
0.6 0.4 0.4 0.2 0.0 0.0 0.1 0.0 0.0 0.0 0.0 0.0 0.0 0.0 0.0 0.1 0.1 0.1 0.3 0.6 0.9 1.4 1.7 2.1 2.4 2.7 2.9 3.0 3.1 3.5 3.8 4.2 4.5 4.6 4.9 4.5 3.9 3.5 3.2 3.1 3.0 2.9 2.7 2.6 2.5 2.2 2.0 1.5 1.1 0.9 0.6 0.3 0.1 0.0

GFSWCAN_prec_snow_042.txt.gz
Snowfall_Accumulation
0.0 0.0 0.0 0.0 0.0 0.0 0.0 0.0 0.0 0.0 0.0 0.0 0.0 0.0 0.0 0.0 0.0 0.0 0.0 0.0 0.0 0.0 0.0 0.0 0.0 0.0 0.0 0.0 0.0 0.0 0.0 0.0 0.0 1.2 0.3 0.0 0.0 0.0 0.0 0.0 0.0 0.0 0.0 0.0 0.2 0.5 0.0 0.0 0.0 0.0 0.0 0.0 0.0 0.0
0.0 0.0 0.0 0.0 0.0 0.0 0.0 0.0 0.0 0.0 0.0 0.0 0.0 0.0 0.0 0.0 0.0 0.0 0.0 0.0 0.0 0.0 0.0 0.0 0.0 0.0 0.0 0.0 0.0 0.0 0.0 0.0 0.0 0.0 0.0 0.0 0.0 0.0 0.0 0.0 0.0 0.0 0.0 0.0 0.0 0.0 0.0 0.0 0.0 0.0 0.0 0.0 0.0 0.0
0.0 0.0 0.0 0.0 0.0 0.0 0.0 0.0 0.0 0.0 0.0 0.0 0.0 0.0 0.0 0.0 0.0 0.0 0.0 0.0 0.0 0.0 0.0 0.0 0.0 0.0 0.0 0.0 0.0 0.0 0.0 0.0 0.0 0.0 0.0 0.0 0.0 0.0 0.1 0.0 0.0 0.0 0.0 0.0 0.0 0.0 0.0 0.0 0.0 0.0 0.0 0.0 0.0 0.0
0.0 0.0 0.0 0.0 0.0 0.0 0.0 0.0 0.0 0.0 0.0 0.0 0.0 0.0 0.0 0.0 0.0 0.0 0.0 0.0 0.0 0.0 0.0 0.0 0.0 0.0 0.0 0.0 0.0 0.0 0.0 0.0 0.0 0.0 0.0 0.0 0.0 0.0 0.0 0.0 0.0 0.0 0.0 0.0 0.0 0.0 0.0 0.0 0.0 0.0 0.0 0.0 0.0 0.0
0.0 0.0 0.0 0.0 0.0 0.0 0.0 0.0 0.0 0.0 0.0 0.0 0.0 0.0 0.0 0.0 0.0 0.0 0.0 0.0 0.0 0.0 0.0 0.0 0.0 0.0 0.0 0.0 0.0 0.0 0.0 0.0 0.0 0.0 0.0 0.0 0.0 0.0 0.0 0.0 0.0 0.0 0.0 0.0 0.0 0.0 0.0 0.0 0.0 0.0 0.0 0.0 0.0 0.0
0.0 0.0 0.0 0.0 0.0 0.0 0.0 0.0 0.0 0.0 0.0 0.0 0.0 0.0 0.0 0.0 0.0 0.0 0.0 0.0 0.0 0.0 0.0 0.0 0.0 0.0 0.0 0.0 0.0 0.0 0.0 0.0 0.0 0.0 0.0 0.0 0.0 0.0 0.0 0.0 0.0 0.0 0.0 0.0 0.0 0.0 0.0 0.0 0.0 0.0 0.0 0.0 0.0 0.0
0.0 0.0 0.0 0.0 0.0 0.0 0.0 0.0 0.0 0.0 0.0 0.0 0.0 0.0 0.0 0.0 0.0 0.0 0.0 0.0 0.0 0.0 0.0 0.0 0.0 0.0 0.0 0.0 0.0 0.0 0.0 0.0 0.0 0.0 0.0 0.0 0.0 0.0 0.0 0.0 0.0 0.0 0.0 0.0 0.0 0.0 0.0 0.0 0.0 0.0 0.0 0.0 0.0 0.0
0.0 0.0 0.0 0.0 0.0 0.0 0.0 0.0 0.0 0.0 0.0 0.0 0.0 0.0 0.0 0.0 0.0 0.0 0.0 0.0 0.0 0.0 0.0 0.0 0.0 0.0 0.0 0.0 0.0 0.0 0.0 0.0 0.0 0.0 0.0 0.0 0.0 0.0 0.0 0.0 0.0 0.0 0.0 0.0 0.0 0.0 0.0 0.0 0.0 0.0 0.0 0.0 0.0 0.0
0.0 0.0 0.0 0.0 0.0 0.0 0.0 0.0 0.0 0.0 0.0 0.0 0.0 0.0 0.0 0.0 0.0 0.0 0.0 0.0 0.0 0.0 0.0 0.0 0.0 0.0 0.0 0.0 0.0 0.0 0.0 0.0 0.0 0.0 0.0 0.0 0.0 0.0 0.0 0.0 0.0 0.0 0.0 0.0 0.0 0.0 0.0 0.0 0.0 0.0 0.0 0.0 0.0 0.0
0.0 0.0 0.0 0.0 0.0 0.0 0.0 0.0 0.0 0.0 0.0 0.0 0.0 0.0 0.0 0.0 0.0 0.0 0.0 0.0 0.0 0.0 0.0 0.0 0.0 0.0 0.0 0.0 0.0 0.0 0.0 0.0 1.1 0.0 0.0 0.0 0.0 0.0 0.0 0.0 0.0 0.0 0.0 0.0 0.0 0.0 0.0 0.0 0.0 0.0 0.0 0.0 0.0 0.0
0.0 0.0 0.0 0.0 0.0 0.0 0.0 0.0 0.0 0.0 0.0 0.0 1.8 0.5 0.0 0.0 0.0 0.0 0.0 0.0 0.0 0.0 0.0 0.0 0.0 0.0 0.0 0.0 0.0 0.0 0.0 0.0 0.3 0.1 0.2 0.0 0.0 0.0 0.0 0.0 0.0 0.0 0.0 0.0 0.0 0.0 0.0 0.0 0.0 0.0 0.0 0.0 0.0 0.0
0.0 0.0 0.0 0.0 0.0 0.0 0.0 0.0 0.0 0.0 7.2 0.0 0.0 0.0 0.0 0.0 0.0 0.0 0.9 0.0 0.0 0.0 0.0 0.0 0.0 0.0 0.0 0.0 0.0 0.0 0.0 0.0 0.0 0.0 0.0 0.0 0.0 0.0 0.0 0.0 0.0 0.0 0.0 0.0 0.0 0.0 0.0 0.0 0.0 0.0 0.0 0.0 0.0 0.0
0.0 0.0 0.0 0.0 0.0 0.0 0.0 0.0 0.0 0.0 0.0 0.0 5.5 11.2 8.9 5.6 4.3 0.2 0.7 0.2 0.0 0.0 0.0 0.0 0.0 0.0 0.0 0.0 0.0 0.0 0.0 0.0 0.0 0.0 0.0 0.0 0.0 0.0 0.0 0.0 0.0 0.0 0.0 0.0 0.0 0.0 0.0 0.0 0.0 0.0 0.0 0.0 0.0 0.0
0.0 0.0 0.0 0.0 0.0 0.0 0.0 0.0 0.0 0.0 7.1 4.5 17.8 15.3 5.4 2.8 0.5 0.7 0.4 0.0 0.0 0.0 0.0 0.0 0.0 0.0 0.0 0.0 0.0 0.0 0.0 0.0 0.0 0.0 0.0 0.0 0.0 0.0 0.0 0.0 0.0 0.0 0.0 0.0 0.0 0.0 0.0 0.0 0.0 0.0 0.0 0.0 0.0 0.0
0.0 0.0 0.0 0.0 0.0 0.0 0.0 0.0 0.0 0.0 6.3 16.2 8.6 5.7 2.4 0.8 0.2 0.1 0.2 0.0 0.0 0.0 0.0 0.0 0.0 0.0 0.0 0.0 0.0 0.0 0.2 0.0 0.0 0.0 0.0 0.0 0.0 0.0 0.0 0.0 0.0 0.0 0.0 0.0 0.0 0.0 0.0 0.0 0.0 0.0 0.0 0.0 0.0 0.0
0.0 0.0 0.0 0.0 0.0 0.0 0.0 0.0 0.0 0.0 18.9 14.8 7.5 3.3 0.5 0.0 0.0 0.0 0.0 0.0 0.0 0.0 0.0 0.0 0.0 0.0 0.0 0.0 0.0 0.0 0.0 0.0 0.0 0.0 0.0 0.0 0.0 0.0 0.0 0.0 0.0 0.0 0.0 0.0 0.0 0.0 0.0 0.0 0.0 0.0 0.0 0.0 0.0 0.0
0.0 0.0 0.0 0.0 0.0 0.0 0.0 3.7 7.1 16.5 19.3 14.4 4.0 0.1 0.0 0.0 0.0 0.2 0.1 0.0 0.0 0.0 0.0 0.0 0.8 0.0 0.0 0.0 0.0 0.0 0.0 0.0 0.0 0.0 0.0 0.0 0.0 0.0 0.0 0.0 0.0 0.0 0.0 0.0 0.0 0.0 0.0 0.0 0.0 0.0 0.0 0.0 0.0 0.0
0.0 0.0 0.0 0.0 0.0 0.0 0.0 12.7 17.3 17.1 14.1 7.2 0.5 0.1 0.1 0.0 0.0 0.0 0.1 0.0 0.0 0.2 0.4 0.6 0.6 0.8 0.1 0.0 0.0 0.0 0.0 0.0 0.0 0.0 0.0 0.0 0.0 0.0 0.0 0.0 0.0 0.0 0.0 0.0 0.0 0.0 0.0 0.0 0.0 0.0 0.0 0.0 0.0 0.0
0.0 0.0 0.0 0.0 0.0 3.0 6.8 9.4 11.5 10.6 6.7 2.5 0.2 0.2 0.2 0.1 0.0 0.0 0.0 0.4 0.0 0.6 1.3 2.1 1.5 0.5 0.0 0.0 0.0 0.0 0.0 0.0 0.0 0.0 0.0 0.0 0.0 0.0 0.0 0.0 0.0 0.0 0.0 0.0 0.0 0.0 0.0 0.0 0.0 0.0 0.0 0.0 0.0 0.0
0.0 0.0 0.0 0.0 0.0 3.4 4.5 7.0 5.0 6.2 4.0 2.8 1.4 0.8 0.7 0.4 0.2 0.4 0.2 0.1 0.6 1.8 2.7 2.4 0.5 0.1 0.0 0.1 0.2 0.1 0.0 0.0 0.0 0.0 0.0 0.0 0.0 0.0 0.0 0.0 0.0 0.0 0.0 0.0 0.0 0.0 0.0 0.0 0.0 0.0 0.0 0.0 0.0 0.0
0.0 0.0 0.0 0.0 2.0 3.0 4.1 3.7 5.4 5.0 4.0 3.3 4.2 2.8 2.7 1.6 1.4 1.6 3.4 1.5 4.3 5.2 2.4 1.0 0.1 0.0 0.2 0.1 0.0 0.0 0.1 0.0 0.0 0.0 0.0 0.0 0.0 0.0 0.0 0.0 0.0 0.0 0.0 0.0 0.0 0.0 0.0 0.0 0.0 0.0 0.0 0.0 0.0 0.0
0.1 0.0 0.0 0.0 2.2 2.1 2.3 3.1 3.9 4.0 2.9 3.8 5.1 5.2 4.9 4.2 4.9 5.5 5.7 8.0 8.1 3.4 1.1 0.4 0.5 0.6 0.3 0.3 0.2 0.6 0.0 0.3 0.0 0.0 0.0 0.0 0.0 0.0 0.0 0.0 0.0 0.0 0.0 0.0 0.0 0.0 0.0 0.0 0.0 0.0 0.0 0.0 0.0 0.0
0.0 0.0 0.7 0.9 1.4 0.6 1.9 2.2 2.5 3.3 3.4 4.1 4.5 4.7 5.7 5.2 6.7 7.8 9.4 7.1 4.5 2.4 1.5 1.4 1.1 1.3 1.1 0.7 0.4 0.1 0.1 0.0 0.0 0.2 0.1 0.0 0.0 0.0 0.0 0.0 0.0 0.0 0.0 0.0 0.0 0.0 0.0 0.0 0.0 0.0 0.0 0.0 0.0 0.0
0.0 0.1 0.1 0.1 0.5 1.1 1.1 1.9 1.6 2.0 2.6 3.0 3.6 3.8 3.4 5.1 5.5 6.2 5.0 2.3 2.2 2.4 1.9 2.1 1.7 0.9 1.1 1.2 1.4 1.1 0.7 0.3 0.1 0.1 0.7 0.5 0.1 0.0 0.0 0.0 0.0 0.0 0.0 0.0 0.0 0.0 0.0 0.0 0.0 0.0 0.0 0.0 0.0 0.0
0.6 0.5 0.3 0.1 0.0 0.1 0.4 1.2 1.4 1.1 1.7 2.6 3.1 3.2 3.6 4.2 5.4 4.1 2.3 1.9 3.0 4.0 3.4 2.4 1.6 1.3 1.0 1.1 1.0 1.3 1.3 1.6 1.2 0.4 0.2 1.0 0.7 0.4 0.1 0.5 0.2 0.0 0.0 0.0 0.0 0.0 0.0 0.0 0.0 0.0 0.0 0.0 0.0 0.1
0.5 0.2 0.1 0.0 0.0 0.0 0.0 0.5 1.1 1.6 1.8 2.3 2.7 2.8 3.3 3.5 3.0 2.8 1.8 2.1 3.3 4.2 4.3 3.7 2.4 1.4 1.5 1.7 1.5 1.7 1.6 1.6 1.3 1.0 1.6 1.9 1.3 1.3 1.0 0.9 0.8 0.5 0.0 0.3 0.2 0.1 0.1 0.0 0.0 0.0 0.2 0.0 0.3 0.4
0.3 0.1 0.0 0.0 0.0 0.0 0.0 0.0 0.0 0.0 0.6 1.3 1.5 1.7 1.8 2.2 2.4 1.3 1.2 2.1 3.2 3.9 4.3 4.3 3.8 2.4 2.1 2.1 2.3 2.4 2.6 2.5 2.5 1.2 2.4 2.8 2.5 1.7 1.2 1.1 0.6 0.4 0.3 1.4 1.1 0.9 0.7 0.7 0.6 0.7 0.9 0.9 0.7 0.2
0.0 0.0 0.0 0.0 0.0 0.0 0.0 0.0 0.0 0.0 0.0 0.1 0.9 0.9 1.0 1.0 0.6 0.7 1.3 1.9 3.2 3.8 4.2 4.5 4.5 3.3 2.6 2.4 2.7 3.0 3.3 3.6 3.5 3.3 3.0 3.4 3.5 3.4 2.8 3.1 2.8 2.7 2.2 2.4 2.4 2.3 2.1 1.7 1.6 1.4 1.4 1.3 0.7 0.2
0.0 0.0 0.0 0.0 0.0 0.0 0.0 0.0 0.0 0.0 0.0 0.0 0.0 0.3 0.2 0.3 0.5 0.8 1.2 2.1 2.9 3.4 3.8 4.0 4.2 4.2 3.7 3.4 3.5 3.6 3.4 3.6 3.1 2.6 1.9 1.9 2.2 2.8 4.0 4.2 4.2 4.7 3.9 3.3 3.2 2.7 2.1 1.9 1.8 1.6 1.4 1.2 0.8 0.2
0.0 0.0 0.0 0.0 0.0 0.0 0.0 0.0 0.0 0.0 0.0 0.0 0.0 0.0 0.0 0.2 0.5 0.8 1.2 1.6 2.5 3.1 3.7 4.1 4.1 4.3 4.1 3.9 4.1 4.2 4.1 4.0 4.0 3.0 2.3 2.0 1.6 3.1 4.0 4.3 4.3 3.6 4.1 4.2 3.7 3.8 3.4 3.2 2.7 1.9 1.5 1.2 0.7 0.3
0.0 0.0 0.0 0.0 0.0 0.0 0.0 0.1 0.1 0.0 0.0 0.0 0.0 0.0 0.0 0.0 0.3 0.6 1.0 1.5 2.0 2.7 3.2 3.5 3.7 4.2 4.2 4.1 4.2 4.0 3.8 3.9 4.1 4.2 3.9 3.7 3.6 3.6 4.3 4.5 4.3 4.6 4.7 4.4 3.4 3.1 2.5 1.4 0.7 1.0 0.7 0.4 0.6 0.2
0.1 0.0 0.0 0.0 0.0 0.2 0.2 0.1 0.1 0.0 0.0 0.0 0.0 0.0 0.1 0.1 0.1 0.3 0.5 0.9 1.4 1.8 2.5 2.8 2.8 3.0 3.2 3.3 3.4 3.6 3.6 3.4 3.2 3.8 3.7 3.3 3.1 3.3 3.9 3.9 4.3 4.2 4.3 4.3 3.8 3.2 2.9 2.7 2.6 2.1 1.6 1.3 1.0 0.9
0.6 0.4 0.4 0.2 0.0 0.0 0.1 0.0 0.0 0.0 0.0 0.0 0.0 0.0 0.0 0.1 0.1 0.1 0.3 0.6 0.9 1.4 1.7 2.1 2.4 2.7 2.9 3.0 3.1 3.5 3.8 4.2 4.5 4.7 5.0 4.6 4.1 3.6 3.4 3.5 3.5 3.7 3.5 3.5 3.7 3.7 3.8 3.4 2.8 2.3 2.0 1.6 1.3 0.9

GFSWCAN_prec_snow_045.txt.gz
Snowfall_Accumulation
0.0 0.0 0.0 0.0 0.0 0.0 0.0 0.0 0.0 0.0 0.0 0.0 0.0 0.0 0.0 0.0 0.0 0.0 0.0 0.0 0.0 0.0 0.0 0.0 0.0 0.0 0.0 0.0 0.0 0.0 0.0 0.0 0.0 1.2 0.3 0.0 0.0 0.0 0.0 0.0 0.0 0.0 0.0 0.0 0.3 0.6 0.0 0.0 0.0 0.0 0.0 0.0 0.0 0.0
0.0 0.0 0.0 0.0 0.0 0.0 0.0 0.0 0.0 0.0 0.0 0.0 0.0 0.0 0.0 0.0 0.0 0.0 0.0 0.0 0.0 0.0 0.0 0.0 0.0 0.0 0.0 0.0 0.0 0.0 0.0 0.0 0.0 0.0 0.0 0.0 0.0 0.0 0.0 0.0 0.0 0.0 0.0 0.0 0.0 0.0 0.0 0.0 0.0 0.0 0.0 0.0 0.0 0.0
0.0 0.0 0.0 0.0 0.0 0.0 0.0 0.0 0.0 0.0 0.0 0.0 0.0 0.0 0.0 0.0 0.0 0.0 0.0 0.0 0.0 0.0 0.0 0.0 0.0 0.0 0.0 0.0 0.0 0.0 0.0 0.0 0.0 0.0 0.0 0.0 0.0 0.0 0.1 0.0 0.0 0.0 0.0 0.0 0.0 0.0 0.0 0.0 0.0 0.0 0.0 0.0 0.0 0.0
0.0 0.0 0.0 0.0 0.0 0.0 0.0 0.0 0.0 0.0 0.0 0.0 0.0 0.0 0.0 0.0 0.0 0.0 0.0 0.0 0.0 0.0 0.0 0.0 0.0 0.0 0.0 0.0 0.0 0.0 0.0 0.0 0.0 0.0 0.0 0.0 0.0 0.0 0.0 0.0 0.0 0.0 0.0 0.0 0.0 0.0 0.0 0.0 0.0 0.0 0.0 0.0 0.0 0.0
0.0 0.0 0.0 0.0 0.0 0.0 0.0 0.0 0.0 0.0 0.0 0.0 0.0 0.0 0.0 0.0 0.0 0.0 0.0 0.0 0.0 0.0 0.0 0.0 0.0 0.0 0.0 0.0 0.0 0.0 0.0 0.0 0.0 0.0 0.0 0.0 0.0 0.0 0.0 0.0 0.0 0.0 0.0 0.0 0.0 0.0 0.0 0.0 0.0 0.0 0.0 0.0 0.0 0.0
0.0 0.0 0.0 0.0 0.0 0.0 0.0 0.0 0.0 0.0 0.0 0.0 0.0 0.0 0.0 0.0 0.0 0.0 0.0 0.0 0.0 0.0 0.0 0.0 0.0 0.0 0.0 0.0 0.0 0.0 0.0 0.0 0.0 0.0 0.0 0.0 0.0 0.0 0.0 0.0 0.0 0.0 0.0 0.0 0.0 0.0 0.0 0.0 0.0 0.0 0.0 0.0 0.0 0.0
0.0 0.0 0.0 0.0 0.0 0.0 0.0 0.0 0.0 0.0 0.0 0.0 0.0 0.0 0.0 0.0 0.0 0.0 0.0 0.0 0.0 0.0 0.0 0.0 0.0 0.0 0.0 0.0 0.0 0.0 0.0 0.0 0.0 0.0 0.0 0.0 0.0 0.0 0.0 0.0 0.0 0.0 0.0 0.0 0.0 0.0 0.0 0.0 0.0 0.0 0.0 0.0 0.0 0.0
0.0 0.0 0.0 0.0 0.0 0.0 0.0 0.0 0.0 0.0 0.0 0.0 0.0 0.0 0.0 0.0 0.0 0.0 0.0 0.0 0.0 0.0 0.0 0.0 0.0 0.0 0.0 0.0 0.0 0.0 0.0 0.0 0.0 0.0 0.0 0.0 0.0 0.0 0.0 0.0 0.0 0.0 0.0 0.0 0.0 0.0 0.0 0.0 0.0 0.0 0.0 0.0 0.0 0.0
0.0 0.0 0.0 0.0 0.0 0.0 0.0 0.0 0.0 0.0 0.0 0.0 0.0 0.0 0.0 0.0 0.0 0.0 0.0 0.0 0.0 0.0 0.0 0.0 0.0 0.0 0.0 0.0 0.0 0.0 0.0 0.0 0.0 0.0 0.0 0.0 0.0 0.0 0.0 0.0 0.0 0.0 0.0 0.0 0.0 0.0 0.0 0.0 0.0 0.0 0.0 0.0 0.0 0.0
0.0 0.0 0.0 0.0 0.0 0.0 0.0 0.0 0.0 0.0 0.0 0.0 0.0 0.0 0.0 0.0 0.0 0.0 0.0 0.0 0.0 0.0 0.0 0.0 0.0 0.0 0.0 0.0 0.0 0.0 0.0 0.0 1.8 0.0 0.0 0.0 0.0 0.0 0.0 0.0 0.0 0.0 0.0 0.0 0.0 0.0 0.0 0.0 0.0 0.0 0.0 0.0 0.0 0.0
0.0 0.0 0.0 0.0 0.0 0.0 0.0 0.0 0.0 0.0 0.0 0.0 1.8 0.5 0.0 0.0 0.0 0.0 0.0 0.0 0.0 0.0 0.0 0.0 0.0 0.0 0.0 0.0 0.0 0.0 0.0 0.0 0.7 0.8 0.8 1.0 0.6 0.0 0.0 0.0 0.0 0.0 0.0 0.0 0.0 0.0 0.0 0.0 0.0 0.0 0.0 0.0 0.0 0.0
0.0 0.0 0.0 0.0 0.0 0.0 0.0 0.0 0.0 0.0 7.2 0.0 0.0 0.0 0.0 0.0 0.0 0.0 0.9 0.0 0.0 0.0 0.0 0.0 0.0 0.0 0.0 0.0 0.0 0.0 0.0 0.0 0.1 0.0 0.3 0.1 0.1 0.0 0.0 0.0 0.0 0.0 0.0 0.0 0.0 0.0 0.0 0.0 0.0 0.0 0.0 0.0 0.0 0.0
0.0 0.0 0.0 0.0 0.0 0.0 0.0 0.0 0.0 0.0 0.0 0.0 5.5 11.2 8.9 5.6 4.4 0.2 0.7 0.2 0.0 0.0 0.0 0.0 0.0 0.0 0.0 0.0 0.0 0.0 0.0 0.0 0.0 0.0 0.2 0.4 0.0 0.0 0.0 0.0 0.0 0.0 0.0 0.0 0.0 0.0 0.0 0.0 0.0 0.0 0.0 0.0 0.0 0.0
0.0 0.0 0.0 0.0 0.0 0.0 0.0 0.0 0.0 0.0 7.1 4.5 17.8 15.3 5.4 2.8 0.5 0.7 0.4 0.0 0.0 0.0 0.0 0.0 0.0 0.0 0.0 0.0 0.0 0.0 0.0 0.0 0.0 0.0 0.0 0.0 0.0 0.0 0.0 0.0 0.0 0.0 0.0 0.0 0.0 0.0 0.0 0.0 0.0 0.0 0.0 0.0 0.0 0.0
0.0 0.0 0.0 0.0 0.0 0.0 0.0 0.0 0.0 0.0 6.3 16.2 8.6 5.7 2.4 0.8 0.2 0.1 0.2 0.0 0.0 0.0 0.0 0.0 0.0 0.0 0.0 0.0 0.0 0.0 0.2 0.0 0.0 0.0 0.0 0.0 0.0 0.0 0.0 0.0 0.0 0.0 0.0 0.0 0.0 0.0 0.0 0.0 0.0 0.0 0.0 0.0 0.0 0.0
0.0 0.0 0.0 0.0 0.0 0.0 0.0 0.0 0.0 0.0 18.9 14.8 7.5 3.3 0.5 0.0 0.0 0.0 0.0 0.0 0.0 0.0 0.0 0.0 0.0 0.0 0.0 0.0 0.0 0.0 0.0 0.0 0.0 0.0 0.0 0.0 0.0 0.0 0.0 0.0 0.0 0.0 0.0 0.0 0.0 0.0 0.0 0.0 0.0 0.0 0.0 0.0 0.0 0.0
0.0 0.0 0.0 0.0 0.0 0.0 0.0 3.7 7.1 16.5 19.3 14.4 4.0 0.1 0.0 0.0 0.0 0.2 0.1 0.0 0.0 0.0 0.0 0.0 0.8 0.0 0.0 0.0 0.0 0.0 0.0 0.0 0.0 0.0 0.0 0.0 0.0 0.0 0.0 0.0 0.0 0.0 0.0 0.0 0.0 0.0 0.0 0.0 0.0 0.0 0.0 0.0 0.0 0.0
0.0 0.0 0.0 0.0 0.0 0.0 0.0 12.7 17.3 17.1 14.1 7.2 0.5 0.1 0.1 0.0 0.0 0.0 0.1 0.0 0.0 0.2 0.5 0.7 0.6 0.8 0.1 0.0 0.0 0.0 0.0 0.0 0.0 0.0 0.0 0.0 0.0 0.0 0.0 0.0 0.0 0.0 0.0 0.0 0.0 0.0 0.0 0.0 0.0 0.0 0.0 0.0 0.0 0.0
0.0 0.0 0.0 0.0 0.0 3.0 6.8 9.4 11.5 10.6 6.7 2.5 0.2 0.2 0.2 0.1 0.0 0.0 0.0 0.4 0.0 0.6 1.3 2.2 1.6 0.5 0.0 0.0 0.0 0.0 0.0 0.0 0.0 0.0 0.0 0.0 0.0 0.0 0.0 0.0 0.0 0.0 0.0 0.0 0.0 0.0 0.0 0.0 0.0 0.0 0.0 0.0 0.0 0.0
0.0 0.0 0.0 0.0 0.0 3.4 4.5 7.0 5.0 6.2 4.0 2.8 1.4 0.8 0.7 0.4 0.2 0.4 0.2 0.1 0.6 1.8 2.7 2.4 0.5 0.1 0.0 0.1 0.2 0.1 0.0 0.0 0.0 0.0 0.0 0.0 0.0 0.0 0.0 0.0 0.0 0.0 0.0 0.0 0.0 0.0 0.0 0.0 0.0 0.0 0.0 0.0 0.0 0.0
0.0 0.0 0.0 0.0 2.0 3.0 4.1 3.7 5.4 5.0 4.0 3.3 4.2 2.8 2.7 1.6 1.4 1.6 3.4 1.5 4.3 5.2 2.4 1.0 0.1 0.0 0.2 0.1 0.0 0.0 0.1 0.0 0.0 0.0 0.0 0.0 0.0 0.0 0.0 0.0 0.0 0.0 0.0 0.0 0.0 0.0 0.0 0.0 0.0 0.0 0.0 0.0 0.0 0.0
0.1 0.0 0.1 0.0 2.2 2.1 2.3 3.1 3.9 4.0 2.9 3.8 5.1 5.2 4.9 4.2 4.9 5.5 5.7 8.0 8.1 3.4 1.1 0.4 0.5 0.6 0.3 0.3 0.2 0.6 0.0 0.3 0.0 0.0 0.0 0.0 0.0 0.0 0.0 0.0 0.0 0.0 0.0 0.0 0.0 0.0 0.0 0.0 0.0 0.0 0.0 0.0 0.0 0.0
0.0 0.0 0.7 0.9 1.4 0.6 1.9 2.2 2.5 3.3 3.4 4.1 4.5 4.7 5.7 5.2 6.7 7.8 9.4 7.1 4.5 2.4 1.5 1.4 1.1 1.3 1.1 0.7 0.4 0.1 0.1 0.0 0.0 0.2 0.1 0.0 0.0 0.0 0.0 0.0 0.0 0.0 0.0 0.0 0.0 0.0 0.0 0.0 0.0 0.0 0.0 0.0 0.0 0.0
0.0 0.3 0.2 0.3 0.5 1.2 1.1 1.9 1.6 2.0 2.6 3.0 3.6 3.8 3.4 5.1 5.6 6.2 5.0 2.3 2.2 2.4 1.9 2.1 1.7 0.9 1.1 1.2 1.4 1.1 0.7 0.3 0.1 0.1 0.7 0.5 0.1 0.0 0.0 0.0 0.0 0.0 0.0 0.0 0.0 0.0 0.0 0.0 0.0 0.0 0.0 0.0 0.0 0.0
1.2 0.8 0.3 0.1 0.0 0.1 0.4 1.2 1.4 1.1 1.7 2.6 3.1 3.2 3.6 4.2 5.4 4.1 2.3 1.9 3.0 4.0 3.4 2.4 1.6 1.3 1.0 1.1 1.0 1.3 1.3 1.6 1.2 0.4 0.2 1.0 0.7 0.4 0.1 0.5 0.2 0.0 0.0 0.0 0.0 0.0 0.0 0.0 0.0 0.0 0.0 0.0 0.0 0.1
0.8 0.3 0.1 0.0 0.0 0.0 0.0 0.5 1.1 1.6 1.8 2.3 2.7 2.8 3.3 3.5 3.0 2.8 1.8 2.1 3.3 4.2 4.3 3.7 2.4 1.4 1.5 1.7 1.5 1.7 1.6 1.6 1.3 1.0 1.6 1.9 1.3 1.3 1.0 0.9 0.8 0.5 0.0 0.3 0.2 0.3 0.3 0.2 0.1 0.0 0.2 0.0 0.4 0.4
0.3 0.1 0.0 0.0 0.0 0.0 0.0 0.0 0.0 0.0 0.6 1.3 1.5 1.7 1.8 2.2 2.4 1.3 1.2 2.1 3.2 3.9 4.3 4.3 3.8 2.4 2.1 2.1 2.3 2.4 2.6 2.5 2.5 1.2 2.4 2.8 2.5 1.7 1.2 1.1 0.6 0.4 0.3 1.4 1.1 0.9 1.0 1.0 1.0 1.1 1.3 1.5 1.4 1.3
0.0 0.0 0.0 0.0 0.0 0.0 0.0 0.0 0.0 0.0 0.0 0.1 0.9 0.9 1.0 1.0 0.6 0.7 1.3 1.9 3.2 3.8 4.2 4.5 4.5 3.3 2.6 2.4 2.7 3.0 3.3 3.6 3.5 3.3 3.0 3.4 3.5 3.4 2.8 3.1 2.8 2.7 2.2 2.4 2.5 2.3 2.1 2.1 2.1 2.1 2.2 2.1 1.7 1.6
0.0 0.0 0.0 0.0 0.0 0.0 0.0 0.0 0.0 0.0 0.0 0.0 0.0 0.3 0.2 0.3 0.5 0.8 1.2 2.1 2.9 3.4 3.8 4.0 4.2 4.2 3.7 3.4 3.5 3.6 3.4 3.6 3.1 2.6 1.9 1.9 2.2 2.8 4.0 4.2 4.2 4.8 4.0 3.4 3.2 3.0 2.4 2.3 2.4 2.4 2.4 2.3 2.0 1.8
0.0 0.0 0.0 0.0 0.0 0.0 0.0 0.0 0.0 0.0 0.0 0.0 0.0 0.0 0.0 0.2 0.5 0.8 1.2 1.6 2.5 3.1 3.7 4.1 4.1 4.3 4.1 3.9 4.1 4.2 4.1 4.0 4.0 3.0 2.3 2.0 1.6 3.1 4.0 4.3 4.3 3.6 4.1 4.2 3.7 3.8 4.0 4.2 3.9 3.4 2.8 2.7 2.4 2.0
0.0 0.0 0.0 0.0 0.0 0.0 0.0 0.1 0.1 0.0 0.0 0.0 0.0 0.0 0.0 0.0 0.3 0.6 1.0 1.5 2.0 2.7 3.2 3.5 3.7 4.2 4.2 4.1 4.2 4.0 3.8 3.9 4.1 4.2 3.9 3.7 3.7 3.6 4.3 4.5 4.3 4.6 4.7 4.4 3.4 3.5 3.1 2.2 1.4 1.6 1.7 1.6 1.7 1.0
0.1 0.0 0.0 0.0 0.0 0.2 0.2 0.1 0.1 0.0 0.0 0.0 0.0 0.0 0.1 0.1 0.1 0.3 0.5 0.9 1.4 1.8 2.5 2.8 2.8 3.0 3.2 3.3 3.4 3.6 3.6 3.4 3.2 3.8 3.7 3.3 3.1 3.4 3.9 3.9 4.3 4.3 4.4 4.5 4.2 3.8 3.4 2.7 3.5 3.3 3.0 2.9 2.4 1.9
0.6 0.4 0.4 0.2 0.0 0.0 0.1 0.0 0.0 0.0 0.0 0.0 0.0 0.0 0.0 0.1 0.1 0.1 0.3 0.6 0.9 1.4 1.7 2.1 2.4 2.7 2.9 3.0 3.1 3.5 3.8 4.3 4.6 4.8 5.1 4.8 4.1 3.8 3.6 3.5 3.7 3.8 3.8 3.9 4.1 4.3 4.6 4.4 3.9 3.6 3.4 3.1 2.7 2.3

GFSWCAN_prec_snow_048.txt.gz
Snowfall_Accumulation
0.0 0.0 0.0 0.0 0.0 0.0 0.0 0.0 0.0 0.0 0.0 0.0 0.0 0.0 0.0 0.0 0.0 0.0 0.0 0.0 0.0 0.0 0.0 0.0 0.0 0.0 0.0 0.0 0.0 0.0 0.0 0.0 0.0 1.2 0.3 0.0 0.0 0.0 0.0 0.0 0.0 0.0 0.0 0.0 0.4 0.6 0.0 0.0 0.0 0.0 0.0 0.0 0.0 0.0
0.0 0.0 0.0 0.0 0.0 0.0 0.0 0.0 0.0 0.0 0.0 0.0 0.0 0.0 0.0 0.0 0.0 0.0 0.0 0.0 0.0 0.0 0.0 0.0 0.0 0.0 0.0 0.0 0.0 0.0 0.0 0.0 0.0 0.0 0.0 0.0 0.0 0.0 0.0 0.0 0.0 0.0 0.0 0.0 0.0 0.0 0.0 0.0 0.0 0.0 0.0 0.0 0.0 0.0
0.0 0.0 0.0 0.0 0.0 0.0 0.0 0.0 0.0 0.0 0.0 0.0 0.0 0.0 0.0 0.0 0.0 0.0 0.0 0.0 0.0 0.0 0.0 0.0 0.0 0.0 0.0 0.0 0.0 0.0 0.0 0.0 0.0 0.0 0.0 0.0 0.0 0.0 0.1 0.0 0.0 0.0 0.0 0.0 0.0 0.0 0.0 0.0 0.0 0.0 0.0 0.0 0.0 0.0
0.0 0.0 0.0 0.0 0.0 0.0 0.0 0.0 0.0 0.0 0.0 0.0 0.0 0.0 0.0 0.0 0.0 0.0 0.0 0.0 0.0 0.0 0.0 0.0 0.0 0.0 0.0 0.0 0.0 0.0 0.0 0.0 0.0 0.0 0.0 0.0 0.0 0.0 0.0 0.0 0.0 0.0 0.0 0.0 0.0 0.0 0.0 0.0 0.0 0.0 0.0 0.0 0.0 0.0
0.0 0.0 0.0 0.0 0.0 0.0 0.0 0.0 0.0 0.0 0.0 0.0 0.0 0.0 0.0 0.0 0.0 0.0 0.0 0.0 0.0 0.0 0.0 0.0 0.0 0.0 0.0 0.0 0.0 0.0 0.0 0.0 0.0 0.0 0.0 0.0 0.0 0.0 0.0 0.0 0.0 0.0 0.0 0.0 0.0 0.0 0.0 0.0 0.0 0.0 0.0 0.0 0.0 0.0
0.0 0.0 0.0 0.0 0.0 0.0 0.0 0.0 0.0 0.0 0.0 0.0 0.0 0.0 0.0 0.0 0.0 0.0 0.0 0.0 0.0 0.0 0.0 0.0 0.0 0.0 0.0 0.0 0.0 0.0 0.0 0.0 0.0 0.0 0.0 0.0 0.0 0.0 0.0 0.0 0.0 0.0 0.0 0.0 0.0 0.0 0.0 0.0 0.0 0.0 0.0 0.0 0.0 0.0
0.0 0.0 0.0 0.0 0.0 0.0 0.0 0.0 0.0 0.0 0.0 0.0 0.0 0.0 0.0 0.0 0.0 0.0 0.0 0.0 0.0 0.0 0.0 0.0 0.0 0.0 0.0 0.0 0.0 0.0 0.0 0.0 0.0 0.0 0.0 0.0 0.0 0.0 0.0 0.0 0.0 0.0 0.0 0.0 0.0 0.0 0.0 0.0 0.0 0.0 0.0 0.0 0.0 0.0
0.0 0.0 0.0 0.0 0.0 0.0 0.0 0.0 0.0 0.0 0.0 0.0 0.0 0.0 0.0 0.0 0.0 0.0 0.0 0.0 0.0 0.0 0.0 0.0 0.0 0.0 0.0 0.0 0.0 0.0 0.0 0.0 0.0 0.0 0.0 0.0 0.0 0.0 0.2 0.0 0.0 0.0 0.0 0.0 0.0 0.0 0.0 0.0 0.0 0.0 0.0 0.0 0.0 0.0
0.0 0.0 0.0 0.0 0.0 0.0 0.0 0.0 0.0 0.0 0.0 0.0 0.0 0.0 0.0 0.0 0.0 0.0 0.0 0.0 0.0 0.0 0.0 0.0 0.0 0.0 0.0 0.0 0.0 0.0 0.0 0.0 0.0 0.0 0.0 0.0 0.0 0.5 0.1 0.0 0.0 0.0 0.0 0.0 0.0 0.0 0.0 0.0 0.0 0.0 0.0 0.0 0.0 0.0
0.0 0.0 0.0 0.0 0.0 0.0 0.0 0.0 0.0 0.0 0.0 0.0 0.0 0.0 0.0 0.0 0.0 0.0 0.0 0.0 0.0 0.0 0.0 0.0 0.0 0.0 0.0 0.0 0.0 0.0 0.0 0.0 2.1 0.0 0.0 0.0 0.0 0.0 0.0 0.0 0.0 0.0 0.0 0.0 0.0 0.0 0.0 0.0 0.0 0.0 0.0 0.0 0.0 0.0
0.0 0.0 0.0 0.0 0.0 0.0 0.0 0.0 0.0 0.0 0.0 0.0 1.8 0.5 0.0 0.0 0.0 0.0 0.0 0.0 0.0 0.0 0.0 0.0 0.0 0.0 0.0 0.0 0.0 0.0 0.0 0.0 0.9 1.4 1.4 1.8 1.4 0.3 0.0 0.0 0.0 0.0 0.0 0.0 0.0 0.0 0.0 0.0 0.0 0.0 0.0 0.0 0.0 0.0
0.0 0.0 0.0 0.0 0.0 0.0 0.0 0.0 0.0 0.0 7.2 0.0 0.0 0.0 0.0 0.0 0.0 0.0 0.9 0.0 0.0 0.0 0.0 0.0 0.0 0.0 0.0 0.0 0.0 0.0 0.0 0.0 0.1 0.0 0.8 0.6 0.1 0.0 0.0 0.0 0.0 0.0 0.0 0.0 0.0 0.0 0.0 0.0 0.0 0.0 0.0 0.0 0.0 0.0
0.0 0.0 0.0 0.0 0.0 0.0 0.0 0.0 0.0 0.0 0.0 0.0 5.5 11.2 8.9 5.6 4.5 0.3 0.8 0.2 0.0 0.0 0.0 0.0 0.0 0.0 0.0 0.0 0.0 0.0 0.0 0.0 0.0 0.0 0.2 0.9 0.0 0.0 0.0 0.0 0.0 0.0 0.0 0.0 0.0 0.0 0.0 0.0 0.0 0.0 0.0 0.0 0.0 0.0
0.0 0.0 0.0 0.0 0.0 0.0 0.0 0.0 0.0 0.0 7.1 4.5 17.8 15.3 5.4 2.8 0.5 0.7 0.4 0.0 0.0 0.0 0.0 0.0 0.0 0.0 0.0 0.0 0.0 0.0 0.0 0.0 0.0 0.0 0.0 0.0 0.0 0.0 0.0 0.0 0.0 0.0 0.0 0.0 0.0 0.0 0.0 0.0 0.0 0.0 0.0 0.0 0.0 0.0
0.0 0.0 0.0 0.0 0.0 0.0 0.0 0.0 0.0 0.0 6.3 16.2 8.6 5.7 2.4 0.8 0.2 0.1 0.2 0.0 0.0 0.0 0.0 0.0 0.0 0.0 0.0 0.0 0.0 0.0 0.2 0.0 0.0 0.0 0.0 0.0 0.0 0.0 0.0 0.0 0.0 0.0 0.0 0.0 0.0 0.0 0.0 0.0 0.0 0.0 0.0 0.0 0.0 0.0
0.0 0.0 0.0 0.0 0.0 0.0 0.0 0.0 0.0 0.0 18.9 14.8 7.5 3.3 0.5 0.0 0.0 0.0 0.0 0.0 0.0 0.0 0.0 0.0 0.0 0.0 0.0 0.0 0.0 0.0 0.0 0.0 0.0 0.0 0.0 0.0 0.0 0.0 0.0 0.0 0.0 0.0 0.0 0.0 0.0 0.0 0.0 0.0 0.0 0.0 0.0 0.0 0.0 0.0
0.0 0.0 0.0 0.0 0.0 0.0 0.0 3.7 7.1 16.5 19.3 14.4 4.0 0.1 0.0 0.0 0.0 0.2 0.1 0.0 0.0 0.0 0.0 0.0 0.8 0.0 0.0 0.0 0.0 0.0 0.0 0.0 0.0 0.0 0.0 0.0 0.0 0.0 0.0 0.0 0.0 0.0 0.0 0.0 0.0 0.0 0.0 0.0 0.0 0.0 0.0 0.0 0.0 0.0
0.0 0.0 0.0 0.0 0.0 0.0 0.0 12.7 17.3 17.1 14.1 7.2 0.5 0.1 0.1 0.0 0.0 0.0 0.1 0.0 0.0 0.3 0.6 1.0 0.6 0.9 0.1 0.0 0.0 0.0 0.0 0.0 0.0 0.0 0.0 0.0 0.0 0.0 0.0 0.0 0.0 0.0 0.0 0.0 0.0 0.0 0.0 0.0 0.0 0.0 0.0 0.0 0.0 0.0
0.0 0.0 0.0 0.0 0.0 3.0 6.8 9.4 11.5 10.6 6.7 2.5 0.2 0.2 0.2 0.1 0.0 0.0 0.0 0.4 0.0 0.6 1.4 2.4 1.6 0.5 0.0 0.0 0.0 0.0 0.0 0.0 0.0 0.0 0.0 0.0 0.0 0.0 0.0 0.0 0.0 0.0 0.0 0.0 0.0 0.0 0.0 0.0 0.0 0.0 0.0 0.0 0.0 0.0
0.0 0.0 0.0 0.0 0.0 3.4 4.5 7.0 5.0 6.2 4.0 2.8 1.4 0.8 0.7 0.4 0.2 0.4 0.2 0.1 0.6 1.8 2.8 2.4 0.5 0.1 0.0 0.1 0.2 0.1 0.0 0.0 0.0 0.0 0.0 0.0 0.0 0.0 0.0 0.0 0.0 0.0 0.0 0.0 0.0 0.0 0.0 0.0 0.0 0.0 0.0 0.0 0.0 0.0
0.0 0.0 0.0 0.0 2.0 3.0 4.1 3.7 5.4 5.0 4.0 3.3 4.2 2.8 2.7 1.6 1.4 1.6 3.4 1.5 4.3 5.2 2.4 1.0 0.1 0.0 0.2 0.1 0.0 0.0 0.1 0.0 0.0 0.0 0.0 0.0 0.0 0.0 0.0 0.0 0.0 0.0 0.0 0.0 0.0 0.0 0.0 0.0 0.0 0.0 0.0 0.0 0.0 0.0
0.1 0.0 0.1 0.0 2.2 2.1 2.3 3.1 3.9 4.0 2.9 3.8 5.1 5.2 4.9 4.2 4.9 5.5 5.7 8.0 8.1 3.4 1.1 0.4 0.5 0.6 0.3 0.3 0.2 0.6 0.0 0.3 0.0 0.0 0.0 0.0 0.0 0.0 0.0 0.0 0.0 0.0 0.0 0.0 0.0 0.0 0.0 0.0 0.0 0.0 0.0 0.0 0.0 0.0
0.0 0.0 0.7 0.9 1.4 0.6 1.9 2.2 2.5 3.3 3.4 4.1 4.5 4.7 5.7 5.2 6.7 7.8 9.4 7.1 4.5 2.4 1.5 1.4 1.1 1.3 1.1 0.7 0.4 0.1 0.1 0.0 0.0 0.2 0.1 0.0 0.0 0.0 0.0 0.0 0.0 0.0 0.0 0.0 0.0 0.0 0.0 0.0 0.0 0.0 0.0 0.0 0.0 0.0
0.0 0.4 0.3 0.3 0.5 1.2 1.1 1.9 1.6 2.0 2.6 3.0 3.6 3.8 3.4 5.1 5.6 6.2 5.0 2.3 2.2 2.4 1.9 2.1 1.7 0.9 1.1 1.2 1.4 1.1 0.7 0.3 0.1 0.1 0.7 0.5 0.1 0.0 0.0 0.0 0.0 0.0 0.0 0.0 0.0 0.0 0.0 0.0 0.0 0.0 0.0 0.0 0.0 0.0
1.6 0.8 0.3 0.1 0.0 0.1 0.4 1.2 1.4 1.1 1.7 2.6 3.1 3.2 3.6 4.2 5.4 4.1 2.3 1.9 3.0 4.0 3.4 2.4 1.6 1.3 1.0 1.1 1.0 1.3 1.3 1.6 1.2 0.4 0.2 1.0 0.7 0.4 0.1 0.5 0.2 0.0 0.0 0.0 0.0 0.0 0.0 0.0 0.0 0.0 0.0 0.0 0.0 0.1
1.1 0.3 0.1 0.0 0.0 0.0 0.0 0.5 1.1 1.6 1.8 2.3 2.7 2.8 3.3 3.5 3.0 2.8 1.8 2.1 3.3 4.2 4.3 3.7 2.4 1.4 1.5 1.7 1.5 1.7 1.6 1.6 1.3 1.0 1.6 1.9 1.3 1.3 1.0 0.9 0.8 0.5 0.0 0.3 0.2 0.3 0.3 0.2 0.1 0.1 0.2 0.0 0.6 0.6
0.5 0.1 0.0 0.0 0.0 0.0 0.0 0.0 0.0 0.0 0.6 1.3 1.5 1.7 1.8 2.2 2.4 1.3 1.2 2.1 3.2 3.9 4.3 4.3 3.8 2.4 2.1 2.1 2.3 2.4 2.6 2.5 2.5 1.2 2.4 2.8 2.5 1.7 1.2 1.1 0.6 0.4 0.3 1.4 1.1 0.9 1.0 1.0 1.0 1.1 1.5 1.6 1.7 1.6
0.0 0.0 0.0 0.0 0.0 0.0 0.0 0.0 0.0 0.0 0.0 0.1 0.9 0.9 1.0 1.0 0.6 0.7 1.3 1.9 3.2 3.8 4.2 4.5 4.5 3.3 2.6 2.4 2.7 3.0 3.3 3.6 3.5 3.3 3.0 3.4 3.5 3.4 2.8 3.1 2.8 2.7 2.2 2.4 2.5 2.4 2.1 2.2 2.2 2.1 2.4 2.3 1.9 2.0
0.0 0.0 0.0 0.0 0.0 0.0 0.0 0.0 0.0 0.0 0.0 0.0 0.0 0.3 0.2 0.3 0.5 0.8 1.2 2.1 2.9 3.4 3.8 4.0 4.2 4.2 3.7 3.4 3.5 3.6 3.4 3.6 3.1 2.6 1.9 1.9 2.2 2.8 4.0 4.2 4.2 4.8 4.0 3.4 3.2 3.0 2.4 2.4 2.5 2.5 2.4 2.6 2.5 2.5
0.0 0.0 0.0 0.0 0.0 0.0 0.0 0.0 0.0 0.0 0.0 0.0 0.0 0.0 0.0 0.2 0.5 0.8 1.2 1.6 2.5 3.1 3.7 4.1 4.1 4.3 4.1 3.9 4.1 4.2 4.1 4.0 4.0 3.0 2.3 2.0 1.6 3.1 4.0 4.3 4.3 3.6 4.1 4.2 3.7 3.8 4.0 4.2 3.9 3.8 3.4 3.2 3.0 2.8
0.0 0.0 0.0 0.0 0.0 0.0 0.0 0.1 0.1 0.0 0.0 0.0 0.0 0.0 0.0 0.0 0.3 0.6 1.0 1.5 2.0 2.7 3.2 3.5 3.7 4.2 4.2 4.1 4.2 4.0 3.8 3.9 4.1 4.2 3.9 3.7 3.7 3.6 4.3 4.5 4.3 4.6 4.7 4.4 3.4 3.5 3.1 2.2 1.7 1.8 1.9 2.0 2.4 2.0
0.1 0.0 0.0 0.0 0.0 0.2 0.2 0.1 0.1 0.0 0.0 0.0 0.0 0.0 0.1 0.1 0.1 0.3 0.5 0.9 1.4 1.8 2.5 2.8 2.8 3.0 3.2 3.3 3.4 3.6 3.6 3.4 3.2 3.8 3.7 3.3 3.1 3.4 3.9 3.9 4.3 4.3 4.5 4.6 4.3 3.9 3.6 2.9 3.6 3.6 3.3 3.4 3.2 2.8
0.6 0.4 0.4 0.2 0.0 0.0 0.1 0.0 0.0 0.0 0.0 0.0 0.0 0.0 0.0 0.1 0.1 0.1 0.3 0.6 0.9 1.4 1.7 2.1 2.4 2.7 2.9 3.0 3.1 3.5 3.8 4.3 4.6 4.8 5.1 4.9 4.2 4.0 3.8 3.6 3.8 4.0 3.9 4.0 4.3 4.5 4.8 4.6 4.3 4.1 3.8 3.7 3.6 3.4

GFSWCAN_prec_snow_051.txt.gz
Snowfall_Accumulation
0.0 0.0 0.0 0.0 0.0 0.0 0.0 0.0 0.0 0.0 0.0 0.0 0.0 0.0 0.0 0.0 0.0 0.0 0.0 0.0 0.0 0.0 0.0 0.0 0.0 0.0 0.0 0.0 0.0 0.0 0.0 0.0 0.0 1.2 0.3 0.0 0.0 0.0 0.0 0.0 0.0 0.0 0.0 0.0 0.4 0.6 0.0 0.0 0.0 0.0 0.0 0.0 0.0 0.0
0.0 0.0 0.0 0.0 0.0 0.0 0.0 0.0 0.0 0.0 0.0 0.0 0.0 0.0 0.0 0.0 0.0 0.0 0.0 0.0 0.0 0.0 0.0 0.0 0.0 0.0 0.0 0.0 0.0 0.0 0.0 0.0 0.0 0.0 0.0 0.0 0.0 0.0 0.0 0.0 0.0 0.0 0.0 0.0 0.0 0.0 0.0 0.0 0.0 0.0 0.0 0.0 0.0 0.0
0.0 0.0 0.0 0.0 0.0 0.0 0.0 0.0 0.0 0.0 0.0 0.0 0.0 0.0 0.0 0.0 0.0 0.0 0.0 0.0 0.0 0.0 0.0 0.0 0.0 0.0 0.0 0.0 0.0 0.0 0.0 0.0 0.0 0.0 0.0 0.0 0.0 0.0 0.1 0.0 0.0 0.0 0.0 0.0 0.0 0.0 0.0 0.0 0.0 0.0 0.0 0.0 0.0 0.0
0.0 0.0 0.0 0.0 0.0 0.0 0.0 0.0 0.0 0.0 0.0 0.0 0.0 0.0 0.0 0.0 0.0 0.0 0.0 0.0 0.0 0.0 0.3 0.0 0.0 0.0 0.0 0.0 0.0 0.0 0.0 0.0 0.0 0.0 0.0 0.0 0.0 0.0 0.0 0.0 0.0 0.0 0.0 0.0 0.0 0.0 0.0 0.0 0.0 0.0 0.0 0.0 0.0 0.0
0.0 0.0 0.0 0.0 0.0 0.0 0.0 0.0 0.0 0.0 0.0 0.0 0.0 0.0 0.0 0.0 0.0 0.0 0.0 0.0 0.0 1.2 0.4 0.0 0.0 0.0 0.0 0.0 0.0 0.0 0.0 0.0 0.0 0.0 0.0 0.0 0.0 0.0 0.0 0.0 0.0 0.0 0.0 0.0 0.0 0.0 0.0 0.0 0.0 0.0 0.0 0.0 0.0 0.0
0.0 0.0 0.0 0.0 0.0 0.0 0.0 0.0 0.0 0.0 0.0 0.0 0.0 0.0 0.0 0.0 0.0 0.0 0.0 0.0 0.0 0.0 0.3 0.9 0.0 0.0 0.0 0.0 0.0 0.0 0.0 0.0 0.0 0.0 0.0 0.0 0.0 0.0 0.0 0.0 0.0 0.0 0.0 0.0 0.0 0.0 0.0 0.0 0.0 0.0 0.0 0.0 0.0 0.0
0.0 0.0 0.0 0.0 0.0 0.0 0.0 0.0 0.0 0.0 0.0 0.0 0.0 0.0 0.0 0.0 0.0 0.0 0.0 0.0 0.0 0.0 0.2 0.0 0.0 0.0 0.0 0.0 0.0 0.0 0.0 0.0 0.0 0.0 0.0 0.0 0.0 0.0 0.0 0.0 0.0 0.0 0.0 0.0 0.0 0.0 0.0 0.0 0.0 0.0 0.0 0.0 0.0 0.0
0.0 0.0 0.0 0.0 0.0 0.0 0.0 0.0 0.0 0.0 0.0 0.0 0.0 0.0 0.0 0.0 0.0 0.0 0.0 0.0 0.0 0.0 0.0 0.0 0.0 0.0 0.0 0.0 0.0 0.0 0.0 0.0 0.0 0.0 0.0 0.0 0.0 0.0 0.5 0.0 0.0 0.0 0.0 0.0 0.0 0.0 0.0 0.0 0.0 0.0 0.0 0.0 0.0 0.0
0.0 0.0 0.0 0.0 0.0 0.0 0.0 0.0 0.0 0.0 0.0 0.0 0.0 0.0 0.0 0.0 0.0 0.0 0.0 0.0 0.0 0.0 0.0 0.0 0.0 0.0 0.0 0.0 0.0 0.0 0.0 0.0 0.0 0.0 0.0 0.0 0.0 1.0 0.1 0.0 0.0 0.0 0.0 0.0 0.0 0.0 0.0 0.0 0.0 0.0 0.0 0.0 0.0 0.0
0.0 0.0 0.0 0.0 0.0 0.0 0.0 0.0 0.0 0.0 0.0 0.0 0.0 0.0 0.0 0.0 0.0 0.0 0.0 0.0 0.0 0.0 0.0 0.0 0.0 0.0 0.0 0.0 0.0 0.0 0.0 0.0 2.6 0.0 0.0 0.0 0.0 0.0 0.0 0.0 0.0 0.0 0.0 0.0 0.0 0.0 0.0 0.0 0.0 0.0 0.0 0.0 0.0 0.0
0.0 0.0 0.0 0.0 0.0 0.0 0.0 0.0 0.0 0.0 0.0 0.0 1.8 0.5 0.0 0.0 0.0 0.0 0.0 0.0 0.0 0.0 0.0 0.0 0.0 0.0 0.0 0.0 0.0 0.0 0.0 0.0 1.0 1.4 1.8 2.2 1.8 0.3 0.0 0.0 0.0 0.0 0.0 0.0 0.0 0.0 0.0 0.0 0.0 0.0 0.0 0.0 0.0 0.0
0.0 0.0 0.0 0.0 0.0 0.0 0.0 0.0 0.0 0.0 7.2 0.0 0.0 0.0 0.0 0.0 0.0 0.4 1.3 0.0 0.0 0.0 0.0 0.0 0.0 0.0 0.0 0.0 0.0 0.0 0.0 0.0 0.1 0.0 1.5 1.0 0.1 0.0 0.0 0.0 0.0 0.0 0.0 0.0 0.0 0.0 0.0 0.0 0.0 0.0 0.0 0.0 0.0 0.0
0.0 0.0 0.0 0.0 0.0 0.0 0.0 0.0 0.0 0.0 0.0 0.0 5.5 11.3 8.9 5.6 4.6 0.3 1.0 0.2 0.0 0.0 0.0 0.0 0.0 0.0 0.0 0.0 0.0 0.0 0.0 0.0 0.0 0.1 0.2 0.9 0.0 0.0 0.0 0.0 0.0 0.0 0.0 0.0 0.0 0.0 0.0 0.0 0.0 0.0 0.0 0.0 0.0 0.0
0.0 0.0 0.0 0.0 0.0 0.0 0.0 0.0 0.0 0.0 7.1 4.5 17.8 15.4 5.4 2.8 0.5 0.7 0.4 0.0 0.0 0.0 0.0 0.0 0.0 0.0 0.0 0.0 0.0 0.0 0.0 0.0 0.0 0.0 0.0 0.0 0.0 0.0 0.0 0.0 0.0 0.0 0.0 0.0 0.0 0.0 0.0 0.0 0.0 0.0 0.0 0.0 0.0 0.0
0.0 0.0 0.0 0.0 0.0 0.0 0.0 0.0 0.0 0.0 6.3 16.2 8.6 5.7 2.4 0.8 0.2 0.1 0.2 0.0 0.0 0.0 0.0 0.0 0.0 0.0 0.0 0.0 0.0 0.0 0.2 0.0 0.0 0.0 0.0 0.0 0.0 0.0 0.0 0.0 0.0 0.0 0.0 0.0 0.0 0.0 0.0 0.0 0.0 0.0 0.0 0.0 0.0 0.0
0.0 0.0 0.0 0.0 0.0 0.0 0.0 0.0 0.0 0.0 18.9 14.8 7.5 3.3 0.5 0.0 0.0 0.0 0.0 0.0 0.0 0.0 0.0 0.0 0.0 0.0 0.0 0.0 0.1 0.0 0.0 0.0 0.0 0.0 0.0 0.0 0.0 0.0 0.0 0.0 0.0 0.0 0.0 0.0 0.0 0.0 0.0 0.0 0.0 0.0 0.0 0.0 0.0 0.0
0.0 0.0 0.0 0.0 0.0 0.0 0.0 3.7 7.2 16.5 19.3 14.4 4.0 0.1 0.0 0.0 0.0 0.2 0.1 0.0 0.0 0.0 0.0 0.0 0.8 0.0 0.0 0.0 0.0 0.0 0.0 0.0 0.0 0.0 0.0 0.0 0.0 0.0 0.0 0.0 0.0 0.0 0.0 0.0 0.0 0.0 0.0 0.0 0.0 0.0 0.0 0.0 0.0 0.0
0.0 0.0 0.0 0.0 0.0 0.0 0.0 12.8 17.4 17.1 14.1 7.2 0.5 0.1 0.1 0.0 0.0 0.0 0.1 0.0 0.0 0.3 0.6 1.2 0.6 0.9 0.1 0.0 0.0 0.0 0.0 0.0 0.0 0.0 0.0 0.0 0.0 0.0 0.0 0.0 0.0 0.0 0.0 0.0 0.0 0.0 0.0 0.0 0.0 0.0 0.0 0.0 0.0 0.0
0.0 0.0 0.0 0.0 0.0 3.1 6.9 9.4 11.5 10.6 6.7 2.5 0.2 0.2 0.2 0.1 0.0 0.0 0.0 0.4 0.0 0.6 1.4 2.5 1.6 0.5 0.0 0.0 0.0 0.0 0.0 0.0 0.0 0.0 0.0 0.0 0.0 0.0 0.0 0.0 0.0 0.0 0.0 0.0 0.0 0.0 0.0 0.0 0.0 0.0 0.0 0.0 0.0 0.0
0.0 0.0 0.0 0.0 0.0 3.5 4.6 7.0 5.0 6.2 4.0 2.8 1.4 0.8 0.7 0.4 0.2 0.4 0.2 0.1 0.6 1.9 2.8 2.4 0.5 0.1 0.0 0.1 0.2 0.1 0.0 0.0 0.0 0.0 0.0 0.0 0.0 0.0 0.0 0.0 0.0 0.0 0.0 0.0 0.0 0.0 0.0 0.0 0.0 0.0 0.0 0.0 0.0 0.0
0.0 0.0 0.0 0.0 2.0 3.0 4.1 3.7 5.4 5.0 4.0 3.3 4.2 2.8 2.7 1.6 1.4 1.6 3.4 1.5 4.4 5.2 2.4 1.0 0.1 0.0 0.2 0.1 0.0 0.0 0.1 0.0 0.0 0.0 0.0 0.0 0.0 0.0 0.0 0.0 0.0 0.0 0.0 0.0 0.0 0.0 0.0 0.0 0.0 0.0 0.0 0.0 0.0 0.0
0.1 0.0 0.1 0.0 2.2 2.1 2.3 3.1 3.9 4.0 2.9 3.8 5.1 5.2 4.9 4.2 4.9 5.5 5.7 8.0 8.1 3.4 1.1 0.4 0.5 0.6 0.3 0.3 0.2 0.6 0.0 0.3 0.0 0.0 0.0 0.0 0.0 0.0 0.0 0.0 0.0 0.0 0.0 0.0 0.0 0.0 0.0 0.0 0.0 0.0 0.0 0.0 0.0 0.0
0.0 0.0 0.7 0.9 1.4 0.6 1.9 2.2 2.5 3.3 3.4 4.1 4.5 4.7 5.7 5.2 6.7 7.8 9.4 7.1 4.5 2.4 1.5 1.4 1.1 1.3 1.1 0.7 0.4 0.1 0.1 0.0 0.0 0.2 0.1 0.0 0.0 0.0 0.0 0.0 0.0 0.0 0.0 0.0 0.0 0.0 0.0 0.0 0.0 0.0 0.0 0.0 0.0 0.0
0.0 0.4 0.3 0.3 0.5 1.2 1.1 1.9 1.6 2.0 2.6 3.0 3.6 3.8 3.4 5.1 5.6 6.2 5.0 2.3 2.2 2.4 1.9 2.1 1.7 0.9 1.1 1.2 1.4 1.1 0.7 0.3 0.1 0.1 0.7 0.5 0.1 0.0 0.0 0.0 0.0 0.0 0.0 0.0 0.0 0.0 0.0 0.0 0.0 0.0 0.0 0.0 0.0 0.0
2.1 0.8 0.3 0.1 0.0 0.1 0.4 1.2 1.4 1.1 1.7 2.6 3.1 3.2 3.6 4.2 5.4 4.1 2.3 1.9 3.0 4.0 3.4 2.4 1.6 1.3 1.0 1.1 1.0 1.3 1.3 1.6 1.2 0.4 0.2 1.0 0.7 0.4 0.1 0.5 0.2 0.0 0.0 0.0 0.0 0.0 0.0 0.0 0.0 0.0 0.0 0.0 0.0 0.1
1.5 0.3 0.1 0.0 0.0 0.0 0.0 0.5 1.1 1.6 1.8 2.3 2.7 2.8 3.3 3.5 3.0 2.8 1.8 2.1 3.3 4.2 4.3 3.7 2.4 1.4 1.5 1.7 1.5 1.7 1.6 1.6 1.3 1.0 1.6 1.9 1.3 1.3 1.0 0.9 0.8 0.5 0.0 0.3 0.2 0.3 0.3 0.2 0.1 0.1 0.2 0.0 0.6 0.9
0.7 0.1 0.0 0.0 0.0 0.0 0.0 0.0 0.0 0.0 0.6 1.3 1.5 1.7 1.8 2.2 2.4 1.3 1.2 2.1 3.2 3.9 4.3 4.3 3.8 2.4 2.1 2.1 2.3 2.4 2.6 2.5 2.5 1.2 2.4 2.8 2.5 1.7 1.2 1.1 0.6 0.4 0.3 1.4 1.1 0.9 1.0 1.0 1.0 1.1 1.5 1.6 1.7 1.6
0.0 0.0 0.0 0.0 0.0 0.0 0.0 0.0 0.0 0.0 0.0 0.1 0.9 0.9 1.0 1.0 0.6 0.7 1.3 1.9 3.2 3.8 4.2 4.5 4.5 3.3 2.6 2.4 2.7 3.0 3.3 3.6 3.5 3.3 3.0 3.4 3.5 3.4 2.8 3.1 2.8 2.7 2.2 2.4 2.5 2.4 2.1 2.2 2.2 2.1 2.4 2.3 1.9 2.0
0.1 0.0 0.0 0.0 0.0 0.0 0.0 0.0 0.0 0.0 0.0 0.0 0.0 0.3 0.2 0.3 0.5 0.8 1.2 2.1 2.9 3.4 3.8 4.0 4.2 4.2 3.7 3.4 3.5 3.6 3.4 3.6 3.1 2.6 1.9 1.9 2.2 2.8 4.0 4.2 4.2 4.8 4.0 3.4 3.2 3.0 2.4 2.5 2.5 2.6 2.5 2.6 2.5 2.6
0.0 0.0 0.0 0.0 0.0 0.0 0.0 0.0 0.0 0.0 0.0 0.0 0.0 0.0 0.0 0.2 0.5 0.8 1.2 1.6 2.5 3.1 3.7 4.1 4.1 4.3 4.1 3.9 4.1 4.2 4.1 4.0 4.0 3.0 2.3 2.0 1.6 3.1 4.0 4.3 4.3 3.6 4.1 4.2 3.7 3.8 4.0 4.2 3.9 3.8 3.4 3.2 3.1 3.0
0.0 0.0 0.0 0.0 0.0 0.0 0.0 0.1 0.1 0.0 0.0 0.0 0.0 0.0 0.0 0.0 0.3 0.6 1.0 1.5 2.0 2.7 3.2 3.5 3.7 4.2 4.2 4.1 4.2 4.0 3.8 3.9 4.1 4.2 3.9 3.7 3.7 3.6 4.3 4.5 4.3 4.6 4.7 4.4 3.4 3.5 3.1 2.3 1.7 1.8 1.9 2.1 2.5 2.2
0.1 0.0 0.0 0.0 0.0 0.2 0.2 0.1 0.1 0.0 0.0 0.0 0.0 0.0 0.1 0.1 0.1 0.3 0.5 0.9 1.4 1.8 2.5 2.8 2.8 3.0 3.2 3.3 3.4 3.6 3.6 3.4 3.2 3.8 3.7 3.3 3.1 3.4 3.9 3.9 4.3 4.4 4.6 4.7 4.3 3.9 3.6 3.0 3.7 3.6 3.4 3.6 3.5 3.1
0.6 0.4 0.4 0.2 0.0 0.0 0.1 0.0 0.0 0.0 0.0 0.0 0.0 0.0 0.0 0.1 0.1 0.1 0.3 0.6 0.9 1.4 1.7 2.1 2.4 2.7 2.9 3.0 3.1 3.5 3.8 4.3 4.6 4.8 5.1 4.9 4.2 4.0 3.9 3.8 3.8 4.1 4.0 4.1 4.3 4.6 4.9 4.7 4.4 4.1 4.0 3.9 3.8 3.6

GFSWCAN_prec_snow_054.txt.gz
Snowfall_Accumulation
0.0 0.0 0.0 0.0 0.0 0.0 0.0 0.0 0.0 0.0 0.0 0.0 0.0 0.0 0.0 0.0 0.0 0.0 0.0 0.0 0.0 0.0 0.0 0.0 0.0 0.0 0.0 0.0 0.0 0.0 0.0 0.0 0.0 1.2 0.3 0.0 0.0 0.0 0.0 0.0 0.0 0.0 0.0 0.0 0.4 0.7 0.0 0.0 0.0 0.0 0.0 0.0 0.0 0.0
0.0 0.0 0.0 0.0 0.0 0.0 0.0 0.0 0.0 0.0 0.0 0.0 0.0 0.0 0.0 0.0 0.0 0.0 0.0 0.0 0.0 0.0 0.0 0.0 0.0 0.0 0.0 0.0 0.0 0.0 0.0 0.0 0.0 0.0 0.0 0.0 0.0 0.0 0.0 0.0 0.0 0.0 0.0 0.0 0.0 0.0 0.0 0.0 0.0 0.0 0.0 0.0 0.0 0.0
0.0 0.0 0.0 0.0 0.0 0.0 0.0 0.0 0.0 0.0 0.0 0.0 0.0 0.0 0.0 0.0 0.0 0.0 0.0 0.0 0.0 0.0 0.0 0.0 0.0 0.0 0.0 0.0 0.0 0.0 0.0 0.0 0.0 0.0 0.0 0.0 0.0 0.0 0.1 0.0 0.0 0.0 0.0 0.0 0.0 0.0 0.0 0.0 0.0 0.0 0.0 0.0 0.0 0.0
0.0 0.0 0.0 0.0 0.0 0.0 0.0 0.0 0.0 0.0 0.0 0.0 0.0 0.0 0.0 0.0 0.0 0.0 0.0 0.0 0.0 0.0 0.8 0.0 0.0 0.0 0.0 0.0 0.0 0.0 0.0 0.0 0.0 0.0 0.0 0.0 0.0 0.0 0.0 0.0 0.0 0.0 0.0 0.0 0.0 0.0 0.0 0.0 0.0 0.0 0.0 0.0 0.0 0.0
0.0 0.0 0.0 0.0 0.0 0.0 0.0 0.0 0.0 0.0 0.0 0.0 0.0 0.0 0.0 0.0 0.0 0.0 0.0 0.0 0.0 1.2 1.4 0.7 0.0 0.0 0.0 0.0 0.0 0.0 0.0 0.0 0.0 0.0 0.0 0.0 0.0 0.0 0.0 0.0 0.0 0.0 0.0 0.0 0.0 0.0 0.0 0.0 0.0 0.0 0.0 0.0 0.0 0.0
0.0 0.0 0.0 0.0 0.0 0.0 0.0 0.0 0.0 0.0 0.0 0.0 0.0 0.0 0.0 0.0 0.0 0.0 0.0 0.0 0.0 0.0 2.3 3.1 0.0 0.0 0.0 0.0 0.0 0.0 0.0 0.0 0.0 0.0 0.0 0.0 0.0 0.0 0.0 0.0 0.0 0.0 0.0 0.0 0.0 0.0 0.0 0.0 0.0 0.0 0.0 0.0 0.0 0.0
0.0 0.0 0.0 0.0 0.0 0.0 0.0 0.0 0.0 0.0 0.0 0.0 0.0 0.0 0.0 0.0 0.0 0.0 0.0 0.0 0.0 0.0 1.9 2.2 0.0 0.0 0.0 0.0 0.0 0.0 0.0 0.0 0.0 0.0 0.0 0.0 0.0 0.0 0.0 0.0 0.0 0.0 0.0 0.0 0.0 0.0 0.0 0.0 0.0 0.0 0.0 0.0 0.0 0.0
0.0 0.0 0.0 0.0 0.0 0.0 0.0 0.0 0.0 0.0 0.0 0.0 0.0 0.0 0.0 0.0 0.0 0.0 0.0 0.0 0.0 0.0 0.0 0.5 0.0 0.0 0.0 0.0 0.0 0.0 0.0 0.0 0.0 0.0 0.0 0.0 0.0 0.0 0.8 0.0 0.0 0.0 0.0 0.0 0.0 0.0 0.0 0.0 0.0 0.0 0.0 0.0 0.0 0.0
0.0 0.0 0.0 0.0 0.0 0.0 0.0 0.0 0.0 0.0 0.0 0.0 0.0 0.0 0.0 0.0 0.0 0.0 0.0 0.0 0.0 0.0 0.3 0.0 0.0 0.1 0.0 0.0 0.0 0.0 0.0 0.0 0.0 0.0 0.0 0.0 0.0 1.1 0.1 0.0 0.0 0.0 0.0 0.0 0.0 0.0 0.0 0.0 0.0 0.0 0.0 0.0 0.0 0.0
0.0 0.0 0.0 0.0 0.0 0.0 0.0 0.0 0.0 0.0 0.0 0.0 0.0 0.0 0.1 0.0 0.0 0.0 0.0 0.0 0.0 0.0 0.0 0.0 0.0 0.0 0.0 0.0 0.0 0.0 0.0 0.0 3.1 0.0 0.0 0.6 0.0 0.0 0.0 0.0 0.0 0.0 0.0 0.0 0.0 0.0 0.0 0.0 0.0 0.0 0.0 0.0 0.0 0.0
0.0 0.0 0.0 0.0 0.0 0.0 0.0 0.0 0.0 0.0 0.0 0.0 1.8 0.5 0.0 0.0 0.0 0.0 0.0 0.0 0.0 0.0 0.0 0.0 0.0 0.0 0.0 0.0 0.0 0.0 0.0 0.0 1.1 1.4 2.3 2.5 1.8 0.3 0.0 0.0 0.0 0.0 0.0 0.0 0.0 0.0 0.0 0.0 0.0 0.0 0.0 0.0 0.0 0.0
0.0 0.0 0.0 0.0 0.0 0.0 0.0 0.0 0.0 0.0 7.2 0.0 0.0 0.0 0.0 0.0 0.0 0.7 1.5 0.0 0.0 0.0 0.0 0.0 0.0 0.0 0.0 0.0 0.0 0.0 0.0 0.0 0.1 0.0 1.6 1.0 0.1 0.0 0.0 0.0 0.0 0.0 0.0 0.0 0.0 0.0 0.0 0.0 0.0 0.0 0.0 0.0 0.0 0.0
0.0 0.0 0.0 0.0 0.0 0.0 0.0 0.0 0.0 0.0 0.0 0.0 5.5 11.3 8.9 5.9 4.9 0.3 1.1 0.2 0.0 0.0 0.0 0.0 0.0 0.0 0.0 0.0 0.0 0.0 0.0 0.0 0.0 0.2 0.2 0.9 0.0 0.0 0.0 0.0 0.0 0.0 0.9 1.0 0.0 0.0 0.0 0.0 0.0 0.0 0.0 0.0 0.0 0.0
0.0 0.0 0.0 0.0 0.0 0.0 0.0 0.0 0.0 0.0 7.1 4.5 17.8 15.8 5.6 3.0 0.5 0.7 0.4 0.0 0.0 0.0 0.0 0.0 0.0 0.0 0.0 0.0 0.0 0.0 0.0 0.0 0.1 0.0 0.0 0.0 0.0 0.0 0.0 0.0 0.0 0.0 0.0 0.0 0.0 0.0 0.0 0.0 0.0 0.0 0.0 0.0 0.0 0.0
0.0 0.0 0.0 0.0 0.0 0.0 0.0 0.0 0.0 0.0 6.3 16.2 8.6 5.8 2.5 0.8 0.2 0.1 0.2 0.0 0.0 0.0 0.0 0.0 0.0 0.0 0.0 0.0 0.0 0.0 0.2 0.0 0.0 0.0 0.0 0.0 0.0 0.0 0.0 0.0 0.0 0.0 0.0 0.0 0.0 0.0 0.0 0.0 0.0 0.0 0.0 0.0 0.0 0.0
0.0 0.0 0.0 0.0 0.0 0.0 0.0 0.0 0.0 0.0 18.9 14.8 7.5 3.3 0.5 0.0 0.0 0.0 0.0 0.0 0.0 0.0 0.0 0.0 0.0 0.0 0.0 0.0 0.1 0.0 0.0 0.0 0.0 0.0 0.0 0.0 0.0 0.0 0.0 0.0 0.0 0.0 0.0 0.0 0.0 0.0 0.0 0.0 0.0 0.0 0.0 0.0 0.0 0.0
0.0 0.0 0.0 0.0 0.0 0.0 0.0 3.7 7.3 16.5 19.3 14.4 4.0 0.1 0.0 0.0 0.0 0.2 0.1 0.0 0.0 0.1 0.1 0.0 0.8 0.0 0.0 0.0 0.0 0.0 0.0 0.0 0.0 0.0 0.0 0.0 0.0 0.0 0.0 0.0 0.0 0.0 0.0 0.0 0.0 0.0 0.0 0.0 0.0 0.0 0.0 0.0 0.0 0.0
0.0 0.0 0.0 0.0 0.0 0.0 0.2 12.8 17.6 17.2 14.1 7.2 0.5 0.1 0.1 0.0 0.0 0.0 0.1 0.0 0.0 0.5 0.8 1.4 0.6 0.9 0.1 0.0 0.0 0.0 0.0 0.0 0.0 0.0 0.0 0.0 0.0 0.0 0.0 0.0 0.0 0.0 0.0 0.0 0.0 0.0 0.0 0.0 0.0 0.0 0.0 0.0 0.0 0.0
0.0 0.0 0.0 0.0 0.0 3.3 7.2 9.5 11.5 10.6 6.7 2.6 0.2 0.2 0.2 0.1 0.0 0.0 0.0 0.4 0.0 0.7 1.6 2.7 1.7 0.5 0.0 0.0 0.0 0.0 0.0 0.0 0.0 0.0 0.0 0.0 0.0 0.0 0.0 0.0 0.0 0.0 0.0 0.0 0.0 0.0 0.0 0.0 0.0 0.0 0.0 0.0 0.0 0.0
0.0 0.0 0.0 0.0 0.0 3.7 4.9 7.3 5.1 6.3 4.1 2.8 1.5 0.8 0.7 0.4 0.2 0.4 0.2 0.1 0.6 1.9 2.9 2.5 0.5 0.1 0.0 0.1 0.2 0.1 0.0 0.0 0.0 0.0 0.0 0.0 0.0 0.0 0.0 0.0 0.0 0.0 0.0 0.0 0.0 0.0 0.0 0.0 0.0 0.0 0.0 0.0 0.0 0.0
0.0 0.0 0.0 0.0 2.0 3.0 4.2 3.8 5.5 5.1 4.2 3.5 4.5 3.0 2.8 1.6 1.4 1.6 3.4 1.5 4.4 5.2 2.4 1.0 0.1 0.0 0.2 0.1 0.0 0.0 0.1 0.0 0.0 0.0 0.0 0.0 0.0 0.0 0.0 0.0 0.0 0.0 0.0 0.0 0.0 0.0 0.0 0.0 0.0 0.0 0.0 0.0 0.0 0.0
0.1 0.0 0.1 0.0 2.2 2.1 2.3 3.1 3.9 4.0 2.9 3.9 5.3 5.3 5.0 4.3 4.9 5.5 5.7 8.0 8.1 3.4 1.1 0.4 0.5 0.6 0.3 0.3 0.2 0.6 0.0 0.3 0.0 0.0 0.0 0.0 0.0 0.0 0.0 0.0 0.0 0.0 0.0 0.0 0.0 0.0 0.0 0.0 0.0 0.0 0.0 0.0 0.0 0.0
0.0 0.0 0.7 0.9 1.4 0.6 1.9 2.2 2.5 3.3 3.4 4.1 4.5 4.8 5.8 5.2 6.7 7.8 9.4 7.1 4.5 2.4 1.5 1.4 1.1 1.3 1.1 0.7 0.4 0.1 0.1 0.0 0.0 0.2 0.1 0.0 0.0 0.0 0.0 0.0 0.0 0.0 0.0 0.0 0.0 0.0 0.0 0.0 0.0 0.0 0.0 0.0 0.0 0.0
0.0 0.4 0.3 0.3 0.5 1.2 1.1 1.9 1.6 2.0 2.6 3.0 3.6 3.8 3.4 5.1 5.6 6.2 5.0 2.3 2.2 2.4 1.9 2.1 1.7 0.9 1.1 1.2 1.4 1.1 0.7 0.3 0.1 0.1 0.7 0.5 0.1 0.0 0.0 0.0 0.0 0.0 0.0 0.0 0.0 0.0 0.0 0.0 0.0 0.0 0.0 0.0 0.0 0.0
2.1 0.8 0.3 0.1 0.0 0.1 0.4 1.2 1.4 1.1 1.7 2.6 3.1 3.2 3.6 4.2 5.4 4.1 2.3 1.9 3.0 4.0 3.4 2.4 1.6 1.3 1.0 1.1 1.0 1.3 1.3 1.6 1.2 0.4 0.2 1.0 0.7 0.4 0.1 0.5 0.2 0.0 0.0 0.0 0.0 0.0 0.0 0.0 0.0 0.0 0.0 0.0 0.0 0.1
1.7 0.3 0.1 0.0 0.0 0.0 0.0 0.5 1.1 1.6 1.8 2.3 2.7 2.8 3.3 3.5 3.0 2.8 1.8 2.1 3.3 4.2 4.3 3.7 2.4 1.4 1.5 1.7 1.5 1.7 1.6 1.6 1.3 1.0 1.6 1.9 1.3 1.3 1.0 0.9 0.8 0.5 0.0 0.3 0.2 0.3 0.3 0.2 0.1 0.1 0.2 0.0 0.6 0.9
0.7 0.1 0.0 0.0 0.0 0.0 0.0 0.0 0.0 0.0 0.6 1.3 1.5 1.7 1.8 2.2 2.4 1.3 1.2 2.1 3.2 3.9 4.3 4.3 3.8 2.4 2.1 2.1 2.3 2.4 2.6 2.5 2.5 1.2 2.4 2.8 2.5 1.7 1.2 1.1 0.6 0.4 0.3 1.4 1.1 0.9 1.0 1.0 1.0 1.1 1.5 1.6 1.7 1.6
0.0 0.0 0.0 0.0 0.0 0.0 0.0 0.0 0.0 0.0 0.0 0.1 0.9 0.9 1.0 1.0 0.6 0.7 1.3 1.9 3.2 3.8 4.2 4.5 4.5 3.3 2.6 2.4 2.7 3.0 3.3 3.6 3.5 3.3 3.0 3.4 3.5 3.4 2.8 3.1 2.8 2.7 2.2 2.4 2.5 2.4 2.2 2.2 2.2 2.1 2.4 2.3 1.9 2.0
0.1 0.0 0.0 0.0 0.0 0.0 0.0 0.0 0.0 0.0 0.0 0.0 0.0 0.3 0.2 0.3 0.5 0.8 1.2 2.1 2.9 3.4 3.8 4.0 4.2 4.2 3.7 3.4 3.5 3.6 3.4 3.6 3.1 2.6 1.9 1.9 2.2 2.8 4.0 4.2 4.2 4.8 4.0 3.4 3.2 3.0 2.4 2.5 2.6 2.7 2.6 2.6 2.5 2.6
0.0 0.0 0.0 0.0 0.0 0.0 0.0 0.0 0.0 0.0 0.0 0.0 0.0 0.0 0.0 0.2 0.5 0.8 1.2 1.6 2.5 3.1 3.7 4.1 4.1 4.3 4.1 3.9 4.1 4.2 4.1 4.0 4.0 3.0 2.3 2.0 1.6 3.1 4.0 4.3 4.3 3.6 4.1 4.2 3.7 3.8 4.0 4.2 3.9 3.8 3.4 3.2 3.1 3.0
0.0 0.0 0.0 0.0 0.0 0.0 0.0 0.1 0.1 0.0 0.0 0.0 0.0 0.0 0.0 0.0 0.3 0.6 1.0 1.5 2.0 2.7 3.2 3.5 3.7 4.2 4.2 4.1 4.2 4.0 3.8 3.9 4.1 4.2 3.9 3.7 3.7 3.6 4.3 4.5 4.3 4.6 4.7 4.4 3.5 3.6 3.1 2.3 1.7 1.9 1.9 2.1 2.5 2.2
0.1 0.0 0.0 0.0 0.0 0.2 0.2 0.1 0.1 0.0 0.0 0.0 0.0 0.0 0.1 0.1 0.1 0.3 0.5 0.9 1.4 1.8 2.5 2.8 2.8 3.0 3.2 3.3 3.4 3.6 3.6 3.4 3.2 3.8 3.7 3.3 3.1 3.4 3.9 3.9 4.3 4.4 4.6 4.7 4.3 4.0 3.7 3.1 3.7 3.6 3.5 3.6 3.5 3.1
0.6 0.4 0.4 0.2 0.0 0.0 0.1 0.0 0.0 0.0 0.0 0.0 0.0 0.0 0.0 0.1 0.1 0.1 0.3 0.6 0.9 1.4 1.7 2.1 2.4 2.7 2.9 3.0 3.1 3.5 3.8 4.3 4.6 4.8 5.1 4.9 4.2 4.0 4.0 3.9 3.8 4.1 4.1 4.2 4.3 4.7 4.9 4.8 4.4 4.1 4.0 3.9 3.9 3.7

GFSWCAN_prec_snow_057.txt.gz
Snowfall_Accumulation
0.0 0.0 0.0 0.0 0.0 0.0 0.0 0.0 0.0 0.0 0.0 0.0 0.0 0.0 0.0 0.0 0.0 0.0 0.0 0.0 0.0 0.0 0.0 0.0 0.0 0.0 0.0 0.0 0.0 0.0 0.0 0.0 0.0 1.2 0.3 0.0 0.0 0.0 0.0 0.0 0.0 0.0 0.0 0.0 0.4 0.7 0.0 0.0 0.0 0.0 0.0 0.0 0.0 0.0
0.0 0.0 0.0 0.0 0.0 0.0 0.0 0.0 0.0 0.0 0.0 0.0 0.0 0.0 0.0 0.0 0.0 0.0 0.0 0.0 0.0 0.0 0.0 0.0 0.0 0.0 0.0 0.0 0.0 0.0 0.0 0.0 0.0 0.0 0.0 0.0 0.0 0.0 0.0 0.0 0.0 0.0 0.0 0.0 0.0 0.0 0.0 0.0 0.0 0.0 0.0 0.0 0.0 0.0
0.0 0.0 0.0 0.0 0.0 0.0 0.0 0.0 0.0 0.0 0.0 0.0 0.0 0.0 0.0 0.0 0.0 0.0 0.0 0.0 0.0 0.0 0.0 0.0 0.0 0.0 0.0 0.0 0.0 0.0 0.0 0.0 0.0 0.0 0.0 0.0 0.0 0.0 0.1 0.0 0.0 0.0 0.0 0.0 0.0 0.0 0.0 0.0 0.0 0.0 0.0 0.0 0.0 0.0
0.0 0.0 0.0 0.0 0.0 0.0 0.0 0.0 0.0 0.0 0.0 0.0 0.0 0.0 0.0 0.0 0.0 0.0 0.0 0.0 0.0 0.0 0.8 0.0 0.0 0.0 0.0 0.0 0.0 0.0 0.0 0.0 0.0 0.0 0.0 0.0 0.0 0.0 0.0 0.0 0.0 0.0 0.0 0.0 0.0 0.0 0.0 0.0 0.0 0.0 0.0 0.0 0.0 0.0
0.0 0.0 0.0 0.0 0.0 0.0 0.0 0.0 0.0 0.0 0.0 0.0 0.0 0.0 0.0 0.0 0.0 0.0 0.0 0.0 0.0 1.2 1.6 0.7 0.0 0.0 0.0 0.0 0.0 0.0 0.0 0.0 0.0 0.0 0.0 0.0 0.0 0.0 0.0 0.0 0.0 0.0 0.0 0.0 0.0 0.0 0.0 0.0 0.0 0.0 0.0 0.0 0.0 0.0
0.0 0.0 0.0 0.0 0.0 0.0 0.0 0.0 0.0 0.0 0.0 0.0 0.0 0.0 0.0 0.0 0.0 0.0 0.0 0.0 0.0 0.0 2.3 3.1 0.0 0.0 0.0 0.0 0.0 0.0 0.0 0.0 0.0 0.0 0.0 0.0 0.0 0.0 0.0 0.0 0.0 0.0 0.0 0.0 0.0 0.0 0.0 0.0 0.0 0.0 0.0 0.0 0.0 0.0
0.0 0.0 0.0 0.0 0.0 0.0 0.0 0.0 0.0 0.0 0.0 0.0 0.0 0.0 0.0 0.0 0.0 0.0 0.0 0.0 0.0 0.0 1.9 4.6 2.5 0.0 0.0 0.0 0.0 0.0 0.0 0.0 0.0 0.0 0.0 0.0 0.0 0.0 0.0 0.0 0.0 0.0 0.0 0.0 0.0 0.0 0.0 0.0 0.0 0.0 0.0 0.0 0.0 0.0
0.0 0.0 0.0 0.0 0.0 0.0 0.0 0.0 0.0 0.0 0.0 0.0 0.0 0.0 0.0 0.0 0.0 0.0 0.0 0.0 0.0 0.0 1.8 2.8 0.0 0.0 0.0 0.0 0.0 0.0 0.0 0.0 0.0 0.0 0.0 0.0 0.0 0.0 1.2 0.0 0.0 0.0 0.0 0.0 0.0 0.0 0.0 0.0 0.0 0.0 0.0 0.0 0.0 0.0
0.0 0.0 0.0 0.0 0.0 0.0 0.0 0.0 0.0 0.0 0.0 0.0 0.0 0.0 0.0 0.0 0.0 0.0 0.0 0.0 0.0 0.0 1.4 0.7 0.5 1.1 0.0 0.0 0.0 0.0 0.0 0.0 0.0 0.0 0.0 0.0 0.0 1.2 0.1 0.0 0.0 0.0 0.0 0.0 0.0 0.0 0.0 0.0 0.0 0.0 0.0 0.0 0.0 0.0
0.0 0.0 0.0 0.0 0.0 0.0 0.0 0.0 0.0 0.0 0.0 0.0 0.0 0.0 0.3 0.0 0.0 0.0 0.0 0.7 0.7 0.0 0.0 0.3 0.0 0.0 0.0 0.0 0.0 0.0 0.0 0.0 3.1 0.0 0.0 0.9 0.0 0.0 0.0 0.0 0.0 0.0 0.0 0.0 0.0 0.0 0.0 0.0 0.0 0.0 0.0 0.0 0.0 0.0
0.0 0.0 0.0 0.0 0.0 0.0 0.0 0.0 0.0 0.0 0.0 0.0 1.8 0.5 0.0 0.0 0.0 0.0 0.3 0.3 0.0 0.1 0.0 0.0 0.0 0.0 0.0 0.0 0.0 0.0 0.0 0.0 1.2 1.4 2.3 2.5 1.8 0.3 0.0 0.0 0.0 0.0 0.0 0.0 0.0 0.0 0.0 0.0 0.0 0.0 0.0 0.0 0.0 0.0
0.0 0.0 0.0 0.0 0.0 0.0 0.0 0.0 0.0 0.0 7.2 0.0 0.0 0.0 0.0 0.0 0.0 1.0 1.7 0.1 0.1 0.0 0.0 0.0 0.0 0.0 0.0 0.0 0.0 0.0 0.0 0.0 0.1 0.0 1.7 1.0 0.1 0.0 0.0 0.0 0.0 0.0 0.0 0.0 0.0 0.0 0.0 0.0 0.0 0.0 0.0 0.0 0.0 0.0
0.0 0.0 0.0 0.0 0.0 0.0 0.0 0.0 0.0 0.0 0.0 0.0 5.5 11.7 8.9 6.3 5.3 0.5 1.3 0.3 0.1 0.0 0.0 0.0 0.0 0.0 0.0 0.0 0.0 0.0 0.0 0.0 0.0 0.2 0.2 0.9 0.0 0.0 0.0 0.0 0.0 0.0 1.1 1.9 0.9 0.3 0.0 0.0 0.0 0.0 0.0 0.0 0.0 0.0
0.0 0.0 0.0 0.0 0.0 0.0 0.0 0.0 0.0 0.0 7.1 4.5 17.9 16.1 5.8 3.3 0.5 0.7 0.4 0.0 0.0 0.0 0.0 0.0 0.0 0.0 0.0 0.0 0.0 0.0 0.0 0.0 0.1 0.0 0.0 0.0 0.0 0.0 0.0 0.0 0.0 0.0 0.0 0.0 0.0 0.0 0.0 0.0 0.0 0.0 0.0 0.0 0.0 0.0
0.0 0.0 0.0 0.0 0.0 0.0 0.0 0.0 0.0 0.0 6.3 16.2 8.7 5.9 2.6 0.8 0.2 0.1 0.2 0.0 0.0 0.0 0.0 0.0 0.0 0.0 0.0 0.0 0.0 0.0 0.2 0.0 0.0 0.0 0.0 0.0 0.0 0.0 0.0 0.0 0.0 0.0 0.0 0.0 0.0 0.0 0.0 0.0 0.0 0.0 0.0 0.0 0.0 0.0
0.0 0.0 0.0 0.0 0.0 0.0 0.0 0.0 0.0 0.0 18.9 14.8 7.5 3.3 0.5 0.0 0.0 0.0 0.0 0.0 0.0 0.0 0.0 0.0 0.0 0.0 0.0 0.0 0.2 0.0 0.0 0.0 0.0 0.0 0.0 0.0 0.0 0.0 0.0 0.0 0.0 0.0 0.0 0.0 0.0 0.0 0.0 0.0 0.0 0.0 0.0 0.0 0.0 0.0
0.0 0.0 0.0 0.0 0.0 0.0 0.0 3.7 7.3 16.5 19.3 14.4 4.0 0.1 0.0 0.0 0.0 0.2 0.1 0.0 0.0 0.1 0.4 0.0 0.9 0.0 0.0 0.0 0.0 0.0 0.0 0.0 0.0 0.0 0.0 0.0 0.0 0.0 0.0 0.0 0.0 0.0 0.0 0.0 0.0 0.0 0.0 0.0 0.0 0.0 0.0 0.0 0.0 0.0
0.0 0.0 0.0 0.0 0.0 0.0 0.6 12.8 17.6 17.2 14.1 7.2 0.5 0.1 0.1 0.0 0.0 0.0 0.1 0.0 0.0 0.5 1.2 1.8 0.6 0.9 0.1 0.0 0.0 0.0 0.0 0.0 0.0 0.0 0.0 0.0 0.0 0.0 0.0 0.0 0.0 0.0 0.0 0.0 0.0 0.0 0.0 0.0 0.0 0.0 0.0 0.0 0.0 0.0
0.0 0.0 0.0 0.0 0.0 3.4 7.5 9.5 11.5 10.6 6.7 2.6 0.2 0.2 0.2 0.1 0.0 0.0 0.0 0.4 0.0 0.7 1.9 3.1 1.9 0.5 0.0 0.0 0.0 0.0 0.0 0.0 0.0 0.0 0.0 0.0 0.0 0.0 0.0 0.0 0.0 0.0 0.0 0.0 0.0 0.0 0.0 0.0 0.0 0.0 0.0 0.0 0.0 0.0
0.0 0.0 0.0 0.0 0.0 3.8 5.1 7.6 5.3 6.6 4.1 2.8 1.5 0.8 0.7 0.4 0.2 0.4 0.2 0.1 0.6 1.9 3.0 2.5 0.5 0.1 0.0 0.1 0.2 0.1 0.0 0.0 0.0 0.0 0.0 0.0 0.0 0.0 0.0 0.0 0.0 0.0 0.0 0.0 0.0 0.0 0.0 0.0 0.0 0.0 0.0 0.0 0.0 0.0
0.0 0.0 0.0 0.0 2.1 3.1 4.4 4.1 5.9 5.4 4.6 3.8 4.9 3.4 3.0 1.6 1.4 1.6 3.4 1.5 4.4 5.2 2.4 1.0 0.1 0.0 0.2 0.1 0.0 0.0 0.1 0.0 0.0 0.0 0.0 0.0 0.0 0.0 0.0 0.0 0.0 0.0 0.0 0.0 0.0 0.0 0.0 0.0 0.0 0.0 0.0 0.0 0.0 0.0
0.1 0.0 0.1 0.0 2.2 2.1 2.3 3.2 4.1 4.2 3.2 4.3 5.8 5.8 5.4 4.5 5.1 5.6 5.8 8.0 8.1 3.4 1.1 0.4 0.5 0.6 0.3 0.3 0.2 0.6 0.0 0.3 0.0 0.0 0.0 0.0 0.0 0.0 0.0 0.0 0.0 0.0 0.0 0.0 0.0 0.0 0.0 0.0 0.0 0.0 0.0 0.0 0.0 0.0
0.0 0.0 0.7 0.9 1.4 0.6 1.9 2.2 2.5 3.3 3.4 4.1 4.6 5.0 6.0 5.4 6.8 7.9 9.5 7.1 4.5 2.4 1.5 1.4 1.1 1.3 1.1 0.7 0.4 0.1 0.1 0.0 0.0 0.2 0.1 0.0 0.0 0.0 0.0 0.0 0.0 0.0 0.0 0.0 0.0 0.0 0.0 0.0 0.0 0.0 0.0 0.0 0.0 0.0
0.0 0.4 0.3 0.3 0.5 1.2 1.1 1.9 1.6 2.0 2.6 3.0 3.6 3.8 3.4 5.1 5.6 6.2 5.0 2.3 2.2 2.4 1.9 2.1 1.7 0.9 1.1 1.2 1.4 1.1 0.7 0.3 0.1 0.1 0.7 0.5 0.1 0.0 0.0 0.0 0.0 0.0 0.0 0.0 0.0 0.0 0.0 0.0 0.0 0.0 0.0 0.0 0.0 0.0
2.1 0.8 0.3 0.1 0.0 0.1 0.4 1.2 1.4 1.1 1.7 2.6 3.1 3.2 3.6 4.2 5.4 4.1 2.3 1.9 3.0 4.0 3.4 2.4 1.6 1.3 1.0 1.1 1.0 1.3 1.3 1.6 1.2 0.4 0.2 1.0 0.7 0.4 0.1 0.5 0.2 0.0 0.0 0.0 0.0 0.0 0.0 0.0 0.0 0.0 0.0 0.0 0.0 0.1
1.7 0.3 0.1 0.0 0.0 0.0 0.0 0.5 1.1 1.6 1.8 2.3 2.7 2.8 3.3 3.5 3.0 2.8 1.8 2.1 3.3 4.2 4.3 3.7 2.4 1.4 1.5 1.7 1.5 1.7 1.6 1.6 1.3 1.0 1.6 1.9 1.3 1.3 1.0 0.9 0.8 0.5 0.0 0.3 0.2 0.3 0.3 0.2 0.1 0.1 0.2 0.0 0.6 0.9
0.7 0.1 0.0 0.0 0.0 0.0 0.0 0.0 0.0 0.0 0.6 1.3 1.5 1.7 1.8 2.2 2.4 1.3 1.2 2.1 3.2 3.9 4.3 4.3 3.8 2.4 2.1 2.1 2.3 2.4 2.6 2.5 2.5 1.2 2.4 2.8 2.5 1.7 1.2 1.1 0.6 0.4 0.3 1.4 1.1 0.9 1.0 1.0 1.0 1.1 1.5 1.6 1.7 1.6
0.0 0.0 0.0 0.0 0.0 0.0 0.0 0.0 0.0 0.0 0.0 0.1 0.9 0.9 1.0 1.0 0.6 0.7 1.3 1.9 3.2 3.8 4.2 4.5 4.5 3.3 2.6 2.4 2.7 3.0 3.3 3.6 3.5 3.3 3.0 3.4 3.5 3.4 2.8 3.1 2.8 2.7 2.2 2.4 2.5 2.4 2.2 2.2 2.2 2.1 2.4 2.3 1.9 2.0
0.1 0.0 0.0 0.0 0.0 0.0 0.0 0.0 0.0 0.0 0.0 0.0 0.0 0.3 0.2 0.3 0.5 0.8 1.2 2.1 2.9 3.4 3.8 4.0 4.2 4.2 3.7 3.4 3.5 3.6 3.4 3.6 3.1 2.6 1.9 1.9 2.2 2.8 4.0 4.2 4.2 4.8 4.0 3.4 3.2 3.0 2.4 2.5 2.7 2.8 2.6 2.6 2.5 2.6
0.0 0.0 0.0 0.0 0.0 0.0 0.0 0.0 0.0 0.0 0.0 0.0 0.0 0.0 0.0 0.2 0.5 0.8 1.2 1.6 2.5 3.1 3.7 4.1 4.1 4.3 4.1 3.9 4.1 4.2 4.1 4.0 4.0 3.0 2.3 2.0 1.6 3.1 4.0 4.3 4.3 3.6 4.1 4.2 3.7 3.8 4.0 4.2 3.9 3.8 3.4 3.2 3.1 3.0
0.0 0.0 0.0 0.0 0.0 0.0 0.0 0.1 0.1 0.0 0.0 0.0 0.0 0.0 0.0 0.0 0.3 0.6 1.0 1.5 2.0 2.7 3.2 3.5 3.7 4.2 4.2 4.1 4.2 4.0 3.8 3.9 4.1 4.2 3.9 3.7 3.7 3.6 4.3 4.5 4.3 4.6 4.7 4.4 3.5 3.6 3.1 2.3 1.7 1.9 1.9 2.1 2.5 2.2
0.1 0.0 0.0 0.0 0.0 0.2 0.2 0.1 0.1 0.0 0.0 0.0 0.0 0.0 0.1 0.1 0.1 0.3 0.5 0.9 1.4 1.8 2.5 2.8 2.8 3.0 3.2 3.3 3.4 3.6 3.6 3.4 3.2 3.8 3.7 3.3 3.1 3.4 3.9 3.9 4.3 4.4 4.6 4.7 4.3 4.0 3.7 3.1 3.8 3.6 3.5 3.6 3.5 3.1
0.6 0.4 0.4 0.2 0.0 0.0 0.1 0.0 0.0 0.0 0.0 0.0 0.0 0.0 0.0 0.1 0.1 0.1 0.3 0.6 0.9 1.4 1.7 2.1 2.4 2.7 2.9 3.0 3.1 3.5 3.8 4.3 4.6 4.8 5.1 4.9 4.2 4.0 4.0 4.0 3.9 4.1 4.1 4.2 4.4 4.7 5.0 4.8 4.5 4.1 4.1 3.9 3.9 3.8

GFSWCAN_prec_snow_060.txt.gz
Snowfall_Accumulation
0.0 0.0 0.0 0.0 0.0 0.0 0.0 0.0 0.0 0.0 0.0 0.0 0.0 0.0 0.0 0.0 0.0 0.0 0.0 0.0 0.0 0.0 0.0 0.0 0.0 0.0 0.0 0.0 0.0 0.0 0.0 0.0 0.0 1.2 0.3 0.0 0.0 0.0 0.0 0.0 0.0 0.0 0.0 0.0 0.4 0.7 0.0 0.0 0.0 0.0 0.0 0.0 0.0 0.0
0.0 0.0 0.0 0.0 0.0 0.0 0.0 0.0 0.0 0.0 0.0 0.0 0.0 0.0 0.0 0.0 0.0 0.0 0.0 0.0 0.0 0.0 0.0 0.0 0.0 0.0 0.0 0.0 0.0 0.0 0.0 0.0 0.0 0.0 0.0 0.0 0.0 0.0 0.0 0.1 0.0 0.0 0.0 0.0 0.0 0.0 0.0 0.0 0.0 0.0 0.0 0.0 0.0 0.0
0.0 0.0 0.0 0.0 0.0 0.0 0.0 0.0 0.0 0.0 0.0 0.0 0.0 0.0 0.0 0.0 0.0 0.0 0.0 0.0 0.0 0.0 0.0 0.0 0.0 0.0 0.0 0.0 0.0 0.0 0.0 0.0 0.0 0.0 0.0 0.0 0.0 0.0 0.1 0.0 0.0 0.0 0.0 0.0 0.0 0.0 0.0 0.0 0.0 0.0 0.0 0.0 0.0 0.0
0.0 0.0 0.0 0.0 0.0 0.0 0.0 0.0 0.0 0.0 0.0 0.0 0.0 0.0 0.0 0.0 0.0 0.0 0.0 0.0 0.0 0.0 0.9 0.0 0.0 0.0 0.0 0.0 0.0 0.0 0.0 0.0 0.0 0.0 0.0 0.0 0.0 0.0 0.0 0.0 0.0 0.0 0.0 0.0 0.0 0.0 0.0 0.0 0.0 0.0 0.0 0.0 0.0 0.0
0.0 0.0 0.0 0.0 0.0 0.0 0.0 0.0 0.0 0.0 0.0 0.0 0.0 0.0 0.0 0.0 0.0 0.0 0.0 0.0 0.0 1.2 1.7 0.7 0.0 0.0 0.0 0.0 0.0 0.0 0.0 0.0 0.0 0.0 0.0 0.0 0.0 0.0 0.0 0.0 0.0 0.0 0.0 0.0 0.0 0.0 0.0 0.0 0.0 0.0 0.0 0.0 0.0 0.0
0.0 0.0 0.0 0.0 0.0 0.0 0.0 0.0 0.0 0.0 0.0 0.0 0.0 0.0 0.0 0.0 0.0 0.0 0.0 0.0 0.0 0.0 2.4 3.1 0.0 0.0 0.0 0.0 0.0 0.0 0.0 0.0 0.0 0.0 0.0 0.0 0.0 0.0 0.0 0.0 0.0 0.0 0.0 0.0 0.0 0.0 0.0 0.0 0.0 0.0 0.0 0.0 0.0 0.0
0.0 0.0 0.0 0.0 0.0 0.0 0.0 0.0 0.0 0.0 0.0 0.0 0.0 0.0 0.0 0.0 0.0 0.0 0.0 0.0 0.0 0.0 2.1 5.6 4.0 0.0 0.0 0.0 0.0 0.0 0.0 0.0 0.0 0.0 0.0 0.0 0.0 0.0 0.0 0.0 0.0 0.0 0.0 0.0 0.0 0.0 0.0 0.0 0.0 0.0 0.0 0.0 0.0 0.0
0.0 0.0 0.0 0.0 0.0 0.0 0.0 0.0 0.0 0.0 0.0 0.0 0.0 0.0 0.0 0.0 0.0 0.0 0.0 0.0 0.0 0.0 2.2 4.2 2.2 0.0 0.0 0.0 0.0 0.0 0.0 0.0 0.0 0.0 0.0 0.0 0.0 0.0 1.3 0.0 0.0 0.0 0.0 0.0 0.0 0.0 0.0 0.0 0.0 0.0 0.0 0.0 0.0 0.0
0.0 0.0 0.0 0.0 0.0 0.0 0.0 0.0 0.0 0.0 0.0 0.0 0.0 0.0 0.0 0.0 0.0 0.0 0.0 0.0 0.0 0.0 2.2 2.4 2.4 2.2 0.0 0.0 0.0 0.0 0.0 0.0 0.0 0.0 0.0 0.0 0.0 1.3 0.1 0.0 0.0 0.0 0.0 0.0 0.0 0.0 0.0 0.0 0.0 0.0 0.0 0.0 0.0 0.0
0.0 0.0 0.0 0.0 0.0 0.0 0.0 0.0 0.0 0.0 0.0 0.0 0.0 0.0 0.3 0.0 0.0 0.0 0.0 1.5 1.4 0.6 0.5 0.9 0.0 1.2 0.0 0.0 0.0 0.0 0.0 0.0 3.2 0.0 0.0 0.9 0.0 0.0 0.0 0.0 0.0 0.0 0.0 0.0 0.0 0.0 0.0 0.0 0.0 0.0 0.0 0.0 0.0 0.0
0.0 0.0 0.0 0.0 0.0 0.0 0.0 0.0 0.0 0.0 0.0 0.0 1.8 0.5 0.0 0.0 0.0 0.0 1.0 0.7 0.4 0.5 0.2 0.0 0.0 0.0 0.0 0.0 0.0 0.0 1.0 0.0 1.4 1.4 2.3 2.6 1.9 0.3 0.0 0.0 0.0 0.0 0.0 0.0 0.0 0.0 0.0 0.0 0.0 0.0 0.0 0.0 0.0 0.0
0.0 0.0 0.0 0.0 0.0 0.0 0.0 0.0 0.0 0.0 7.2 0.0 0.0 0.0 0.0 0.0 0.7 1.7 2.1 0.2 0.2 0.0 0.0 0.0 0.0 0.0 0.0 0.0 0.0 0.0 0.0 0.0 0.2 0.0 1.8 1.0 0.1 0.0 0.0 0.0 0.0 0.0 0.0 0.0 0.0 0.0 0.0 0.0 0.0 0.0 0.0 0.0 0.0 0.0
0.0 0.0 0.0 0.0 0.0 0.0 0.0 0.0 0.0 0.0 0.0 0.0 5.5 12.2 9.3 6.8 5.8 0.8 1.5 0.3 0.1 0.0 0.0 0.0 0.0 0.0 0.0 0.0 0.0 0.0 0.0 0.0 0.0 0.3 0.2 0.9 0.0 0.0 0.0 0.0 0.0 0.0 1.2 2.0 0.9 0.4 0.1 0.0 0.0 0.0 0.0 0.0 0.0 0.0
0.0 0.0 0.0 0.0 0.0 0.0 0.0 0.0 0.0 0.0 7.1 4.5 17.9 16.5 6.1 3.7 0.5 0.7 0.4 0.0 0.0 0.0 0.0 0.0 0.0 0.0 0.0 0.0 0.0 0.0 0.0 0.0 0.2 0.1 0.0 0.0 0.0 0.0 0.0 0.0 0.0 0.0 0.0 0.0 0.0 0.0 0.0 0.0 0.0 0.0 0.0 0.0 0.0 0.0
0.0 0.0 0.0 0.0 0.0 0.0 0.0 0.0 0.0 0.0 6.3 16.2 8.7 5.9 2.8 0.8 0.2 0.1 0.2 0.0 0.0 0.0 0.0 0.0 0.0 0.0 0.0 0.0 0.0 0.0 0.2 0.0 0.0 0.0 0.0 0.0 0.0 0.0 0.0 0.0 0.0 0.0 0.0 0.0 0.0 0.0 0.0 0.0 0.0 0.0 0.0 0.0 0.0 0.0
0.0 0.0 0.0 0.0 0.0 0.0 0.0 0.0 0.0 0.0 18.9 14.8 7.6 3.3 0.5 0.1 0.0 0.0 0.0 0.0 0.0 0.0 0.0 0.0 0.0 0.0 0.0 0.0 0.2 0.0 0.0 0.0 0.0 0.0 0.0 0.0 0.0 0.0 0.0 0.0 0.0 0.0 0.0 0.0 0.0 0.0 0.0 0.0 0.0 0.0 0.0 0.0 0.0 0.0
0.0 0.0 0.0 0.0 0.0 0.0 0.0 3.7 7.3 16.5 19.3 14.4 4.0 0.1 0.0 0.0 0.0 0.2 0.1 0.0 0.0 0.1 0.4 0.2 0.9 0.0 0.0 0.0 0.0 0.0 0.0 0.0 0.0 0.0 0.0 0.0 0.0 0.0 0.0 0.0 0.0 0.0 0.0 0.0 0.0 0.0 0.0 0.0 0.0 0.0 0.0 0.0 0.0 0.0
0.0 0.0 0.0 0.0 0.0 0.0 1.0 12.8 17.6 17.2 14.1 7.2 0.5 0.1 0.1 0.0 0.0 0.0 0.2 0.0 0.0 0.5 1.2 2.1 0.6 0.9 0.1 0.0 0.0 0.0 0.0 0.0 0.0 0.0 0.0 0.0 0.0 0.0 0.0 0.0 0.0 0.0 0.0 0.0 0.0 0.0 0.0 0.0 0.0 0.0 0.0 0.0 0.0 0.0
0.0 0.0 0.0 0.0 0.0 3.4 7.8 9.5 11.5 10.6 6.7 2.6 0.2 0.2 0.2 0.1 0.0 0.0 0.0 0.4 0.1 0.9 2.1 3.2 2.0 0.5 0.0 0.0 0.0 0.0 0.0 0.0 0.0 0.0 0.0 0.0 0.0 0.0 0.0 0.0 0.0 0.0 0.0 0.0 0.0 0.0 0.0 0.0 0.0 0.0 0.0 0.0 0.0 0.0
0.0 0.0 0.0 0.0 0.0 3.8 5.1 7.7 5.3 6.6 4.1 2.8 1.5 0.8 0.7 0.4 0.2 0.4 0.2 0.1 0.6 1.9 3.0 2.5 0.5 0.1 0.0 0.1 0.2 0.1 0.0 0.0 0.0 0.0 0.0 0.0 0.0 0.0 0.0 0.0 0.0 0.0 0.0 0.0 0.0 0.0 0.0 0.0 0.0 0.0 0.0 0.0 0.0 0.0
0.0 0.0 0.0 0.0 2.1 3.1 4.4 4.2 6.0 5.4 4.6 3.8 5.1 3.4 3.0 1.6 1.4 1.6 3.4 1.5 4.4 5.2 2.4 1.0 0.1 0.0 0.2 0.1 0.0 0.0 0.1 0.0 0.0 0.0 0.0 0.0 0.0 0.0 0.0 0.0 0.0 0.0 0.0 0.0 0.0 0.0 0.0 0.0 0.0 0.0 0.0 0.0 0.0 0.0
0.1 0.0 0.1 0.0 2.2 2.1 2.4 3.3 4.2 4.4 3.4 4.6 6.1 6.1 5.6 4.7 5.3 5.7 5.9 8.1 8.1 3.4 1.1 0.4 0.5 0.6 0.3 0.3 0.2 0.6 0.0 0.3 0.0 0.0 0.0 0.0 0.0 0.0 0.0 0.0 0.0 0.0 0.0 0.0 0.0 0.0 0.0 0.0 0.0 0.0 0.0 0.0 0.0 0.0
0.0 0.0 0.7 0.9 1.4 0.6 1.9 2.2 2.5 3.3 3.4 4.3 4.9 5.4 6.4 5.8 7.0 8.1 9.6 7.1 4.5 2.4 1.5 1.4 1.1 1.3 1.1 0.7 0.4 0.1 0.1 0.0 0.0 0.2 0.1 0.0 0.0 0.0 0.0 0.0 0.0 0.0 0.0 0.0 0.0 0.0 0.0 0.0 0.0 0.0 0.0 0.0 0.0 0.0
0.0 0.4 0.3 0.3 0.5 1.2 1.1 1.9 1.6 2.0 2.6 3.0 3.6 3.8 3.4 5.1 5.7 6.3 5.0 2.3 2.2 2.4 1.9 2.1 1.7 0.9 1.1 1.2 1.4 1.1 0.7 0.3 0.1 0.1 0.7 0.5 0.1 0.0 0.0 0.0 0.0 0.0 0.0 0.0 0.0 0.0 0.0 0.0 0.0 0.0 0.0 0.0 0.0 0.0
2.1 0.8 0.3 0.1 0.0 0.1 0.4 1.2 1.4 1.1 1.7 2.6 3.1 3.2 3.6 4.2 5.4 4.1 2.3 1.9 3.0 4.0 3.4 2.4 1.6 1.3 1.0 1.1 1.0 1.3 1.3 1.6 1.2 0.4 0.2 1.0 0.7 0.4 0.1 0.5 0.2 0.0 0.0 0.0 0.0 0.0 0.0 0.0 0.0 0.0 0.0 0.0 0.0 0.1
1.7 0.3 0.1 0.0 0.0 0.0 0.0 0.5 1.1 1.6 1.8 2.3 2.7 2.8 3.3 3.5 3.0 2.8 1.8 2.1 3.3 4.2 4.3 3.7 2.4 1.4 1.5 1.7 1.5 1.7 1.6 1.6 1.3 1.0 1.6 1.9 1.3 1.3 1.0 0.9 0.8 0.5 0.0 0.3 0.2 0.3 0.3 0.2 0.1 0.1 0.2 0.0 0.6 0.9
0.7 0.1 0.0 0.0 0.0 0.0 0.0 0.0 0.0 0.0 0.6 1.3 1.5 1.7 1.8 2.2 2.4 1.3 1.2 2.1 3.2 3.9 4.3 4.3 3.8 2.4 2.1 2.1 2.3 2.4 2.6 2.5 2.5 1.2 2.4 2.8 2.5 1.7 1.2 1.1 0.6 0.4 0.3 1.4 1.1 0.9 1.0 1.0 1.0 1.1 1.5 1.6 1.7 1.6
0.0 0.0 0.0 0.0 0.0 0.0 0.0 0.0 0.0 0.0 0.0 0.1 0.9 0.9 1.0 1.0 0.6 0.7 1.3 1.9 3.2 3.8 4.2 4.5 4.5 3.3 2.6 2.4 2.7 3.0 3.3 3.6 3.5 3.3 3.0 3.4 3.5 3.4 2.8 3.1 2.8 2.7 2.2 2.4 2.5 2.4 2.2 2.2 2.2 2.1 2.4 2.3 1.9 2.0
0.1 0.0 0.0 0.0 0.0 0.0 0.0 0.0 0.0 0.0 0.0 0.0 0.0 0.3 0.2 0.3 0.5 0.8 1.2 2.1 2.9 3.4 3.8 4.0 4.2 4.2 3.7 3.4 3.5 3.6 3.4 3.6 3.1 2.6 1.9 1.9 2.2 2.8 4.0 4.2 4.2 4.8 4.0 3.4 3.2 3.0 2.4 2.5 2.7 2.8 2.7 2.6 2.5 2.6
0.0 0.0 0.0 0.0 0.0 0.0 0.0 0.0 0.0 0.0 0.0 0.0 0.0 0.0 0.0 0.2 0.5 0.8 1.2 1.6 2.5 3.1 3.7 4.1 4.1 4.3 4.1 3.9 4.1 4.2 4.1 4.0 4.0 3.0 2.3 2.0 1.6 3.1 4.0 4.3 4.3 3.6 4.1 4.2 3.7 3.8 4.0 4.2 3.9 3.8 3.4 3.2 3.1 3.0
0.0 0.0 0.0 0.0 0.0 0.0 0.0 0.1 0.1 0.0 0.0 0.0 0.0 0.0 0.0 0.0 0.3 0.6 1.0 1.5 2.0 2.7 3.2 3.5 3.7 4.2 4.2 4.1 4.2 4.0 3.8 3.9 4.1 4.2 3.9 3.7 3.7 3.6 4.3 4.5 4.3 4.6 4.7 4.4 3.5 3.6 3.1 2.3 1.7 1.9 1.9 2.1 2.5 2.2
0.1 0.0 0.0 0.0 0.0 0.2 0.2 0.1 0.1 0.0 0.0 0.0 0.0 0.0 0.1 0.1 0.1 0.3 0.5 0.9 1.4 1.8 2.5 2.8 2.8 3.0 3.2 3.3 3.4 3.6 3.6 3.4 3.2 3.8 3.7 3.3 3.1 3.4 3.9 3.9 4.3 4.4 4.6 4.7 4.3 4.0 3.7 3.2 3.8 3.6 3.5 3.6 3.5 3.1
0.6 0.4 0.4 0.2 0.0 0.0 0.1 0.0 0.0 0.0 0.0 0.0 0.0 0.0 0.0 0.1 0.1 0.1 0.3 0.6 0.9 1.4 1.7 2.1 2.4 2.7 2.9 3.0 3.1 3.5 3.8 4.3 4.6 4.8 5.1 4.9 4.2 4.0 4.0 4.0 3.9 4.1 4.1 4.2 4.4 4.7 5.0 4.9 4.5 4.1 4.1 3.9 3.9 3.8

GFSWCAN_prec_snow_063.txt.gz
Snowfall_Accumulation
0.0 0.0 0.0 0.0 0.0 0.0 0.0 0.0 0.0 0.0 0.0 0.0 0.0 0.0 0.0 0.0 0.0 0.0 0.0 0.0 0.0 0.0 0.0 0.0 0.0 0.0 0.0 0.0 0.0 0.0 0.0 0.0 0.0 1.2 0.3 0.0 0.0 0.0 0.0 0.0 0.0 0.0 0.0 0.0 0.4 0.7 0.0 0.0 0.0 0.0 0.0 0.0 0.0 0.0
0.0 0.0 0.0 0.0 0.0 0.0 0.0 0.0 0.0 0.0 0.0 0.0 0.0 0.0 0.0 0.0 0.0 0.0 0.0 0.0 0.0 0.0 0.0 0.0 0.0 0.0 0.0 0.0 0.0 0.0 0.0 0.0 0.0 0.0 0.0 0.0 0.0 0.0 0.0 0.1 0.0 0.0 0.0 0.0 0.0 0.0 0.0 0.0 0.0 0.0 0.0 0.0 0.0 0.0
0.0 0.0 0.0 0.0 0.0 0.0 0.0 0.0 0.0 0.0 0.0 0.0 0.0 0.0 0.0 0.0 0.0 0.0 0.0 0.0 0.0 0.1 0.0 0.0 0.0 0.0 0.0 0.0 0.0 0.0 0.0 0.0 0.0 0.0 0.0 0.0 0.0 0.0 0.1 0.0 0.0 0.0 0.0 0.0 0.0 0.0 0.0 0.0 0.0 0.0 0.0 0.0 0.0 0.0
0.0 0.0 0.0 0.0 0.0 0.0 0.0 0.0 0.0 0.0 0.0 0.0 0.0 0.0 0.0 0.0 0.0 0.0 0.0 0.0 0.0 0.0 1.0 0.0 0.0 0.0 0.0 0.0 0.0 0.0 0.0 0.0 0.0 0.0 0.0 0.0 0.0 0.0 0.0 0.0 0.0 0.0 0.0 0.0 0.0 0.0 0.0 0.0 0.0 0.0 0.0 0.0 0.0 0.0
0.0 0.0 0.0 0.0 0.0 0.0 0.0 0.0 0.0 0.0 0.0 0.0 0.0 0.0 0.0 0.0 0.0 0.0 0.0 0.0 0.0 1.2 1.8 0.7 0.0 0.0 0.0 0.0 0.0 0.0 0.0 0.0 0.0 0.0 0.0 0.0 0.0 0.0 0.0 0.0 0.0 0.0 0.0 0.0 0.0 0.0 0.0 0.0 0.0 0.0 0.0 0.0 0.0 0.0
0.0 0.0 0.0 0.0 0.0 0.0 0.0 0.0 0.0 0.0 0.0 0.0 0.0 0.0 0.0 0.0 0.0 0.0 0.0 0.0 0.0 0.0 2.7 3.1 0.0 0.0 0.0 0.0 0.0 0.0 0.0 0.0 0.0 0.0 0.0 0.0 0.0 0.0 0.0 0.0 0.0 0.0 0.0 0.0 0.0 0.0 0.0 0.0 0.0 0.0 0.0 0.0 0.0 0.0
0.0 0.0 0.0 0.0 0.0 0.0 0.0 0.0 0.0 0.0 0.0 0.0 0.0 0.0 0.0 0.0 0.0 0.0 0.0 0.0 0.0 0.0 2.4 5.8 4.2 0.0 0.0 0.0 0.0 0.0 0.0 0.0 0.0 0.0 0.0 0.0 0.0 0.0 0.0 0.0 0.0 0.0 0.0 0.0 0.0 0.0 0.0 0.0 0.0 0.0 0.0 0.0 0.0 0.0
0.0 0.0 0.0 0.0 0.0 0.0 0.0 0.0 0.0 0.0 0.0 0.0 0.0 0.0 0.0 0.0 0.0 0.0 0.0 0.0 0.0 0.0 2.4 4.5 2.2 1.5 0.0 0.0 0.0 0.0 0.0 0.0 0.0 0.0 0.0 0.0 0.0 0.0 1.3 0.0 0.0 0.0 0.0 0.0 0.0 0.0 0.0 0.0 0.0 0.0 0.0 0.0 0.0 0.0
0.0 0.0 0.0 0.0 0.0 0.0 0.0 0.0 0.0 0.0 0.0 0.0 0.0 0.0 0.0 0.0 0.0 0.0 0.0 0.0 0.0 0.0 2.5 2.9 3.2 4.5 0.0 0.0 0.0 0.0 0.0 2.1 0.0 0.0 0.0 0.0 0.0 1.4 0.1 0.0 0.0 0.0 0.0 0.0 0.0 0.0 0.0 0.0 0.0 0.0 0.0 0.0 0.0 0.0
0.0 0.0 0.0 0.0 0.0 0.0 0.0 0.0 0.0 0.0 0.0 0.0 0.0 0.0 0.3 0.0 0.0 0.0 0.0 1.7 1.7 0.8 0.7 1.2 1.0 2.2 0.0 0.0 0.0 0.0 0.0 0.0 3.4 0.0 0.0 0.9 0.0 0.0 0.0 0.0 0.0 0.0 0.0 0.0 0.0 0.0 0.0 0.0 0.0 0.0 0.0 0.0 0.0 0.0
0.0 0.0 0.0 0.0 0.0 0.0 0.0 0.0 0.0 0.0 0.0 0.0 1.9 0.6 0.0 0.0 0.0 0.0 1.5 1.0 0.7 0.7 0.3 0.0 0.0 0.8 0.0 0.0 0.0 0.0 1.0 0.0 1.5 1.4 2.3 2.7 1.9 0.3 0.0 0.0 0.0 0.0 0.0 0.0 0.0 0.0 0.0 0.0 0.0 0.0 0.0 0.0 0.0 0.0
0.0 0.0 0.0 0.0 0.0 0.0 0.0 0.0 0.0 0.0 7.2 0.0 0.0 0.0 0.0 0.0 1.3 2.2 2.5 0.4 0.4 0.0 0.0 0.0 0.0 0.0 0.0 0.0 0.0 0.0 0.3 0.3 0.3 0.0 2.0 1.0 0.1 0.0 0.0 0.0 0.0 0.0 0.0 0.0 0.0 0.0 0.0 0.0 0.0 0.0 0.0 0.0 0.0 0.0
0.0 0.0 0.0 0.0 0.0 0.0 0.0 0.0 0.0 0.0 0.0 0.0 5.5 12.4 9.6 7.3 6.5 1.2 1.6 0.4 0.1 0.0 0.0 0.0 0.0 0.0 0.0 0.0 0.0 0.0 0.0 0.1 0.0 0.3 0.2 0.9 0.0 0.0 0.0 0.0 0.0 0.0 1.2 2.0 0.9 0.4 0.1 0.0 0.0 0.0 0.0 0.0 0.0 0.0
0.0 0.0 0.0 0.0 0.0 0.0 0.0 0.0 0.0 0.0 7.1 4.6 18.0 16.7 6.4 4.1 0.6 0.7 0.4 0.0 0.0 0.0 0.0 0.0 0.0 0.0 0.0 0.0 0.0 0.0 0.0 0.0 0.2 0.1 0.0 0.0 0.0 0.0 0.0 0.0 0.0 0.3 0.0 0.0 0.0 0.0 0.0 0.0 0.0 0.0 0.3 0.0 0.0 0.0
0.0 0.0 0.0 0.0 0.0 0.0 0.0 0.0 0.0 0.0 6.3 16.3 8.7 5.9 2.9 0.8 0.2 0.1 0.2 0.0 0.0 0.0 0.0 0.0 0.0 0.0 0.0 0.0 0.0 0.0 0.2 0.0 0.0 0.0 0.0 0.0 0.0 0.0 0.0 0.0 0.0 0.0 0.0 0.0 0.0 0.0 0.0 0.0 0.0 0.0 0.0 0.0 0.0 0.0
0.0 0.0 0.0 0.0 0.0 0.0 0.0 0.0 0.0 0.0 18.9 14.8 7.6 3.4 0.5 0.1 0.0 0.0 0.0 0.0 0.0 0.0 0.0 0.0 0.2 0.0 0.0 0.0 0.2 0.0 0.0 0.0 0.0 0.0 0.0 0.0 0.0 0.0 0.0 0.0 0.0 0.0 0.0 0.0 0.0 0.0 0.0 0.0 0.0 0.0 0.0 0.0 0.0 0.0
0.0 0.0 0.0 0.0 0.0 0.0 0.0 3.7 7.6 16.5 19.3 14.4 4.0 0.1 0.0 0.2 0.1 0.3 0.1 0.0 0.0 0.1 0.4 0.6 0.9 0.0 0.0 0.0 0.0 0.0 0.0 0.0 0.0 0.0 0.0 0.0 0.0 0.0 0.0 0.0 0.0 0.0 0.0 0.0 0.0 0.0 0.0 0.0 0.0 0.0 0.0 0.0 0.0 0.0
0.0 0.0 0.0 0.0 0.0 0.0 1.0 12.8 17.6 17.2 14.1 7.2 0.5 0.1 0.1 0.0 0.3 0.1 0.2 0.4 0.6 0.8 1.2 2.6 0.6 1.0 0.1 0.0 0.0 0.0 0.0 0.0 0.0 0.0 0.0 0.0 0.0 0.0 0.0 0.0 0.0 0.0 0.0 0.0 0.0 0.0 0.0 0.0 0.0 0.0 0.0 0.0 0.0 0.0
0.0 0.0 0.0 0.0 0.0 3.4 7.9 9.6 11.5 10.6 6.7 2.6 0.2 0.2 0.2 0.1 0.0 0.1 0.0 0.6 0.6 1.3 2.4 3.3 2.0 0.5 0.0 0.0 0.0 0.0 0.0 0.0 0.0 0.0 0.0 0.0 0.0 0.0 0.0 0.0 0.0 0.0 0.0 0.0 0.0 0.0 0.0 0.0 0.0 0.0 0.0 0.0 0.0 0.0
0.0 0.0 0.0 0.0 0.0 3.8 5.1 7.7 5.3 6.6 4.1 2.8 1.5 0.8 0.7 0.4 0.2 0.4 0.2 0.1 0.6 2.1 3.1 2.5 0.5 0.1 0.0 0.1 0.2 0.1 0.0 0.0 0.0 0.0 0.0 0.0 0.0 0.0 0.0 0.0 0.0 0.0 0.0 0.0 0.0 0.0 0.0 0.0 0.0 0.0 0.0 0.0 0.0 0.0
0.0 0.0 0.0 0.0 2.1 3.1 4.4 4.2 6.0 5.4 4.6 3.8 5.1 3.4 3.0 1.6 1.4 1.6 3.4 1.5 4.4 5.2 2.4 1.0 0.1 0.0 0.2 0.1 0.0 0.0 0.1 0.0 0.0 0.0 0.0 0.0 0.0 0.0 0.0 0.0 0.0 0.0 0.0 0.0 0.0 0.0 0.0 0.0 0.0 0.0 0.0 0.0 0.0 0.0
0.1 0.0 0.1 0.0 2.2 2.1 2.4 3.3 4.3 4.5 3.4 4.6 6.1 6.2 5.6 4.7 5.3 5.7 5.9 8.1 8.1 3.4 1.1 0.4 0.5 0.6 0.3 0.3 0.2 0.6 0.0 0.3 0.0 0.0 0.0 0.0 0.0 0.0 0.0 0.0 0.0 0.0 0.0 0.0 0.0 0.0 0.0 0.0 0.0 0.0 0.0 0.0 0.0 0.0
0.0 0.0 0.7 0.9 1.4 0.6 1.9 2.2 2.5 3.3 3.5 4.4 5.0 5.6 6.6 6.0 7.3 8.4 9.9 7.1 4.5 2.4 1.5 1.4 1.1 1.3 1.1 0.7 0.4 0.1 0.1 0.0 0.0 0.2 0.1 0.0 0.0 0.0 0.0 0.0 0.0 0.0 0.0 0.0 0.0 0.0 0.0 0.0 0.0 0.0 0.0 0.0 0.0 0.0
0.0 0.4 0.3 0.3 0.5 1.2 1.1 1.9 1.6 2.0 2.6 3.0 3.6 3.8 3.6 5.3 5.9 6.6 5.3 2.4 2.2 2.4 1.9 2.1 1.7 0.9 1.1 1.2 1.4 1.1 0.7 0.3 0.1 0.1 0.7 0.5 0.1 0.0 0.0 0.0 0.0 0.0 0.0 0.0 0.0 0.0 0.0 0.0 0.0 0.0 0.0 0.0 0.0 0.0
2.1 0.8 0.3 0.1 0.0 0.1 0.4 1.2 1.4 1.1 1.7 2.6 3.1 3.2 3.6 4.2 5.4 4.2 2.3 1.9 3.0 4.0 3.4 2.4 1.6 1.3 1.0 1.1 1.0 1.3 1.3 1.6 1.2 0.4 0.2 1.0 0.7 0.4 0.1 0.5 0.2 0.0 0.0 0.0 0.0 0.0 0.0 0.0 0.0 0.0 0.0 0.0 0.0 0.1
1.7 0.3 0.1 0.0 0.0 0.0 0.0 0.5 1.1 1.6 1.8 2.3 2.7 2.8 3.3 3.5 3.0 2.8 1.8 2.1 3.3 4.2 4.3 3.7 2.4 1.4 1.5 1.7 1.5 1.7 1.6 1.6 1.3 1.0 1.6 1.9 1.3 1.3 1.0 0.9 0.8 0.5 0.0 0.3 0.2 0.3 0.3 0.2 0.1 0.1 0.2 0.0 0.6 0.9
0.7 0.1 0.0 0.0 0.0 0.0 0.0 0.0 0.0 0.0 0.6 1.3 1.5 1.7 1.8 2.2 2.4 1.3 1.2 2.1 3.2 3.9 4.3 4.3 3.8 2.4 2.1 2.1 2.3 2.4 2.6 2.5 2.5 1.2 2.4 2.8 2.5 1.7 1.2 1.1 0.6 0.4 0.3 1.4 1.1 0.9 1.0 1.0 1.0 1.1 1.5 1.6 1.7 1.6
0.0 0.0 0.0 0.0 0.0 0.0 0.0 0.0 0.0 0.0 0.0 0.1 0.9 0.9 1.0 1.0 0.6 0.7 1.3 1.9 3.2 3.8 4.2 4.5 4.5 3.3 2.6 2.4 2.7 3.0 3.3 3.6 3.5 3.3 3.0 3.4 3.5 3.4 2.8 3.1 2.8 2.7 2.2 2.4 2.5 2.4 2.2 2.2 2.2 2.1 2.4 2.3 1.9 2.0
0.1 0.0 0.0 0.0 0.0 0.0 0.0 0.0 0.0 0.0 0.0 0.0 0.0 0.3 0.2 0.3 0.5 0.8 1.2 2.1 2.9 3.4 3.8 4.0 4.2 4.2 3.7 3.4 3.5 3.6 3.4 3.6 3.1 2.6 1.9 1.9 2.2 2.8 4.0 4.2 4.2 4.8 4.0 3.4 3.2 3.0 2.4 2.5 2.7 2.8 2.7 2.6 2.5 2.6
0.0 0.0 0.0 0.0 0.0 0.0 0.0 0.0 0.0 0.0 0.0 0.0 0.0 0.0 0.0 0.2 0.5 0.8 1.2 1.6 2.5 3.1 3.7 4.1 4.1 4.3 4.1 3.9 4.1 4.2 4.1 4.0 4.0 3.0 2.3 2.0 1.6 3.1 4.0 4.3 4.3 3.6 4.1 4.2 3.7 3.8 4.0 4.2 3.9 3.8 3.4 3.2 3.1 3.0
0.0 0.0 0.0 0.0 0.0 0.0 0.0 0.1 0.1 0.0 0.0 0.0 0.0 0.0 0.0 0.0 0.3 0.6 1.0 1.5 2.0 2.7 3.2 3.5 3.7 4.2 4.2 4.1 4.2 4.0 3.8 3.9 4.1 4.2 3.9 3.7 3.7 3.6 4.3 4.5 4.3 4.6 4.7 4.4 3.5 3.6 3.1 2.3 1.7 1.9 1.9 2.1 2.5 2.2
0.1 0.0 0.0 0.0 0.0 0.2 0.2 0.1 0.1 0.0 0.0 0.0 0.0 0.0 0.1 0.1 0.1 0.3 0.5 0.9 1.4 1.8 2.5 2.8 2.8 3.0 3.2 3.3 3.4 3.6 3.6 3.4 3.2 3.8 3.7 3.3 3.1 3.4 3.9 3.9 4.3 4.4 4.6 4.7 4.3 4.0 3.7 3.2 3.8 3.6 3.5 3.6 3.5 3.1
0.6 0.4 0.4 0.2 0.0 0.0 0.1 0.0 0.0 0.0 0.0 0.0 0.0 0.0 0.0 0.1 0.1 0.1 0.3 0.6 0.9 1.4 1.7 2.1 2.4 2.7 2.9 3.0 3.1 3.5 3.8 4.3 4.6 4.8 5.1 4.9 4.2 4.0 4.0 4.0 3.9 4.1 4.1 4.2 4.4 4.7 5.0 4.9 4.6 4.1 4.1 3.9 3.9 3.8

GFSWCAN_prec_snow_066.txt.gz
Snowfall_Accumulation
0.0 0.0 0.0 0.0 0.0 0.0 0.0 0.0 0.0 0.0 0.0 0.0 0.0 0.0 0.0 0.0 0.0 0.0 0.0 0.0 0.0 0.0 0.0 0.0 0.0 0.0 0.0 0.0 0.0 0.0 0.0 0.0 0.0 1.2 0.3 0.0 0.0 0.0 0.0 0.0 0.0 0.0 0.0 0.0 0.4 0.7 0.0 0.0 0.0 0.0 0.0 0.0 0.0 0.0
0.0 0.0 0.0 0.0 0.0 0.0 0.0 0.0 0.0 0.0 0.0 0.0 0.0 0.0 0.0 0.0 0.0 0.0 0.0 0.0 0.0 0.0 0.0 0.0 0.0 0.0 0.0 0.0 0.0 0.0 0.0 0.0 0.0 0.0 0.0 0.0 0.0 0.0 0.0 0.1 0.0 0.0 0.0 0.0 0.0 0.0 0.0 0.0 0.0 0.0 0.0 0.0 0.0 0.0
0.0 0.0 0.0 0.0 0.0 0.0 0.0 0.0 0.0 0.0 0.0 0.0 0.0 0.0 0.0 0.0 0.0 0.0 0.0 0.0 0.0 0.1 0.0 0.0 0.0 0.0 0.0 0.0 0.0 0.0 0.0 0.0 0.0 0.0 0.0 0.0 0.0 0.0 0.1 0.0 0.0 0.0 0.0 0.0 0.0 0.0 0.0 0.0 0.0 0.0 0.0 0.0 0.0 0.0
0.0 0.0 0.0 0.0 0.0 0.0 0.0 0.0 0.0 0.0 0.0 0.0 0.0 0.0 0.0 0.0 0.0 0.0 0.0 0.0 0.0 0.0 1.1 0.0 0.0 0.0 0.0 0.0 0.0 0.0 0.0 0.0 0.0 0.0 0.0 0.0 0.0 0.0 0.0 0.0 0.0 0.0 0.0 0.0 0.0 0.0 0.0 0.0 0.0 0.0 0.0 0.0 0.0 0.0
0.0 0.0 0.0 0.0 0.0 0.0 0.0 0.0 0.0 0.0 0.0 0.0 0.0 0.0 0.0 0.0 0.0 0.0 0.0 0.0 0.0 1.2 2.0 0.8 0.0 0.0 0.0 0.0 0.0 0.0 0.0 0.0 0.2 0.0 0.0 0.0 0.0 0.0 0.0 0.0 0.0 0.0 0.0 0.0 0.0 0.0 0.0 0.0 0.0 0.0 0.0 0.0 0.0 0.0
0.0 0.0 0.0 0.0 0.0 0.0 0.0 0.0 0.0 0.0 0.0 0.0 0.0 0.0 0.0 0.0 0.0 0.0 0.0 0.0 0.0 0.0 3.4 3.3 0.0 0.0 0.0 0.0 0.0 0.0 0.0 0.0 0.0 0.0 0.0 0.0 0.0 0.0 0.0 0.0 0.0 0.0 0.0 0.0 0.0 0.0 0.0 0.0 0.0 0.0 0.0 0.0 0.0 0.0
0.0 0.0 0.0 0.0 0.0 0.0 0.0 0.0 0.0 0.0 0.0 0.0 0.0 0.0 0.0 0.0 0.0 0.0 0.0 0.0 0.0 0.0 2.4 5.8 4.2 0.0 0.0 0.0 0.0 0.0 0.0 0.0 0.0 0.0 0.0 0.0 0.0 0.0 0.0 0.0 0.0 0.0 0.0 0.0 0.0 0.0 0.0 0.0 0.0 0.0 0.0 0.0 0.0 0.0
0.0 0.0 0.0 0.0 0.0 0.0 0.0 0.0 0.0 0.0 0.0 0.0 0.0 0.0 0.0 0.0 0.0 0.0 0.0 0.0 0.0 0.0 2.6 4.7 2.2 2.3 0.0 0.0 0.3 0.0 0.0 0.0 0.0 0.0 0.0 0.0 0.0 0.0 1.4 0.0 0.0 0.0 0.0 0.0 0.0 0.0 0.0 0.0 0.0 0.0 0.0 0.0 0.0 0.0
0.0 0.0 0.0 0.0 0.0 0.0 0.0 0.0 0.0 0.0 0.0 0.0 0.0 0.0 0.0 0.0 0.0 0.0 0.0 0.0 0.0 0.0 2.9 3.1 3.4 5.9 0.0 0.0 0.0 0.0 0.0 4.3 0.0 0.0 0.0 0.0 0.0 1.4 0.1 0.0 0.0 0.0 0.0 0.0 0.0 0.0 0.0 0.0 0.0 0.0 0.0 0.0 0.0 0.0
0.0 0.0 0.0 0.0 0.0 0.0 0.0 0.0 0.0 0.0 0.0 0.0 0.0 0.0 0.4 0.0 0.0 0.0 0.0 2.2 2.3 1.3 1.0 1.3 1.1 2.8 0.0 0.0 2.3 0.0 0.0 1.3 4.6 0.0 0.0 0.9 0.0 0.0 0.0 0.0 0.0 0.0 0.0 0.0 0.0 0.0 0.0 0.0 0.0 0.0 0.0 0.0 0.0 0.0
0.0 0.0 0.0 0.0 0.0 0.0 0.0 0.0 0.0 0.0 0.0 0.0 2.0 0.6 0.0 0.0 0.0 0.0 2.0 1.5 1.1 1.0 0.3 0.0 0.0 1.3 0.0 2.0 1.7 0.0 2.2 0.0 2.0 1.6 2.3 2.7 1.9 0.3 0.0 0.0 0.0 0.0 0.0 0.0 0.0 0.0 0.0 0.0 0.0 0.0 0.0 0.0 0.0 0.0
0.0 0.0 0.0 0.0 0.0 0.0 0.0 0.0 0.0 0.0 7.2 0.0 0.0 0.0 0.0 1.2 2.0 2.9 2.9 0.6 0.7 0.0 0.0 0.1 0.0 0.0 0.0 0.0 0.0 0.0 0.7 0.6 0.4 0.0 2.1 1.0 0.1 0.0 0.0 0.0 0.0 0.0 0.0 0.0 0.0 0.0 0.0 0.0 0.0 0.0 0.0 0.0 0.0 0.0
0.0 0.0 0.0 0.0 0.0 0.0 0.0 0.0 0.0 0.0 0.0 0.0 5.8 13.0 10.0 8.1 7.3 1.7 1.8 0.5 0.2 0.0 0.0 0.0 0.0 0.0 0.0 0.0 0.0 0.0 0.0 0.1 0.0 0.4 0.2 0.9 0.0 0.0 0.0 0.0 0.0 0.0 1.2 2.0 0.9 0.4 0.1 0.0 0.0 0.0 0.0 0.0 0.0 0.0
0.0 0.0 0.0 0.0 0.0 0.0 0.0 0.0 0.0 0.0 7.1 5.0 18.1 17.2 6.8 4.5 0.7 0.7 0.4 0.0 0.0 0.0 0.0 0.0 0.0 0.0 0.0 0.0 0.0 0.1 0.0 0.0 0.3 0.2 0.0 0.0 0.0 0.0 0.0 0.0 0.0 0.3 0.1 0.0 0.1 0.0 0.0 0.0 0.0 0.0 0.3 0.0 0.0 0.0
0.0 0.0 0.0 0.0 0.0 0.0 0.0 0.0 0.0 0.0 6.3 16.5 8.8 6.1 2.9 0.8 0.3 0.1 0.2 0.0 0.0 0.0 0.0 0.0 0.0 0.0 0.0 0.2 0.0 0.0 0.2 0.0 0.0 0.0 0.0 0.0 0.0 0.0 0.0 0.0 0.0 0.0 0.0 0.0 0.0 0.0 0.0 0.0 0.0 0.0 0.0 0.0 0.0 0.0
0.0 0.0 0.0 0.0 0.0 0.0 0.0 0.0 0.0 0.0 19.2 15.0 7.8 3.4 0.5 0.1 0.0 0.0 0.2 0.0 0.0 0.0 0.0 0.0 0.3 0.1 0.2 0.1 0.2 0.0 0.0 0.0 0.0 0.0 0.0 0.0 0.0 0.0 0.0 0.0 0.0 0.0 0.0 0.0 0.0 0.0 0.0 0.0 0.0 0.0 0.0 0.0 0.0 0.0
0.0 0.0 0.0 0.0 0.0 0.0 0.0 3.7 8.3 16.6 19.3 14.5 4.0 0.1 0.0 0.2 0.1 0.3 0.3 0.1 0.0 0.1 1.0 1.3 1.1 0.1 0.0 0.0 0.0 0.0 0.0 0.0 0.0 0.0 0.0 0.0 0.0 0.0 0.0 0.0 0.0 0.0 0.0 0.0 0.0 0.0 0.0 0.0 0.0 0.0 0.0 0.0 0.0 0.0
0.0 0.0 0.0 0.0 0.0 0.0 2.0 13.3 17.8 17.2 14.1 7.2 0.5 0.1 0.1 0.0 0.3 0.3 0.5 0.9 1.3 1.8 1.8 3.3 0.6 1.0 0.2 0.0 0.0 0.0 0.0 0.0 0.0 0.0 0.0 0.0 0.0 0.0 0.0 0.0 0.0 0.0 0.0 0.0 0.0 0.0 0.0 0.0 0.0 0.0 0.0 0.0 0.0 0.0
0.0 0.0 0.0 0.0 0.0 3.4 8.2 9.9 11.5 10.6 6.7 2.6 0.2 0.2 0.2 0.1 0.0 0.1 0.0 0.8 1.4 2.5 3.6 4.0 2.2 0.6 0.0 0.0 0.0 0.0 0.0 0.0 0.0 0.0 0.0 0.0 0.0 0.0 0.0 0.0 0.0 0.0 0.0 0.0 0.0 0.0 0.0 0.0 0.0 0.0 0.0 0.0 0.0 0.0
0.0 0.0 0.0 0.0 0.0 3.8 5.2 7.7 5.3 6.6 4.1 2.8 1.5 0.8 0.7 0.4 0.2 0.4 0.2 0.1 0.6 2.5 3.7 2.8 0.5 0.1 0.0 0.1 0.2 0.1 0.0 0.0 0.0 0.0 0.0 0.0 0.0 0.0 0.0 0.0 0.0 0.0 0.0 0.0 0.0 0.0 0.0 0.0 0.0 0.0 0.0 0.0 0.0 0.0
0.0 0.0 0.0 0.0 2.1 3.1 4.4 4.2 6.0 5.4 4.6 3.8 5.1 3.4 3.0 1.6 1.4 1.6 3.4 1.5 4.4 5.2 2.4 1.0 0.1 0.0 0.2 0.1 0.0 0.0 0.1 0.0 0.0 0.0 0.0 0.0 0.0 0.0 0.0 0.0 0.0 0.0 0.0 0.0 0.0 0.0 0.0 0.0 0.0 0.0 0.0 0.0 0.0 0.0
0.1 0.0 0.1 0.0 2.2 2.1 2.4 3.3 4.3 4.5 3.4 4.6 6.1 6.2 5.6 4.7 5.3 5.7 5.9 8.1 8.1 3.4 1.1 0.4 0.5 0.6 0.3 0.3 0.2 0.6 0.0 0.3 0.0 0.0 0.0 0.0 0.0 0.0 0.0 0.0 0.0 0.0 0.0 0.0 0.0 0.0 0.0 0.0 0.0 0.0 0.0 0.0 0.0 0.0
0.0 0.0 0.7 0.9 1.4 0.6 1.9 2.2 2.5 3.3 3.5 4.4 5.0 5.6 6.6 6.0 7.3 8.4 9.9 7.1 4.5 2.4 1.5 1.4 1.1 1.3 1.1 0.7 0.4 0.1 0.1 0.0 0.0 0.2 0.1 0.0 0.0 0.0 0.0 0.0 0.0 0.0 0.0 0.0 0.0 0.0 0.0 0.0 0.0 0.0 0.0 0.0 0.0 0.0
0.0 0.4 0.3 0.3 0.5 1.2 1.1 1.9 1.6 2.0 2.6 3.0 3.6 3.8 3.6 5.3 5.9 6.6 5.3 2.4 2.2 2.4 1.9 2.1 1.7 0.9 1.1 1.2 1.4 1.1 0.7 0.3 0.1 0.1 0.7 0.5 0.1 0.0 0.0 0.0 0.0 0.0 0.0 0.0 0.0 0.0 0.0 0.0 0.0 0.0 0.0 0.0 0.0 0.0
2.1 0.8 0.3 0.1 0.0 0.1 0.4 1.2 1.4 1.1 1.7 2.6 3.1 3.2 3.6 4.2 5.4 4.2 2.3 1.9 3.0 4.0 3.4 2.4 1.6 1.3 1.0 1.1 1.0 1.3 1.3 1.6 1.2 0.4 0.2 1.0 0.7 0.4 0.1 0.5 0.2 0.0 0.0 0.0 0.0 0.0 0.0 0.0 0.0 0.0 0.0 0.0 0.0 0.1
1.7 0.3 0.1 0.0 0.0 0.0 0.0 0.5 1.1 1.6 1.8 2.3 2.7 2.8 3.3 3.5 3.0 2.8 1.8 2.1 3.3 4.2 4.3 3.7 2.4 1.4 1.5 1.7 1.5 1.7 1.6 1.6 1.3 1.0 1.6 1.9 1.3 1.3 1.0 0.9 0.8 0.5 0.0 0.3 0.2 0.3 0.3 0.2 0.1 0.1 0.2 0.0 0.6 0.9
0.7 0.1 0.0 0.0 0.0 0.0 0.0 0.0 0.0 0.0 0.6 1.3 1.5 1.7 1.8 2.2 2.4 1.3 1.2 2.1 3.2 3.9 4.3 4.3 3.8 2.4 2.1 2.1 2.3 2.4 2.6 2.5 2.5 1.2 2.4 2.8 2.5 1.7 1.2 1.1 0.6 0.4 0.3 1.4 1.1 0.9 1.0 1.0 1.0 1.1 1.5 1.6 1.7 1.6
0.0 0.0 0.0 0.0 0.0 0.0 0.0 0.0 0.0 0.0 0.0 0.1 0.9 0.9 1.0 1.0 0.6 0.7 1.3 1.9 3.2 3.8 4.2 4.5 4.5 3.3 2.6 2.4 2.7 3.0 3.3 3.6 3.5 3.3 3.0 3.4 3.5 3.4 2.8 3.1 2.8 2.7 2.2 2.4 2.5 2.4 2.2 2.2 2.2 2.1 2.4 2.3 1.9 2.0
0.1 0.0 0.0 0.0 0.0 0.0 0.0 0.0 0.0 0.0 0.0 0.0 0.0 0.3 0.2 0.3 0.5 0.8 1.2 2.1 2.9 3.4 3.8 4.0 4.2 4.2 3.7 3.4 3.5 3.6 3.4 3.6 3.1 2.6 1.9 1.9 2.2 2.8 4.0 4.2 4.2 4.8 4.0 3.4 3.2 3.0 2.4 2.5 2.7 2.8 2.7 2.6 2.5 2.6
0.0 0.0 0.0 0.0 0.0 0.0 0.0 0.0 0.0 0.0 0.0 0.0 0.0 0.0 0.0 0.2 0.5 0.8 1.2 1.6 2.5 3.1 3.7 4.1 4.1 4.3 4.1 3.9 4.1 4.2 4.1 4.0 4.0 3.0 2.3 2.0 1.6 3.1 4.0 4.3 4.3 3.6 4.1 4.2 3.7 3.8 4.0 4.2 3.9 3.8 3.4 3.2 3.1 3.0
0.0 0.0 0.0 0.0 0.0 0.0 0.0 0.1 0.1 0.0 0.0 0.0 0.0 0.0 0.0 0.0 0.3 0.6 1.0 1.5 2.0 2.7 3.2 3.5 3.7 4.2 4.2 4.1 4.2 4.0 3.8 3.9 4.1 4.2 3.9 3.7 3.7 3.6 4.3 4.5 4.3 4.6 4.7 4.4 3.5 3.6 3.1 2.3 1.7 1.9 1.9 2.1 2.5 2.2
0.1 0.0 0.0 0.0 0.0 0.2 0.2 0.1 0.1 0.0 0.0 0.0 0.0 0.0 0.1 0.1 0.1 0.3 0.5 0.9 1.4 1.8 2.5 2.8 2.8 3.0 3.2 3.3 3.4 3.6 3.6 3.4 3.2 3.8 3.7 3.3 3.1 3.4 3.9 3.9 4.3 4.4 4.6 4.7 4.3 4.0 3.7 3.2 3.8 3.6 3.5 3.6 3.5 3.1
0.6 0.4 0.4 0.2 0.0 0.0 0.1 0.0 0.0 0.0 0.0 0.0 0.0 0.0 0.0 0.1 0.1 0.1 0.3 0.6 0.9 1.4 1.7 2.1 2.4 2.7 2.9 3.0 3.1 3.5 3.8 4.3 4.6 4.8 5.1 4.9 4.2 4.0 4.0 4.0 3.9 4.1 4.1 4.2 4.4 4.7 5.0 4.9 4.6 4.1 4.1 4.0 3.9 3.8

GFSWCAN_prec_snow_069.txt.gz
Snowfall_Accumulation
0.0 0.0 0.0 0.0 0.0 0.0 0.0 0.0 0.0 0.0 0.0 0.0 0.0 0.0 0.0 0.0 0.0 0.0 0.0 0.0 0.0 0.0 0.0 0.0 0.0 0.0 0.0 0.0 0.0 0.0 0.0 0.0 0.0 1.3 0.4 0.0 0.0 0.0 0.0 0.0 0.0 0.0 0.0 0.0 0.4 0.7 0.0 0.0 0.0 0.0 0.0 0.0 0.0 0.0
0.0 0.0 0.0 0.0 0.0 0.0 0.0 0.0 0.0 0.0 0.0 0.0 0.0 0.0 0.0 0.0 0.0 0.0 0.0 0.0 0.0 0.0 0.0 0.0 0.0 0.0 0.0 0.0 0.0 0.0 0.0 0.8 0.0 0.0 0.0 0.0 0.0 0.0 0.0 0.1 0.0 0.0 0.0 0.0 0.0 0.0 0.0 0.0 0.0 0.0 0.0 0.0 0.0 0.0
0.0 0.0 0.0 0.0 0.0 0.0 0.0 0.0 0.0 0.0 0.0 0.0 0.0 0.0 0.0 0.0 0.0 0.0 0.0 0.0 0.0 0.1 0.0 0.0 0.0 0.0 0.0 0.0 0.0 0.0 0.0 0.0 0.0 0.0 0.0 0.0 0.0 0.0 0.1 0.0 0.0 0.0 0.0 0.0 0.0 0.0 0.0 0.0 0.0 0.0 0.0 0.0 0.0 0.0
0.0 0.0 0.0 0.0 0.0 0.0 0.0 0.0 0.0 0.0 0.0 0.0 0.0 0.0 0.0 0.0 0.0 0.0 0.0 0.0 0.0 0.0 1.5 0.0 0.0 0.0 0.0 0.0 0.0 0.0 0.0 0.0 0.0 1.2 0.3 0.0 0.0 0.0 0.0 0.0 0.0 0.0 0.0 0.0 0.0 0.0 0.0 0.0 0.0 0.0 0.0 0.0 0.0 0.0
0.0 0.0 0.0 0.0 0.0 0.0 0.0 0.0 0.0 0.0 0.0 0.0 0.0 0.0 0.0 0.0 0.0 0.0 0.0 0.0 0.0 1.2 2.2 0.8 0.0 0.0 0.0 0.0 0.0 0.0 0.0 0.0 0.2 1.0 0.9 0.0 0.0 0.0 0.0 0.0 0.0 0.0 0.0 0.0 0.0 0.0 0.0 0.0 0.0 0.0 0.0 0.0 0.0 0.0
0.0 0.0 0.0 0.0 0.0 0.0 0.0 0.0 0.0 0.0 0.0 0.0 0.0 0.0 0.0 0.0 0.0 0.0 0.0 0.0 0.0 0.0 3.8 3.3 0.0 0.0 0.0 0.0 0.0 0.0 0.0 0.0 0.0 0.0 0.9 0.0 0.0 0.0 0.0 0.0 0.0 0.0 0.0 0.0 0.0 0.0 0.0 0.0 0.0 0.0 0.0 0.0 0.0 0.0
0.0 0.0 0.0 0.0 0.0 0.0 0.0 0.0 0.0 0.0 0.0 0.0 0.0 0.0 0.0 0.0 0.0 0.0 0.0 0.0 0.0 0.0 2.4 5.8 4.2 0.0 0.0 0.0 0.0 0.0 0.0 0.0 0.2 0.0 1.4 0.9 0.0 0.0 0.0 0.0 0.0 0.0 0.0 0.0 0.0 0.0 0.0 0.0 0.0 0.0 0.0 0.0 0.0 0.0
0.0 0.0 0.0 0.0 0.0 0.0 0.0 0.0 0.0 0.0 0.0 0.0 0.0 0.0 0.0 0.0 0.0 0.0 0.0 0.0 0.0 0.0 2.7 4.8 2.2 2.3 0.0 0.0 0.3 0.0 0.1 0.2 0.4 1.2 0.0 0.0 0.0 0.0 1.4 0.0 0.0 0.0 0.0 0.0 0.0 0.0 0.0 0.0 0.0 0.0 0.0 0.0 0.0 0.0
0.0 0.0 0.0 0.0 0.0 0.0 0.0 0.0 0.0 0.0 0.0 0.0 0.0 0.0 0.0 0.0 0.0 0.0 0.0 0.0 0.0 0.0 3.1 3.2 3.4 5.9 0.0 0.0 0.0 0.0 0.0 4.7 0.0 0.9 1.0 0.0 0.0 1.4 0.1 0.0 0.0 0.0 0.0 0.0 0.0 0.0 0.0 0.0 0.0 0.0 0.0 0.0 0.0 0.0
0.0 0.0 0.0 0.0 0.0 0.0 0.0 0.0 0.0 0.0 0.0 0.0 0.0 0.0 0.7 0.0 0.0 0.0 0.0 2.6 2.8 1.8 1.3 1.4 1.1 2.8 0.0 0.0 2.9 0.0 0.0 2.7 5.2 0.0 0.0 0.9 0.1 0.0 0.0 0.0 0.0 0.0 0.0 0.0 0.0 0.0 0.0 0.0 0.0 0.0 0.0 0.0 0.0 0.0
0.0 0.0 0.0 0.0 0.0 0.0 0.0 0.0 0.0 0.0 0.0 0.0 2.0 1.1 0.0 0.0 0.0 0.0 2.4 1.8 1.4 1.2 0.3 0.0 0.0 1.3 0.0 3.5 3.2 1.7 4.7 0.4 2.7 1.8 2.3 2.9 1.9 0.3 0.0 0.0 0.0 0.0 0.0 0.0 0.0 0.0 0.0 0.0 0.0 0.0 0.0 0.0 0.0 0.0
0.0 0.0 0.0 0.0 0.0 0.0 0.0 0.0 0.0 0.0 7.2 0.0 0.0 0.0 0.0 1.7 2.4 3.4 3.3 0.8 0.8 0.0 0.1 0.1 0.2 0.5 0.0 0.0 1.1 0.0 1.6 1.1 0.5 0.0 2.3 1.0 0.1 0.0 0.0 0.0 0.0 0.0 0.0 0.0 0.0 0.0 0.0 0.0 0.0 0.0 0.0 0.0 0.0 0.0
0.0 0.0 0.0 0.0 0.0 0.0 0.0 0.0 0.0 0.0 0.0 0.0 7.1 13.6 10.4 8.6 7.8 2.1 1.8 0.7 0.2 0.0 0.0 0.0 0.6 0.0 0.0 0.0 0.0 0.2 0.0 0.2 0.0 0.5 0.2 0.9 0.0 0.0 0.0 0.0 0.0 0.0 1.2 2.0 0.9 0.4 0.1 0.0 0.0 0.0 0.0 0.0 0.0 0.0
0.0 0.0 0.0 0.0 0.0 0.0 0.0 0.0 0.0 0.0 7.1 5.0 18.1 17.7 6.9 4.7 0.7 0.7 0.4 0.0 0.0 0.0 0.0 0.0 1.0 1.6 0.0 0.0 0.0 0.2 0.0 0.0 0.3 0.2 0.0 0.0 0.0 0.0 0.0 0.0 0.0 0.3 0.1 0.4 0.6 0.4 0.3 0.2 0.1 0.0 0.3 0.0 0.0 0.0
0.0 0.0 0.0 0.0 0.0 0.0 0.0 0.0 0.0 0.0 7.1 16.5 9.0 6.3 2.9 0.8 0.3 0.1 0.4 0.2 0.0 0.0 0.0 0.0 0.0 0.9 0.8 0.8 0.2 0.0 0.3 0.1 0.0 0.0 0.0 0.0 0.0 0.0 0.0 0.0 0.0 0.1 0.2 0.1 0.0 0.0 0.0 0.0 0.0 0.0 0.0 0.0 0.0 0.0
0.0 0.0 0.0 0.0 0.0 0.0 0.0 0.0 0.0 0.0 20.2 15.0 7.9 3.5 0.5 0.1 0.0 0.0 0.2 0.0 0.0 0.0 0.0 0.0 0.8 0.7 0.7 0.4 0.3 0.1 0.0 0.0 0.0 0.0 0.0 0.0 0.0 0.0 0.0 0.0 0.0 0.0 0.0 0.0 0.0 0.0 0.0 0.0 0.0 0.0 0.0 0.0 0.0 0.0
0.0 0.0 0.0 0.0 0.0 0.0 0.0 3.7 9.0 17.2 19.3 14.8 4.0 0.1 0.0 0.2 0.1 0.3 0.4 0.1 0.0 0.4 1.5 2.3 1.7 0.4 0.0 0.2 0.1 0.1 0.1 0.0 0.0 0.0 0.0 0.0 0.0 0.0 0.0 0.0 0.0 0.0 0.0 0.0 0.0 0.0 0.0 0.0 0.0 0.0 0.0 0.0 0.0 0.0
0.0 0.0 0.0 0.0 0.0 0.0 2.6 14.2 18.3 17.3 14.2 7.2 0.5 0.1 0.1 0.0 0.3 0.3 0.5 0.9 1.8 2.4 2.3 4.2 1.1 1.3 0.4 0.4 0.2 0.0 0.0 0.0 0.0 0.0 0.0 0.0 0.0 0.0 0.0 0.0 0.0 0.0 0.0 0.0 0.0 0.0 0.0 0.0 0.0 0.0 0.0 0.0 0.0 0.0
0.0 0.0 0.0 0.0 0.0 3.4 8.7 10.6 11.8 10.6 6.7 2.6 0.2 0.2 0.2 0.1 0.0 0.1 0.0 0.8 1.6 3.0 4.4 4.9 2.9 0.6 0.0 0.2 0.3 0.0 0.0 0.0 0.0 0.0 0.0 0.0 0.0 0.0 0.0 0.0 0.0 0.0 0.0 0.0 0.0 0.0 0.0 0.0 0.0 0.0 0.0 0.0 0.0 0.0
0.0 0.0 0.0 0.0 0.0 3.8 5.2 7.7 5.3 6.6 4.1 2.8 1.5 0.8 0.7 0.4 0.2 0.4 0.2 0.1 0.6 2.5 3.7 3.1 0.5 0.1 0.0 0.1 0.2 0.1 0.0 0.0 0.0 0.0 0.0 0.0 0.0 0.0 0.0 0.0 0.0 0.0 0.0 0.0 0.0 0.0 0.0 0.0 0.0 0.0 0.0 0.0 0.0 0.0
0.0 0.0 0.0 0.0 2.1 3.1 4.4 4.2 6.0 5.4 4.6 3.8 5.1 3.4 3.0 1.6 1.4 1.6 3.4 1.5 4.4 5.2 2.4 1.0 0.1 0.0 0.2 0.1 0.0 0.0 0.1 0.0 0.0 0.0 0.0 0.0 0.0 0.0 0.0 0.0 0.0 0.0 0.0 0.0 0.0 0.0 0.0 0.0 0.0 0.0 0.0 0.0 0.0 0.0
0.8 0.0 0.3 0.0 2.2 2.1 2.4 3.3 4.3 4.5 3.4 4.6 6.1 6.2 5.6 4.7 5.3 5.7 5.9 8.1 8.1 3.4 1.1 0.4 0.5 0.6 0.3 0.3 0.2 0.6 0.0 0.3 0.0 0.0 0.0 0.0 0.0 0.0 0.0 0.0 0.0 0.0 0.0 0.0 0.0 0.0 0.0 0.0 0.0 0.0 0.0 0.0 0.0 0.0
0.0 0.2 0.8 0.9 1.4 0.6 2.0 2.2 2.5 3.3 3.5 4.4 5.1 5.6 6.6 6.0 7.3 8.4 9.9 7.1 4.5 2.4 1.5 1.4 1.1 1.3 1.1 0.7 0.4 0.1 0.1 0.0 0.0 0.2 0.1 0.0 0.0 0.0 0.0 0.0 0.0 0.0 0.0 0.0 0.0 0.0 0.0 0.0 0.0 0.0 0.0 0.0 0.0 0.0
0.0 0.5 0.3 0.3 0.5 1.2 1.1 1.9 1.6 2.0 2.6 3.0 3.6 3.8 3.6 5.3 5.9 6.6 5.3 2.4 2.2 2.4 1.9 2.1 1.7 0.9 1.1 1.2 1.4 1.1 0.7 0.3 0.1 0.1 0.7 0.5 0.1 0.0 0.0 0.0 0.0 0.0 0.0 0.0 0.0 0.0 0.0 0.0 0.0 0.0 0.0 0.0 0.0 0.0
2.3 1.0 0.3 0.1 0.0 0.1 0.4 1.2 1.4 1.1 1.7 2.6 3.1 3.2 3.6 4.2 5.4 4.2 2.3 1.9 3.0 4.0 3.4 2.4 1.6 1.3 1.0 1.1 1.0 1.3 1.3 1.6 1.2 0.4 0.2 1.0 0.7 0.4 0.1 0.5 0.2 0.0 0.0 0.0 0.0 0.0 0.0 0.0 0.0 0.0 0.0 0.0 0.0 0.1
1.7 0.3 0.1 0.0 0.0 0.0 0.0 0.5 1.1 1.6 1.8 2.3 2.7 2.8 3.3 3.5 3.0 2.8 1.8 2.1 3.3 4.2 4.3 3.7 2.4 1.4 1.5 1.7 1.5 1.7 1.6 1.6 1.3 1.0 1.6 1.9 1.3 1.3 1.0 0.9 0.8 0.5 0.0 0.3 0.2 0.3 0.3 0.2 0.1 0.1 0.2 0.0 0.6 0.9
0.7 0.1 0.0 0.0 0.0 0.0 0.0 0.0 0.0 0.0 0.6 1.3 1.5 1.7 1.8 2.2 2.4 1.3 1.2 2.1 3.2 3.9 4.3 4.3 3.8 2.4 2.1 2.1 2.3 2.4 2.6 2.5 2.5 1.2 2.4 2.8 2.5 1.7 1.2 1.1 0.6 0.4 0.3 1.4 1.1 0.9 1.0 1.0 1.0 1.1 1.5 1.6 1.7 1.6
0.0 0.0 0.0 0.0 0.0 0.0 0.0 0.0 0.0 0.0 0.0 0.1 0.9 0.9 1.0 1.0 0.6 0.7 1.3 1.9 3.2 3.8 4.2 4.5 4.5 3.3 2.6 2.4 2.7 3.0 3.3 3.6 3.5 3.3 3.0 3.4 3.5 3.4 2.8 3.1 2.8 2.7 2.2 2.4 2.5 2.4 2.2 2.2 2.2 2.1 2.4 2.3 1.9 2.0
0.1 0.0 0.0 0.0 0.0 0.0 0.0 0.0 0.0 0.0 0.0 0.0 0.0 0.3 0.2 0.3 0.5 0.8 1.2 2.1 2.9 3.4 3.8 4.0 4.2 4.2 3.7 3.4 3.5 3.6 3.4 3.6 3.1 2.6 1.9 1.9 2.2 2.8 4.0 4.2 4.2 4.8 4.0 3.4 3.2 3.0 2.4 2.5 2.7 2.8 2.7 2.6 2.5 2.6
0.0 0.0 0.0 0.0 0.0 0.0 0.0 0.0 0.0 0.0 0.0 0.0 0.0 0.0 0.0 0.2 0.5 0.8 1.2 1.6 2.5 3.1 3.7 4.1 4.1 4.3 4.1 3.9 4.1 4.2 4.1 4.0 4.0 3.0 2.3 2.0 1.6 3.1 4.0 4.3 4.3 3.6 4.1 4.2 3.7 3.8 4.0 4.2 3.9 3.8 3.4 3.2 3.1 3.0
0.0 0.0 0.0 0.0 0.0 0.0 0.0 0.1 0.1 0.0 0.0 0.0 0.0 0.0 0.0 0.0 0.3 0.6 1.0 1.5 2.0 2.7 3.2 3.5 3.7 4.2 4.2 4.1 4.2 4.0 3.8 3.9 4.1 4.2 3.9 3.7 3.7 3.6 4.3 4.5 4.3 4.6 4.7 4.4 3.5 3.6 3.1 2.3 1.7 1.9 1.9 2.1 2.5 2.2
0.1 0.0 0.0 0.0 0.0 0.2 0.2 0.1 0.1 0.0 0.0 0.0 0.0 0.0 0.1 0.1 0.1 0.3 0.5 0.9 1.4 1.8 2.5 2.8 2.8 3.0 3.2 3.3 3.4 3.6 3.6 3.4 3.2 3.8 3.7 3.3 3.1 3.4 3.9 3.9 4.3 4.4 4.6 4.7 4.3 4.0 3.7 3.2 3.8 3.6 3.5 3.6 3.5 3.1
0.6 0.4 0.4 0.2 0.0 0.0 0.1 0.0 0.0 0.0 0.0 0.0 0.0 0.0 0.0 0.1 0.1 0.1 0.3 0.6 0.9 1.4 1.7 2.1 2.4 2.7 2.9 3.0 3.1 3.5 3.8 4.3 4.6 4.8 5.1 4.9 4.2 4.0 4.0 4.0 3.9 4.1 4.1 4.2 4.4 4.7 5.0 4.9 4.6 4.1 4.1 4.0 3.9 3.8

GFSWCAN_prec_snow_072.txt.gz
Snowfall_Accumulation
0.0 0.0 0.0 0.0 0.0 0.0 0.0 0.0 0.0 0.0 0.0 0.0 0.0 0.0 0.0 0.0 0.0 0.0 0.0 0.0 0.0 0.0 0.0 0.0 0.0 0.0 0.0 0.0 0.0 0.0 0.0 0.0 0.0 1.8 0.4 0.0 0.0 0.0 0.0 0.0 0.0 0.0 0.0 0.1 0.5 0.7 0.0 0.0 0.0 0.0 0.0 0.0 0.0 0.0
0.0 0.0 0.0 0.0 0.0 0.0 0.0 0.0 0.0 0.0 0.0 0.0 0.0 0.0 0.0 0.0 0.0 0.0 0.0 0.0 0.0 0.0 0.0 0.0 0.0 0.0 0.0 0.0 0.0 0.0 0.0 0.8 1.7 1.6 0.0 0.0 0.0 0.0 0.0 0.1 0.0 0.0 0.0 0.0 0.0 0.0 0.0 0.0 0.0 0.0 0.0 0.0 0.0 0.0
0.0 0.0 0.0 0.0 0.0 0.0 0.0 0.0 0.0 0.0 0.0 0.0 0.0 0.0 0.0 0.0 0.0 0.0 0.0 0.0 0.0 0.1 0.0 0.0 0.0 0.0 0.0 0.0 0.0 0.0 0.0 0.0 0.0 3.0 1.9 0.0 0.0 0.0 0.1 0.0 0.0 0.0 0.0 0.0 0.0 0.0 0.0 0.0 0.0 0.0 0.0 0.0 0.0 0.0
0.0 0.0 0.0 0.0 0.0 0.0 0.0 0.0 0.0 0.0 0.0 0.0 0.0 0.0 0.0 0.0 0.0 0.0 0.0 0.0 0.0 0.0 1.8 0.0 0.0 0.0 0.0 0.0 0.0 0.0 0.0 0.0 0.0 2.1 2.2 1.1 0.3 0.0 0.0 0.0 0.0 0.0 0.0 0.0 0.0 0.0 0.0 0.0 0.0 0.0 0.0 0.0 0.0 0.0
0.0 0.0 0.0 0.0 0.0 0.0 0.0 0.0 0.0 0.0 0.0 0.0 0.0 0.0 0.0 0.0 0.0 0.0 0.0 0.0 0.0 1.2 2.4 0.8 0.0 0.0 0.0 0.0 0.0 0.0 0.0 0.0 0.2 1.0 0.9 1.6 0.9 0.0 0.0 0.0 0.0 0.0 0.0 0.0 0.0 0.0 0.0 0.0 0.0 0.0 0.0 0.0 0.0 0.0
0.0 0.0 0.0 0.0 0.0 0.0 0.0 0.0 0.0 0.0 0.0 0.0 0.0 0.0 0.0 0.0 0.0 0.0 0.0 0.0 0.0 0.0 4.1 3.3 0.0 0.0 0.0 0.0 0.0 0.0 0.0 0.0 0.0 0.1 0.9 0.0 0.0 0.0 0.0 0.0 0.0 0.0 0.0 0.0 0.0 0.0 0.0 0.0 0.0 0.0 0.0 0.0 0.0 0.0
0.0 0.0 0.0 0.0 0.0 0.0 0.0 0.0 0.0 0.0 0.0 0.0 0.0 0.0 0.0 0.0 0.0 0.0 0.0 0.0 0.0 0.0 2.5 5.9 4.2 0.0 0.0 0.0 0.0 0.0 0.0 0.0 0.3 0.0 1.4 0.9 0.0 0.0 0.5 0.0 0.0 0.0 0.0 0.0 0.0 0.0 0.0 0.0 0.0 0.0 0.0 0.0 0.0 0.0
0.0 0.0 0.0 0.0 0.0 0.0 0.0 0.0 0.0 0.0 0.0 0.0 0.0 0.0 0.0 0.0 0.0 0.0 0.0 0.0 0.0 0.0 2.7 4.9 2.2 2.3 0.0 0.1 0.3 0.0 0.1 0.4 0.6 1.3 0.1 0.0 0.0 0.8 1.7 0.0 0.0 0.0 0.0 0.0 0.0 0.0 0.0 0.0 0.0 0.0 0.0 0.0 0.0 0.0
0.0 0.0 0.0 0.0 0.0 0.0 0.0 0.0 0.0 0.0 0.0 0.0 0.0 0.0 0.0 0.0 0.0 0.0 0.0 0.0 0.0 0.0 3.1 3.2 3.4 5.9 0.0 0.0 0.2 0.0 0.0 4.9 0.0 1.0 1.0 0.4 0.0 2.5 0.1 0.0 0.0 0.0 0.0 0.0 0.0 0.0 0.0 0.0 0.0 0.0 0.0 0.0 0.0 0.0
0.0 0.0 0.0 0.0 0.0 0.0 0.0 0.0 0.0 0.0 0.0 0.0 0.0 0.0 0.7 0.0 0.0 0.0 0.0 2.8 3.2 2.5 1.6 1.5 1.1 2.8 0.0 0.0 3.9 0.0 0.2 3.4 5.7 0.0 0.0 0.9 0.6 0.0 0.0 0.0 0.0 0.0 0.0 0.0 0.0 0.0 0.0 0.0 0.0 0.0 0.0 0.0 0.0 0.0
0.0 0.0 0.0 0.0 0.0 0.0 0.0 0.0 0.0 0.0 0.0 0.0 2.0 1.1 0.0 0.0 0.0 0.0 2.5 2.0 1.4 1.3 0.3 0.0 0.0 1.3 0.0 4.1 4.5 2.6 6.3 1.9 5.4 2.4 2.8 3.3 1.9 0.3 0.0 0.0 0.0 0.0 0.0 0.0 0.0 0.0 0.0 0.0 0.0 0.0 0.0 0.0 0.0 0.0
0.0 0.0 0.0 0.0 0.0 0.0 0.0 0.0 0.0 0.0 7.2 0.0 0.0 0.0 0.0 1.7 3.0 3.6 3.6 1.0 0.8 0.0 0.1 0.6 0.9 1.2 0.5 0.0 2.0 0.8 3.2 1.8 0.8 0.0 2.3 1.0 0.1 0.0 0.0 0.0 0.0 0.0 0.0 0.0 0.0 0.0 0.0 0.0 0.0 0.0 0.0 0.0 0.0 0.0
0.0 0.0 0.0 0.0 0.0 0.0 0.0 0.0 0.0 0.0 0.0 0.0 7.1 13.6 11.2 9.3 8.2 2.2 1.8 0.7 0.2 0.0 0.0 1.4 2.0 0.0 0.0 0.0 0.0 0.5 0.1 0.4 0.0 0.6 0.2 0.9 0.0 0.0 0.0 0.0 0.0 0.0 1.2 2.0 0.9 0.4 0.1 0.0 0.0 0.0 0.0 0.0 0.0 0.0
0.0 0.0 0.0 0.0 0.0 0.0 0.0 0.0 0.0 0.0 7.1 5.0 18.1 17.7 7.1 4.8 0.7 0.7 0.4 0.0 0.0 0.0 0.0 0.7 1.8 2.5 0.0 1.2 0.7 0.5 0.0 0.1 0.4 0.2 0.0 0.0 0.0 0.0 0.0 0.0 0.0 0.6 0.1 0.4 0.6 0.9 0.3 0.8 0.7 0.4 0.5 0.1 0.0 0.0
0.0 0.0 0.0 0.0 0.0 0.0 0.0 0.0 0.0 0.0 7.1 16.5 9.0 6.3 2.9 0.8 0.3 0.1 0.4 0.2 0.0 0.0 0.0 0.0 0.0 0.9 1.7 1.9 0.8 0.3 0.5 0.3 0.0 0.0 0.0 0.0 0.0 0.0 0.0 0.0 0.3 0.5 0.2 0.1 0.0 0.0 0.0 0.1 0.0 0.0 0.0 0.0 0.0 0.0
0.0 0.0 0.0 0.0 0.0 0.0 0.0 0.0 0.0 0.0 20.7 15.1 7.9 3.5 0.5 0.1 0.0 0.0 0.2 0.0 0.0 0.0 0.0 0.0 1.6 1.1 1.2 0.9 0.6 0.4 0.3 0.1 0.1 0.0 0.0 0.0 0.0 0.0 0.0 0.0 0.0 0.0 0.0 0.0 0.0 0.0 0.0 0.0 0.0 0.0 0.0 0.0 0.0 0.0
0.0 0.0 0.0 0.0 0.0 0.0 0.0 3.7 9.0 17.5 19.6 14.9 4.0 0.1 0.0 0.2 0.1 0.3 0.4 0.1 0.0 0.6 1.9 3.3 2.7 0.7 0.0 0.4 0.1 0.1 0.1 0.3 0.0 0.0 0.0 0.0 0.0 0.0 0.0 0.0 0.0 0.0 0.0 0.0 0.0 0.0 0.0 0.0 0.0 0.0 0.0 0.0 0.0 0.0
0.0 0.0 0.0 0.0 0.0 0.0 2.6 14.2 18.6 17.6 14.4 7.2 0.5 0.1 0.1 0.0 0.3 0.3 0.5 0.9 1.8 2.4 2.7 4.7 1.6 1.3 0.5 0.5 0.2 0.0 0.0 0.0 0.0 0.0 0.0 0.0 0.0 0.0 0.0 0.0 0.0 0.0 0.0 0.0 0.0 0.0 0.0 0.0 0.0 0.0 0.0 0.0 0.0 0.0
0.0 0.0 0.0 0.0 0.0 3.4 9.0 11.1 12.3 10.9 6.7 2.6 0.2 0.2 0.2 0.1 0.0 0.1 0.0 0.8 1.6 3.2 4.4 5.5 3.5 0.8 0.0 0.2 0.3 0.0 0.0 0.0 0.0 0.0 0.0 0.0 0.0 0.0 0.0 0.0 0.0 0.0 0.0 0.0 0.0 0.0 0.0 0.0 0.0 0.0 0.0 0.0 0.0 0.0
0.0 0.0 0.0 0.0 0.0 3.8 5.2 8.0 5.5 6.6 4.1 2.8 1.5 0.8 0.7 0.4 0.2 0.4 0.2 0.1 0.6 2.5 3.7 3.1 0.5 0.1 0.0 0.1 0.2 0.1 0.0 0.0 0.0 0.0 0.0 0.0 0.0 0.0 0.0 0.0 0.0 0.0 0.0 0.0 0.0 0.0 0.0 0.0 0.0 0.0 0.0 0.0 0.0 0.0
0.0 0.0 0.0 0.0 2.4 3.2 4.5 4.3 6.0 5.4 4.6 3.8 5.1 3.4 3.0 1.6 1.4 1.6 3.4 1.5 4.4 5.2 2.4 1.0 0.1 0.0 0.2 0.1 0.0 0.0 0.1 0.0 0.0 0.0 0.0 0.0 0.0 0.0 0.0 0.0 0.0 0.0 0.0 0.0 0.0 0.0 0.0 0.0 0.0 0.0 0.0 0.0 0.0 0.0
0.8 0.0 1.2 1.0 3.1 2.6 2.6 3.4 4.3 4.5 3.4 4.6 6.1 6.2 5.6 4.7 5.3 5.7 5.9 8.1 8.1 3.4 1.1 0.4 0.5 0.6 0.3 0.3 0.2 0.6 0.0 0.3 0.0 0.0 0.0 0.0 0.0 0.0 0.0 0.0 0.0 0.0 0.0 0.0 0.0 0.0 0.0 0.0 0.0 0.0 0.0 0.0 0.0 0.0
0.0 0.9 1.5 1.4 1.7 0.8 2.2 2.3 2.6 3.3 3.5 4.5 5.1 5.6 6.6 6.0 7.3 8.4 9.9 7.1 4.5 2.4 1.5 1.4 1.1 1.3 1.1 0.7 0.4 0.1 0.1 0.0 0.0 0.2 0.1 0.0 0.0 0.0 0.0 0.0 0.0 0.0 0.0 0.0 0.0 0.0 0.0 0.0 0.0 0.0 0.0 0.0 0.0 0.0
0.0 1.0 0.7 0.5 0.6 1.2 1.1 1.9 1.6 2.0 2.6 3.0 3.6 3.8 3.6 5.3 5.9 6.6 5.3 2.4 2.2 2.4 1.9 2.1 1.7 0.9 1.1 1.2 1.4 1.1 0.7 0.3 0.1 0.1 0.7 0.5 0.1 0.0 0.0 0.0 0.0 0.0 0.0 0.0 0.0 0.0 0.0 0.0 0.0 0.0 0.0 0.0 0.0 0.0
2.6 1.4 0.5 0.1 0.0 0.1 0.4 1.2 1.4 1.1 1.7 2.6 3.1 3.2 3.6 4.2 5.4 4.2 2.3 1.9 3.0 4.0 3.4 2.4 1.6 1.3 1.0 1.1 1.0 1.3 1.3 1.6 1.2 0.4 0.2 1.0 0.7 0.4 0.1 0.5 0.2 0.0 0.0 0.0 0.0 0.0 0.0 0.0 0.0 0.0 0.0 0.0 0.0 0.1
1.7 0.3 0.1 0.0 0.0 0.0 0.0 0.5 1.1 1.6 1.8 2.3 2.7 2.8 3.3 3.5 3.0 2.8 1.8 2.1 3.3 4.2 4.3 3.7 2.4 1.4 1.5 1.7 1.5 1.7 1.6 1.6 1.3 1.0 1.6 1.9 1.3 1.3 1.0 0.9 0.8 0.5 0.0 0.3 0.2 0.3 0.3 0.2 0.1 0.1 0.2 0.0 0.6 0.9
0.7 0.1 0.0 0.0 0.0 0.0 0.0 0.0 0.0 0.0 0.6 1.3 1.5 1.7 1.8 2.2 2.4 1.3 1.2 2.1 3.2 3.9 4.3 4.3 3.8 2.4 2.1 2.1 2.3 2.4 2.6 2.5 2.5 1.2 2.4 2.8 2.5 1.7 1.2 1.1 0.6 0.4 0.3 1.4 1.1 0.9 1.0 1.0 1.0 1.1 1.5 1.6 1.7 1.6
0.0 0.0 0.0 0.0 0.0 0.0 0.0 0.0 0.0 0.0 0.0 0.1 0.9 0.9 1.0 1.0 0.6 0.7 1.3 1.9 3.2 3.8 4.2 4.5 4.5 3.3 2.6 2.4 2.7 3.0 3.3 3.6 3.5 3.3 3.0 3.4 3.5 3.4 2.8 3.1 2.8 2.7 2.2 2.4 2.5 2.4 2.2 2.2 2.2 2.1 2.4 2.3 1.9 2.0
0.1 0.0 0.0 0.0 0.0 0.0 0.0 0.0 0.0 0.0 0.0 0.0 0.0 0.3 0.2 0.3 0.5 0.8 1.2 2.1 2.9 3.4 3.8 4.0 4.2 4.2 3.7 3.4 3.5 3.6 3.4 3.6 3.1 2.6 1.9 1.9 2.2 2.8 4.0 4.2 4.2 4.8 4.0 3.4 3.2 3.0 2.4 2.5 2.7 2.8 2.7 2.6 2.5 2.6
0.0 0.0 0.0 0.0 0.0 0.0 0.0 0.0 0.0 0.0 0.0 0.0 0.0 0.0 0.0 0.2 0.5 0.8 1.2 1.6 2.5 3.1 3.7 4.1 4.1 4.3 4.1 3.9 4.1 4.2 4.1 4.0 4.0 3.0 2.3 2.0 1.6 3.1 4.0 4.3 4.3 3.6 4.1 4.2 3.7 3.8 4.0 4.2 3.9 3.8 3.4 3.2 3.1 3.0
0.0 0.0 0.0 0.0 0.0 0.0 0.0 0.1 0.1 0.0 0.0 0.0 0.0 0.0 0.0 0.0 0.3 0.6 1.0 1.5 2.0 2.7 3.2 3.5 3.7 4.2 4.2 4.1 4.2 4.0 3.8 3.9 4.1 4.2 3.9 3.7 3.7 3.6 4.3 4.5 4.3 4.6 4.7 4.4 3.5 3.6 3.1 2.3 1.7 1.9 1.9 2.1 2.5 2.2
0.1 0.0 0.0 0.0 0.0 0.2 0.2 0.1 0.1 0.0 0.0 0.0 0.0 0.0 0.1 0.1 0.1 0.3 0.5 0.9 1.4 1.8 2.5 2.8 2.8 3.0 3.2 3.3 3.4 3.6 3.6 3.4 3.2 3.8 3.7 3.3 3.1 3.4 3.9 3.9 4.3 4.4 4.6 4.7 4.3 4.0 3.7 3.2 3.8 3.6 3.5 3.6 3.5 3.1
0.6 0.4 0.4 0.2 0.0 0.0 0.1 0.0 0.0 0.0 0.0 0.0 0.0 0.0 0.0 0.1 0.1 0.1 0.3 0.6 0.9 1.4 1.7 2.1 2.4 2.7 2.9 3.0 3.1 3.5 3.8 4.3 4.6 4.8 5.1 4.9 4.2 4.0 4.0 4.0 3.9 4.1 4.1 4.2 4.4 4.7 5.0 4.9 4.6 4.1 4.1 4.0 3.9 3.8

GFSWCAN_prec_snow_075.txt.gz
Snowfall_Accumulation
0.0 0.0 0.0 0.0 0.0 0.0 0.0 0.0 0.0 0.0 0.0 0.0 0.0 0.0 0.0 0.0 0.0 0.0 0.0 0.0 0.0 0.0 0.0 0.0 0.0 0.0 0.0 0.0 0.0 0.0 0.0 0.0 0.0 3.5 0.4 0.5 0.0 0.0 0.0 0.0 0.0 0.0 0.0 0.2 0.5 0.9 0.0 0.0 0.0 0.0 0.0 0.0 0.0 0.0
0.0 0.0 0.0 0.0 0.0 0.0 0.0 0.0 0.0 0.0 0.0 0.0 0.0 0.0 0.0 0.0 0.0 0.0 0.0 0.0 0.0 0.0 0.0 0.0 0.0 0.0 0.0 0.0 0.0 0.0 0.0 0.8 2.3 2.6 1.4 1.3 0.3 0.0 0.0 0.1 0.0 0.0 0.0 0.0 0.0 0.0 0.0 0.0 0.0 0.0 0.0 0.0 0.0 0.0
0.0 0.0 0.0 0.0 0.0 0.0 0.0 0.0 0.0 0.0 0.0 0.0 0.0 0.0 0.0 0.0 0.0 0.0 0.0 0.0 0.0 0.1 0.0 0.0 0.0 0.0 0.0 0.0 0.0 0.0 0.0 0.0 0.0 3.0 1.9 0.0 1.3 0.2 0.1 0.0 0.0 0.0 0.0 0.0 0.0 0.0 0.0 0.0 0.0 0.0 0.0 0.0 0.0 0.0
0.0 0.0 0.0 0.0 0.0 0.0 0.0 0.0 0.0 0.0 0.0 0.0 0.0 0.0 0.0 0.0 0.0 0.0 0.0 0.0 0.0 0.0 2.0 0.0 0.0 0.0 0.0 0.0 0.0 0.0 0.0 0.0 0.0 2.1 2.6 1.1 0.3 0.8 0.2 0.0 0.0 0.0 0.0 0.0 0.0 0.0 0.0 0.0 0.0 0.0 0.0 0.0 0.0 0.0
0.0 0.0 0.0 0.0 0.0 0.0 0.0 0.0 0.0 0.0 0.0 0.0 0.0 0.0 0.0 0.0 0.0 0.0 0.0 0.0 0.0 1.2 2.5 0.8 0.0 0.0 0.0 0.0 0.0 0.0 0.0 0.0 0.2 1.1 0.9 1.7 0.9 1.2 0.0 0.0 0.0 0.0 0.0 0.0 0.0 0.0 0.0 0.0 0.0 0.0 0.0 0.0 0.0 0.0
0.0 0.0 0.0 0.0 0.0 0.0 0.0 0.0 0.0 0.0 0.0 0.0 0.0 0.0 0.0 0.0 0.0 0.0 0.0 0.0 0.0 0.0 4.3 3.3 0.0 0.0 0.0 0.0 0.0 0.0 0.0 0.0 0.0 0.2 1.0 0.0 0.0 1.4 1.0 0.4 0.0 0.0 0.0 0.0 0.0 0.0 0.0 0.0 0.0 0.0 0.0 0.0 0.0 0.0
0.0 0.0 0.0 0.0 0.0 0.0 0.0 0.0 0.0 0.0 0.0 0.0 0.0 0.0 0.0 0.0 0.0 0.0 0.0 0.0 0.0 0.0 2.6 5.9 4.2 0.0 0.0 0.0 0.0 0.0 0.0 0.0 0.3 0.2 1.5 0.9 0.0 1.4 2.0 0.0 0.0 0.0 0.0 0.0 0.0 0.0 0.0 0.0 0.0 0.0 0.0 0.0 0.0 0.0
0.0 0.0 0.0 0.0 0.0 0.0 0.0 0.0 0.0 0.0 0.0 0.0 0.0 0.0 0.0 0.0 0.0 0.0 0.0 0.0 0.0 0.0 2.7 4.9 2.2 2.3 0.0 0.2 0.3 0.0 0.2 0.4 0.9 1.5 0.1 0.0 0.1 0.8 1.7 0.0 0.0 0.0 0.0 0.0 0.0 0.0 0.0 0.0 0.0 0.0 0.0 0.0 0.0 0.0
0.0 0.0 0.0 0.0 0.0 0.0 0.0 0.0 0.0 0.0 0.0 0.0 0.0 0.0 0.0 0.0 0.0 0.0 0.0 0.0 0.0 0.0 3.1 3.2 3.4 5.9 0.0 0.0 0.2 0.0 0.0 5.1 0.0 1.2 1.0 0.4 0.0 3.0 0.1 0.0 0.0 0.0 0.0 0.0 0.0 0.0 0.0 0.0 0.0 0.0 0.0 0.0 0.0 0.0
0.0 0.0 0.0 0.0 0.0 0.0 0.0 0.0 0.0 0.0 0.0 0.0 0.0 0.0 0.7 0.0 0.0 0.0 0.0 2.9 3.6 3.0 2.0 1.6 1.1 2.8 0.0 0.0 3.9 0.3 0.5 3.4 6.0 0.0 0.0 0.9 0.6 0.0 0.0 0.0 0.0 0.0 0.0 0.0 0.0 0.0 0.0 0.0 0.0 0.0 0.0 0.0 0.0 0.0
0.0 0.0 0.0 0.0 0.0 0.0 0.0 0.0 0.0 0.0 0.0 0.0 2.0 1.1 0.0 0.0 0.0 0.1 2.6 2.1 1.4 1.3 0.3 0.0 0.1 1.6 0.1 4.3 4.9 3.2 7.0 3.0 7.6 3.2 2.8 4.7 2.2 0.3 0.0 0.0 0.0 0.0 0.0 0.0 0.0 0.0 0.0 0.0 0.0 0.0 0.0 0.0 0.0 0.0
0.0 0.0 0.0 0.0 0.0 0.0 0.0 0.0 0.0 0.0 7.2 0.0 0.0 0.0 0.0 1.7 3.1 3.7 3.6 1.0 0.8 0.0 0.1 0.6 1.6 1.8 0.8 0.6 2.7 1.5 4.2 3.5 2.7 0.0 2.8 1.8 0.4 0.0 0.0 0.0 0.0 0.0 0.0 0.0 0.0 0.0 0.0 0.0 0.0 0.0 0.0 0.0 0.0 0.0
0.0 0.0 0.0 0.0 0.0 0.0 0.0 0.0 0.0 0.0 0.0 0.0 7.1 13.6 11.3 9.4 8.5 2.2 1.8 0.7 0.2 0.0 0.0 2.2 2.9 0.0 0.8 1.6 1.3 1.2 0.5 1.0 0.0 1.3 0.7 1.1 0.0 0.0 0.0 0.0 0.0 0.0 1.2 2.0 0.9 0.4 0.1 0.0 0.0 0.0 0.0 0.0 0.0 0.0
0.0 0.0 0.0 0.0 0.0 0.0 0.0 0.0 0.0 0.0 7.1 5.0 18.1 17.7 7.1 4.8 0.7 0.7 0.4 0.0 0.0 0.0 0.0 0.7 1.8 2.5 0.0 2.3 2.1 1.2 0.4 0.2 0.5 0.3 0.0 0.0 0.0 0.0 0.0 0.0 0.0 0.6 0.1 0.4 0.6 0.9 0.3 0.8 0.7 0.4 0.5 0.1 0.0 0.0
0.0 0.0 0.0 0.0 0.0 0.0 0.0 0.0 0.0 0.0 7.1 16.5 9.0 6.3 2.9 0.8 0.3 0.1 0.4 0.2 0.0 0.0 0.0 0.0 0.0 1.1 2.1 2.6 1.6 0.6 0.7 0.4 0.1 0.1 0.0 0.0 0.0 0.0 0.0 0.3 1.3 1.2 0.4 0.1 0.0 0.0 0.0 0.1 0.0 0.0 0.0 0.0 0.0 0.0
0.0 0.0 0.0 0.0 0.0 0.0 0.0 0.0 0.0 0.0 20.7 15.1 7.9 3.5 0.5 0.1 0.0 0.0 0.2 0.0 0.0 0.0 0.0 0.0 2.1 1.4 1.2 1.2 0.9 0.7 0.6 0.3 0.3 0.0 0.0 0.0 0.0 0.0 0.0 0.0 0.5 0.3 0.0 0.0 0.0 0.0 0.0 0.0 0.0 0.0 0.0 0.0 0.0 0.0
0.0 0.0 0.0 0.0 0.0 0.0 0.0 3.7 9.0 17.8 19.6 14.9 4.0 0.1 0.0 0.2 0.1 0.3 0.4 0.1 0.0 0.6 1.9 3.4 2.7 1.3 0.2 0.4 0.1 0.1 0.1 0.3 0.0 0.0 0.0 0.0 0.0 0.0 0.0 0.0 0.0 0.0 0.0 0.0 0.0 0.0 0.0 0.0 0.0 0.0 0.0 0.0 0.0 0.0
0.0 0.0 0.0 0.0 0.0 0.0 2.6 14.2 18.6 17.9 14.5 7.2 0.5 0.1 0.1 0.0 0.3 0.3 0.5 1.0 1.8 2.4 2.7 5.0 1.6 1.3 0.5 0.5 0.2 0.0 0.0 0.0 0.0 0.0 0.0 0.0 0.0 0.0 0.0 0.0 0.0 0.0 0.0 0.0 0.0 0.0 0.0 0.0 0.0 0.0 0.0 0.0 0.0 0.0
0.0 0.0 0.0 0.0 0.0 3.4 9.2 11.5 12.7 11.1 6.7 2.6 0.2 0.2 0.2 0.1 0.0 0.1 0.0 0.8 1.6 3.2 4.4 5.5 3.5 0.9 0.0 0.2 0.3 0.0 0.0 0.0 0.0 0.0 0.0 0.0 0.0 0.0 0.0 0.0 0.0 0.0 0.0 0.0 0.0 0.0 0.0 0.0 0.0 0.0 0.0 0.0 0.0 0.0
0.0 0.0 0.0 0.0 0.0 4.0 5.5 8.4 5.8 6.6 4.1 2.8 1.5 0.8 0.7 0.4 0.2 0.4 0.2 0.1 0.6 2.5 3.7 3.1 0.5 0.1 0.0 0.1 0.2 0.1 0.0 0.0 0.0 0.0 0.0 0.0 0.0 0.0 0.0 0.0 0.0 0.0 0.0 0.0 0.0 0.0 0.0 0.0 0.0 0.0 0.0 0.0 0.0 0.0
0.0 0.0 0.0 0.0 3.1 3.5 4.5 4.4 6.0 5.4 4.6 3.8 5.1 3.4 3.0 1.6 1.4 1.6 3.4 1.5 4.4 5.2 2.4 1.0 0.1 0.0 0.2 0.1 0.0 0.0 0.1 0.0 0.0 0.0 0.0 0.0 0.0 0.0 0.0 0.0 0.0 0.0 0.0 0.0 0.0 0.0 0.0 0.0 0.0 0.0 0.0 0.0 0.0 0.0
0.8 0.0 2.0 1.0 4.2 3.1 2.6 3.4 4.3 4.5 3.4 4.6 6.1 6.2 5.6 4.7 5.3 5.7 5.9 8.2 8.1 3.4 1.1 0.4 0.5 0.6 0.3 0.3 0.2 0.6 0.0 0.3 0.0 0.0 0.0 0.0 0.0 0.0 0.0 0.0 0.0 0.0 0.0 0.0 0.0 0.0 0.0 0.0 0.0 0.0 0.0 0.0 0.0 0.0
0.0 1.6 2.3 2.4 2.5 1.2 2.6 2.4 2.7 3.3 3.5 4.5 5.1 5.6 6.6 6.0 7.3 8.4 9.9 7.1 4.5 2.4 1.5 1.4 1.1 1.3 1.1 0.7 0.4 0.1 0.1 0.0 0.0 0.2 0.1 0.0 0.0 0.0 0.0 0.0 0.0 0.0 0.0 0.0 0.0 0.0 0.0 0.0 0.0 0.0 0.0 0.0 0.0 0.0
0.0 1.9 1.6 1.2 1.0 1.6 1.3 1.9 1.6 2.0 2.7 3.0 3.6 3.8 3.6 5.3 5.9 6.6 5.3 2.4 2.2 2.4 1.9 2.1 1.7 0.9 1.1 1.2 1.4 1.1 0.7 0.3 0.1 0.1 0.7 0.5 0.1 0.0 0.0 0.0 0.0 0.0 0.0 0.0 0.0 0.0 0.0 0.0 0.0 0.0 0.0 0.0 0.0 0.0
3.2 2.1 1.0 0.4 0.1 0.1 0.4 1.2 1.4 1.1 1.7 2.7 3.1 3.2 3.6 4.2 5.4 4.2 2.3 1.9 3.0 4.0 3.4 2.4 1.6 1.3 1.0 1.1 1.0 1.3 1.3 1.6 1.2 0.4 0.2 1.0 0.7 0.4 0.1 0.5 0.2 0.0 0.0 0.0 0.0 0.0 0.0 0.0 0.0 0.0 0.0 0.0 0.0 0.1
1.7 0.5 0.1 0.0 0.0 0.0 0.0 0.5 1.1 1.6 1.8 2.3 2.7 2.8 3.3 3.5 3.0 2.8 1.8 2.1 3.3 4.2 4.3 3.7 2.4 1.4 1.5 1.7 1.5 1.7 1.6 1.6 1.3 1.0 1.6 1.9 1.3 1.3 1.0 0.9 0.8 0.5 0.0 0.3 0.2 0.3 0.3 0.2 0.1 0.1 0.2 0.0 0.6 0.9
0.7 0.1 0.0 0.0 0.0 0.0 0.0 0.0 0.0 0.0 0.6 1.3 1.5 1.7 1.8 2.2 2.4 1.3 1.2 2.1 3.2 3.9 4.3 4.3 3.8 2.4 2.1 2.1 2.3 2.4 2.6 2.5 2.5 1.2 2.4 2.8 2.5 1.7 1.2 1.1 0.6 0.4 0.3 1.4 1.1 0.9 1.0 1.0 1.0 1.1 1.5 1.6 1.7 1.6
0.0 0.0 0.0 0.0 0.0 0.1 0.1 0.0 0.0 0.0 0.0 0.1 0.9 0.9 1.0 1.0 0.6 0.7 1.3 1.9 3.2 3.8 4.2 4.5 4.5 3.3 2.6 2.4 2.7 3.0 3.3 3.6 3.5 3.3 3.0 3.4 3.5 3.4 2.8 3.1 2.8 2.7 2.2 2.4 2.5 2.4 2.2 2.2 2.2 2.1 2.4 2.3 1.9 2.0
0.1 0.0 0.0 0.0 0.1 0.0 0.0 0.0 0.0 0.0 0.0 0.0 0.0 0.3 0.2 0.3 0.5 0.8 1.2 2.1 2.9 3.4 3.8 4.0 4.2 4.2 3.7 3.4 3.5 3.6 3.4 3.6 3.1 2.6 1.9 1.9 2.2 2.8 4.0 4.2 4.2 4.8 4.0 3.4 3.2 3.0 2.4 2.5 2.7 2.8 2.7 2.6 2.5 2.6
0.0 0.0 0.0 0.0 0.0 0.0 0.0 0.0 0.0 0.0 0.0 0.0 0.0 0.0 0.0 0.2 0.5 0.8 1.2 1.6 2.5 3.1 3.7 4.1 4.1 4.3 4.1 3.9 4.1 4.2 4.1 4.0 4.0 3.0 2.3 2.0 1.6 3.1 4.0 4.3 4.3 3.6 4.1 4.2 3.7 3.8 4.0 4.2 3.9 3.8 3.4 3.2 3.1 3.0
0.0 0.0 0.0 0.0 0.0 0.0 0.0 0.1 0.1 0.0 0.0 0.0 0.0 0.0 0.0 0.0 0.3 0.6 1.0 1.5 2.0 2.7 3.2 3.5 3.7 4.2 4.2 4.1 4.2 4.0 3.8 3.9 4.1 4.2 3.9 3.7 3.7 3.6 4.3 4.5 4.3 4.6 4.7 4.4 3.5 3.6 3.1 2.3 1.7 1.9 1.9 2.1 2.5 2.2
0.1 0.0 0.0 0.0 0.0 0.2 0.2 0.1 0.1 0.0 0.0 0.0 0.0 0.0 0.1 0.1 0.1 0.3 0.5 0.9 1.4 1.8 2.5 2.8 2.8 3.0 3.2 3.3 3.4 3.6 3.6 3.4 3.2 3.8 3.7 3.3 3.1 3.4 3.9 3.9 4.3 4.4 4.6 4.7 4.3 4.0 3.7 3.2 3.8 3.6 3.5 3.6 3.5 3.1
0.6 0.4 0.4 0.2 0.0 0.0 0.1 0.0 0.0 0.0 0.0 0.0 0.0 0.0 0.0 0.1 0.1 0.1 0.3 0.6 0.9 1.4 1.7 2.1 2.4 2.7 2.9 3.0 3.1 3.5 3.8 4.3 4.6 4.8 5.1 4.9 4.2 4.0 4.0 4.0 3.9 4.1 4.1 4.2 4.4 4.7 5.0 4.9 4.6 4.1 4.1 4.0 3.9 3.8

GFSWCAN_prec_snow_078.txt.gz
Snowfall_Accumulation
0.0 0.0 0.0 0.0 0.0 0.0 0.0 0.0 0.0 0.0 0.0 0.0 0.0 0.0 0.0 0.0 0.0 0.0 0.0 0.0 0.0 0.0 0.0 0.0 0.0 0.0 0.0 0.0 0.0 0.0 0.0 0.0 0.0 3.5 2.0 0.5 0.0 0.0 0.0 0.0 0.0 0.0 0.0 0.4 0.7 1.0 0.0 0.0 0.0 0.0 0.0 0.0 0.0 0.0
0.0 0.0 0.0 0.0 0.0 0.0 0.0 0.0 0.0 0.0 0.0 0.0 0.0 0.0 0.0 0.0 0.0 0.0 0.0 0.0 0.0 0.0 0.0 0.0 0.0 0.0 0.0 0.0 0.0 0.0 0.0 0.8 2.3 2.6 3.0 2.7 1.5 0.5 0.0 0.1 0.0 0.0 0.0 0.0 0.0 0.0 0.0 0.0 0.0 0.0 0.0 0.0 0.0 0.0
0.0 0.0 0.0 0.0 0.0 0.0 0.0 0.0 0.0 0.0 0.0 0.0 0.0 0.0 0.0 0.0 0.0 0.0 0.0 0.0 0.0 0.1 0.0 0.0 0.0 0.0 0.0 0.0 0.0 0.0 0.0 0.0 0.0 3.0 1.9 0.2 1.6 1.3 0.6 0.0 0.0 0.0 0.0 0.0 0.0 0.0 0.0 0.0 0.0 0.0 0.0 0.0 0.0 0.0
0.0 0.0 0.0 0.0 0.0 0.0 0.0 0.0 0.0 0.0 0.0 0.0 0.0 0.0 0.0 0.0 0.0 0.0 0.0 0.0 0.0 0.0 2.2 0.0 0.0 0.0 0.0 0.0 0.0 0.0 0.0 0.0 0.0 2.2 2.7 1.3 0.3 0.8 0.2 0.3 0.1 0.0 0.0 0.0 0.0 0.0 0.0 0.0 0.0 0.0 0.0 0.0 0.0 0.0
0.0 0.0 0.0 0.0 0.0 0.0 0.0 0.0 0.0 0.0 0.0 0.0 0.0 0.0 0.0 0.0 0.0 0.0 0.0 0.0 0.0 1.2 2.5 0.8 0.0 0.0 0.0 0.0 0.0 0.0 0.0 0.0 0.2 1.2 1.0 1.7 0.9 1.2 0.0 0.0 0.0 0.0 0.0 0.0 0.0 0.0 0.0 0.0 0.0 0.0 0.0 0.0 0.0 0.0
0.0 0.0 0.0 0.0 0.0 0.0 0.0 0.0 0.0 0.0 0.0 0.0 0.0 0.0 0.0 0.0 0.0 0.0 0.0 0.0 0.0 0.0 4.3 3.3 0.0 0.0 0.0 0.0 0.0 0.0 0.0 0.0 0.0 0.2 1.0 0.0 0.0 1.7 1.0 0.5 0.0 0.0 0.0 0.0 0.0 0.0 0.0 0.0 0.0 0.0 0.0 0.0 0.0 0.0
0.0 0.0 0.0 0.0 0.0 0.0 0.0 0.0 0.0 0.0 0.0 0.0 0.0 0.0 0.0 0.0 0.0 0.0 0.0 0.0 0.0 0.0 2.6 5.9 4.2 0.0 0.0 0.0 0.0 0.0 0.0 0.0 0.3 0.2 1.6 0.9 0.0 2.0 2.6 0.1 0.0 0.0 0.0 0.0 0.0 0.0 0.0 0.0 0.0 0.0 0.0 0.0 0.0 0.0
0.0 0.0 0.0 0.0 0.0 0.0 0.0 0.0 0.0 0.0 0.0 0.0 0.0 0.0 0.0 0.0 0.0 0.0 0.0 0.0 0.0 0.0 2.7 4.9 2.2 2.3 0.0 0.2 0.3 0.0 0.2 0.6 1.1 1.5 0.2 0.0 0.1 0.8 1.7 0.0 0.0 0.0 0.0 0.0 0.0 0.0 0.0 0.0 0.0 0.0 0.0 0.0 0.0 0.0
0.0 0.0 0.0 0.0 0.0 0.0 0.0 0.0 0.0 0.0 0.0 0.0 0.0 0.0 0.0 0.0 0.0 0.0 0.0 0.0 0.0 0.0 3.1 3.2 3.4 5.9 0.0 0.0 0.2 0.1 0.2 5.5 0.0 1.6 1.1 0.5 0.0 3.2 0.1 0.0 0.0 0.0 0.0 0.0 0.0 0.0 0.0 0.0 0.0 0.0 0.0 0.0 0.0 0.0
0.0 0.0 0.0 0.0 0.0 0.0 0.0 0.0 0.0 0.0 0.0 0.0 0.0 0.0 0.7 0.0 0.0 0.0 0.0 3.1 3.8 3.3 2.2 1.6 1.1 2.8 0.0 0.0 3.9 0.5 0.7 3.4 6.2 0.0 0.0 1.0 0.6 0.0 0.0 0.0 0.0 0.0 0.0 0.0 0.0 0.0 0.0 0.0 0.0 0.0 0.0 0.0 0.0 0.0
0.0 0.0 0.0 0.0 0.0 0.0 0.0 0.0 0.0 0.0 0.0 0.0 2.0 1.1 0.0 0.0 0.0 0.1 2.6 2.1 1.4 1.3 0.3 0.0 0.1 1.8 0.1 4.5 5.2 3.4 7.2 3.3 8.2 3.8 3.0 4.7 3.4 0.3 0.0 0.0 0.0 0.0 0.0 0.0 0.0 0.0 0.0 0.0 0.0 0.0 0.0 0.0 0.0 0.0
0.0 0.0 0.0 0.0 0.0 0.0 0.0 0.0 0.0 0.0 7.2 0.0 0.0 0.0 0.0 1.7 3.2 3.7 3.6 1.1 0.8 0.0 0.1 0.6 1.6 1.8 0.9 1.0 3.1 1.5 4.5 4.3 3.9 0.7 3.4 3.7 2.9 1.3 0.2 0.0 0.0 0.0 0.0 0.0 0.0 0.0 0.0 0.0 0.0 0.0 0.0 0.0 0.0 0.0
0.0 0.0 0.0 0.0 0.0 0.0 0.0 0.0 0.0 0.0 0.0 0.0 7.1 13.6 11.3 9.5 8.6 2.2 1.8 0.7 0.2 0.0 0.0 2.2 2.9 0.0 0.9 2.1 1.6 1.7 1.1 1.6 0.6 2.0 1.4 1.6 0.5 0.3 0.3 0.1 0.0 0.0 1.2 2.0 0.9 0.4 0.1 0.0 0.0 0.0 0.0 0.0 0.0 0.0
0.0 0.0 0.0 0.0 0.0 0.0 0.0 0.0 0.0 0.0 7.1 5.0 18.1 17.8 7.1 4.9 0.7 0.7 0.4 0.0 0.0 0.0 0.0 0.7 1.8 2.5 0.0 2.4 2.6 2.0 0.7 0.5 0.7 0.3 0.0 0.0 0.0 0.0 0.0 0.0 0.0 0.6 0.1 0.4 0.6 0.9 0.3 0.8 0.7 0.4 0.5 0.1 0.0 0.0
0.0 0.0 0.0 0.0 0.0 0.0 0.0 0.0 0.0 0.0 7.1 16.5 9.0 6.3 2.9 0.8 0.3 0.1 0.4 0.2 0.0 0.0 0.0 0.0 0.0 1.3 2.3 2.8 1.9 0.9 0.9 0.5 0.3 0.3 0.0 0.0 0.0 0.0 0.0 0.7 2.3 1.6 0.6 0.1 0.0 0.0 0.0 0.1 0.1 0.0 0.0 0.0 0.0 0.0
0.0 0.0 0.0 0.0 0.0 0.0 0.0 0.0 0.0 0.0 20.7 15.1 7.9 3.5 0.5 0.1 0.0 0.0 0.2 0.0 0.0 0.0 0.0 0.0 2.3 1.7 1.4 1.4 1.1 0.8 0.8 0.4 0.7 0.4 0.0 0.0 0.0 0.0 0.1 0.6 1.4 0.3 0.0 0.0 0.0 0.0 0.0 0.0 0.0 0.0 0.0 0.0 0.0 0.0
0.0 0.0 0.0 0.0 0.0 0.0 0.0 3.7 9.0 17.8 19.6 14.9 4.0 0.1 0.0 0.2 0.1 0.3 0.4 0.1 0.0 0.6 1.9 3.4 3.0 1.6 0.5 0.6 0.2 0.1 0.1 0.3 0.0 0.2 0.0 0.0 0.0 0.0 0.0 0.3 0.7 0.0 0.0 0.0 0.0 0.0 0.0 0.0 0.0 0.0 0.0 0.0 0.0 0.0
0.0 0.0 0.0 0.0 0.0 0.0 2.6 14.2 18.6 18.2 14.6 7.2 0.5 0.1 0.1 0.0 0.3 0.3 0.5 1.0 1.8 2.4 2.7 5.0 1.7 1.3 0.5 0.5 0.2 0.0 0.0 0.0 0.0 0.0 0.0 0.0 0.0 0.0 0.0 0.2 0.4 0.0 0.0 0.0 0.0 0.0 0.0 0.0 0.0 0.0 0.0 0.0 0.0 0.0
0.0 0.0 0.0 0.0 0.0 3.4 9.6 11.5 12.7 11.4 6.7 2.6 0.2 0.2 0.2 0.1 0.0 0.1 0.0 0.8 1.6 3.2 4.4 5.6 3.5 0.9 0.0 0.2 0.3 0.0 0.0 0.0 0.1 0.0 0.0 0.0 0.0 0.0 0.0 0.0 0.0 0.0 0.0 0.0 0.0 0.0 0.0 0.0 0.0 0.0 0.0 0.0 0.0 0.0
0.0 0.0 0.0 0.0 0.0 4.0 5.7 8.8 6.0 6.6 4.1 2.8 1.5 0.8 0.7 0.4 0.2 0.4 0.2 0.1 0.6 2.5 3.7 3.1 0.5 0.1 0.0 0.1 0.2 0.1 0.0 0.0 0.0 0.0 0.0 0.0 0.0 0.0 0.0 0.0 0.0 0.0 0.0 0.0 0.0 0.0 0.0 0.0 0.0 0.0 0.0 0.0 0.0 0.0
0.0 0.0 0.0 0.0 4.2 4.1 4.5 4.4 6.0 5.4 4.6 3.8 5.1 3.4 3.0 1.6 1.4 1.6 3.4 1.5 4.5 5.2 2.4 1.0 0.1 0.0 0.2 0.1 0.0 0.0 0.1 0.0 0.0 0.0 0.0 0.0 0.0 0.0 0.0 0.0 0.0 0.0 0.0 0.0 0.0 0.0 0.0 0.0 0.0 0.0 0.0 0.0 0.0 0.0
0.8 0.0 2.8 1.0 5.6 3.8 2.6 3.4 4.3 4.5 3.4 4.6 6.1 6.2 5.6 4.7 5.3 5.7 6.0 8.2 8.1 3.4 1.1 0.4 0.5 0.6 0.3 0.3 0.2 0.6 0.0 0.3 0.0 0.0 0.0 0.0 0.0 0.0 0.0 0.0 0.0 0.0 0.0 0.0 0.0 0.0 0.0 0.0 0.0 0.0 0.0 0.0 0.0 0.0
0.0 1.6 3.3 3.5 3.2 1.5 2.9 2.5 2.8 3.3 3.5 4.5 5.1 5.6 6.6 6.0 7.3 8.4 9.9 7.1 4.5 2.4 1.5 1.4 1.1 1.3 1.1 0.7 0.4 0.1 0.1 0.0 0.0 0.2 0.1 0.0 0.0 0.0 0.0 0.0 0.0 0.0 0.0 0.0 0.0 0.0 0.0 0.0 0.0 0.0 0.0 0.0 0.0 0.0
0.0 2.8 2.3 1.7 1.3 1.9 1.5 2.0 1.6 2.0 2.7 3.0 3.6 3.8 3.6 5.3 5.9 6.6 5.3 2.4 2.2 2.4 1.9 2.1 1.7 0.9 1.1 1.2 1.4 1.1 0.7 0.3 0.1 0.1 0.7 0.5 0.1 0.0 0.0 0.0 0.0 0.0 0.0 0.0 0.0 0.0 0.0 0.0 0.0 0.0 0.0 0.0 0.0 0.0
3.6 2.6 1.4 0.8 0.3 0.2 0.4 1.2 1.4 1.1 1.7 2.7 3.1 3.2 3.6 4.2 5.4 4.2 2.3 1.9 3.0 4.0 3.4 2.4 1.6 1.3 1.0 1.1 1.0 1.3 1.3 1.6 1.2 0.4 0.2 1.0 0.7 0.4 0.1 0.5 0.2 0.0 0.0 0.0 0.0 0.0 0.0 0.0 0.0 0.0 0.0 0.0 0.0 0.1
1.7 0.6 0.2 0.1 0.0 0.0 0.0 0.5 1.1 1.6 1.8 2.3 2.7 2.8 3.3 3.5 3.0 2.8 1.8 2.1 3.3 4.2 4.3 3.7 2.4 1.4 1.5 1.7 1.5 1.7 1.6 1.6 1.3 1.0 1.6 1.9 1.3 1.3 1.0 0.9 0.8 0.5 0.0 0.3 0.2 0.3 0.3 0.2 0.1 0.1 0.2 0.0 0.6 0.9
0.7 0.1 0.0 0.0 0.0 0.0 0.0 0.0 0.0 0.0 0.6 1.3 1.5 1.7 1.8 2.2 2.4 1.3 1.2 2.1 3.2 3.9 4.3 4.3 3.8 2.4 2.1 2.1 2.3 2.4 2.6 2.5 2.5 1.2 2.4 2.8 2.5 1.7 1.2 1.1 0.6 0.4 0.3 1.4 1.1 0.9 1.0 1.0 1.0 1.1 1.5 1.6 1.7 1.6
0.0 0.0 0.0 0.0 0.0 0.1 0.1 0.0 0.0 0.0 0.0 0.1 0.9 0.9 1.0 1.0 0.6 0.7 1.3 1.9 3.2 3.8 4.2 4.5 4.5 3.3 2.6 2.4 2.7 3.0 3.3 3.6 3.5 3.3 3.0 3.4 3.5 3.4 2.8 3.1 2.8 2.7 2.2 2.4 2.5 2.4 2.2 2.2 2.2 2.1 2.4 2.3 1.9 2.0
0.1 0.0 0.0 0.0 0.1 0.1 0.0 0.0 0.0 0.0 0.0 0.0 0.0 0.3 0.2 0.3 0.5 0.8 1.2 2.1 2.9 3.4 3.8 4.0 4.2 4.2 3.7 3.4 3.5 3.6 3.4 3.6 3.1 2.6 1.9 1.9 2.2 2.8 4.0 4.2 4.2 4.8 4.0 3.4 3.2 3.0 2.4 2.5 2.7 2.8 2.7 2.6 2.5 2.6
0.0 0.0 0.0 0.0 0.0 0.0 0.0 0.0 0.0 0.0 0.0 0.0 0.0 0.0 0.0 0.2 0.5 0.8 1.2 1.6 2.5 3.1 3.7 4.1 4.1 4.3 4.1 3.9 4.1 4.2 4.1 4.0 4.0 3.0 2.3 2.0 1.6 3.1 4.0 4.3 4.3 3.6 4.1 4.2 3.7 3.8 4.0 4.2 3.9 3.8 3.4 3.2 3.1 3.0
0.0 0.0 0.0 0.0 0.0 0.0 0.0 0.1 0.1 0.0 0.0 0.0 0.0 0.0 0.0 0.0 0.3 0.6 1.0 1.5 2.0 2.7 3.2 3.5 3.7 4.2 4.2 4.1 4.2 4.0 3.8 3.9 4.1 4.2 3.9 3.7 3.7 3.6 4.3 4.5 4.3 4.6 4.7 4.4 3.5 3.6 3.1 2.3 1.7 1.9 1.9 2.1 2.5 2.2
0.1 0.0 0.0 0.0 0.0 0.2 0.2 0.1 0.1 0.0 0.0 0.0 0.0 0.0 0.1 0.1 0.1 0.3 0.5 0.9 1.4 1.8 2.5 2.8 2.8 3.0 3.2 3.3 3.4 3.6 3.6 3.4 3.2 3.8 3.7 3.3 3.1 3.4 3.9 3.9 4.3 4.4 4.6 4.7 4.3 4.0 3.7 3.2 3.8 3.6 3.5 3.6 3.5 3.1
0.6 0.4 0.4 0.2 0.0 0.0 0.1 0.0 0.0 0.0 0.0 0.0 0.0 0.0 0.0 0.1 0.1 0.1 0.3 0.6 0.9 1.4 1.7 2.1 2.4 2.7 2.9 3.0 3.1 3.5 3.8 4.3 4.6 4.8 5.1 4.9 4.2 4.0 4.0 4.0 3.9 4.1 4.1 4.2 4.4 4.7 5.0 4.9 4.6 4.1 4.1 4.0 3.9 3.8

GFSWCAN_prec_snow_084.txt.gz
Snowfall_Accumulation
0.0 0.0 0.0 0.0 0.0 0.0 0.0 0.0 0.0 0.0 0.0 0.0 0.0 0.0 0.0 0.0 0.0 0.0 0.0 0.0 0.0 0.0 0.0 0.0 0.0 0.0 0.0 0.0 0.0 0.0 0.0 0.0 0.0 3.5 2.0 1.3 0.3 0.0 0.4 0.0 0.1 0.1 0.3 0.7 1.0 1.4 0.1 0.0 0.0 0.0 0.0 0.0 0.0 0.0
0.0 0.0 0.0 0.0 0.0 0.0 0.0 0.0 0.0 0.0 0.0 0.0 0.0 0.0 0.0 0.0 0.0 0.0 0.0 0.0 0.0 0.0 0.0 0.0 0.0 0.0 0.0 0.0 0.0 0.0 0.0 0.8 2.3 2.6 3.0 2.7 2.6 2.2 0.7 0.7 0.0 0.2 0.0 0.0 0.0 0.0 0.0 0.0 0.0 0.0 0.0 0.0 0.0 0.0
0.0 0.0 0.0 0.0 0.0 0.0 0.0 0.0 0.0 0.0 0.0 0.0 0.0 0.0 0.0 0.0 0.0 0.0 0.0 0.0 0.0 0.1 0.0 0.0 0.0 0.0 0.0 0.0 0.0 0.1 0.0 0.0 0.0 3.0 1.9 0.2 1.6 1.3 0.6 1.0 0.4 0.2 0.3 0.0 0.0 0.0 0.0 0.0 0.0 0.0 0.0 0.0 0.0 0.0
0.0 0.0 0.0 0.0 0.0 0.0 0.0 0.0 0.0 0.0 0.0 0.0 0.0 0.0 0.0 0.0 0.0 0.0 0.0 0.0 0.0 0.0 2.2 0.0 0.0 0.0 0.0 0.0 0.0 0.0 0.0 0.0 0.0 2.2 2.7 1.3 0.3 0.8 0.2 0.3 0.1 0.0 0.0 0.1 0.0 0.0 0.0 0.0 0.0 0.0 0.0 0.0 0.0 0.0
0.0 0.0 0.0 0.0 0.0 0.0 0.0 0.0 0.0 0.0 0.0 0.0 0.0 0.0 0.0 0.0 0.0 0.0 0.0 0.0 0.0 1.2 2.5 0.8 0.0 0.0 0.0 0.0 0.0 0.0 0.0 0.0 0.3 1.4 1.1 1.8 0.9 1.2 0.0 0.0 0.0 0.0 0.0 0.0 0.0 0.0 0.0 0.0 0.0 0.0 0.0 0.0 0.0 0.0
0.0 0.0 0.0 0.0 0.0 0.0 0.0 0.0 0.0 0.0 0.0 0.0 0.0 0.0 0.0 0.0 0.0 0.0 0.0 0.0 0.0 0.0 4.3 3.3 0.0 0.0 0.0 0.0 0.0 0.0 0.0 0.0 0.2 0.3 1.1 0.0 0.0 1.7 1.0 0.6 0.0 0.0 0.0 0.0 0.0 0.0 0.0 0.0 0.0 0.0 0.0 0.0 0.0 0.0
0.0 0.0 0.0 0.0 0.0 0.0 0.0 0.0 0.0 0.0 0.0 0.0 0.0 0.0 0.0 0.0 0.0 0.0 0.0 0.0 0.0 0.0 2.6 5.9 4.2 0.0 0.0 0.0 0.0 0.0 0.0 0.1 0.6 0.6 1.8 1.0 0.0 2.0 2.7 0.1 0.0 0.0 0.0 0.0 0.0 0.0 0.0 0.0 0.0 0.0 0.0 0.0 0.0 0.0
0.0 0.0 0.0 0.0 0.0 0.0 0.0 0.0 0.0 0.0 0.0 0.0 0.0 0.0 0.0 0.0 0.0 0.0 0.0 0.0 0.0 0.0 2.7 4.9 2.2 2.3 0.0 0.2 0.3 0.0 0.3 1.0 1.4 1.5 0.3 0.0 0.1 1.0 1.8 0.0 0.0 0.0 0.1 0.0 0.0 0.0 0.0 0.0 0.0 0.0 0.0 0.0 0.0 0.0
0.0 0.0 0.0 0.0 0.0 0.0 0.0 0.0 0.0 0.0 0.0 0.0 0.0 0.0 0.0 0.0 0.0 0.0 0.0 0.0 0.0 0.0 3.1 3.2 3.4 5.9 0.0 0.0 0.2 0.3 0.6 5.8 0.0 1.7 1.1 0.8 0.0 3.4 0.1 0.0 0.0 0.0 0.0 0.0 0.0 0.0 0.0 0.0 0.0 0.0 0.0 0.0 0.0 0.0
0.0 0.0 0.0 0.0 0.0 0.0 0.0 0.0 0.0 0.0 0.0 0.0 0.0 0.0 0.7 0.0 0.0 0.0 0.0 3.1 3.8 3.4 2.2 1.6 1.1 2.8 0.0 0.0 3.9 0.5 0.9 3.4 6.2 0.0 0.0 1.3 0.6 0.0 0.1 0.1 0.0 0.0 0.0 0.0 0.0 0.0 0.0 0.0 0.0 0.0 0.0 0.0 0.0 0.0
0.0 0.0 0.0 0.0 0.0 0.0 0.0 0.0 0.0 0.0 0.0 0.0 2.1 1.1 0.0 0.0 0.0 0.1 2.6 2.1 1.4 1.3 0.3 0.0 0.1 1.8 0.1 4.6 5.2 3.4 7.4 3.4 8.3 3.8 3.4 4.7 3.4 2.2 0.5 0.0 0.0 0.0 0.0 0.0 0.0 0.0 0.0 0.0 0.0 0.0 0.0 0.0 0.0 0.0
0.0 0.0 0.0 0.0 0.0 0.0 0.0 0.0 0.0 0.0 7.2 0.0 0.0 0.0 0.0 1.7 3.2 3.7 3.6 1.1 0.8 0.0 0.1 0.6 1.6 1.8 0.9 1.1 3.2 1.5 4.9 4.8 3.9 1.0 3.8 3.7 4.4 2.7 1.4 0.2 0.0 0.0 0.0 0.0 0.0 0.0 0.0 0.0 0.0 0.0 0.0 0.0 0.0 0.0
0.0 0.0 0.0 0.0 0.0 0.0 0.0 0.0 0.0 0.0 0.0 0.0 7.1 13.9 11.4 9.5 8.6 2.2 1.8 0.7 0.2 0.0 0.0 2.2 3.0 0.0 1.1 2.6 1.9 2.0 1.6 2.1 1.1 2.4 1.6 2.3 1.0 0.9 1.8 1.1 0.1 0.0 1.2 2.0 0.9 0.4 0.1 0.0 0.0 0.0 0.0 0.0 0.0 0.0
0.0 0.0 0.0 0.0 0.0 0.0 0.0 0.0 0.0 0.0 7.1 5.0 18.1 17.9 7.1 4.9 0.7 0.7 0.4 0.0 0.0 0.0 0.0 0.7 1.8 2.5 0.0 2.8 2.8 2.4 0.9 1.2 1.3 0.6 0.1 0.0 0.0 0.1 0.2 1.2 1.2 1.0 0.1 0.4 0.6 0.9 0.3 0.8 0.7 0.4 0.5 0.1 0.0 0.0
0.0 0.0 0.0 0.0 0.0 0.0 0.0 0.0 0.0 0.0 7.1 16.8 9.1 6.3 2.9 0.8 0.3 0.1 0.4 0.2 0.0 0.0 0.0 0.0 0.0 1.3 2.3 3.2 2.2 0.9 1.3 0.5 0.6 0.5 0.0 0.0 0.1 0.1 0.1 1.0 3.6 2.8 1.5 0.6 0.3 0.3 0.4 0.6 0.5 0.3 0.0 0.0 0.0 0.0
0.0 0.0 0.0 0.0 0.0 0.0 0.0 0.0 0.0 0.0 21.0 15.2 7.9 3.5 0.5 0.1 0.0 0.0 0.2 0.0 0.0 0.0 0.0 0.0 2.3 1.8 1.6 1.8 1.5 0.8 1.1 0.6 0.7 0.4 0.0 0.0 0.0 0.2 0.5 2.1 3.1 1.4 0.8 0.7 0.3 0.0 0.0 0.0 0.0 0.0 0.0 0.0 0.0 0.0
0.0 0.0 0.0 0.0 0.0 0.0 0.0 3.7 9.0 17.9 19.6 15.0 4.0 0.1 0.0 0.2 0.1 0.3 0.4 0.1 0.0 0.6 1.9 3.4 3.0 1.6 0.5 0.9 0.2 0.1 0.1 0.3 0.0 0.2 0.0 0.0 0.0 0.0 0.6 1.2 2.4 1.1 1.4 1.6 0.6 0.0 0.0 0.0 0.0 0.0 0.0 0.0 0.0 0.0
0.0 0.0 0.0 0.0 0.0 0.0 2.6 14.2 18.6 18.2 14.6 7.2 0.5 0.1 0.1 0.0 0.3 0.3 0.5 1.0 1.8 2.4 2.7 5.0 1.7 1.3 0.5 0.5 0.2 0.0 0.0 0.0 0.0 0.0 0.0 0.0 0.0 0.0 0.0 0.8 1.9 1.7 1.5 1.0 0.4 0.0 0.0 0.0 0.0 0.0 0.0 0.0 0.0 0.0
0.0 0.0 0.0 0.0 0.0 3.4 9.7 11.5 12.7 11.4 6.7 2.6 0.2 0.2 0.2 0.1 0.0 0.1 0.0 0.8 1.6 3.2 4.4 5.6 3.5 0.9 0.0 0.2 0.3 0.0 0.0 0.0 0.1 0.0 0.0 0.0 0.0 0.0 0.0 0.0 0.0 0.0 0.3 0.2 0.1 0.0 0.0 0.0 0.0 0.0 0.0 0.0 0.0 0.0
0.0 0.0 0.0 0.0 0.0 4.0 5.7 8.9 6.0 6.6 4.1 2.8 1.5 0.8 0.7 0.4 0.2 0.4 0.2 0.1 0.6 2.5 3.8 3.2 0.5 0.1 0.0 0.1 0.2 0.1 0.0 0.0 0.0 0.0 0.0 0.0 0.0 0.0 0.0 0.0 0.0 0.0 0.0 0.0 0.0 0.0 0.0 0.0 0.0 0.0 0.0 0.0 0.0 0.0
0.0 0.0 0.0 0.0 4.2 4.1 4.5 4.4 6.0 5.4 4.6 3.8 5.1 3.4 3.0 1.6 1.4 1.6 3.4 1.5 4.7 5.4 2.4 1.0 0.1 0.0 0.2 0.1 0.0 0.0 0.1 0.0 0.0 0.0 0.0 0.0 0.0 0.0 0.0 0.0 0.0 0.0 0.0 0.0 0.0 0.0 0.0 0.0 0.0 0.0 0.0 0.0 0.0 0.0
0.8 0.0 2.8 1.0 6.5 3.8 2.6 3.4 4.3 4.5 3.4 4.6 6.1 6.2 5.6 4.7 5.3 5.8 6.0 8.3 8.1 3.4 1.1 0.4 0.5 0.6 0.3 0.3 0.2 0.6 0.0 0.3 0.0 0.0 0.0 0.0 0.0 0.0 0.0 0.0 0.0 0.0 0.0 0.0 0.0 0.0 0.0 0.0 0.0 0.0 0.0 0.0 0.0 0.0
0.0 1.6 4.3 5.0 3.8 1.5 3.2 2.5 2.8 3.3 3.5 4.5 5.1 5.6 6.6 6.0 7.3 8.4 9.9 7.1 4.5 2.4 1.5 1.4 1.1 1.3 1.1 0.7 0.4 0.1 0.1 0.0 0.0 0.2 0.1 0.0 0.0 0.0 0.0 0.0 0.0 0.0 0.0 0.0 0.0 0.0 0.0 0.0 0.0 0.0 0.0 0.0 0.0 0.0
0.0 3.6 3.1 1.7 1.6 2.3 1.8 2.2 1.7 2.0 2.7 3.0 3.6 3.8 3.6 5.3 5.9 6.6 5.3 2.4 2.2 2.4 1.9 2.1 1.7 0.9 1.1 1.2 1.4 1.1 0.7 0.3 0.1 0.1 0.7 0.5 0.1 0.0 0.0 0.0 0.0 0.0 0.0 0.0 0.0 0.0 0.0 0.0 0.0 0.0 0.0 0.0 0.0 0.0
4.2 3.5 1.8 1.1 0.6 0.2 0.4 1.2 1.4 1.1 1.7 2.7 3.1 3.2 3.6 4.3 5.4 4.2 2.3 1.9 3.0 4.0 3.4 2.4 1.6 1.3 1.0 1.1 1.0 1.3 1.3 1.6 1.2 0.4 0.2 1.0 0.7 0.4 0.1 0.5 0.2 0.0 0.0 0.0 0.0 0.0 0.0 0.0 0.0 0.0 0.0 0.0 0.0 0.1
1.7 0.7 0.3 0.2 0.1 0.0 0.0 0.5 1.1 1.6 1.8 2.3 2.7 2.8 3.3 3.5 3.0 2.8 1.8 2.1 3.3 4.2 4.3 3.7 2.4 1.4 1.5 1.7 1.5 1.7 1.6 1.6 1.3 1.0 1.6 1.9 1.3 1.3 1.0 0.9 0.8 0.5 0.0 0.3 0.2 0.3 0.3 0.2 0.1 0.1 0.2 0.0 0.6 0.9
0.7 0.1 0.0 0.0 0.0 0.0 0.0 0.0 0.0 0.0 0.6 1.3 1.5 1.7 1.8 2.2 2.4 1.3 1.2 2.1 3.2 3.9 4.3 4.3 3.8 2.4 2.1 2.1 2.3 2.4 2.6 2.5 2.5 1.2 2.4 2.8 2.5 1.7 1.2 1.1 0.6 0.4 0.3 1.4 1.1 0.9 1.0 1.0 1.0 1.1 1.5 1.6 1.7 1.6
0.0 0.0 0.0 0.0 0.0 0.1 0.1 0.0 0.0 0.0 0.0 0.1 0.9 0.9 1.0 1.0 0.6 0.7 1.3 1.9 3.2 3.8 4.2 4.5 4.5 3.3 2.6 2.4 2.7 3.0 3.3 3.6 3.5 3.3 3.0 3.4 3.5 3.4 2.8 3.1 2.8 2.7 2.2 2.4 2.5 2.4 2.2 2.2 2.2 2.1 2.4 2.3 1.9 2.0
0.1 0.0 0.0 0.0 0.1 0.1 0.0 0.0 0.0 0.0 0.0 0.0 0.0 0.3 0.2 0.3 0.5 0.8 1.2 2.1 2.9 3.4 3.8 4.0 4.2 4.2 3.7 3.4 3.5 3.6 3.4 3.6 3.1 2.6 1.9 1.9 2.2 2.8 4.0 4.2 4.2 4.8 4.0 3.4 3.2 3.0 2.4 2.5 2.7 2.8 2.7 2.6 2.5 2.6
0.0 0.0 0.0 0.0 0.0 0.0 0.0 0.0 0.0 0.0 0.0 0.0 0.0 0.0 0.0 0.2 0.5 0.8 1.2 1.6 2.5 3.1 3.7 4.1 4.1 4.3 4.1 3.9 4.1 4.2 4.1 4.0 4.0 3.0 2.3 2.0 1.6 3.1 4.0 4.3 4.3 3.6 4.1 4.2 3.7 3.8 4.0 4.2 3.9 3.9 3.4 3.2 3.1 3.0
0.0 0.0 0.0 0.0 0.0 0.0 0.0 0.1 0.1 0.0 0.0 0.0 0.0 0.0 0.0 0.0 0.3 0.6 1.0 1.5 2.0 2.7 3.2 3.5 3.7 4.2 4.2 4.1 4.2 4.0 3.8 3.9 4.1 4.2 3.9 3.7 3.7 3.6 4.3 4.5 4.3 4.6 4.7 4.4 3.5 3.6 3.1 2.3 1.7 1.9 1.9 2.1 2.5 2.2
0.1 0.0 0.0 0.0 0.0 0.2 0.2 0.1 0.1 0.0 0.0 0.0 0.0 0.0 0.1 0.1 0.1 0.3 0.5 0.9 1.4 1.8 2.5 2.8 2.8 3.0 3.2 3.3 3.4 3.6 3.6 3.4 3.2 3.8 3.7 3.3 3.1 3.4 3.9 3.9 4.3 4.4 4.6 4.7 4.3 4.0 3.7 3.2 3.8 3.6 3.5 3.6 3.5 3.1
0.6 0.4 0.4 0.2 0.0 0.0 0.1 0.0 0.0 0.0 0.0 0.0 0.0 0.0 0.0 0.1 0.1 0.1 0.3 0.6 0.9 1.4 1.7 2.1 2.4 2.7 2.9 3.0 3.1 3.5 3.8 4.3 4.6 4.9 5.1 4.9 4.3 4.1 4.1 4.1 3.9 4.1 4.1 4.2 4.4 4.7 5.0 4.9 4.6 4.1 4.1 4.0 3.9 3.8

GFSWCAN_prec_snow_087.txt.gz
Snowfall_Accumulation
0.0 0.0 0.0 0.0 0.0 0.0 0.0 0.0 0.0 0.0 0.0 0.0 0.0 0.0 0.0 0.0 0.0 0.0 0.0 0.0 0.0 0.0 0.0 0.0 0.0 0.0 0.0 0.0 0.0 0.0 0.0 0.0 0.0 3.5 2.0 1.3 0.3 0.0 0.4 0.0 0.3 0.5 1.3 1.5 1.4 1.7 0.2 0.0 0.0 0.0 0.0 0.0 0.0 0.0
0.0 0.0 0.0 0.0 0.0 0.0 0.0 0.0 0.0 0.0 0.0 0.0 0.0 0.0 0.0 0.0 0.0 0.0 0.0 0.0 0.0 0.0 0.0 0.0 0.0 0.0 0.0 0.0 0.0 0.0 0.0 0.8 2.3 2.6 3.0 2.7 2.6 2.2 0.7 0.7 0.0 0.3 0.0 0.4 0.1 0.1 0.0 0.0 0.0 0.0 0.0 0.0 0.0 0.0
0.0 0.0 0.0 0.0 0.0 0.0 0.0 0.0 0.0 0.0 0.0 0.0 0.0 0.0 0.0 0.0 0.0 0.0 0.0 0.0 0.0 0.1 0.0 0.0 0.0 0.0 0.0 0.0 0.0 0.1 0.0 0.0 0.0 3.0 1.9 0.2 1.6 1.3 0.6 1.0 0.4 0.2 0.3 0.0 0.0 0.0 0.0 0.0 0.0 0.0 0.0 0.0 0.0 0.0
0.0 0.0 0.0 0.0 0.0 0.0 0.0 0.0 0.0 0.0 0.0 0.0 0.0 0.0 0.0 0.0 0.0 0.0 0.0 0.0 0.0 0.0 2.2 0.0 0.0 0.0 0.0 0.0 0.0 0.0 0.0 0.0 0.0 2.2 2.7 1.3 0.3 0.8 0.2 0.3 0.1 0.0 0.0 0.1 0.0 0.0 0.0 0.0 0.0 0.0 0.0 0.0 0.0 0.0
0.0 0.0 0.0 0.0 0.0 0.0 0.0 0.0 0.0 0.0 0.0 0.0 0.0 0.0 0.0 0.0 0.0 0.0 0.0 0.0 0.0 1.2 2.5 0.8 0.0 0.0 0.0 0.0 0.0 0.0 0.0 0.0 0.3 1.4 1.2 1.9 0.9 1.2 0.0 0.0 0.0 0.0 0.0 0.0 0.0 0.0 0.0 0.0 0.0 0.0 0.0 0.0 0.0 0.0
0.0 0.0 0.0 0.0 0.0 0.0 0.0 0.0 0.0 0.0 0.0 0.0 0.0 0.0 0.0 0.0 0.0 0.0 0.0 0.0 0.0 0.0 4.3 3.3 0.0 0.0 0.0 0.0 0.0 0.0 0.0 0.0 0.2 0.4 1.1 0.0 0.0 1.7 1.0 0.6 0.0 0.0 0.0 0.0 0.0 0.0 0.0 0.0 0.0 0.0 0.0 0.0 0.0 0.0
0.0 0.0 0.0 0.0 0.0 0.0 0.0 0.0 0.0 0.0 0.0 0.0 0.0 0.0 0.0 0.0 0.0 0.0 0.0 0.0 0.0 0.0 2.6 5.9 4.2 0.0 0.0 0.0 0.0 0.0 0.0 0.2 0.7 0.8 1.9 1.0 0.0 2.0 2.8 0.1 0.0 0.0 0.0 0.0 0.0 0.0 0.0 0.0 0.0 0.0 0.0 0.0 0.0 0.0
0.0 0.0 0.0 0.0 0.0 0.0 0.0 0.0 0.0 0.0 0.0 0.0 0.0 0.0 0.0 0.0 0.0 0.0 0.0 0.0 0.0 0.0 2.7 4.9 2.2 2.3 0.0 0.2 0.3 0.0 0.3 1.1 1.6 1.6 0.4 0.0 0.2 1.0 1.9 0.0 0.0 0.0 0.1 0.0 0.0 0.0 0.0 0.0 0.0 0.0 0.0 0.0 0.0 0.0
0.0 0.0 0.0 0.0 0.0 0.0 0.0 0.0 0.0 0.0 0.0 0.0 0.0 0.0 0.0 0.0 0.0 0.0 0.0 0.0 0.0 0.0 3.1 3.2 3.4 5.9 0.0 0.0 0.2 0.3 0.7 5.8 0.0 1.8 1.1 0.8 0.0 3.4 0.1 0.0 0.0 0.0 0.0 0.0 0.0 0.0 0.0 0.0 0.0 0.0 0.0 0.0 0.0 0.0
0.0 0.0 0.0 0.0 0.0 0.0 0.0 0.0 0.0 0.0 0.0 0.0 0.0 0.0 0.7 0.0 0.0 0.0 0.0 3.1 3.8 3.4 2.2 1.6 1.1 2.8 0.0 0.0 3.9 0.5 0.9 3.5 6.3 0.0 0.0 1.4 0.6 0.0 0.1 0.1 0.1 0.0 0.0 0.0 0.0 0.0 0.0 0.0 0.0 0.0 0.0 0.0 0.0 0.0
0.0 0.0 0.0 0.0 0.0 0.0 0.0 0.0 0.0 0.0 0.0 0.0 2.1 1.1 0.0 0.0 0.0 0.1 2.6 2.1 1.4 1.3 0.3 0.0 0.1 1.8 0.1 4.6 5.2 3.4 7.4 3.4 8.3 3.8 3.4 4.7 3.4 2.2 0.5 0.4 0.0 0.0 0.0 0.0 0.0 0.0 0.0 0.0 0.0 0.0 0.0 0.0 0.0 0.0
0.0 0.0 0.0 0.0 0.0 0.0 0.0 0.0 0.0 0.0 7.2 0.0 0.0 0.0 0.0 1.7 3.2 3.7 3.6 1.1 0.8 0.0 0.1 0.6 1.6 1.8 0.9 1.1 3.2 1.5 4.9 4.9 3.9 1.0 3.9 3.7 4.4 2.7 1.4 0.2 0.0 0.0 0.0 0.0 0.0 0.0 0.0 0.0 0.0 0.0 0.0 0.0 0.0 0.0
0.0 0.0 0.0 0.0 0.0 0.0 0.0 0.0 0.0 0.0 0.0 0.0 7.1 13.9 11.4 9.7 8.6 2.2 1.8 0.7 0.2 0.0 0.0 2.2 3.0 0.0 1.1 2.6 1.9 2.0 1.6 2.2 1.1 2.4 1.6 2.3 1.0 0.9 1.8 1.1 0.1 0.0 1.2 2.0 0.9 0.4 0.1 0.0 0.0 0.0 0.0 0.0 0.0 0.0
0.0 0.0 0.0 0.0 0.0 0.0 0.0 0.0 0.0 0.0 7.1 5.0 18.1 17.9 7.1 5.1 0.7 0.7 0.4 0.0 0.0 0.0 0.0 0.7 1.8 2.6 0.0 2.8 2.8 2.5 0.9 1.4 1.5 0.6 0.1 0.0 0.0 0.1 0.2 1.2 1.2 1.2 0.1 0.4 0.8 1.1 0.4 0.8 0.8 0.4 0.5 0.1 0.0 0.0
0.0 0.0 0.0 0.0 0.0 0.0 0.0 0.0 0.0 0.0 7.1 16.8 9.1 6.3 2.9 0.8 0.3 0.1 0.4 0.2 0.0 0.0 0.0 0.0 0.0 1.3 2.3 3.2 2.2 1.0 1.3 0.7 0.6 0.5 0.0 0.0 0.1 0.1 0.1 1.0 3.6 3.2 1.8 0.8 0.5 0.3 0.8 1.0 0.7 0.3 0.0 0.0 0.0 0.0
0.0 0.0 0.0 0.0 0.0 0.0 0.0 0.0 0.0 0.0 21.0 15.2 7.9 3.6 0.6 0.1 0.0 0.0 0.2 0.0 0.0 0.0 0.0 0.0 2.3 1.8 1.6 1.8 1.5 0.8 1.2 0.6 0.7 0.4 0.0 0.0 0.0 0.2 0.5 2.1 3.1 1.4 1.3 1.5 1.1 0.0 0.0 0.0 0.0 0.0 0.0 0.0 0.0 0.0
0.0 0.0 0.0 0.0 0.0 0.0 0.0 3.7 9.0 18.4 20.4 15.3 4.1 0.1 0.1 0.2 0.1 0.3 0.4 0.1 0.0 0.6 1.9 3.4 3.0 1.6 0.5 0.9 0.2 0.1 0.1 0.3 0.0 0.2 0.0 0.0 0.0 0.0 0.6 1.2 2.4 1.5 1.8 2.3 1.8 0.5 0.0 0.0 0.0 0.0 0.0 0.0 0.0 0.0
0.0 0.0 0.0 0.0 0.0 0.0 2.6 14.2 19.4 18.9 15.1 7.3 0.5 0.1 0.1 0.0 0.3 0.3 0.5 1.0 1.8 2.4 2.7 5.0 1.7 1.3 0.5 0.5 0.2 0.0 0.0 0.0 0.0 0.0 0.0 0.0 0.0 0.0 0.0 0.8 1.9 2.1 2.1 1.6 0.9 0.0 0.0 0.0 0.0 0.0 0.0 0.0 0.0 0.0
0.0 0.0 0.0 0.0 0.0 3.4 11.0 12.7 13.1 11.7 6.8 2.6 0.2 0.2 0.2 0.1 0.0 0.1 0.0 0.8 1.6 3.2 4.4 5.6 3.5 0.9 0.0 0.2 0.3 0.0 0.0 0.0 0.1 0.0 0.0 0.0 0.0 0.0 0.0 0.0 0.0 0.0 0.6 0.7 0.7 0.5 0.3 0.1 0.0 0.0 0.0 0.0 0.0 0.0
0.0 0.0 0.0 0.0 0.0 4.8 6.2 9.2 6.0 6.6 4.2 2.8 1.5 0.8 0.7 0.4 0.2 0.4 0.2 0.1 0.6 2.5 3.8 3.2 0.5 0.1 0.0 0.1 0.2 0.1 0.0 0.0 0.0 0.0 0.0 0.0 0.0 0.0 0.0 0.0 0.0 0.0 0.0 0.0 0.0 0.0 0.0 0.0 0.0 0.0 0.0 0.0 0.0 0.0
0.0 0.0 0.0 0.0 4.4 4.1 4.5 4.4 6.0 5.4 4.6 3.8 5.1 3.4 3.0 1.6 1.4 1.6 3.4 1.5 4.7 5.4 2.4 1.0 0.1 0.0 0.2 0.1 0.0 0.0 0.1 0.0 0.0 0.0 0.0 0.0 0.0 0.0 0.0 0.0 0.0 0.0 0.0 0.0 0.0 0.0 0.0 0.0 0.0 0.0 0.0 0.0 0.0 0.0
0.8 0.0 2.8 1.0 6.5 3.8 2.6 3.4 4.3 4.5 3.4 4.6 6.1 6.2 5.6 4.7 5.3 5.8 6.1 8.4 8.1 3.4 1.1 0.4 0.5 0.6 0.3 0.3 0.2 0.6 0.0 0.3 0.0 0.0 0.0 0.0 0.0 0.0 0.0 0.0 0.0 0.0 0.0 0.0 0.0 0.0 0.0 0.0 0.0 0.0 0.0 0.0 0.0 0.0
0.0 1.6 4.3 5.0 3.8 1.5 3.2 2.5 2.8 3.3 3.5 4.5 5.1 5.6 6.6 6.0 7.3 8.4 10.0 7.1 4.5 2.4 1.5 1.4 1.1 1.3 1.1 0.7 0.4 0.1 0.1 0.0 0.0 0.2 0.1 0.0 0.0 0.0 0.0 0.0 0.0 0.0 0.0 0.0 0.0 0.0 0.0 0.0 0.0 0.0 0.0 0.0 0.0 0.0
0.0 3.6 3.1 1.7 1.6 2.3 1.8 2.2 1.7 2.0 2.7 3.0 3.6 3.8 3.6 5.3 5.9 6.6 5.3 2.4 2.2 2.4 1.9 2.1 1.7 0.9 1.1 1.2 1.4 1.1 0.7 0.3 0.1 0.1 0.7 0.5 0.1 0.0 0.0 0.0 0.0 0.0 0.0 0.0 0.0 0.0 0.0 0.0 0.0 0.0 0.0 0.0 0.0 0.0
4.6 3.7 1.9 1.1 0.6 0.2 0.4 1.2 1.4 1.1 1.7 2.7 3.1 3.2 3.6 4.3 5.4 4.2 2.3 1.9 3.0 4.0 3.4 2.4 1.6 1.3 1.0 1.1 1.0 1.3 1.3 1.6 1.2 0.4 0.2 1.0 0.7 0.4 0.1 0.5 0.2 0.0 0.0 0.0 0.0 0.0 0.0 0.0 0.0 0.0 0.0 0.0 0.0 0.1
1.9 0.7 0.3 0.2 0.1 0.0 0.0 0.5 1.1 1.6 1.8 2.3 2.7 2.8 3.3 3.5 3.0 2.8 1.8 2.1 3.3 4.2 4.3 3.7 2.4 1.4 1.5 1.7 1.5 1.7 1.6 1.6 1.3 1.0 1.6 1.9 1.3 1.3 1.0 0.9 0.8 0.5 0.0 0.3 0.2 0.3 0.3 0.2 0.1 0.1 0.2 0.0 0.6 0.9
0.7 0.1 0.0 0.0 0.0 0.0 0.0 0.0 0.0 0.0 0.6 1.3 1.5 1.7 1.8 2.2 2.4 1.3 1.2 2.1 3.2 3.9 4.3 4.3 3.8 2.4 2.1 2.1 2.3 2.4 2.6 2.5 2.5 1.2 2.4 2.8 2.5 1.7 1.2 1.1 0.6 0.4 0.3 1.4 1.1 0.9 1.0 1.0 1.0 1.1 1.5 1.6 1.7 1.6
0.0 0.0 0.0 0.0 0.0 0.1 0.1 0.0 0.0 0.0 0.0 0.1 0.9 0.9 1.0 1.0 0.6 0.7 1.3 1.9 3.2 3.8 4.2 4.5 4.5 3.3 2.6 2.4 2.7 3.0 3.3 3.6 3.5 3.3 3.0 3.4 3.5 3.4 2.8 3.1 2.8 2.7 2.2 2.4 2.5 2.4 2.2 2.2 2.2 2.1 2.4 2.3 1.9 2.0
0.1 0.0 0.0 0.0 0.1 0.1 0.0 0.0 0.0 0.0 0.0 0.0 0.0 0.3 0.2 0.3 0.5 0.8 1.2 2.1 2.9 3.4 3.8 4.0 4.2 4.2 3.7 3.4 3.5 3.6 3.4 3.6 3.1 2.6 1.9 1.9 2.2 2.8 4.0 4.2 4.2 4.8 4.0 3.4 3.2 3.0 2.4 2.5 2.7 2.8 2.7 2.6 2.5 2.6
0.0 0.0 0.0 0.0 0.0 0.0 0.0 0.0 0.0 0.0 0.0 0.0 0.0 0.0 0.0 0.2 0.5 0.8 1.2 1.6 2.5 3.1 3.7 4.1 4.1 4.3 4.1 3.9 4.1 4.2 4.1 4.0 4.0 3.0 2.3 2.0 1.6 3.1 4.0 4.3 4.3 3.6 4.1 4.2 3.7 3.8 4.0 4.2 3.9 3.9 3.4 3.2 3.1 3.0
0.0 0.0 0.0 0.0 0.0 0.0 0.0 0.1 0.1 0.0 0.0 0.0 0.0 0.0 0.0 0.0 0.3 0.6 1.0 1.5 2.0 2.7 3.2 3.5 3.7 4.2 4.2 4.1 4.2 4.0 3.8 3.9 4.1 4.2 3.9 3.7 3.7 3.6 4.3 4.5 4.3 4.6 4.7 4.4 3.5 3.6 3.1 2.3 1.7 1.9 1.9 2.1 2.5 2.2
0.1 0.0 0.0 0.0 0.0 0.2 0.2 0.1 0.1 0.0 0.0 0.0 0.0 0.0 0.1 0.1 0.1 0.3 0.5 0.9 1.4 1.8 2.5 2.8 2.8 3.0 3.2 3.3 3.4 3.6 3.6 3.4 3.2 3.8 3.7 3.3 3.1 3.4 3.9 3.9 4.3 4.4 4.6 4.8 4.3 4.0 3.7 3.2 3.8 3.6 3.5 3.6 3.5 3.1
0.6 0.4 0.4 0.2 0.0 0.0 0.1 0.0 0.0 0.0 0.0 0.0 0.0 0.0 0.0 0.1 0.1 0.1 0.3 0.6 0.9 1.4 1.7 2.1 2.4 2.7 2.9 3.0 3.1 3.5 3.8 4.3 4.6 4.9 5.1 4.9 4.3 4.1 4.1 4.1 3.9 4.2 4.1 4.2 4.4 4.7 5.0 4.9 4.6 4.1 4.1 4.0 3.9 3.8

GFSWCAN_prec_snow_090.txt.gz
Snowfall_Accumulation
0.0 0.0 0.0 0.0 0.0 0.0 0.0 0.0 0.0 0.0 0.0 0.0 0.0 0.0 0.0 0.0 0.0 0.0 0.0 0.0 0.0 0.0 0.0 0.0 0.0 0.0 0.0 0.0 0.0 0.0 0.0 0.0 0.0 3.5 2.0 1.3 0.3 0.0 0.4 0.0 0.4 0.5 1.5 1.5 1.7 2.3 0.3 0.0 0.0 0.0 0.0 0.0 0.0 0.0
0.0 0.0 0.0 0.0 0.0 0.0 0.0 0.0 0.0 0.0 0.0 0.0 0.0 0.0 0.0 0.0 0.0 0.0 0.0 0.0 0.0 0.0 0.0 0.0 0.0 0.0 0.0 0.0 0.0 0.0 0.0 0.8 2.3 2.6 3.0 2.7 2.6 2.2 0.7 0.7 0.0 0.3 0.0 0.4 0.5 0.1 0.0 0.0 0.0 0.0 0.0 0.0 0.0 0.0
0.0 0.0 0.0 0.0 0.0 0.0 0.0 0.0 0.0 0.0 0.0 0.0 0.0 0.0 0.0 0.0 0.0 0.0 0.0 0.0 0.0 0.1 0.0 0.0 0.0 0.0 0.0 0.0 0.0 0.1 0.0 0.0 0.0 3.0 1.9 0.2 1.6 1.3 0.6 1.0 0.4 0.2 0.3 0.0 0.0 0.0 0.0 0.0 0.0 0.0 0.0 0.0 0.0 0.0
0.0 0.0 0.0 0.0 0.0 0.0 0.0 0.0 0.0 0.0 0.0 0.0 0.0 0.0 0.0 0.0 0.0 0.0 0.0 0.0 0.0 0.0 2.2 0.0 0.0 0.0 0.0 0.0 0.0 0.0 0.0 0.0 0.0 2.2 2.7 1.3 0.3 0.8 0.2 0.3 0.1 0.0 0.0 0.1 0.0 0.0 0.0 0.0 0.0 0.0 0.0 0.0 0.0 0.0
0.0 0.0 0.0 0.0 0.0 0.0 0.0 0.0 0.0 0.0 0.0 0.0 0.0 0.0 0.0 0.0 0.0 0.0 0.0 0.0 0.0 1.2 2.5 0.8 0.0 0.0 0.0 0.0 0.0 0.0 0.0 0.0 0.3 1.4 1.2 1.9 0.9 1.2 0.0 0.0 0.0 0.0 0.0 0.0 0.0 0.0 0.0 0.0 0.0 0.0 0.0 0.0 0.0 0.0
0.0 0.0 0.0 0.0 0.0 0.0 0.0 0.0 0.0 0.0 0.0 0.0 0.0 0.0 0.0 0.0 0.0 0.0 0.0 0.0 0.0 0.0 4.3 3.3 0.0 0.0 0.0 0.0 0.0 0.0 0.0 0.0 0.2 0.4 1.1 0.0 0.0 1.7 1.0 0.6 0.0 0.0 0.0 0.0 0.0 0.0 0.0 0.0 0.0 0.0 0.0 0.0 0.0 0.0
0.0 0.0 0.0 0.0 0.0 0.0 0.0 0.0 0.0 0.0 0.0 0.0 0.0 0.0 0.0 0.0 0.0 0.0 0.0 0.0 0.0 0.0 2.6 5.9 4.2 0.0 0.0 0.0 0.0 0.0 0.0 0.2 0.7 0.8 1.9 1.0 0.0 2.0 2.8 0.1 0.0 0.0 0.0 0.0 0.0 0.0 0.0 0.0 0.0 0.0 0.0 0.0 0.0 0.0
0.0 0.0 0.0 0.0 0.0 0.0 0.0 0.0 0.0 0.0 0.0 0.0 0.0 0.0 0.0 0.0 0.0 0.0 0.0 0.0 0.0 0.0 2.7 4.9 2.2 2.3 0.0 0.2 0.3 0.0 0.3 1.1 1.6 1.6 0.4 0.0 0.2 1.0 1.9 0.0 0.0 0.0 0.1 0.0 0.0 0.0 0.0 0.0 0.0 0.0 0.0 0.0 0.0 0.0
0.0 0.0 0.0 0.0 0.0 0.0 0.0 0.0 0.0 0.0 0.0 0.0 0.0 0.0 0.0 0.0 0.0 0.0 0.0 0.0 0.0 0.0 3.1 3.2 3.4 5.9 0.0 0.0 0.2 0.3 0.7 5.9 0.0 1.8 1.2 0.8 0.0 3.5 0.1 0.0 0.1 0.1 0.1 0.0 0.0 0.0 0.0 0.0 0.0 0.0 0.0 0.0 0.0 0.0
0.0 0.0 0.0 0.0 0.0 0.0 0.0 0.0 0.0 0.0 0.0 0.0 0.0 0.0 0.7 0.0 0.0 0.0 0.0 3.1 3.8 3.4 2.2 1.6 1.1 2.8 0.0 0.0 3.9 0.5 0.9 3.6 6.3 0.0 0.0 1.4 0.6 0.0 0.1 0.1 0.1 0.0 0.0 0.0 0.0 0.0 0.0 0.0 0.0 0.0 0.0 0.0 0.0 0.0
0.0 0.0 0.0 0.0 0.0 0.0 0.0 0.0 0.0 0.0 0.0 0.0 2.1 1.2 0.0 0.0 0.0 0.1 2.6 2.1 1.4 1.3 0.3 0.0 0.1 1.8 0.1 4.6 5.2 3.4 7.5 3.5 8.3 3.8 3.4 4.7 3.4 2.2 0.5 0.4 0.0 0.0 0.0 0.0 0.0 0.0 0.0 0.0 0.0 0.0 0.0 0.0 0.0 0.0
0.0 0.0 0.0 0.0 0.0 0.0 0.0 0.0 0.0 0.0 7.2 0.0 0.0 0.0 0.0 1.7 3.2 3.7 3.6 1.1 0.8 0.0 0.1 0.6 1.6 1.8 0.9 1.1 3.2 1.5 4.9 4.9 3.9 1.0 4.0 3.7 4.4 2.7 1.4 0.2 0.0 0.0 0.0 0.0 0.0 0.0 0.0 0.0 0.0 0.0 0.0 0.0 0.0 0.0
0.0 0.0 0.0 0.0 0.0 0.0 0.0 0.0 0.0 0.0 0.0 0.0 7.1 13.9 11.4 9.7 8.6 2.2 1.8 0.7 0.2 0.0 0.0 2.2 3.0 0.0 1.1 2.6 1.9 2.0 1.6 2.2 1.1 2.5 1.6 2.3 1.0 0.9 1.8 1.1 0.1 0.0 1.2 2.0 0.9 0.4 0.1 0.0 0.0 0.0 0.0 1.6 0.0 0.5
0.0 0.0 0.0 0.0 0.0 0.0 0.0 0.0 0.0 0.0 7.1 5.0 18.1 17.9 7.1 5.1 0.7 0.7 0.4 0.0 0.0 0.0 0.0 0.7 1.8 2.6 0.0 2.8 2.8 2.5 0.9 1.5 1.6 0.7 0.1 0.0 0.0 0.1 0.2 1.2 1.2 1.2 0.1 0.4 0.8 1.1 0.4 0.8 1.1 0.8 0.7 0.1 0.0 0.0
0.0 0.0 0.0 0.0 0.0 0.0 0.0 0.0 0.0 0.0 7.1 16.8 9.1 6.3 2.9 0.8 0.3 0.1 0.4 0.2 0.0 0.0 0.0 0.0 0.0 1.3 2.3 3.2 2.2 1.0 1.4 0.7 0.6 0.5 0.0 0.0 0.1 0.1 0.1 1.0 3.6 3.2 1.8 0.8 0.5 0.3 0.9 1.1 0.7 0.3 0.0 0.0 0.0 0.0
0.0 0.0 0.0 0.0 0.0 0.0 0.0 0.0 0.0 0.0 21.0 15.2 7.9 3.6 0.6 0.1 0.1 0.0 0.2 0.0 0.0 0.0 0.0 0.0 2.3 1.8 1.6 1.8 1.5 0.8 1.2 0.6 0.7 0.4 0.0 0.0 0.0 0.2 0.5 2.1 3.1 1.4 1.3 1.5 1.1 0.0 0.0 0.0 0.0 0.0 0.0 0.0 0.0 0.0
0.0 0.0 0.0 0.0 0.0 0.0 0.0 3.7 9.0 18.8 20.7 15.4 4.1 0.1 0.2 0.3 0.1 0.3 0.4 0.1 0.0 0.6 1.9 3.4 3.0 1.6 0.5 0.9 0.2 0.1 0.1 0.3 0.0 0.2 0.0 0.0 0.0 0.0 0.6 1.2 2.4 1.5 1.9 2.3 1.8 0.5 0.0 0.0 0.0 0.0 0.0 0.0 0.0 0.0
0.0 0.0 0.0 0.0 0.0 0.0 2.6 14.2 19.8 19.6 15.6 7.3 0.8 0.4 0.2 0.0 0.3 0.3 0.5 1.0 1.8 2.4 2.7 5.0 1.7 1.3 0.5 0.5 0.2 0.0 0.0 0.0 0.0 0.0 0.0 0.0 0.0 0.0 0.0 0.8 1.9 2.1 2.1 1.7 0.9 0.0 0.3 0.1 0.0 0.0 0.0 0.0 0.0 0.0
0.0 0.0 0.0 0.0 0.0 3.4 11.7 13.6 13.9 12.2 7.2 2.6 0.6 0.3 0.2 0.1 0.0 0.1 0.0 0.8 1.6 3.2 4.4 5.6 3.5 0.9 0.0 0.2 0.3 0.0 0.0 0.0 0.1 0.0 0.0 0.0 0.0 0.0 0.0 0.0 0.0 0.0 0.6 0.7 0.7 0.5 0.3 0.1 0.0 0.1 0.0 0.0 0.0 0.0
0.0 0.0 0.0 0.0 0.0 4.8 7.2 10.4 6.5 6.9 4.5 3.1 1.6 0.8 0.8 0.4 0.2 0.4 0.2 0.1 0.6 2.5 3.8 3.2 0.5 0.1 0.0 0.1 0.2 0.1 0.0 0.0 0.0 0.0 0.0 0.0 0.0 0.0 0.0 0.0 0.0 0.0 0.0 0.0 0.0 0.0 0.0 0.0 0.0 0.0 0.0 0.0 0.0 0.0
0.0 0.0 0.0 0.0 5.6 4.8 5.0 4.9 6.3 5.6 4.7 3.9 5.1 3.4 3.0 1.6 1.4 1.6 3.4 1.5 4.7 5.4 2.4 1.0 0.1 0.0 0.2 0.1 0.0 0.0 0.1 0.0 0.0 0.0 0.0 0.0 0.0 0.0 0.0 0.0 0.0 0.0 0.0 0.0 0.0 0.0 0.0 0.0 0.0 0.0 0.0 0.0 0.0 0.0
0.8 0.0 2.8 1.0 7.3 4.3 2.8 3.5 4.4 4.5 3.4 4.7 6.1 6.2 5.6 4.7 5.3 5.8 6.1 8.4 8.1 3.4 1.1 0.4 0.5 0.6 0.3 0.3 0.2 0.6 0.0 0.3 0.0 0.0 0.0 0.0 0.0 0.0 0.0 0.0 0.0 0.0 0.0 0.0 0.0 0.0 0.0 0.0 0.0 0.0 0.0 0.0 0.0 0.0
0.0 1.6 4.8 5.4 4.1 1.6 3.4 2.6 2.8 3.3 3.5 4.5 5.1 5.6 6.6 6.0 7.3 8.4 10.0 7.1 4.5 2.4 1.5 1.4 1.1 1.3 1.1 0.7 0.4 0.1 0.1 0.0 0.0 0.2 0.1 0.0 0.0 0.0 0.0 0.0 0.0 0.0 0.0 0.0 0.0 0.0 0.0 0.0 0.0 0.0 0.0 0.0 0.0 0.0
0.0 3.8 3.3 1.9 1.6 2.4 1.8 2.2 1.7 2.0 2.7 3.0 3.6 3.8 3.6 5.3 5.9 6.6 5.3 2.4 2.2 2.4 1.9 2.1 1.7 0.9 1.1 1.2 1.4 1.1 0.7 0.3 0.1 0.1 0.7 0.5 0.1 0.0 0.0 0.0 0.0 0.0 0.0 0.0 0.0 0.0 0.0 0.0 0.0 0.0 0.0 0.0 0.0 0.0
4.7 4.0 2.0 1.2 0.6 0.2 0.4 1.2 1.4 1.1 1.7 2.7 3.1 3.2 3.6 4.3 5.4 4.2 2.3 1.9 3.0 4.0 3.4 2.4 1.6 1.3 1.0 1.1 1.0 1.3 1.3 1.6 1.2 0.4 0.2 1.0 0.7 0.4 0.1 0.5 0.2 0.0 0.0 0.0 0.0 0.0 0.0 0.0 0.0 0.0 0.0 0.0 0.0 0.1
2.0 0.7 0.3 0.2 0.1 0.0 0.0 0.5 1.1 1.6 1.8 2.3 2.7 2.8 3.3 3.5 3.0 2.8 1.8 2.1 3.3 4.2 4.3 3.7 2.4 1.4 1.5 1.7 1.5 1.7 1.6 1.6 1.3 1.0 1.6 1.9 1.3 1.3 1.0 0.9 0.8 0.5 0.0 0.3 0.2 0.3 0.3 0.2 0.1 0.1 0.2 0.0 0.6 0.9
0.7 0.1 0.0 0.0 0.0 0.0 0.0 0.0 0.0 0.0 0.6 1.3 1.5 1.7 1.8 2.2 2.4 1.3 1.2 2.1 3.2 3.9 4.3 4.3 3.8 2.4 2.1 2.1 2.3 2.4 2.6 2.5 2.5 1.2 2.4 2.8 2.5 1.7 1.2 1.1 0.6 0.4 0.3 1.4 1.1 0.9 1.0 1.0 1.0 1.1 1.5 1.6 1.7 1.6
0.0 0.0 0.0 0.0 0.0 0.1 0.1 0.0 0.0 0.0 0.0 0.1 0.9 0.9 1.0 1.0 0.6 0.7 1.3 1.9 3.2 3.8 4.2 4.5 4.5 3.3 2.6 2.4 2.7 3.0 3.3 3.6 3.5 3.3 3.0 3.4 3.5 3.4 2.8 3.1 2.8 2.7 2.2 2.4 2.5 2.4 2.2 2.2 2.2 2.1 2.4 2.3 1.9 2.0
0.1 0.0 0.0 0.0 0.1 0.1 0.0 0.0 0.0 0.0 0.0 0.0 0.0 0.3 0.2 0.3 0.5 0.8 1.2 2.1 2.9 3.4 3.8 4.0 4.2 4.2 3.7 3.4 3.5 3.6 3.4 3.6 3.1 2.6 1.9 1.9 2.2 2.8 4.0 4.2 4.2 4.8 4.0 3.4 3.2 3.0 2.4 2.5 2.7 2.8 2.7 2.6 2.5 2.6
0.0 0.0 0.0 0.0 0.0 0.0 0.0 0.0 0.0 0.0 0.0 0.0 0.0 0.0 0.0 0.2 0.5 0.8 1.2 1.6 2.5 3.1 3.7 4.1 4.1 4.3 4.1 3.9 4.1 4.2 4.1 4.0 4.0 3.0 2.3 2.0 1.6 3.1 4.0 4.3 4.3 3.6 4.1 4.2 3.7 3.8 4.0 4.2 3.9 3.9 3.4 3.2 3.1 3.0
0.0 0.0 0.0 0.0 0.0 0.0 0.0 0.1 0.1 0.0 0.0 0.0 0.0 0.0 0.0 0.0 0.3 0.6 1.0 1.5 2.0 2.7 3.2 3.5 3.7 4.2 4.2 4.1 4.2 4.0 3.8 3.9 4.1 4.2 3.9 3.7 3.7 3.6 4.3 4.5 4.3 4.6 4.7 4.4 3.5 3.6 3.1 2.3 1.7 1.9 1.9 2.1 2.5 2.2
0.1 0.0 0.0 0.0 0.0 0.2 0.2 0.1 0.1 0.0 0.0 0.0 0.0 0.0 0.1 0.1 0.1 0.3 0.5 0.9 1.4 1.8 2.5 2.8 2.8 3.0 3.2 3.3 3.4 3.6 3.6 3.4 3.2 3.8 3.7 3.3 3.1 3.4 3.9 3.9 4.3 4.4 4.6 4.8 4.4 4.1 3.8 3.2 3.8 3.6 3.5 3.6 3.5 3.1
0.6 0.4 0.4 0.2 0.0 0.0 0.1 0.0 0.0 0.0 0.0 0.0 0.0 0.0 0.0 0.1 0.1 0.1 0.3 0.6 0.9 1.4 1.7 2.1 2.4 2.7 2.9 3.0 3.1 3.5 3.8 4.3 4.6 4.9 5.1 4.9 4.4 4.2 4.1 4.1 3.9 4.2 4.2 4.3 4.4 4.8 5.0 4.9 4.6 4.1 4.1 4.0 3.9 3.8

GFSWCAN_prec_snow_096.txt.gz
Snowfall_Accumulation
0.0 0.0 0.0 0.0 0.0 0.0 0.0 0.0 0.0 0.0 0.0 0.0 0.0 0.0 0.0 0.0 0.0 0.0 0.0 0.0 0.0 0.0 0.0 0.0 0.0 0.0 0.0 0.0 0.0 0.0 0.0 0.0 0.0 3.5 2.0 1.3 0.3 0.0 0.4 0.0 0.4 0.5 1.6 1.6 1.8 2.4 0.3 0.0 0.0 0.0 0.0 0.0 0.0 0.0
0.0 0.0 0.0 0.0 0.0 0.0 0.0 0.0 0.0 0.0 0.0 0.0 0.0 0.0 0.0 0.0 0.0 0.0 0.0 0.0 0.0 0.0 0.0 0.0 0.0 0.0 0.0 0.0 0.0 0.0 0.0 0.8 2.3 2.6 3.0 2.7 2.6 2.2 0.7 0.7 0.0 0.3 0.0 0.4 0.6 0.1 0.0 0.0 0.0 0.0 0.0 0.0 0.0 0.0
0.0 0.0 0.0 0.0 0.0 0.0 0.0 0.0 0.0 0.0 0.0 0.0 0.0 0.0 0.0 0.0 0.0 0.0 0.0 0.0 0.0 0.1 0.0 0.0 0.0 0.0 0.0 0.0 0.0 0.1 0.0 0.0 0.0 3.0 1.9 0.2 1.6 1.3 0.6 1.0 0.4 0.2 0.3 0.0 0.0 0.0 0.0 0.0 0.0 0.0 0.0 0.0 0.0 0.0
0.0 0.0 0.0 0.0 0.0 0.0 0.0 0.0 0.0 0.0 0.0 0.0 0.0 0.0 0.0 0.0 0.0 0.0 0.0 0.0 0.0 0.0 2.2 0.0 0.0 0.0 0.0 0.0 0.0 0.0 0.0 0.0 0.0 2.2 2.7 1.3 0.3 0.8 0.2 0.3 0.1 0.0 0.0 0.1 0.0 0.0 0.0 0.0 0.0 0.0 0.0 0.0 0.0 0.0
0.0 0.0 0.0 0.0 0.0 0.0 0.0 0.0 0.0 0.0 0.0 0.0 0.0 0.0 0.0 0.0 0.0 0.0 0.0 0.0 0.0 1.2 2.5 0.8 0.0 0.0 0.0 0.0 0.0 0.0 0.0 0.0 0.3 1.4 1.2 1.9 0.9 1.2 0.0 0.0 0.0 0.0 0.0 0.0 0.0 0.0 0.0 0.0 0.0 0.0 0.0 0.0 0.0 0.0
0.0 0.0 0.0 0.0 0.0 0.0 0.0 0.0 0.0 0.0 0.0 0.0 0.0 0.0 0.0 0.0 0.0 0.0 0.0 0.0 0.0 0.0 4.3 3.3 0.0 0.0 0.0 0.0 0.0 0.0 0.0 0.0 0.2 0.4 1.1 0.0 0.0 1.7 1.0 0.6 0.0 0.0 0.0 0.0 0.0 0.0 0.0 0.0 0.0 0.0 0.0 0.0 0.0 0.0
0.0 0.0 0.0 0.0 0.0 0.0 0.0 0.0 0.0 0.0 0.0 0.0 0.0 0.0 0.0 0.0 0.0 0.0 0.0 0.0 0.0 0.0 2.6 5.9 4.2 0.0 0.0 0.0 0.0 0.0 0.0 0.2 0.7 0.8 1.9 1.0 0.0 2.0 2.8 0.1 0.0 0.0 0.0 0.0 0.0 0.0 0.0 0.0 0.0 0.0 0.0 0.0 0.0 0.0
0.0 0.0 0.0 0.0 0.0 0.0 0.0 0.0 0.0 0.0 0.0 0.0 0.0 0.0 0.0 0.0 0.0 0.0 0.0 0.0 0.0 0.0 2.7 4.9 2.2 2.3 0.0 0.2 0.3 0.0 0.3 1.1 1.6 1.6 0.4 0.0 0.2 1.0 1.9 0.0 0.0 0.0 0.1 0.0 0.0 0.0 0.0 0.0 0.0 0.0 0.0 0.0 0.0 0.0
0.0 0.0 0.0 0.0 0.0 0.0 0.0 0.0 0.0 0.0 0.0 0.0 0.0 0.0 0.0 0.0 0.0 0.0 0.0 0.0 0.0 0.0 3.1 3.2 3.4 5.9 0.0 0.0 0.2 0.3 0.7 5.9 0.0 1.8 1.2 0.8 0.0 3.5 0.1 0.0 0.1 0.1 0.2 0.0 0.0 0.0 0.0 0.0 0.0 0.0 0.0 0.0 0.0 0.0
0.0 0.0 0.0 0.0 0.0 0.0 0.0 0.0 0.0 0.0 0.0 0.0 0.0 0.0 0.9 0.0 0.0 0.0 0.0 3.1 3.8 3.4 2.2 1.6 1.1 2.8 0.0 0.0 3.9 0.5 0.9 3.6 6.4 0.0 0.0 1.4 0.6 0.0 0.1 0.1 0.1 0.0 0.0 0.0 0.0 0.0 0.0 0.0 0.0 0.0 0.0 0.0 0.0 0.0
0.0 0.0 0.0 0.0 0.0 0.0 0.0 0.0 0.0 0.0 0.0 0.0 2.1 1.2 0.0 0.0 0.0 0.1 2.6 2.1 1.4 1.3 0.3 0.0 0.1 1.8 0.1 4.6 5.2 3.4 7.5 3.5 8.4 3.8 3.4 4.7 3.4 2.2 0.5 0.4 0.0 0.0 0.0 0.0 0.0 0.0 0.0 0.0 0.0 0.0 0.0 0.0 0.0 0.0
0.0 0.0 0.0 0.0 0.0 0.0 0.0 0.0 0.0 0.0 7.2 0.0 0.0 0.0 0.0 1.7 3.2 3.7 3.6 1.1 0.8 0.0 0.1 0.6 1.6 1.8 0.9 1.1 3.2 1.5 4.9 4.9 3.9 1.0 4.0 3.7 4.4 2.7 1.4 0.2 0.0 0.0 0.0 0.0 0.0 0.0 0.0 0.0 0.0 0.0 0.0 0.0 0.0 0.0
0.0 0.0 0.0 0.0 0.0 0.0 0.0 0.0 0.0 0.0 0.0 0.0 7.1 14.3 11.5 9.7 8.6 2.2 1.8 0.7 0.2 0.0 0.0 2.2 3.0 0.0 1.1 2.6 1.9 2.0 1.6 2.2 1.2 2.6 1.6 2.3 1.0 0.9 1.8 1.1 0.1 0.0 1.2 2.0 0.9 0.4 0.1 0.0 0.0 0.0 0.1 2.1 1.2 2.4
0.0 0.0 0.0 0.0 0.0 0.0 0.0 0.0 0.0 0.0 7.1 5.0 18.5 18.0 7.1 5.1 0.7 0.7 0.4 0.0 0.0 0.0 0.0 0.7 1.8 2.6 0.0 2.8 2.8 2.5 0.9 1.5 1.7 0.7 0.1 0.0 0.0 0.1 0.2 1.2 1.2 1.2 0.1 0.4 0.8 1.2 0.4 0.8 1.1 0.8 1.3 0.6 0.6 0.4
0.0 0.0 0.0 0.0 0.0 0.0 0.0 0.0 0.0 0.0 7.1 17.2 9.1 6.4 2.9 0.8 0.3 0.1 0.4 0.2 0.0 0.0 0.0 0.0 0.0 1.3 2.3 3.2 2.2 1.0 1.4 0.7 0.6 0.5 0.0 0.0 0.1 0.1 0.1 1.0 3.6 3.2 1.8 0.8 0.5 0.3 0.9 1.1 0.8 0.3 0.0 0.0 0.0 0.0
0.0 0.0 0.0 0.0 0.0 0.0 0.0 0.0 0.0 0.0 22.6 15.6 8.2 3.7 0.6 0.1 0.4 0.2 0.2 0.0 0.0 0.0 0.0 0.0 2.3 1.8 1.6 1.8 1.5 0.8 1.2 0.6 0.7 0.4 0.0 0.0 0.0 0.2 0.5 2.1 3.1 1.4 1.3 1.5 1.1 0.0 0.0 0.0 0.0 0.0 0.0 0.0 0.0 0.0
0.0 0.0 0.0 0.0 0.0 0.0 0.0 3.7 9.0 21.1 22.6 15.9 4.2 0.1 0.4 0.7 0.3 0.3 0.4 0.1 0.0 0.6 1.9 3.4 3.0 1.6 0.5 0.9 0.2 0.1 0.1 0.3 0.0 0.2 0.0 0.0 0.0 0.0 0.6 1.2 2.4 1.5 1.9 2.3 1.8 0.5 0.0 0.0 0.0 0.0 0.0 0.0 0.0 0.0
0.0 0.0 0.0 0.0 0.0 0.0 2.6 14.2 22.0 21.2 16.4 7.4 0.9 1.1 1.6 1.1 0.6 0.3 0.5 1.0 1.8 2.4 2.7 5.0 1.7 1.3 0.5 0.5 0.2 0.0 0.0 0.0 0.0 0.0 0.0 0.0 0.0 0.0 0.0 0.8 1.9 2.1 2.1 1.7 0.9 0.0 0.3 0.2 0.1 0.2 0.2 0.2 0.2 0.1
0.0 0.0 0.0 0.0 0.0 3.4 14.7 16.6 14.7 12.3 7.4 3.1 2.2 2.5 1.5 0.8 0.0 0.1 0.0 0.8 1.6 3.2 4.4 5.6 3.5 0.9 0.0 0.2 0.3 0.0 0.0 0.0 0.1 0.0 0.0 0.0 0.0 0.0 0.0 0.0 0.0 0.0 0.6 0.7 0.7 0.5 0.3 0.1 0.1 0.2 0.4 0.6 0.6 0.7
0.0 0.0 0.0 0.0 0.0 4.8 8.0 11.6 6.8 6.9 5.3 4.8 3.9 2.5 1.4 0.8 0.2 0.4 0.2 0.1 0.6 2.5 3.8 3.2 0.5 0.1 0.0 0.1 0.2 0.1 0.0 0.0 0.0 0.0 0.0 0.0 0.0 0.0 0.0 0.0 0.0 0.0 0.0 0.0 0.0 0.0 0.0 0.0 0.0 0.0 0.0 0.0 0.0 0.0
0.0 0.0 0.0 0.0 8.1 5.6 5.7 5.8 7.0 6.5 5.9 5.8 7.1 4.3 3.3 1.8 1.6 1.6 3.4 1.5 4.7 5.4 2.4 1.0 0.1 0.0 0.2 0.1 0.0 0.0 0.1 0.0 0.0 0.0 0.0 0.0 0.0 0.0 0.0 0.0 0.0 0.0 0.0 0.0 0.0 0.0 0.0 0.0 0.0 0.0 0.0 0.0 0.0 0.0
0.8 0.0 2.8 1.0 9.0 6.1 4.5 4.8 5.5 5.9 4.7 6.4 7.4 6.8 6.0 4.8 5.3 5.8 6.1 8.4 8.1 3.4 1.1 0.4 0.5 0.6 0.3 0.3 0.2 0.6 0.0 0.3 0.0 0.0 0.0 0.0 0.0 0.0 0.0 0.0 0.0 0.0 0.0 0.0 0.0 0.0 0.0 0.0 0.0 0.0 0.0 0.0 0.0 0.0
0.0 1.6 8.5 9.1 7.5 4.2 5.7 4.0 4.3 4.7 4.7 5.7 5.8 5.9 6.8 6.2 7.3 8.4 10.0 7.1 4.5 2.4 1.5 1.4 1.1 1.3 1.1 0.7 0.4 0.1 0.1 0.0 0.0 0.2 0.1 0.0 0.0 0.0 0.0 0.0 0.0 0.0 0.0 0.0 0.0 0.0 0.0 0.0 0.0 0.0 0.0 0.0 0.0 0.0
0.0 8.4 7.9 5.4 3.7 3.8 2.8 3.0 2.4 2.7 3.3 3.5 3.8 3.9 3.6 5.3 6.0 6.6 5.3 2.4 2.2 2.4 1.9 2.1 1.7 0.9 1.1 1.2 1.4 1.1 0.7 0.3 0.1 0.1 0.7 0.5 0.1 0.0 0.0 0.0 0.0 0.0 0.0 0.0 0.0 0.0 0.0 0.0 0.0 0.0 0.0 0.0 0.0 0.0
7.5 7.1 4.3 2.6 1.2 0.6 0.8 1.7 2.0 1.5 2.0 2.8 3.2 3.2 3.6 4.3 5.4 4.2 2.3 1.9 3.0 4.0 3.4 2.4 1.6 1.3 1.0 1.1 1.0 1.3 1.3 1.6 1.2 0.4 0.2 1.0 0.7 0.4 0.1 0.5 0.2 0.0 0.0 0.0 0.0 0.0 0.0 0.0 0.0 0.0 0.0 0.0 0.0 0.1
3.2 1.4 0.5 0.4 0.2 0.1 0.2 0.7 1.2 1.7 1.8 2.3 2.7 2.8 3.3 3.5 3.0 2.8 1.8 2.1 3.3 4.2 4.3 3.7 2.4 1.4 1.5 1.7 1.5 1.7 1.6 1.6 1.3 1.0 1.6 1.9 1.3 1.3 1.0 0.9 0.8 0.5 0.0 0.3 0.2 0.3 0.3 0.2 0.1 0.1 0.2 0.0 0.6 0.9
1.1 0.1 0.0 0.0 0.0 0.0 0.0 0.0 0.0 0.0 0.6 1.3 1.5 1.7 1.8 2.2 2.4 1.3 1.2 2.1 3.2 3.9 4.3 4.3 3.8 2.4 2.1 2.1 2.3 2.4 2.6 2.5 2.5 1.2 2.4 2.8 2.5 1.7 1.2 1.1 0.6 0.4 0.3 1.4 1.1 0.9 1.0 1.0 1.0 1.1 1.5 1.6 1.7 1.6
0.0 0.0 0.0 0.0 0.0 0.1 0.1 0.0 0.0 0.0 0.0 0.1 0.9 0.9 1.0 1.0 0.6 0.7 1.3 1.9 3.2 3.8 4.2 4.5 4.5 3.3 2.6 2.4 2.7 3.0 3.3 3.6 3.5 3.3 3.0 3.4 3.5 3.4 2.8 3.1 2.8 2.7 2.2 2.4 2.5 2.4 2.2 2.2 2.2 2.1 2.4 2.3 1.9 2.0
0.1 0.0 0.0 0.0 0.1 0.1 0.0 0.0 0.0 0.0 0.0 0.0 0.0 0.3 0.2 0.3 0.5 0.8 1.2 2.1 2.9 3.4 3.8 4.0 4.2 4.2 3.7 3.4 3.5 3.6 3.4 3.6 3.1 2.6 1.9 1.9 2.2 2.8 4.0 4.2 4.2 4.8 4.0 3.4 3.2 3.0 2.4 2.5 2.7 2.9 2.7 2.7 2.5 2.6
0.0 0.0 0.1 0.1 0.0 0.0 0.0 0.0 0.0 0.0 0.0 0.0 0.0 0.0 0.0 0.2 0.5 0.8 1.2 1.6 2.5 3.1 3.7 4.1 4.1 4.3 4.1 3.9 4.1 4.2 4.1 4.0 4.0 3.0 2.3 2.0 1.6 3.1 4.0 4.3 4.3 3.6 4.1 4.2 3.7 3.8 4.0 4.2 3.9 3.9 3.4 3.2 3.1 3.0
0.0 0.0 0.0 0.0 0.0 0.0 0.0 0.1 0.1 0.0 0.0 0.0 0.0 0.0 0.0 0.0 0.3 0.6 1.0 1.5 2.0 2.7 3.2 3.5 3.7 4.2 4.2 4.1 4.2 4.0 3.8 3.9 4.1 4.2 3.9 3.7 3.7 3.6 4.3 4.5 4.3 4.6 4.7 4.4 3.6 3.6 3.2 2.3 1.7 1.9 1.9 2.1 2.5 2.2
0.2 0.0 0.0 0.0 0.0 0.2 0.2 0.1 0.1 0.0 0.0 0.0 0.0 0.0 0.1 0.1 0.1 0.3 0.5 0.9 1.4 1.8 2.5 2.8 2.8 3.0 3.2 3.3 3.4 3.6 3.6 3.4 3.2 3.8 3.7 3.3 3.1 3.4 3.9 3.9 4.3 4.4 4.6 4.9 4.4 4.1 3.8 3.3 3.8 3.6 3.5 3.6 3.5 3.1
0.7 0.4 0.4 0.2 0.0 0.0 0.1 0.0 0.0 0.0 0.0 0.0 0.0 0.0 0.0 0.1 0.1 0.1 0.3 0.6 0.9 1.4 1.7 2.1 2.4 2.7 2.9 3.0 3.1 3.5 3.8 4.3 4.6 4.9 5.1 4.9 4.4 4.2 4.2 4.1 3.9 4.3 4.3 4.3 4.5 4.8 5.0 4.9 4.6 4.1 4.1 4.0 3.9 3.8

GFSWCAN_prec_snow_099.txt.gz
Snowfall_Accumulation
0.0 0.0 0.0 0.0 0.0 0.0 0.0 0.0 0.0 0.0 0.0 0.0 0.0 0.0 0.0 0.0 0.0 0.0 0.0 0.0 0.0 0.0 0.0 0.0 0.0 0.0 0.0 0.0 0.0 0.0 0.0 0.0 0.0 3.5 2.0 1.3 0.3 0.0 0.4 0.0 0.4 0.5 1.6 1.6 1.8 2.4 0.3 0.0 0.0 0.0 0.0 0.0 0.0 0.0
0.0 0.0 0.0 0.0 0.0 0.0 0.0 0.0 0.0 0.0 0.0 0.0 0.0 0.0 0.0 0.0 0.0 0.0 0.0 0.0 0.0 0.0 0.0 0.0 0.0 0.0 0.0 0.0 0.0 0.0 0.0 0.8 2.3 2.6 3.0 2.7 2.6 2.2 0.7 0.7 0.0 0.3 0.0 0.4 0.6 0.1 0.0 0.0 0.0 0.0 0.0 0.0 0.0 0.0
0.0 0.0 0.0 0.0 0.0 0.0 0.0 0.0 0.0 0.0 0.0 0.0 0.0 0.0 0.0 0.0 0.0 0.0 0.0 0.0 0.0 0.1 0.0 0.0 0.0 0.0 0.0 0.0 0.0 0.1 0.0 0.0 0.0 3.0 1.9 0.2 1.6 1.3 0.6 1.0 0.4 0.2 0.3 0.0 0.0 0.0 0.0 0.0 0.0 0.0 0.0 0.0 0.0 0.0
0.0 0.0 0.0 0.0 0.0 0.0 0.0 0.0 0.0 0.0 0.0 0.0 0.0 0.0 0.0 0.0 0.0 0.0 0.0 0.0 0.0 0.0 2.2 0.0 0.0 0.0 0.0 0.0 0.0 0.0 0.0 0.0 0.0 2.2 2.7 1.3 0.3 0.8 0.2 0.3 0.1 0.0 0.0 0.1 0.0 0.0 0.0 0.0 0.0 0.0 0.0 0.0 0.0 0.0
0.0 0.0 0.0 0.0 0.0 0.0 0.0 0.0 0.0 0.0 0.0 0.0 0.0 0.0 0.0 0.0 0.0 0.0 0.0 0.0 0.0 1.2 2.5 0.8 0.0 0.0 0.0 0.0 0.0 0.0 0.0 0.0 0.3 1.4 1.2 1.9 0.9 1.2 0.0 0.0 0.0 0.0 0.0 0.0 0.0 0.0 0.0 0.0 0.0 0.0 0.0 0.0 0.0 0.0
0.0 0.0 0.0 0.0 0.0 0.0 0.0 0.0 0.0 0.0 0.0 0.0 0.0 0.0 0.0 0.0 0.0 0.0 0.0 0.0 0.0 0.0 4.3 3.3 0.0 0.0 0.0 0.0 0.0 0.0 0.0 0.0 0.2 0.4 1.1 0.0 0.0 1.7 1.0 0.6 0.0 0.0 0.0 0.0 0.0 0.0 0.0 0.0 0.0 0.0 0.0 0.0 0.0 0.0
0.0 0.0 0.0 0.0 0.0 0.0 0.0 0.0 0.0 0.0 0.0 0.0 0.0 0.0 0.0 0.0 0.0 0.0 0.0 0.0 0.0 0.0 2.6 5.9 4.2 0.0 0.0 0.0 0.0 0.0 0.0 0.2 0.7 0.8 1.9 1.0 0.0 2.0 2.8 0.1 0.0 0.0 0.0 0.0 0.0 0.0 0.0 0.0 0.0 0.0 0.0 0.0 0.0 0.0
0.0 0.0 0.0 0.0 0.0 0.0 0.0 0.0 0.0 0.0 0.0 0.0 0.0 0.0 0.0 0.0 0.0 0.0 0.0 0.0 0.0 0.0 2.7 4.9 2.2 2.3 0.0 0.2 0.3 0.0 0.3 1.1 1.6 1.6 0.4 0.0 0.2 1.0 1.9 0.0 0.0 0.0 0.1 0.0 0.0 0.0 0.0 0.0 0.0 0.0 0.0 0.0 0.0 0.0
0.0 0.0 0.0 0.0 0.0 0.0 0.0 0.0 0.0 0.0 0.0 0.0 0.0 0.0 0.0 0.0 0.0 0.0 0.0 0.0 0.0 0.0 3.1 3.2 3.4 5.9 0.0 0.0 0.2 0.3 0.7 5.9 0.0 1.8 1.2 0.8 0.0 3.5 0.1 0.0 0.1 0.1 0.2 0.0 0.0 0.0 0.0 0.0 0.0 0.0 0.0 0.0 0.0 0.0
0.0 0.0 0.0 0.0 0.0 0.0 0.0 0.0 0.0 0.0 0.0 0.0 0.0 0.0 2.7 0.0 0.0 0.0 0.0 3.1 3.8 3.4 2.2 1.6 1.1 2.8 0.0 0.0 3.9 0.5 0.9 3.6 6.4 0.0 0.0 1.4 0.6 0.0 0.1 0.1 0.1 0.0 0.0 0.0 0.0 0.0 0.0 0.0 0.0 0.0 0.0 0.0 0.0 0.0
0.0 0.0 0.0 0.0 0.0 0.0 0.0 0.0 0.0 0.0 0.0 0.0 3.1 1.8 0.0 0.0 0.0 0.1 2.7 2.1 1.4 1.3 0.3 0.0 0.1 1.8 0.1 4.6 5.2 3.4 7.5 3.5 8.4 3.8 3.4 4.7 3.4 2.2 0.5 0.4 0.0 0.0 0.0 0.0 0.0 0.0 0.0 0.0 0.0 0.0 0.0 0.0 0.0 0.0
0.0 0.0 0.0 0.0 0.0 0.0 0.0 0.0 0.0 0.0 7.2 0.0 0.0 0.0 0.0 1.7 3.4 3.7 3.6 1.1 0.8 0.0 0.1 0.6 1.6 1.8 0.9 1.1 3.2 1.5 4.9 4.9 3.9 1.0 4.1 3.7 4.4 2.7 1.4 0.2 0.0 0.0 0.0 0.0 0.0 0.0 0.0 0.0 0.0 0.0 0.0 0.0 0.0 0.0
0.0 0.0 0.0 0.0 0.0 0.0 0.0 0.0 0.0 0.0 0.0 0.0 7.1 14.7 11.8 9.9 8.6 2.2 1.8 0.7 0.2 0.0 0.0 2.2 3.0 0.0 1.1 2.6 1.9 2.0 1.6 2.2 1.2 2.6 1.6 2.3 1.0 0.9 1.8 1.1 0.1 0.0 1.2 2.0 0.9 0.4 0.1 0.0 0.0 0.0 0.1 2.1 1.2 2.4
0.0 0.0 0.0 0.0 0.0 0.0 0.0 0.0 0.0 0.0 7.1 5.0 19.0 18.3 7.1 5.1 0.7 0.7 0.4 0.0 0.0 0.0 0.0 0.7 1.8 2.6 0.0 2.8 2.8 2.5 0.9 1.5 1.7 0.7 0.1 0.0 0.0 0.1 0.2 1.2 1.2 1.2 0.1 0.4 0.8 1.2 0.4 0.8 1.1 0.8 1.3 0.6 0.6 0.4
0.0 0.0 0.0 0.0 0.0 0.0 0.0 0.0 0.0 0.0 7.1 17.4 9.1 6.4 2.9 0.8 0.3 0.1 0.4 0.2 0.0 0.0 0.0 0.0 0.0 1.3 2.3 3.2 2.2 1.0 1.5 0.7 0.6 0.5 0.0 0.0 0.1 0.1 0.1 1.0 3.6 3.2 1.8 0.8 0.5 0.3 0.9 1.1 0.8 0.3 0.0 0.0 0.0 0.0
0.0 0.0 0.0 0.0 0.0 0.0 0.0 0.0 0.0 0.0 23.2 15.7 8.2 3.7 0.6 0.1 0.4 0.2 0.2 0.0 0.0 0.0 0.0 0.0 2.3 1.8 1.6 1.8 1.5 0.8 1.2 0.6 0.7 0.4 0.0 0.0 0.0 0.2 0.5 2.1 3.1 1.4 1.3 1.5 1.1 0.0 0.0 0.0 0.0 0.0 0.0 0.0 0.0 0.0
0.0 0.0 0.0 0.0 0.0 0.0 0.0 3.7 9.0 22.3 23.4 16.0 4.2 0.1 0.4 0.7 0.3 0.3 0.4 0.1 0.0 0.6 1.9 3.4 3.0 1.6 0.5 0.9 0.2 0.1 0.1 0.3 0.0 0.2 0.0 0.0 0.0 0.0 0.6 1.2 2.4 1.5 1.9 2.3 1.8 0.5 0.0 0.0 0.0 0.0 0.0 0.0 0.0 0.0
0.0 0.0 0.0 0.0 0.0 0.0 2.6 14.2 23.9 22.7 17.0 7.6 0.9 1.1 1.6 1.1 0.6 0.3 0.5 1.0 1.8 2.4 2.7 5.0 1.7 1.3 0.5 0.5 0.2 0.0 0.0 0.0 0.0 0.0 0.0 0.0 0.0 0.0 0.0 0.8 1.9 2.1 2.1 1.7 0.9 0.0 0.3 0.2 0.1 0.2 0.2 0.2 0.2 0.3
0.0 0.0 0.0 0.0 0.0 3.4 17.4 19.2 15.6 12.5 7.5 3.2 2.5 3.1 2.1 0.8 0.0 0.1 0.0 0.8 1.6 3.2 4.4 5.6 3.5 0.9 0.0 0.2 0.3 0.0 0.0 0.0 0.1 0.0 0.0 0.0 0.0 0.0 0.0 0.0 0.0 0.0 0.6 0.7 0.7 0.5 0.3 0.1 0.1 0.2 0.4 0.6 0.6 0.7
0.0 0.0 0.0 0.0 0.0 6.3 8.8 12.8 7.0 6.9 5.3 5.1 4.6 3.4 2.0 1.2 0.2 0.4 0.2 0.1 0.6 2.5 3.8 3.2 0.5 0.1 0.0 0.1 0.2 0.1 0.0 0.0 0.0 0.0 0.0 0.0 0.0 0.0 0.0 0.0 0.0 0.0 0.0 0.0 0.0 0.0 0.0 0.0 0.0 0.0 0.0 0.0 0.0 0.0
0.0 0.0 0.0 0.0 9.9 6.1 6.0 6.1 7.1 6.5 6.4 6.5 8.2 5.2 4.1 2.2 1.6 1.6 3.4 1.5 4.7 5.4 2.4 1.0 0.1 0.0 0.2 0.1 0.0 0.0 0.1 0.0 0.0 0.0 0.0 0.0 0.0 0.0 0.0 0.0 0.0 0.0 0.0 0.0 0.0 0.0 0.0 0.0 0.0 0.0 0.0 0.0 0.0 0.0
0.8 0.0 2.8 1.0 9.8 6.7 4.8 4.8 5.5 6.3 5.2 7.3 8.4 7.5 6.5 5.2 5.6 5.8 6.1 8.4 8.1 3.4 1.1 0.4 0.5 0.6 0.3 0.3 0.2 0.6 0.0 0.3 0.0 0.0 0.0 0.0 0.0 0.0 0.0 0.0 0.0 0.0 0.0 0.0 0.0 0.0 0.0 0.0 0.0 0.0 0.0 0.0 0.0 0.0
0.0 1.6 8.5 11.1 9.2 5.1 6.5 4.9 5.2 5.6 5.7 7.1 7.1 6.7 7.3 6.5 7.5 8.5 10.0 7.1 4.5 2.4 1.5 1.4 1.1 1.3 1.1 0.7 0.4 0.1 0.1 0.0 0.0 0.2 0.1 0.0 0.0 0.0 0.0 0.0 0.0 0.0 0.0 0.0 0.0 0.0 0.0 0.0 0.0 0.0 0.0 0.0 0.0 0.0
0.0 11.3 10.9 7.6 4.8 4.4 3.3 3.6 3.1 3.3 4.4 4.6 4.7 4.4 3.9 5.5 6.2 6.6 5.3 2.4 2.2 2.4 1.9 2.1 1.7 0.9 1.1 1.2 1.4 1.1 0.7 0.3 0.1 0.1 0.7 0.5 0.1 0.0 0.0 0.0 0.0 0.0 0.0 0.0 0.0 0.0 0.0 0.0 0.0 0.0 0.0 0.0 0.0 0.0
10.5 9.7 5.8 3.7 1.7 0.9 1.0 2.0 2.5 2.2 2.7 3.4 3.6 3.5 3.8 4.4 5.5 4.2 2.3 1.9 3.0 4.0 3.4 2.4 1.6 1.3 1.0 1.1 1.0 1.3 1.3 1.6 1.2 0.4 0.2 1.0 0.7 0.4 0.1 0.5 0.2 0.0 0.0 0.0 0.0 0.0 0.0 0.0 0.0 0.0 0.0 0.0 0.0 0.1
4.8 2.3 1.1 0.7 0.4 0.1 0.5 1.1 1.8 2.3 2.5 2.9 3.0 2.9 3.3 3.5 3.0 2.8 1.8 2.1 3.3 4.2 4.3 3.7 2.4 1.4 1.5 1.7 1.5 1.7 1.6 1.6 1.3 1.0 1.6 1.9 1.3 1.3 1.0 0.9 0.8 0.5 0.0 0.3 0.2 0.3 0.3 0.2 0.1 0.1 0.2 0.0 0.6 0.9
1.6 0.2 0.0 0.0 0.0 0.1 0.2 0.2 0.3 0.3 0.9 1.4 1.6 1.7 1.8 2.2 2.4 1.3 1.2 2.1 3.2 3.9 4.3 4.3 3.8 2.4 2.1 2.1 2.3 2.4 2.6 2.5 2.5 1.2 2.4 2.8 2.5 1.7 1.2 1.1 0.6 0.4 0.3 1.4 1.1 0.9 1.0 1.0 1.0 1.1 1.5 1.6 1.7 1.6
0.0 0.0 0.0 0.0 0.0 0.1 0.1 0.1 0.1 0.1 0.0 0.1 0.9 0.9 1.0 1.0 0.6 0.7 1.3 1.9 3.2 3.8 4.2 4.5 4.5 3.3 2.6 2.4 2.7 3.0 3.3 3.6 3.5 3.3 3.0 3.4 3.5 3.4 2.8 3.1 2.8 2.7 2.2 2.4 2.5 2.4 2.2 2.2 2.2 2.1 2.4 2.3 1.9 2.0
0.1 0.0 0.0 0.2 0.3 0.3 0.3 0.2 0.0 0.0 0.0 0.0 0.0 0.3 0.2 0.3 0.5 0.8 1.2 2.1 2.9 3.4 3.8 4.0 4.2 4.2 3.7 3.4 3.5 3.6 3.4 3.6 3.1 2.6 1.9 1.9 2.2 2.8 4.0 4.2 4.2 4.8 4.0 3.4 3.2 3.0 2.4 2.5 2.7 2.9 2.8 2.7 2.5 2.6
0.1 0.2 0.3 0.3 0.2 0.1 0.1 0.0 0.0 0.0 0.0 0.0 0.0 0.0 0.0 0.2 0.5 0.8 1.2 1.6 2.5 3.1 3.7 4.1 4.1 4.3 4.1 3.9 4.1 4.2 4.1 4.0 4.0 3.0 2.3 2.0 1.6 3.1 4.0 4.3 4.3 3.6 4.1 4.2 3.7 3.8 4.0 4.2 3.9 3.9 3.4 3.2 3.1 3.0
0.2 0.2 0.2 0.1 0.0 0.0 0.0 0.1 0.1 0.0 0.0 0.0 0.0 0.0 0.0 0.0 0.3 0.6 1.0 1.5 2.0 2.7 3.2 3.5 3.7 4.2 4.2 4.1 4.2 4.0 3.8 3.9 4.1 4.2 3.9 3.7 3.7 3.6 4.3 4.5 4.3 4.6 4.7 4.5 3.6 3.6 3.2 2.3 1.7 1.9 1.9 2.1 2.5 2.2
0.4 0.1 0.0 0.0 0.0 0.2 0.2 0.1 0.1 0.0 0.0 0.0 0.0 0.0 0.1 0.1 0.1 0.3 0.5 0.9 1.4 1.8 2.5 2.8 2.8 3.0 3.2 3.3 3.4 3.6 3.6 3.4 3.2 3.8 3.7 3.3 3.1 3.4 3.9 3.9 4.3 4.4 4.6 4.9 4.5 4.1 3.8 3.3 3.8 3.6 3.5 3.6 3.5 3.1
0.9 0.4 0.4 0.2 0.0 0.0 0.1 0.0 0.0 0.0 0.0 0.0 0.0 0.0 0.0 0.1 0.1 0.1 0.3 0.6 0.9 1.4 1.7 2.1 2.4 2.7 2.9 3.0 3.1 3.5 3.8 4.3 4.6 4.9 5.1 4.9 4.4 4.2 4.2 4.1 3.9 4.3 4.3 4.3 4.5 4.8 5.0 4.9 4.6 4.1 4.1 4.0 3.9 3.8

GFSWCAN_prec_snow_102.txt.gz
Snowfall_Accumulation
0.0 0.0 0.0 0.0 0.0 0.0 0.0 0.0 0.0 0.0 0.0 0.0 0.0 0.0 0.0 0.0 0.0 0.0 0.0 0.0 0.0 0.0 0.0 0.0 0.0 0.0 0.0 0.0 0.0 0.0 0.0 0.0 0.0 3.5 2.0 1.3 0.3 0.0 0.4 0.0 0.4 0.5 1.6 1.6 1.8 2.4 0.3 0.0 0.0 0.0 0.0 0.0 0.0 0.0
0.0 0.0 0.0 0.0 0.0 0.0 0.0 0.0 0.0 0.0 0.0 0.0 0.0 0.0 0.0 0.0 0.0 0.0 0.0 0.0 0.0 0.0 0.0 0.0 0.0 0.0 0.0 0.0 0.0 0.0 0.0 0.8 2.3 2.6 3.0 2.7 2.6 2.2 0.7 0.7 0.0 0.3 0.0 0.4 0.6 0.1 0.0 0.0 0.0 0.0 0.0 0.0 0.0 0.0
0.0 0.0 0.0 0.0 0.0 0.0 0.0 0.0 0.0 0.0 0.0 0.0 0.0 0.0 0.0 0.0 0.0 0.0 0.0 0.0 0.0 0.1 0.0 0.0 0.0 0.0 0.0 0.0 0.0 0.1 0.0 0.0 0.0 3.0 1.9 0.2 1.6 1.3 0.6 1.0 0.4 0.2 0.3 0.0 0.0 0.0 0.0 0.0 0.0 0.0 0.0 0.0 0.0 0.0
0.0 0.0 0.0 0.0 0.0 0.0 0.0 0.0 0.0 0.0 0.0 0.0 0.0 0.0 0.0 0.0 0.0 0.0 0.0 0.0 0.0 0.0 2.2 0.0 0.0 0.0 0.0 0.0 0.0 0.0 0.0 0.0 0.0 2.2 2.7 1.3 0.3 0.8 0.2 0.3 0.1 0.0 0.0 0.1 0.0 0.0 0.0 0.0 0.0 0.0 0.0 0.0 0.0 0.0
0.0 0.0 0.0 0.0 0.0 0.0 0.0 0.0 0.0 0.0 0.0 0.0 0.0 0.0 0.0 0.0 0.0 0.0 0.0 0.0 0.0 1.2 2.5 0.8 0.0 0.0 0.0 0.0 0.0 0.0 0.0 0.0 0.3 1.4 1.2 1.9 0.9 1.2 0.0 0.0 0.0 0.0 0.0 0.0 0.0 0.0 0.0 0.0 0.0 0.0 0.0 0.0 0.0 0.0
0.0 0.0 0.0 0.0 0.0 0.0 0.0 0.0 0.0 0.0 0.0 0.0 0.0 0.0 0.0 0.0 0.0 0.0 0.0 0.0 0.0 0.0 4.3 3.3 0.0 0.0 0.0 0.0 0.0 0.0 0.0 0.0 0.2 0.4 1.1 0.0 0.0 1.7 1.0 0.6 0.0 0.0 0.0 0.0 0.0 0.0 0.0 0.0 0.0 0.0 0.0 0.0 0.0 0.0
0.0 0.0 0.0 0.0 0.0 0.0 0.0 0.0 0.0 0.0 0.0 0.0 0.0 0.0 0.0 0.0 0.0 0.0 0.0 0.0 0.0 0.0 2.6 5.9 4.2 0.0 0.0 0.0 0.0 0.0 0.0 0.2 0.7 0.8 1.9 1.0 0.0 2.0 2.8 0.1 0.0 0.0 0.0 0.0 0.0 0.0 0.0 0.0 0.0 0.0 0.0 0.0 0.0 0.0
0.0 0.0 0.0 0.0 0.0 0.0 0.0 0.0 0.0 0.0 0.0 0.0 0.0 0.0 0.0 0.0 0.0 0.0 0.0 0.0 0.0 0.0 2.7 4.9 2.2 2.3 0.0 0.2 0.3 0.0 0.3 1.1 1.6 1.6 0.4 0.0 0.2 1.0 1.9 0.0 0.0 0.0 0.1 0.0 0.0 0.0 0.0 0.0 0.0 0.0 0.0 0.0 0.0 0.0
0.0 0.0 0.0 0.0 0.0 0.0 0.0 0.0 0.0 0.0 0.0 0.0 0.0 0.0 0.0 0.0 0.0 0.0 0.0 0.0 0.0 0.0 3.1 3.2 3.4 5.9 0.0 0.0 0.2 0.3 0.7 5.9 0.0 1.8 1.2 0.8 0.0 3.5 0.1 0.0 0.1 0.1 0.2 0.0 0.0 0.0 0.0 0.0 0.0 0.0 0.0 0.0 0.0 0.0
0.0 0.0 0.0 0.0 0.0 0.0 0.0 0.0 0.0 0.0 0.0 0.0 0.0 0.0 4.0 0.0 0.0 0.0 0.0 3.1 3.8 3.4 2.2 1.6 1.1 2.8 0.0 0.0 3.9 0.5 0.9 3.6 6.4 0.0 0.0 1.4 0.6 0.0 0.1 0.1 0.1 0.0 0.0 0.0 0.0 0.0 0.0 0.0 0.0 0.0 0.0 0.0 0.0 0.0
0.0 0.0 0.0 0.0 0.0 0.0 0.0 0.0 0.0 0.0 0.0 0.0 3.1 2.5 0.0 0.0 0.0 0.1 2.8 2.1 1.4 1.3 0.3 0.0 0.1 1.8 0.1 4.6 5.2 3.4 7.5 3.5 8.4 3.8 3.4 4.7 3.4 2.2 0.5 0.4 0.0 0.0 0.0 0.0 0.0 0.0 0.0 0.0 0.0 0.0 0.0 0.0 0.0 0.0
0.0 0.0 0.0 0.0 0.0 0.0 0.0 0.0 0.0 0.0 7.2 0.0 0.0 0.0 0.0 1.7 4.5 4.0 3.7 1.1 0.8 0.0 0.1 0.6 1.6 1.8 0.9 1.1 3.2 1.5 4.9 4.9 3.9 1.0 4.1 3.7 4.4 2.7 1.4 0.2 0.0 0.0 0.0 0.0 0.0 0.0 0.0 0.0 0.0 0.0 0.0 0.0 0.0 0.0
0.0 0.0 0.0 0.0 0.0 0.0 0.0 0.0 0.0 0.0 0.0 0.0 7.1 14.7 12.5 10.3 8.7 2.2 1.8 0.7 0.2 0.0 0.0 2.2 3.0 0.0 1.1 2.6 1.9 2.0 1.6 2.2 1.2 2.6 1.6 2.3 1.0 0.9 1.8 1.1 0.1 0.0 1.2 2.0 0.9 0.4 0.1 0.0 0.0 0.0 0.1 2.1 1.2 2.4
0.0 0.0 0.0 0.0 0.0 0.0 0.0 0.0 0.0 0.0 7.1 5.0 19.0 18.4 7.1 5.1 0.7 0.7 0.4 0.0 0.0 0.0 0.0 0.7 1.8 2.6 0.0 2.8 2.8 2.5 0.9 1.5 1.8 0.7 0.1 0.0 0.0 0.1 0.2 1.2 1.2 1.2 0.1 0.4 0.8 1.2 0.4 0.8 1.1 0.8 1.3 0.6 0.6 0.4
0.0 0.0 0.0 0.0 0.0 0.0 0.0 0.0 0.0 0.0 7.1 17.4 9.1 6.4 2.9 0.8 0.3 0.1 0.4 0.2 0.0 0.0 0.0 0.0 0.0 1.3 2.3 3.2 2.2 1.0 1.5 0.7 0.6 0.5 0.0 0.0 0.1 0.1 0.1 1.0 3.6 3.2 1.8 0.8 0.5 0.3 0.9 1.1 0.8 0.3 0.0 0.0 0.0 0.0
0.0 0.0 0.0 0.0 0.0 0.0 0.0 0.0 0.0 0.0 23.5 15.7 8.2 3.7 0.6 0.1 0.4 0.2 0.2 0.1 0.0 0.0 0.0 0.0 2.3 1.8 1.6 1.8 1.5 0.8 1.2 0.6 0.7 0.4 0.0 0.0 0.0 0.2 0.5 2.1 3.1 1.4 1.3 1.5 1.1 0.0 0.0 0.0 0.0 0.0 0.0 0.0 0.0 0.0
0.0 0.0 0.0 0.0 0.0 0.0 0.0 3.7 9.0 23.2 23.9 16.2 4.2 0.1 0.4 0.7 0.3 0.3 0.4 0.1 0.0 0.6 1.9 3.4 3.0 1.6 0.5 0.9 0.2 0.1 0.1 0.3 0.0 0.2 0.0 0.0 0.0 0.0 0.6 1.2 2.4 1.5 1.9 2.3 1.8 0.5 0.0 0.0 0.0 0.0 0.0 0.0 0.0 0.0
0.0 0.0 0.0 0.0 0.0 0.0 2.6 14.2 25.4 23.7 17.5 7.8 1.0 1.1 1.6 1.1 0.6 0.3 0.5 1.0 1.8 2.4 2.7 5.0 1.7 1.3 0.5 0.5 0.2 0.0 0.0 0.0 0.0 0.0 0.0 0.0 0.0 0.0 0.0 0.8 1.9 2.1 2.1 1.7 0.9 0.0 0.3 0.2 0.1 0.2 0.2 0.2 0.2 0.3
0.0 0.0 0.0 0.0 0.0 3.4 19.9 21.4 16.7 12.7 7.6 3.4 2.9 3.5 2.5 0.9 0.0 0.1 0.0 0.8 1.6 3.2 4.4 5.6 3.5 0.9 0.0 0.2 0.3 0.0 0.0 0.0 0.1 0.0 0.0 0.0 0.0 0.0 0.0 0.0 0.0 0.0 0.6 0.7 0.7 0.5 0.3 0.1 0.1 0.2 0.4 0.6 0.6 0.7
0.0 0.0 0.0 0.0 0.0 7.6 9.6 14.0 7.4 6.9 5.3 5.4 5.1 4.4 2.8 1.7 0.5 0.4 0.2 0.1 0.6 2.5 3.8 3.2 0.5 0.1 0.0 0.1 0.2 0.1 0.0 0.0 0.0 0.0 0.0 0.0 0.0 0.0 0.0 0.0 0.0 0.0 0.0 0.0 0.0 0.0 0.0 0.0 0.0 0.0 0.0 0.0 0.0 0.0
0.0 0.0 0.0 0.0 11.5 7.0 6.3 6.4 7.1 6.5 6.6 7.1 9.0 6.2 5.2 3.0 2.0 1.6 3.4 1.5 4.7 5.4 2.4 1.0 0.1 0.0 0.2 0.1 0.0 0.0 0.1 0.0 0.0 0.0 0.0 0.0 0.0 0.0 0.0 0.0 0.0 0.0 0.0 0.0 0.0 0.0 0.0 0.0 0.0 0.0 0.0 0.0 0.0 0.0
0.8 0.0 2.8 1.0 11.3 7.7 5.2 4.9 5.5 6.4 5.5 7.9 9.1 8.1 7.2 5.8 6.0 6.0 6.1 8.4 8.1 3.4 1.1 0.4 0.5 0.6 0.3 0.3 0.2 0.6 0.0 0.3 0.0 0.0 0.0 0.0 0.0 0.0 0.0 0.0 0.0 0.0 0.0 0.0 0.0 0.0 0.0 0.0 0.0 0.0 0.0 0.0 0.0 0.0
0.0 1.6 10.0 12.9 10.8 6.0 7.1 5.2 5.2 6.1 6.4 7.9 8.0 7.5 7.9 6.8 7.7 8.6 10.0 7.1 4.5 2.4 1.5 1.4 1.1 1.3 1.1 0.7 0.4 0.1 0.1 0.0 0.0 0.2 0.1 0.0 0.0 0.0 0.0 0.0 0.0 0.0 0.0 0.0 0.0 0.0 0.0 0.0 0.0 0.0 0.0 0.0 0.0 0.0
0.0 13.3 13.2 9.2 5.6 4.8 3.6 4.1 3.6 3.9 5.1 5.5 5.5 4.9 4.2 5.7 6.4 6.8 5.3 2.4 2.2 2.4 1.9 2.1 1.7 0.9 1.1 1.2 1.4 1.1 0.7 0.3 0.1 0.1 0.7 0.5 0.1 0.0 0.0 0.0 0.0 0.0 0.0 0.0 0.0 0.0 0.0 0.0 0.0 0.0 0.0 0.0 0.0 0.0
12.5 11.6 6.9 4.4 2.0 1.0 1.1 2.2 2.9 2.5 3.1 4.1 4.2 3.9 4.1 4.7 5.6 4.2 2.3 1.9 3.0 4.0 3.4 2.4 1.6 1.3 1.0 1.1 1.0 1.3 1.3 1.6 1.2 0.4 0.2 1.0 0.7 0.4 0.1 0.5 0.2 0.0 0.0 0.0 0.0 0.0 0.0 0.0 0.0 0.0 0.0 0.0 0.0 0.1
5.8 3.0 1.6 0.9 0.4 0.1 0.5 1.1 2.1 2.6 3.0 3.6 3.5 3.2 3.6 3.8 3.1 2.8 1.8 2.1 3.3 4.2 4.3 3.7 2.4 1.4 1.5 1.7 1.5 1.7 1.6 1.6 1.3 1.0 1.6 1.9 1.3 1.3 1.0 0.9 0.8 0.5 0.0 0.3 0.2 0.3 0.3 0.2 0.1 0.1 0.2 0.0 0.6 0.9
2.0 0.2 0.0 0.0 0.0 0.1 0.2 0.5 0.8 1.1 1.7 1.9 1.8 1.9 2.0 2.3 2.4 1.3 1.2 2.1 3.2 3.9 4.3 4.3 3.8 2.4 2.1 2.1 2.3 2.4 2.6 2.5 2.5 1.2 2.4 2.8 2.5 1.7 1.2 1.1 0.6 0.4 0.3 1.4 1.1 0.9 1.0 1.0 1.0 1.1 1.5 1.6 1.7 1.6
0.0 0.0 0.0 0.0 0.0 0.2 0.3 0.5 0.6 0.6 0.4 0.3 1.1 1.1 1.1 1.0 0.6 0.7 1.3 1.9 3.2 3.8 4.2 4.5 4.5 3.3 2.6 2.4 2.7 3.0 3.3 3.6 3.5 3.3 3.0 3.4 3.5 3.4 2.8 3.1 2.8 2.7 2.2 2.4 2.5 2.4 2.2 2.2 2.2 2.1 2.4 2.3 1.9 2.0
0.1 0.0 0.0 0.3 0.6 0.8 0.8 0.5 0.2 0.1 0.0 0.0 0.0 0.3 0.2 0.3 0.5 0.8 1.2 2.1 2.9 3.4 3.8 4.0 4.2 4.2 3.7 3.4 3.5 3.6 3.4 3.6 3.1 2.6 1.9 1.9 2.2 2.8 4.0 4.2 4.2 4.8 4.0 3.4 3.2 3.0 2.4 2.5 2.8 3.0 2.9 2.7 2.5 2.6
0.1 0.3 0.5 0.7 0.6 0.5 0.4 0.0 0.0 0.0 0.0 0.0 0.0 0.0 0.0 0.2 0.5 0.8 1.2 1.6 2.5 3.1 3.7 4.1 4.1 4.3 4.1 3.9 4.1 4.2 4.1 4.0 4.0 3.0 2.3 2.0 1.6 3.1 4.0 4.3 4.3 3.6 4.1 4.2 3.7 3.8 4.0 4.2 3.9 3.9 3.4 3.2 3.1 3.0
0.7 0.6 0.5 0.4 0.3 0.2 0.3 0.4 0.3 0.1 0.0 0.0 0.0 0.0 0.0 0.0 0.3 0.6 1.0 1.5 2.0 2.7 3.2 3.5 3.7 4.2 4.2 4.1 4.2 4.0 3.8 3.9 4.1 4.2 3.9 3.7 3.7 3.6 4.3 4.5 4.3 4.6 4.7 4.5 3.6 3.6 3.2 2.3 1.7 1.9 1.9 2.1 2.5 2.2
0.8 0.4 0.2 0.2 0.3 0.5 0.4 0.2 0.1 0.0 0.0 0.0 0.0 0.0 0.1 0.1 0.1 0.3 0.5 0.9 1.4 1.8 2.5 2.8 2.8 3.0 3.2 3.3 3.4 3.6 3.6 3.4 3.2 3.8 3.7 3.3 3.1 3.4 3.9 3.9 4.3 4.4 4.6 4.9 4.5 4.1 3.8 3.3 3.8 3.6 3.5 3.6 3.5 3.1
1.0 0.6 0.5 0.3 0.2 0.1 0.2 0.0 0.0 0.0 0.0 0.0 0.0 0.0 0.0 0.1 0.1 0.1 0.3 0.6 0.9 1.4 1.7 2.1 2.4 2.7 2.9 3.0 3.1 3.5 3.8 4.3 4.6 4.9 5.1 4.9 4.4 4.2 4.2 4.1 3.9 4.3 4.3 4.3 4.5 4.8 5.0 4.9 4.6 4.1 4.1 4.0 3.9 3.8

GFSWCAN_prec_snow_105.txt.gz
Snowfall_Accumulation
0.0 0.0 0.0 0.0 0.0 0.0 0.0 0.0 0.0 0.0 0.0 0.0 0.0 0.0 0.0 0.0 0.0 0.0 0.0 0.0 0.0 0.0 0.0 0.0 0.0 0.0 0.0 0.0 0.0 0.0 0.0 0.0 0.0 3.5 2.0 1.3 0.3 0.0 0.4 0.0 0.4 0.5 1.6 1.6 1.8 2.4 0.3 0.0 0.0 0.0 0.0 0.0 0.0 0.0
0.0 0.0 0.0 0.0 0.0 0.0 0.0 0.0 0.0 0.0 0.0 0.0 0.0 0.0 0.0 0.0 0.0 0.0 0.0 0.0 0.0 0.0 0.0 0.0 0.0 0.0 0.0 0.0 0.0 0.0 0.0 0.8 2.3 2.6 3.0 2.7 2.6 2.2 0.7 0.7 0.0 0.3 0.0 0.4 0.6 0.1 0.0 0.0 0.0 0.0 0.0 0.0 0.0 0.0
0.0 0.0 0.0 0.0 0.0 0.0 0.0 0.0 0.0 0.0 0.0 0.0 0.0 0.0 0.0 0.0 0.0 0.0 0.0 0.0 0.0 0.1 0.0 0.0 0.0 0.0 0.0 0.0 0.0 0.1 0.0 0.0 0.0 3.0 1.9 0.2 1.6 1.3 0.6 1.0 0.4 0.2 0.3 0.0 0.0 0.0 0.0 0.0 0.0 0.0 0.0 0.0 0.0 0.0
0.0 0.0 0.0 0.0 0.0 0.0 0.0 0.0 0.0 0.0 0.0 0.0 0.0 0.0 0.0 0.0 0.0 0.0 0.0 0.0 0.0 0.0 2.2 0.0 0.0 0.0 0.0 0.0 0.0 0.0 0.0 0.0 0.0 2.2 2.7 1.3 0.3 0.8 0.2 0.3 0.1 0.0 0.0 0.1 0.0 0.0 0.0 0.0 0.0 0.0 0.0 0.0 0.0 0.0
0.0 0.0 0.0 0.0 0.0 0.0 0.0 0.0 0.0 0.0 0.0 0.0 0.0 0.0 0.0 0.0 0.0 0.0 0.0 0.0 0.0 1.2 2.5 0.8 0.0 0.0 0.0 0.0 0.0 0.0 0.0 0.0 0.3 1.4 1.2 1.9 0.9 1.2 0.0 0.0 0.0 0.0 0.0 0.0 0.0 0.0 0.0 0.0 0.0 0.0 0.0 0.0 0.0 0.0
0.0 0.0 0.0 0.0 0.0 0.0 0.0 0.0 0.0 0.0 0.0 0.0 0.0 0.0 0.0 0.0 0.0 0.0 0.0 0.0 0.0 0.0 4.3 3.3 0.0 0.0 0.0 0.0 0.0 0.0 0.0 0.0 0.2 0.4 1.1 0.0 0.0 1.7 1.0 0.6 0.0 0.0 0.0 0.0 0.0 0.0 0.0 0.0 0.0 0.0 0.0 0.0 0.0 0.0
0.0 0.0 0.0 0.0 0.0 0.0 0.0 0.0 0.0 0.0 0.0 0.0 0.0 0.0 0.0 0.0 0.0 0.0 0.0 0.0 0.0 0.0 2.6 5.9 4.2 0.0 0.0 0.0 0.0 0.0 0.0 0.2 0.7 0.8 1.9 1.0 0.0 2.0 2.8 0.1 0.0 0.0 0.0 0.0 0.0 0.0 0.0 0.0 0.0 0.0 0.0 0.0 0.0 0.0
0.0 0.0 0.0 0.0 0.0 0.0 0.0 0.0 0.0 0.0 0.0 0.0 0.0 0.0 0.0 0.0 0.0 0.0 0.0 0.0 0.0 0.0 2.7 4.9 2.2 2.3 0.0 0.2 0.3 0.0 0.3 1.1 1.6 1.6 0.4 0.0 0.2 1.0 1.9 0.0 0.0 0.0 0.1 0.0 0.0 0.0 0.0 0.0 0.0 0.0 0.0 0.0 0.0 0.0
0.0 0.0 0.0 0.0 0.0 0.0 0.0 0.0 0.0 0.0 0.0 0.0 0.0 0.0 0.0 0.0 0.0 0.0 0.0 0.0 0.0 0.0 3.1 3.2 3.4 5.9 0.0 0.0 0.2 0.3 0.7 5.9 0.0 1.8 1.2 0.8 0.0 3.5 0.1 0.0 0.1 0.1 0.2 0.0 0.0 0.0 0.0 0.0 0.0 0.0 0.0 0.0 0.0 0.0
0.0 0.0 0.0 0.0 0.0 0.0 0.0 0.0 0.0 0.0 0.0 0.0 0.0 0.0 5.8 0.0 0.0 0.0 0.0 3.1 3.8 3.4 2.2 1.6 1.1 2.8 0.0 0.0 3.9 0.5 0.9 3.6 6.4 0.0 0.0 1.4 0.6 0.0 0.1 0.1 0.1 0.0 0.0 0.0 0.0 0.0 0.0 0.0 0.0 0.0 0.0 0.0 0.0 0.0
0.0 0.0 0.0 0.0 0.0 0.0 0.0 0.0 0.0 0.0 0.0 0.0 5.7 4.2 0.0 0.0 0.0 0.1 3.4 2.4 1.4 1.3 0.3 0.0 0.1 1.8 0.1 4.6 5.2 3.4 7.5 3.5 8.4 3.8 3.4 4.7 3.4 2.2 0.5 0.4 0.0 0.0 0.0 0.0 0.0 0.0 0.0 0.0 0.0 0.0 0.0 0.0 0.0 0.0
0.0 0.0 0.0 0.0 0.0 0.0 0.0 0.0 0.0 0.0 7.2 0.0 0.0 0.0 0.0 1.7 5.6 4.9 4.0 1.1 0.8 0.0 0.1 0.6 1.6 1.8 0.9 1.1 3.2 1.5 4.9 4.9 3.9 1.0 4.1 3.7 4.4 2.7 1.4 0.2 0.0 0.0 0.0 0.0 0.0 0.0 0.0 0.0 0.0 0.0 0.0 0.0 0.0 0.0
0.0 0.0 0.0 0.0 0.0 0.0 0.0 0.0 0.0 0.0 0.0 0.0 7.1 14.9 12.5 11.1 9.1 2.4 1.9 0.7 0.2 0.0 0.0 2.2 3.0 0.0 1.1 2.6 1.9 2.0 1.6 2.2 1.2 2.6 1.6 2.3 1.0 0.9 1.8 1.1 0.1 0.0 1.2 2.0 0.9 0.4 0.1 0.0 0.0 0.0 0.1 2.1 1.2 2.4
0.0 0.0 0.0 0.0 0.0 0.0 0.0 0.0 0.0 0.0 7.1 5.0 19.4 18.6 7.1 5.1 0.7 0.7 0.4 0.0 0.0 0.0 0.0 0.7 1.8 2.6 0.0 2.8 2.8 2.5 0.9 1.5 1.8 0.7 0.1 0.0 0.0 0.1 0.2 1.2 1.2 1.2 0.1 0.4 0.8 1.2 0.4 0.8 1.1 0.8 1.3 0.6 0.6 0.4
0.0 0.0 0.0 0.0 0.0 0.0 0.0 0.0 0.0 0.0 7.1 17.5 9.1 6.4 2.9 0.8 0.3 0.1 0.4 0.2 0.0 0.0 0.0 0.0 0.0 1.3 2.3 3.2 2.2 1.0 1.5 0.7 0.6 0.5 0.0 0.0 0.1 0.1 0.1 1.0 3.6 3.2 1.8 0.8 0.5 0.3 0.9 1.1 0.8 0.3 0.0 0.0 0.0 0.0
0.0 0.0 0.0 0.0 0.0 0.0 0.0 0.0 0.0 0.0 23.8 15.7 8.2 3.7 0.6 0.1 0.4 0.2 0.2 0.1 0.0 0.0 0.0 0.0 2.3 1.8 1.6 1.8 1.5 0.8 1.2 0.6 0.7 0.4 0.0 0.0 0.0 0.2 0.5 2.1 3.1 1.4 1.3 1.5 1.1 0.0 0.0 0.0 0.0 0.0 0.0 0.0 0.0 0.0
0.0 0.0 0.0 0.0 0.0 0.0 0.0 3.7 9.0 24.1 24.6 16.2 4.2 0.1 0.4 0.7 0.3 0.3 0.4 0.1 0.0 0.6 1.9 3.4 3.0 1.6 0.5 0.9 0.2 0.1 0.1 0.3 0.0 0.2 0.0 0.0 0.0 0.0 0.6 1.2 2.4 1.5 1.9 2.3 1.8 0.5 0.0 0.0 0.0 0.0 0.0 0.0 0.0 0.0
0.0 0.0 0.0 0.0 0.0 0.0 2.6 14.2 27.0 24.9 17.9 7.9 1.0 1.1 1.6 1.1 0.6 0.3 0.5 1.0 1.8 2.4 2.7 5.0 1.7 1.3 0.5 0.5 0.2 0.0 0.0 0.0 0.0 0.0 0.0 0.0 0.0 0.0 0.0 0.8 1.9 2.1 2.1 1.7 0.9 0.0 0.3 0.2 0.1 0.2 0.2 0.2 0.2 0.3
0.0 0.0 0.0 0.0 0.0 3.4 22.3 23.4 17.6 12.9 7.9 3.5 3.0 3.5 2.5 0.9 0.0 0.1 0.0 0.8 1.6 3.2 4.4 5.6 3.5 0.9 0.0 0.2 0.3 0.0 0.0 0.0 0.1 0.0 0.0 0.0 0.0 0.0 0.0 0.0 0.0 0.0 0.6 0.7 0.7 0.5 0.3 0.1 0.1 0.2 0.4 0.6 0.6 0.7
0.0 0.0 0.0 0.0 0.0 7.6 10.6 15.2 8.0 6.9 5.3 5.5 5.4 4.7 3.1 1.7 0.5 0.4 0.2 0.1 0.6 2.5 3.8 3.2 0.5 0.1 0.0 0.1 0.2 0.1 0.0 0.0 0.0 0.0 0.0 0.0 0.0 0.0 0.0 0.0 0.0 0.0 0.0 0.0 0.0 0.0 0.0 0.0 0.0 0.0 0.0 0.0 0.0 0.0
0.0 0.0 0.0 0.0 11.5 8.0 6.7 6.8 7.4 6.8 6.7 7.4 9.5 6.8 6.0 4.0 2.8 1.9 3.4 1.5 4.7 5.4 2.4 1.0 0.1 0.0 0.2 0.1 0.0 0.0 0.1 0.0 0.0 0.0 0.0 0.0 0.0 0.0 0.0 0.0 0.0 0.0 0.0 0.0 0.0 0.0 0.0 0.0 0.0 0.0 0.0 0.0 0.0 0.0
0.8 0.0 2.8 1.0 12.0 8.4 5.6 4.9 5.5 6.5 5.5 8.4 9.8 8.7 7.9 6.5 6.9 6.6 6.3 8.4 8.1 3.4 1.1 0.4 0.5 0.6 0.3 0.3 0.2 0.6 0.0 0.3 0.0 0.0 0.0 0.0 0.0 0.0 0.0 0.0 0.0 0.0 0.0 0.0 0.0 0.0 0.0 0.0 0.0 0.0 0.0 0.0 0.0 0.0
0.0 1.6 11.1 14.2 11.9 6.0 7.5 5.4 5.3 6.1 6.4 8.5 8.7 7.9 8.4 7.2 8.0 8.9 10.2 7.1 4.5 2.4 1.5 1.4 1.1 1.3 1.1 0.7 0.4 0.1 0.1 0.0 0.0 0.2 0.1 0.0 0.0 0.0 0.0 0.0 0.0 0.0 0.0 0.0 0.0 0.0 0.0 0.0 0.0 0.0 0.0 0.0 0.0 0.0
0.0 14.9 14.6 10.1 6.2 5.0 4.0 4.3 3.6 3.9 5.6 6.1 5.9 5.2 4.5 6.0 6.8 7.0 5.3 2.4 2.2 2.4 1.9 2.1 1.7 0.9 1.1 1.2 1.4 1.1 0.7 0.3 0.1 0.1 0.7 0.5 0.1 0.0 0.0 0.0 0.0 0.0 0.0 0.0 0.0 0.0 0.0 0.0 0.0 0.0 0.0 0.0 0.0 0.0
14.3 13.2 7.7 5.0 2.3 1.0 1.1 2.3 3.1 2.8 3.1 4.4 4.5 4.1 4.3 4.9 5.8 4.2 2.3 1.9 3.0 4.0 3.4 2.4 1.6 1.3 1.0 1.1 1.0 1.3 1.3 1.6 1.2 0.4 0.2 1.0 0.7 0.4 0.1 0.5 0.2 0.0 0.0 0.0 0.0 0.0 0.0 0.0 0.0 0.0 0.0 0.0 0.0 0.1
6.2 3.3 1.8 0.9 0.5 0.1 0.5 1.1 2.1 2.6 3.0 3.9 3.8 3.5 3.9 4.0 3.1 2.8 1.8 2.1 3.3 4.2 4.3 3.7 2.4 1.4 1.5 1.7 1.5 1.7 1.6 1.6 1.3 1.0 1.6 1.9 1.3 1.3 1.0 0.9 0.8 0.5 0.0 0.3 0.2 0.3 0.3 0.2 0.1 0.1 0.2 0.0 0.6 0.9
2.2 0.3 0.0 0.0 0.0 0.1 0.2 0.5 0.8 1.1 2.2 2.3 1.8 1.9 2.4 2.6 2.4 1.3 1.2 2.1 3.2 3.9 4.3 4.3 3.8 2.4 2.1 2.1 2.3 2.4 2.6 2.5 2.5 1.2 2.4 2.8 2.5 1.7 1.2 1.1 0.6 0.4 0.3 1.4 1.1 0.9 1.0 1.0 1.0 1.1 1.5 1.6 1.7 1.6
0.0 0.0 0.0 0.0 0.0 0.2 0.3 0.5 0.6 0.6 0.8 0.5 1.4 1.5 1.5 1.1 0.6 0.7 1.3 1.9 3.2 3.8 4.2 4.5 4.5 3.3 2.6 2.4 2.7 3.0 3.3 3.6 3.5 3.3 3.0 3.4 3.5 3.4 2.8 3.1 2.8 2.7 2.2 2.4 2.5 2.4 2.2 2.2 2.2 2.1 2.4 2.3 1.9 2.0
0.1 0.0 0.0 0.6 0.9 1.2 1.2 0.8 0.4 0.3 0.1 0.1 0.2 0.3 0.2 0.3 0.5 0.8 1.2 2.1 2.9 3.4 3.8 4.0 4.2 4.2 3.7 3.4 3.5 3.6 3.4 3.6 3.1 2.6 1.9 1.9 2.2 2.8 4.0 4.2 4.2 4.8 4.0 3.4 3.2 3.0 2.5 2.6 2.8 3.0 2.9 2.7 2.5 2.6
0.2 0.4 0.6 1.0 0.9 0.8 0.6 0.2 0.1 0.0 0.0 0.0 0.0 0.0 0.0 0.2 0.5 0.8 1.2 1.6 2.5 3.1 3.7 4.1 4.1 4.3 4.1 3.9 4.1 4.2 4.1 4.0 4.0 3.0 2.3 2.0 1.6 3.1 4.0 4.3 4.3 3.6 4.1 4.2 3.7 3.8 4.0 4.2 3.9 3.9 3.4 3.2 3.1 3.0
0.8 0.6 0.6 0.5 0.4 0.3 0.4 0.6 0.6 0.3 0.0 0.0 0.0 0.0 0.0 0.0 0.3 0.6 1.0 1.5 2.0 2.7 3.2 3.5 3.7 4.2 4.2 4.1 4.2 4.0 3.8 3.9 4.1 4.2 3.9 3.7 3.7 3.6 4.3 4.5 4.3 4.6 4.7 4.5 3.6 3.6 3.2 2.3 1.7 1.9 1.9 2.1 2.5 2.2
1.0 0.4 0.2 0.2 0.3 0.8 0.8 0.5 0.4 0.1 0.1 0.0 0.0 0.0 0.1 0.1 0.1 0.3 0.5 0.9 1.4 1.8 2.5 2.8 2.8 3.0 3.2 3.3 3.4 3.6 3.6 3.4 3.2 3.8 3.7 3.3 3.1 3.4 3.9 3.9 4.3 4.4 4.6 4.9 4.5 4.1 3.8 3.3 3.8 3.6 3.5 3.6 3.5 3.1
1.2 0.8 0.6 0.4 0.5 0.4 0.4 0.2 0.1 0.0 0.0 0.0 0.0 0.0 0.0 0.1 0.1 0.1 0.3 0.6 0.9 1.4 1.7 2.1 2.4 2.7 2.9 3.0 3.1 3.5 3.8 4.3 4.6 4.9 5.1 4.9 4.4 4.2 4.2 4.1 3.9 4.3 4.3 4.3 4.5 4.8 5.0 4.9 4.6 4.1 4.1 4.0 3.9 3.8

GFSWCAN_prec_snow_108.txt.gz
Snowfall_Accumulation
0.0 0.0 0.0 0.0 0.0 0.0 0.0 0.0 0.0 0.0 0.0 0.0 0.0 0.0 0.0 0.0 0.0 0.0 0.0 0.0 0.0 0.0 0.0 0.0 0.0 0.0 0.0 0.0 0.0 0.0 0.0 0.0 0.0 3.5 2.0 1.3 0.3 0.0 0.4 0.0 0.4 0.5 1.6 1.6 1.8 2.4 0.3 0.0 0.0 0.0 0.0 0.0 0.0 0.0
0.0 0.0 0.0 0.0 0.0 0.0 0.0 0.0 0.0 0.0 0.0 0.0 0.0 0.0 0.0 0.0 0.0 0.0 0.0 0.0 0.0 0.0 0.0 0.0 0.0 0.0 0.0 0.0 0.0 0.0 0.0 0.8 2.3 2.6 3.0 2.7 2.6 2.2 0.7 0.7 0.0 0.3 0.0 0.4 0.6 0.1 0.0 0.0 0.0 0.0 0.0 0.0 0.0 0.0
0.0 0.0 0.0 0.0 0.0 0.0 0.0 0.0 0.0 0.0 0.0 0.0 0.0 0.0 0.0 0.0 0.0 0.0 0.0 0.0 0.0 0.1 0.0 0.0 0.0 0.0 0.0 0.0 0.0 0.1 0.0 0.0 0.0 3.0 1.9 0.2 1.6 1.3 0.6 1.0 0.4 0.2 0.3 0.0 0.0 0.0 0.0 0.0 0.0 0.0 0.0 0.0 0.0 0.0
0.0 0.0 0.0 0.0 0.0 0.0 0.0 0.0 0.0 0.0 0.0 0.0 0.0 0.0 0.0 0.0 0.0 0.0 0.0 0.0 0.0 0.0 2.2 0.0 0.0 0.0 0.0 0.0 0.0 0.0 0.0 0.0 0.0 2.2 2.7 1.3 0.3 0.8 0.2 0.3 0.1 0.0 0.0 0.1 0.0 0.0 0.0 0.0 0.0 0.0 0.0 0.0 0.0 0.0
0.0 0.0 0.0 0.0 0.0 0.0 0.0 0.0 0.0 0.0 0.0 0.0 0.0 0.0 0.0 0.0 0.0 0.0 0.0 0.0 0.0 1.2 2.5 0.8 0.0 0.0 0.0 0.0 0.0 0.0 0.0 0.0 0.3 1.4 1.2 1.9 0.9 1.2 0.0 0.0 0.0 0.0 0.0 0.0 0.0 0.0 0.0 0.0 0.0 0.0 0.0 0.0 0.0 0.0
0.0 0.0 0.0 0.0 0.0 0.0 0.0 0.0 0.0 0.0 0.0 0.0 0.0 0.0 0.0 0.0 0.0 0.0 0.0 0.0 0.0 0.0 4.3 3.3 0.0 0.0 0.0 0.0 0.0 0.0 0.0 0.0 0.2 0.4 1.1 0.0 0.0 1.7 1.0 0.6 0.0 0.0 0.0 0.0 0.0 0.0 0.0 0.0 0.0 0.0 0.0 0.0 0.0 0.0
0.0 0.0 0.0 0.0 0.0 0.0 0.0 0.0 0.0 0.0 0.0 0.0 0.0 0.0 0.0 0.0 0.0 0.0 0.0 0.0 0.0 0.0 2.6 5.9 4.2 0.0 0.0 0.0 0.0 0.0 0.0 0.2 0.7 0.8 1.9 1.0 0.0 2.0 2.8 0.1 0.0 0.0 0.0 0.0 0.0 0.0 0.0 0.0 0.0 0.0 0.0 0.0 0.0 0.0
0.0 0.0 0.0 0.0 0.0 0.0 0.0 0.0 0.0 0.0 0.0 0.0 0.0 0.0 0.0 0.0 0.0 0.0 0.0 0.0 0.0 0.0 2.7 4.9 2.2 2.3 0.0 0.2 0.3 0.0 0.3 1.1 1.6 1.6 0.4 0.0 0.2 1.0 1.9 0.0 0.0 0.0 0.1 0.0 0.0 0.0 0.0 0.0 0.0 0.0 0.0 0.0 0.0 0.0
0.0 0.0 0.0 0.0 0.0 0.0 0.0 0.0 0.0 0.0 0.0 0.0 0.0 0.0 0.0 0.0 0.0 0.0 0.0 0.0 0.0 0.0 3.1 3.2 3.4 5.9 0.0 0.0 0.2 0.3 0.7 5.9 0.0 1.8 1.2 0.8 0.0 3.5 0.1 0.0 0.1 0.1 0.2 0.0 0.0 0.0 0.0 0.0 0.0 0.0 0.0 0.0 0.0 0.0
0.0 0.0 0.0 0.0 0.0 0.0 0.0 0.0 0.0 0.0 0.0 0.0 0.0 0.0 8.6 0.0 0.0 0.0 0.0 3.1 3.8 3.4 2.2 1.6 1.1 2.8 0.0 0.0 3.9 0.5 0.9 3.6 6.4 0.0 0.0 1.4 0.6 0.0 0.1 0.1 0.1 0.0 0.0 0.0 0.0 0.0 0.0 0.0 0.0 0.0 0.0 0.0 0.0 0.0
0.0 0.0 0.0 0.0 0.0 0.0 0.0 0.0 0.0 0.0 0.0 0.0 5.7 4.2 0.0 0.0 0.0 0.1 4.6 3.0 1.4 1.3 0.3 0.0 0.1 1.8 0.1 4.6 5.2 3.4 7.5 3.5 8.4 3.8 3.4 4.7 3.4 2.2 0.5 0.4 0.0 0.0 0.0 0.0 0.0 0.0 0.0 0.0 0.0 0.0 0.0 0.0 0.0 0.0
0.0 0.0 0.0 0.0 0.0 0.0 0.0 0.0 0.0 0.0 7.2 0.0 0.0 0.0 0.0 1.7 7.6 6.9 5.1 1.5 0.9 0.0 0.1 0.6 1.6 1.8 0.9 1.1 3.2 1.5 4.9 4.9 3.9 1.0 4.1 3.7 4.4 2.7 1.4 0.2 0.0 0.0 0.0 0.0 0.0 0.0 0.0 0.0 0.0 0.0 0.0 0.0 0.0 0.0
0.0 0.0 0.0 0.0 0.0 0.0 0.0 0.0 0.0 0.0 0.0 0.0 7.1 17.0 14.3 13.0 10.2 2.9 2.1 0.8 0.2 0.0 0.0 2.2 3.0 0.0 1.1 2.6 1.9 2.0 1.6 2.2 1.2 2.6 1.6 2.3 1.0 0.9 1.8 1.1 0.1 0.0 1.2 2.0 0.9 0.4 0.1 0.0 0.0 0.0 0.1 2.1 1.2 2.4
0.0 0.0 0.0 0.0 0.0 0.0 0.0 0.0 0.0 0.0 7.1 5.0 21.9 20.6 8.1 5.4 0.7 0.7 0.4 0.0 0.0 0.0 0.0 0.7 1.8 2.6 0.0 2.8 2.8 2.5 0.9 1.5 1.8 0.7 0.1 0.0 0.0 0.1 0.2 1.2 1.2 1.2 0.1 0.4 0.8 1.2 0.4 0.8 1.1 0.8 1.3 0.6 0.6 0.4
0.0 0.0 0.0 0.0 0.0 0.0 0.0 0.0 0.0 0.0 7.1 19.5 10.2 6.8 3.1 0.8 0.3 0.1 0.4 0.2 0.0 0.0 0.0 0.0 0.0 1.3 2.3 3.2 2.2 1.0 1.5 0.7 0.6 0.5 0.0 0.0 0.1 0.1 0.1 1.0 3.6 3.2 1.8 0.8 0.5 0.3 0.9 1.1 0.8 0.3 0.0 0.0 0.0 0.0
0.0 0.0 0.0 0.0 0.0 0.0 0.0 0.0 0.0 0.0 23.8 17.2 8.5 3.7 0.6 0.1 0.4 0.2 0.2 0.1 0.0 0.0 0.0 0.0 2.3 1.8 1.6 1.8 1.5 0.8 1.2 0.6 0.7 0.4 0.0 0.0 0.0 0.2 0.5 2.1 3.1 1.4 1.3 1.5 1.1 0.0 0.0 0.0 0.0 0.0 0.0 0.0 0.0 0.0
0.0 0.0 0.0 0.0 0.0 0.0 0.0 3.7 9.0 24.1 27.2 17.4 4.2 0.1 0.4 0.7 0.3 0.3 0.4 0.1 0.0 0.6 1.9 3.4 3.0 1.6 0.5 0.9 0.2 0.1 0.1 0.3 0.0 0.2 0.0 0.0 0.0 0.0 0.6 1.2 2.4 1.5 1.9 2.3 1.8 0.5 0.0 0.0 0.0 0.0 0.0 0.0 0.0 0.0
0.0 0.0 0.0 0.0 0.0 0.0 2.6 14.2 29.4 27.2 20.4 8.6 1.0 1.1 1.6 1.1 0.6 0.3 0.5 1.0 1.8 2.4 2.7 5.0 1.7 1.3 0.5 0.5 0.2 0.0 0.0 0.0 0.0 0.0 0.0 0.0 0.0 0.0 0.0 0.8 1.9 2.1 2.1 1.7 0.9 0.0 0.3 0.2 0.1 0.2 0.2 0.2 0.2 0.3
0.0 0.0 0.0 0.0 0.0 3.4 24.3 25.9 20.2 14.3 8.9 3.8 3.1 3.5 2.5 0.9 0.0 0.1 0.0 0.8 1.6 3.2 4.4 5.6 3.5 0.9 0.0 0.2 0.3 0.0 0.0 0.0 0.1 0.0 0.0 0.0 0.0 0.0 0.0 0.0 0.0 0.0 0.6 0.7 0.7 0.5 0.3 0.1 0.1 0.2 0.4 0.6 0.6 0.7
0.0 0.0 0.0 0.0 0.0 7.6 11.9 17.0 9.7 7.5 5.6 5.7 5.4 4.8 3.2 1.7 0.5 0.4 0.2 0.1 0.6 2.5 3.8 3.2 0.5 0.1 0.0 0.1 0.2 0.1 0.0 0.0 0.0 0.0 0.0 0.0 0.0 0.0 0.0 0.0 0.0 0.0 0.0 0.0 0.0 0.0 0.0 0.0 0.0 0.0 0.0 0.0 0.0 0.0
0.0 0.0 0.0 0.0 13.3 9.6 7.6 7.3 8.0 7.2 6.9 7.6 9.7 6.8 6.5 4.0 2.9 1.9 3.4 1.5 4.7 5.4 2.4 1.0 0.1 0.0 0.2 0.1 0.0 0.0 0.1 0.0 0.0 0.0 0.0 0.0 0.0 0.0 0.0 0.0 0.0 0.0 0.0 0.0 0.0 0.0 0.0 0.0 0.0 0.0 0.0 0.0 0.0 0.0
0.8 0.0 2.8 1.0 13.9 9.4 5.8 4.9 5.5 6.9 5.5 8.7 10.1 8.9 8.4 7.2 7.4 7.1 6.3 8.4 8.1 3.4 1.1 0.4 0.5 0.6 0.3 0.3 0.2 0.6 0.0 0.3 0.0 0.0 0.0 0.0 0.0 0.0 0.0 0.0 0.0 0.0 0.0 0.0 0.0 0.0 0.0 0.0 0.0 0.0 0.0 0.0 0.0 0.0
0.0 1.6 12.8 16.2 13.5 6.5 7.8 5.4 5.3 6.5 6.8 8.8 9.3 7.9 9.0 7.8 8.6 9.5 10.6 7.1 4.5 2.4 1.5 1.4 1.1 1.3 1.1 0.7 0.4 0.1 0.1 0.0 0.0 0.2 0.1 0.0 0.0 0.0 0.0 0.0 0.0 0.0 0.0 0.0 0.0 0.0 0.0 0.0 0.0 0.0 0.0 0.0 0.0 0.0
0.0 16.5 16.6 11.6 7.2 5.3 4.2 4.3 3.6 3.9 5.9 6.6 6.6 5.8 5.0 6.6 7.5 7.4 5.5 2.4 2.2 2.4 1.9 2.1 1.7 0.9 1.1 1.2 1.4 1.1 0.7 0.3 0.1 0.1 0.7 0.5 0.1 0.0 0.0 0.0 0.0 0.0 0.0 0.0 0.0 0.0 0.0 0.0 0.0 0.0 0.0 0.0 0.0 0.0
16.2 15.2 8.8 5.8 2.5 1.0 1.1 2.3 3.1 2.8 3.1 4.4 4.9 4.5 4.7 5.3 6.1 4.2 2.3 1.9 3.0 4.0 3.4 2.4 1.6 1.3 1.0 1.1 1.0 1.3 1.3 1.6 1.2 0.4 0.2 1.0 0.7 0.4 0.1 0.5 0.2 0.0 0.0 0.0 0.0 0.0 0.0 0.0 0.0 0.0 0.0 0.0 0.0 0.1
7.4 4.1 2.4 0.9 0.5 0.1 0.5 1.1 2.1 2.6 3.0 4.2 4.2 3.7 4.1 4.3 3.2 2.8 1.8 2.1 3.3 4.2 4.3 3.7 2.4 1.4 1.5 1.7 1.5 1.7 1.6 1.6 1.3 1.0 1.6 1.9 1.3 1.3 1.0 0.9 0.8 0.5 0.0 0.3 0.2 0.3 0.3 0.2 0.1 0.1 0.2 0.0 0.6 0.9
2.4 0.3 0.0 0.0 0.0 0.1 0.2 0.5 0.8 1.1 2.5 2.5 1.9 2.0 2.6 2.8 2.4 1.3 1.2 2.1 3.2 3.9 4.3 4.3 3.8 2.4 2.1 2.1 2.3 2.4 2.6 2.5 2.5 1.2 2.4 2.8 2.5 1.7 1.2 1.1 0.6 0.4 0.3 1.4 1.1 0.9 1.0 1.0 1.0 1.1 1.5 1.6 1.7 1.6
0.0 0.0 0.0 0.0 0.0 0.2 0.3 0.5 0.6 0.7 1.0 0.6 1.5 1.7 1.6 1.2 0.6 0.7 1.3 1.9 3.2 3.8 4.2 4.5 4.5 3.3 2.6 2.4 2.7 3.0 3.3 3.6 3.5 3.3 3.0 3.4 3.5 3.4 2.8 3.1 2.8 2.7 2.2 2.4 2.5 2.4 2.2 2.2 2.2 2.1 2.4 2.3 1.9 2.0
0.1 0.0 0.0 0.6 0.9 1.2 1.2 0.8 0.4 0.3 0.1 0.1 0.2 0.4 0.2 0.3 0.5 0.8 1.2 2.1 2.9 3.4 3.8 4.0 4.2 4.2 3.7 3.4 3.5 3.6 3.4 3.6 3.1 2.6 1.9 1.9 2.2 2.8 4.0 4.2 4.2 4.8 4.0 3.4 3.2 3.0 2.5 2.6 2.8 3.0 2.9 2.7 2.5 2.6
0.4 0.6 0.6 1.5 1.2 0.8 0.6 0.2 0.1 0.0 0.1 0.2 0.3 0.2 0.0 0.2 0.5 0.8 1.2 1.6 2.5 3.1 3.7 4.1 4.1 4.3 4.1 3.9 4.1 4.2 4.1 4.0 4.0 3.0 2.3 2.0 1.6 3.1 4.0 4.3 4.3 3.6 4.1 4.2 3.7 3.8 4.0 4.2 3.9 3.9 3.4 3.2 3.1 3.0
1.2 1.0 1.0 0.9 0.7 0.6 0.7 1.0 1.0 0.8 0.5 0.2 0.0 0.0 0.0 0.0 0.3 0.6 1.0 1.5 2.0 2.7 3.2 3.5 3.7 4.2 4.2 4.1 4.2 4.0 3.8 3.9 4.1 4.2 3.9 3.7 3.7 3.6 4.3 4.5 4.3 4.6 4.7 4.5 3.6 3.6 3.2 2.3 1.7 1.9 1.9 2.1 2.5 2.2
1.3 0.7 0.4 0.3 0.5 1.1 1.0 0.8 0.6 0.4 0.3 0.2 0.0 0.0 0.1 0.1 0.1 0.3 0.5 0.9 1.4 1.8 2.5 2.8 2.8 3.0 3.2 3.3 3.4 3.6 3.6 3.4 3.2 3.8 3.7 3.3 3.1 3.4 3.9 3.9 4.3 4.4 4.6 4.9 4.5 4.1 3.8 3.3 3.8 3.6 3.5 3.6 3.5 3.1
1.5 1.0 0.7 0.6 0.6 0.5 0.5 0.3 0.2 0.2 0.3 0.2 0.1 0.0 0.0 0.1 0.1 0.1 0.3 0.6 0.9 1.4 1.7 2.1 2.4 2.7 2.9 3.0 3.1 3.5 3.8 4.3 4.6 4.9 5.1 4.9 4.4 4.2 4.2 4.1 3.9 4.3 4.3 4.3 4.5 4.8 5.0 4.9 4.6 4.1 4.1 4.0 3.9 3.8

GFSWCAN_prec_snow_111.txt.gz
Snowfall_Accumulation
0.0 0.0 0.0 0.0 0.0 0.0 0.0 0.0 0.0 0.0 0.0 0.0 0.0 0.0 0.0 0.0 0.0 0.0 0.0 0.0 0.0 0.0 0.0 0.0 0.0 0.0 0.0 0.0 0.0 0.0 0.0 0.0 0.0 3.5 2.0 1.3 0.3 0.0 0.4 0.0 0.4 0.5 1.6 1.6 1.8 2.4 0.3 0.0 0.0 0.0 0.0 0.0 0.0 0.0
0.0 0.0 0.0 0.0 0.0 0.0 0.0 0.0 0.0 0.0 0.0 0.0 0.0 0.0 0.0 0.0 0.0 0.0 0.0 0.0 0.0 0.0 0.0 0.0 0.0 0.0 0.0 0.0 0.0 0.0 0.0 0.8 2.3 2.6 3.0 2.7 2.6 2.2 0.7 0.7 0.0 0.3 0.0 0.4 0.6 0.1 0.0 0.0 0.0 0.0 0.0 0.0 0.0 0.0
0.0 0.0 0.0 0.0 0.0 0.0 0.0 0.0 0.0 0.0 0.0 0.0 0.0 0.0 0.0 0.0 0.0 0.0 0.0 0.0 0.0 0.1 0.0 0.0 0.0 0.0 0.0 0.0 0.0 0.1 0.0 0.0 0.0 3.0 1.9 0.2 1.6 1.3 0.6 1.0 0.4 0.2 0.3 0.0 0.0 0.0 0.0 0.0 0.0 0.0 0.0 0.0 0.0 0.0
0.0 0.0 0.0 0.0 0.0 0.0 0.0 0.0 0.0 0.0 0.0 0.0 0.0 0.0 0.0 0.0 0.0 0.0 0.0 0.0 0.0 0.0 2.2 0.0 0.0 0.0 0.0 0.0 0.0 0.0 0.0 0.0 0.0 2.2 2.7 1.3 0.3 0.8 0.2 0.3 0.1 0.0 0.0 0.1 0.0 0.0 0.0 0.0 0.0 0.0 0.0 0.0 0.0 0.0
0.0 0.0 0.0 0.0 0.0 0.0 0.0 0.0 0.0 0.0 0.0 0.0 0.0 0.0 0.0 0.0 0.0 0.0 0.0 0.0 0.0 1.2 2.5 0.8 0.0 0.0 0.0 0.0 0.0 0.0 0.0 0.0 0.3 1.4 1.2 1.9 0.9 1.2 0.0 0.0 0.0 0.0 0.0 0.0 0.0 0.0 0.0 0.0 0.0 0.0 0.0 0.0 0.0 0.0
0.0 0.0 0.0 0.0 0.0 0.0 0.0 0.0 0.0 0.0 0.0 0.0 0.0 0.0 0.0 0.0 0.0 0.0 0.0 0.0 0.0 0.0 4.3 3.3 0.0 0.0 0.0 0.0 0.0 0.0 0.0 0.0 0.2 0.4 1.1 0.0 0.0 1.7 1.0 0.6 0.0 0.0 0.0 0.0 0.0 0.0 0.0 0.0 0.0 0.0 0.0 0.0 0.0 0.0
0.0 0.0 0.0 0.0 0.0 0.0 0.0 0.0 0.0 0.0 0.0 0.0 0.0 0.0 0.0 0.0 0.0 0.0 0.0 0.0 0.0 0.0 2.6 5.9 4.2 0.0 0.0 0.0 0.0 0.0 0.0 0.2 0.7 0.8 1.9 1.0 0.0 2.0 2.8 0.1 0.0 0.0 0.0 0.0 0.0 0.0 0.0 0.0 0.0 0.0 0.0 0.0 0.0 0.0
0.0 0.0 0.0 0.0 0.0 0.0 0.0 0.0 0.0 0.0 0.0 0.0 0.0 0.0 0.0 0.0 0.0 0.0 0.0 0.0 0.0 0.0 2.7 4.9 2.2 2.3 0.0 0.2 0.3 0.0 0.3 1.1 1.6 1.6 0.4 0.0 0.2 1.0 1.9 0.0 0.0 0.0 0.1 0.0 0.0 0.0 0.0 0.0 0.0 0.0 0.0 0.0 0.0 0.0
0.0 0.0 0.0 0.0 0.0 0.0 0.0 0.0 0.0 0.0 0.0 0.0 0.0 0.0 0.0 0.0 0.0 0.0 0.0 0.0 0.0 0.0 3.1 3.2 3.4 5.9 0.0 0.0 0.2 0.3 0.7 5.9 0.0 1.8 1.2 0.8 0.0 3.5 0.1 0.0 0.1 0.1 0.2 0.0 0.0 0.0 0.0 0.0 0.0 0.0 0.0 0.0 0.0 0.0
0.0 0.0 0.0 0.0 0.0 0.0 0.0 0.0 0.0 0.0 0.0 0.0 0.0 0.0 8.6 0.0 0.0 0.0 0.0 3.1 3.8 3.4 2.2 1.6 1.1 2.8 0.0 0.0 3.9 0.5 0.9 3.6 6.4 0.0 0.0 1.4 0.6 0.0 0.1 0.1 0.1 0.0 0.0 0.0 0.0 0.0 0.0 0.0 0.0 0.0 0.0 0.0 0.0 0.0
0.0 0.0 0.0 0.0 0.0 0.0 0.0 0.0 0.0 0.0 0.0 0.0 5.7 4.2 0.0 0.0 0.0 0.1 6.1 4.2 1.8 1.6 0.3 0.0 0.1 1.8 0.1 4.6 5.2 3.4 7.5 3.5 8.4 3.8 3.4 4.7 3.4 2.2 0.5 0.4 0.0 0.0 0.0 0.0 0.0 0.0 0.0 0.0 0.0 0.0 0.0 0.0 0.0 0.0
0.0 0.0 0.0 0.0 0.0 0.0 0.0 0.0 0.0 0.0 7.2 0.0 0.0 0.0 0.0 1.7 9.2 8.6 7.0 2.1 1.1 0.0 0.1 0.6 1.6 1.8 0.9 1.1 3.2 1.5 4.9 4.9 3.9 1.0 4.1 3.7 4.4 2.7 1.4 0.2 0.0 0.0 0.0 0.0 0.0 0.0 0.0 0.0 0.0 0.0 0.0 0.0 0.0 0.0
0.0 0.0 0.0 0.0 0.0 0.0 0.0 0.0 0.0 0.0 0.0 0.0 7.1 17.8 15.9 14.6 11.9 4.2 2.9 1.0 0.2 0.0 0.0 2.2 3.0 0.0 1.1 2.6 1.9 2.0 1.6 2.2 1.2 2.6 1.6 2.3 1.0 0.9 1.8 1.1 0.1 0.0 1.2 2.0 0.9 0.4 0.1 0.0 0.0 0.0 0.1 2.1 1.2 2.4
0.0 0.0 0.0 0.0 0.0 0.0 0.0 0.0 0.0 0.0 7.1 5.0 23.3 22.0 9.3 6.7 0.7 1.0 0.4 0.0 0.0 0.0 0.0 0.7 1.8 2.6 0.0 2.8 2.8 2.5 0.9 1.5 1.8 0.7 0.1 0.0 0.0 0.1 0.2 1.2 1.2 1.2 0.1 0.4 0.8 1.2 0.4 0.8 1.1 0.8 1.3 0.6 0.6 0.4
0.0 0.0 0.0 0.0 0.0 0.0 0.0 0.0 0.0 0.0 7.1 20.8 11.5 7.8 3.9 0.8 0.3 0.1 0.4 0.2 0.0 0.0 0.0 0.0 0.0 1.3 2.3 3.2 2.2 1.0 1.5 0.7 0.6 0.5 0.0 0.0 0.1 0.1 0.1 1.0 3.6 3.2 1.8 0.8 0.5 0.3 0.9 1.1 0.8 0.3 0.0 0.0 0.0 0.0
0.0 0.0 0.0 0.0 0.0 0.0 0.0 0.0 0.0 0.0 25.2 18.1 9.4 4.5 0.6 0.1 0.4 0.2 0.2 0.1 0.0 0.0 0.0 0.0 2.3 1.8 1.6 1.8 1.5 0.8 1.2 0.6 0.7 0.4 0.0 0.0 0.0 0.2 0.5 2.1 3.1 1.4 1.3 1.5 1.1 0.0 0.0 0.0 0.0 0.0 0.0 0.0 0.0 0.0
0.0 0.0 0.0 0.0 0.0 0.0 0.0 3.7 9.0 26.9 29.1 18.9 4.9 0.1 0.4 0.7 0.3 0.3 0.4 0.1 0.0 0.6 1.9 3.4 3.0 1.6 0.5 0.9 0.2 0.1 0.1 0.3 0.0 0.2 0.0 0.0 0.0 0.0 0.6 1.2 2.4 1.5 1.9 2.3 1.8 0.5 0.0 0.0 0.0 0.0 0.0 0.0 0.0 0.0
0.0 0.0 0.0 0.0 0.0 0.0 2.6 14.2 31.2 28.6 21.6 9.4 1.0 1.1 1.7 1.2 0.6 0.3 0.5 1.0 1.8 2.4 2.7 5.0 1.7 1.3 0.5 0.5 0.2 0.0 0.0 0.0 0.0 0.0 0.0 0.0 0.0 0.0 0.0 0.8 1.9 2.1 2.1 1.7 0.9 0.0 0.3 0.2 0.1 0.2 0.2 0.2 0.2 0.3
0.0 0.0 0.0 0.0 0.0 3.4 26.2 27.4 20.6 14.6 9.5 3.8 3.1 3.5 2.5 0.9 0.0 0.1 0.0 0.8 1.6 3.2 4.4 5.6 3.5 0.9 0.0 0.2 0.3 0.0 0.0 0.0 0.1 0.0 0.0 0.0 0.0 0.0 0.0 0.0 0.0 0.0 0.6 0.7 0.7 0.5 0.3 0.1 0.1 0.2 0.4 0.6 0.6 0.7
0.0 0.0 0.0 0.0 0.0 7.6 12.6 18.1 9.7 7.5 5.6 5.7 5.4 5.3 3.6 1.8 0.5 0.4 0.2 0.1 0.6 2.5 3.8 3.2 0.5 0.1 0.0 0.1 0.2 0.1 0.0 0.0 0.0 0.0 0.0 0.0 0.0 0.0 0.0 0.0 0.0 0.0 0.0 0.0 0.0 0.0 0.0 0.0 0.0 0.0 0.0 0.0 0.0 0.0
0.0 0.0 0.0 0.0 13.8 10.0 8.2 7.9 8.0 7.2 6.9 7.6 9.7 7.4 7.3 4.2 2.9 2.0 3.6 1.5 4.8 5.4 2.4 1.0 0.1 0.0 0.2 0.1 0.0 0.0 0.1 0.0 0.0 0.0 0.0 0.0 0.0 0.0 0.0 0.0 0.0 0.0 0.0 0.0 0.0 0.0 0.0 0.0 0.0 0.0 0.0 0.0 0.0 0.0
0.8 0.0 2.8 1.0 14.4 9.4 6.9 4.9 5.5 6.9 5.5 9.2 11.2 9.8 9.1 8.0 7.7 7.1 6.4 8.7 8.3 3.4 1.1 0.4 0.5 0.6 0.3 0.3 0.2 0.6 0.0 0.3 0.0 0.0 0.0 0.0 0.0 0.0 0.0 0.0 0.0 0.0 0.0 0.0 0.0 0.0 0.0 0.0 0.0 0.0 0.0 0.0 0.0 0.0
0.0 1.6 12.8 16.9 14.6 6.5 8.5 6.0 6.2 8.2 7.9 9.4 9.7 8.5 9.5 8.6 9.6 9.5 10.6 7.1 4.5 2.4 1.5 1.4 1.1 1.3 1.1 0.7 0.4 0.1 0.1 0.0 0.0 0.2 0.1 0.0 0.0 0.0 0.0 0.0 0.0 0.0 0.0 0.0 0.0 0.0 0.0 0.0 0.0 0.0 0.0 0.0 0.0 0.0
0.0 18.4 18.4 12.6 7.2 6.4 4.7 4.7 4.1 4.4 6.5 7.4 7.0 6.1 5.3 7.0 8.3 8.7 6.4 2.6 2.2 2.4 2.0 2.2 1.7 0.9 1.1 1.2 1.4 1.1 0.7 0.3 0.1 0.1 0.7 0.5 0.1 0.0 0.0 0.0 0.0 0.0 0.0 0.0 0.0 0.0 0.0 0.0 0.0 0.0 0.0 0.0 0.0 0.0
18.3 17.5 10.8 6.9 3.0 1.5 1.3 2.4 3.1 2.8 3.1 4.5 5.1 4.8 4.9 5.7 6.5 4.5 2.4 1.9 3.1 4.1 3.4 2.4 1.6 1.3 1.0 1.1 1.0 1.3 1.3 1.6 1.2 0.4 0.2 1.0 0.7 0.4 0.1 0.5 0.2 0.0 0.0 0.0 0.0 0.0 0.0 0.0 0.0 0.0 0.0 0.0 0.0 0.1
9.4 5.4 3.7 1.4 0.5 0.1 0.5 1.1 2.1 2.6 3.0 4.2 4.2 3.9 4.5 4.7 3.2 2.8 1.8 2.1 3.3 4.2 4.3 3.7 2.4 1.4 1.5 1.7 1.5 1.7 1.6 1.6 1.3 1.0 1.6 1.9 1.3 1.3 1.0 0.9 0.8 0.5 0.0 0.3 0.2 0.3 0.3 0.2 0.1 0.1 0.2 0.0 0.6 0.9
3.7 0.8 0.2 0.0 0.0 0.1 0.2 0.5 0.8 1.1 2.5 2.5 1.9 2.0 2.6 3.3 2.4 1.3 1.2 2.1 3.2 3.9 4.3 4.3 3.8 2.4 2.1 2.1 2.3 2.4 2.6 2.5 2.5 1.2 2.4 2.8 2.5 1.7 1.2 1.1 0.6 0.4 0.3 1.4 1.1 0.9 1.0 1.0 1.0 1.1 1.5 1.6 1.7 1.6
0.3 0.1 0.0 0.0 0.0 0.2 0.3 0.5 0.6 0.7 1.0 0.6 1.5 1.7 1.6 1.2 0.6 0.7 1.3 1.9 3.2 3.8 4.2 4.5 4.5 3.3 2.6 2.4 2.7 3.0 3.3 3.6 3.5 3.3 3.0 3.4 3.5 3.4 2.8 3.1 2.8 2.7 2.2 2.4 2.5 2.4 2.2 2.2 2.2 2.1 2.4 2.3 1.9 2.0
0.1 0.0 0.0 0.6 0.9 1.2 1.2 0.8 0.4 0.3 0.1 0.1 0.2 0.4 0.2 0.3 0.5 0.8 1.2 2.1 2.9 3.4 3.8 4.0 4.2 4.2 3.7 3.4 3.5 3.6 3.4 3.6 3.1 2.6 1.9 1.9 2.2 2.8 4.0 4.2 4.2 4.8 4.0 3.4 3.2 3.0 2.5 2.6 2.8 3.0 2.9 2.7 2.5 2.6
0.4 0.6 0.6 1.5 1.2 0.8 0.6 0.2 0.1 0.0 0.1 0.2 0.3 0.2 0.0 0.2 0.5 0.8 1.2 1.6 2.5 3.1 3.7 4.1 4.1 4.3 4.1 3.9 4.1 4.2 4.1 4.0 4.0 3.0 2.3 2.0 1.6 3.1 4.0 4.3 4.3 3.6 4.1 4.2 3.7 3.8 4.0 4.2 3.9 3.9 3.4 3.2 3.1 3.0
1.2 1.0 1.0 1.0 0.7 0.6 0.7 1.1 1.3 1.1 0.8 0.6 0.5 0.6 0.5 0.0 0.3 0.6 1.0 1.5 2.0 2.7 3.2 3.5 3.8 4.2 4.2 4.1 4.2 4.0 3.8 3.9 4.1 4.2 3.9 3.7 3.7 3.6 4.3 4.5 4.3 4.6 4.7 4.5 3.6 3.6 3.2 2.3 1.7 1.9 1.9 2.1 2.5 2.2
1.5 0.9 0.4 0.3 0.5 1.5 1.4 1.2 1.1 0.8 0.8 0.7 0.5 0.3 0.3 0.3 0.2 0.3 0.5 0.9 1.4 1.8 2.5 2.8 2.8 3.0 3.2 3.3 3.4 3.6 3.6 3.4 3.2 3.8 3.7 3.3 3.1 3.4 3.9 3.9 4.3 4.4 4.6 4.9 4.5 4.1 3.8 3.3 3.8 3.6 3.5 3.6 3.5 3.1
1.9 1.5 0.7 1.0 1.1 1.2 1.1 0.9 0.7 0.7 0.8 0.6 0.5 0.3 0.1 0.1 0.1 0.1 0.3 0.6 0.9 1.4 1.7 2.1 2.4 2.7 2.9 3.0 3.1 3.5 3.8 4.3 4.6 4.9 5.1 4.9 4.4 4.2 4.2 4.1 3.9 4.3 4.3 4.3 4.5 4.8 5.0 4.9 4.6 4.1 4.1 4.0 3.9 3.8

GFSWCAN_prec_snow_114.txt.gz
Snowfall_Accumulation
0.0 0.0 0.0 0.0 0.0 0.0 0.0 0.0 0.0 0.0 0.0 0.0 0.0 0.0 0.0 0.0 0.0 0.0 0.0 0.0 0.0 0.0 0.0 0.0 0.0 0.0 0.0 0.0 0.0 0.0 0.0 0.0 0.0 3.5 2.0 1.3 0.3 0.0 0.4 0.0 0.4 0.5 1.6 1.6 1.8 2.4 0.3 0.0 0.0 0.0 0.0 0.0 0.0 0.0
0.0 0.0 0.0 0.0 0.0 0.0 0.0 0.0 0.0 0.0 0.0 0.0 0.0 0.0 0.0 0.0 0.0 0.0 0.0 0.0 0.0 0.0 0.0 0.0 0.0 0.0 0.0 0.0 0.0 0.0 0.0 0.8 2.3 2.6 3.0 2.7 2.6 2.2 0.7 0.7 0.0 0.3 0.0 0.4 0.6 0.1 0.0 0.0 0.0 0.0 0.0 0.0 0.0 0.0
0.0 0.0 0.0 0.0 0.0 0.0 0.0 0.0 0.0 0.0 0.0 0.0 0.0 0.0 0.0 0.0 0.0 0.0 0.0 0.0 0.0 0.1 0.0 0.0 0.0 0.0 0.0 0.0 0.0 0.1 0.0 0.0 0.0 3.0 1.9 0.2 1.6 1.3 0.6 1.0 0.4 0.2 0.3 0.0 0.0 0.0 0.0 0.0 0.0 0.0 0.0 0.0 0.0 0.0
0.0 0.0 0.0 0.0 0.0 0.0 0.0 0.0 0.0 0.0 0.0 0.0 0.0 0.0 0.0 0.0 0.0 0.0 0.0 0.0 0.0 0.0 2.2 0.0 0.0 0.0 0.0 0.0 0.0 0.0 0.0 0.0 0.0 2.2 2.7 1.3 0.3 0.8 0.2 0.3 0.1 0.0 0.0 0.1 0.0 0.0 0.0 0.0 0.0 0.0 0.0 0.0 0.0 0.0
0.0 0.0 0.0 0.0 0.0 0.0 0.0 0.0 0.0 0.0 0.0 0.0 0.0 0.0 0.0 0.0 0.0 0.0 0.0 0.0 0.0 1.2 2.5 0.8 0.0 0.0 0.0 0.0 0.0 0.0 0.0 0.0 0.3 1.4 1.2 1.9 0.9 1.2 0.0 0.0 0.0 0.0 0.0 0.0 0.0 0.0 0.0 0.0 0.0 0.0 0.0 0.0 0.0 0.0
0.0 0.0 0.0 0.0 0.0 0.0 0.0 0.0 0.0 0.0 0.0 0.0 0.0 0.0 0.0 0.0 0.0 0.0 0.0 0.0 0.0 0.0 4.3 3.3 0.0 0.0 0.0 0.0 0.0 0.0 0.0 0.0 0.2 0.4 1.1 0.0 0.0 1.7 1.0 0.6 0.0 0.0 0.0 0.0 0.0 0.0 0.0 0.0 0.0 0.0 0.0 0.0 0.0 0.0
0.0 0.0 0.0 0.0 0.0 0.0 0.0 0.0 0.0 0.0 0.0 0.0 0.0 0.0 0.0 0.0 0.0 0.0 0.0 0.0 0.0 0.0 2.6 5.9 4.2 0.0 0.0 0.0 0.0 0.0 0.0 0.2 0.7 0.8 1.9 1.0 0.0 2.0 2.8 0.1 0.0 0.0 0.0 0.0 0.0 0.0 0.0 0.0 0.0 0.0 0.0 0.0 0.0 0.0
0.0 0.0 0.0 0.0 0.0 0.0 0.0 0.0 0.0 0.0 0.0 0.0 0.0 0.0 0.0 0.0 0.0 0.0 0.0 0.0 0.0 0.0 2.7 4.9 2.2 2.3 0.0 0.2 0.3 0.0 0.3 1.1 1.6 1.6 0.4 0.0 0.2 1.0 1.9 0.0 0.0 0.0 0.1 0.0 0.0 0.0 0.0 0.0 0.0 0.0 0.0 0.0 0.0 0.0
0.0 0.0 0.0 0.0 0.0 0.0 0.0 0.0 0.0 0.0 0.0 0.0 0.0 0.0 0.0 0.0 0.0 0.0 0.0 0.0 0.0 0.0 3.1 3.2 3.4 5.9 0.0 0.0 0.2 0.3 0.7 5.9 0.0 1.8 1.2 0.8 0.0 3.5 0.1 0.0 0.1 0.1 0.2 0.0 0.0 0.0 0.0 0.0 0.0 0.0 0.0 0.0 0.0 0.0
0.0 0.0 0.0 0.0 0.0 0.0 0.0 0.0 0.0 0.0 0.0 0.0 0.0 0.0 8.6 0.0 0.0 0.0 0.0 3.1 3.8 3.4 2.2 1.6 1.1 2.8 0.0 0.0 3.9 0.5 0.9 3.6 6.4 0.0 0.0 1.4 0.6 0.0 0.1 0.1 0.1 0.0 0.0 0.0 0.0 0.0 0.0 0.0 0.0 0.0 0.0 0.0 0.0 0.0
0.0 0.0 0.0 0.0 0.0 0.0 0.0 0.0 0.0 0.0 0.0 0.0 5.7 4.2 0.0 0.0 0.0 0.1 6.1 5.4 2.8 2.5 0.5 0.0 0.1 1.8 0.1 4.6 5.2 3.4 7.5 3.5 8.4 3.8 3.4 4.7 3.4 2.2 0.5 0.4 0.0 0.0 0.0 0.0 0.0 0.0 0.0 0.0 0.0 0.0 0.0 0.0 0.0 0.0
0.0 0.0 0.0 0.0 0.0 0.0 0.0 0.0 0.0 0.0 7.2 0.0 0.0 0.0 0.0 1.7 9.2 8.6 7.0 2.1 1.5 0.0 0.1 0.6 1.6 1.8 0.9 1.1 3.2 1.5 4.9 4.9 3.9 1.0 4.1 3.7 4.4 2.7 1.4 0.2 0.0 0.0 0.0 0.0 0.0 0.0 0.0 0.0 0.0 0.0 0.0 0.0 0.0 0.0
0.0 0.0 0.0 0.0 0.0 0.0 0.0 0.0 0.0 0.0 0.0 0.0 7.1 18.5 16.4 15.1 12.1 4.5 2.9 1.1 0.2 0.0 0.0 2.2 3.0 0.0 1.1 2.6 1.9 2.0 1.6 2.2 1.2 2.6 1.6 2.3 1.0 0.9 1.8 1.1 0.1 0.0 1.2 2.0 0.9 0.4 0.1 0.0 0.0 0.0 0.1 2.1 1.2 2.4
0.0 0.0 0.0 0.0 0.0 0.0 0.0 0.0 0.0 0.0 7.1 6.4 24.5 23.2 9.7 6.9 0.7 1.0 0.4 0.0 0.0 0.0 0.0 0.7 1.8 2.6 0.0 2.8 2.8 2.5 0.9 1.5 1.8 0.7 0.1 0.0 0.0 0.1 0.2 1.2 1.2 1.2 0.1 0.4 0.8 1.2 0.4 0.8 1.1 0.8 1.3 0.6 0.6 0.4
0.0 0.0 0.0 0.0 0.0 0.0 0.0 0.0 0.0 0.0 7.1 22.7 12.5 8.2 4.1 0.8 0.3 0.1 0.4 0.2 0.0 0.0 0.0 0.0 0.0 1.3 2.3 3.2 2.2 1.0 1.5 0.7 0.6 0.5 0.0 0.0 0.1 0.1 0.1 1.0 3.6 3.2 1.8 0.8 0.5 0.3 0.9 1.1 0.8 0.3 0.0 0.0 0.0 0.0
0.0 0.0 0.0 0.0 0.0 0.0 0.0 0.0 0.0 0.0 25.2 19.3 10.3 4.7 0.6 0.1 0.4 0.2 0.2 0.1 0.0 0.0 0.0 0.0 2.3 1.8 1.7 1.8 1.5 0.8 1.2 0.6 0.7 0.4 0.0 0.0 0.0 0.2 0.5 2.1 3.1 1.4 1.3 1.5 1.1 0.0 0.0 0.0 0.0 0.0 0.0 0.0 0.0 0.0
0.0 0.0 0.0 0.0 0.0 0.0 0.0 3.7 9.0 26.9 32.3 21.1 5.8 0.1 0.4 0.7 0.3 0.3 0.4 0.1 0.0 0.6 1.9 3.4 3.0 1.6 0.5 0.9 0.2 0.1 0.1 0.3 0.0 0.2 0.0 0.0 0.0 0.0 0.6 1.2 2.4 1.5 1.9 2.3 1.8 0.5 0.0 0.0 0.0 0.0 0.0 0.0 0.0 0.0
0.0 0.0 0.0 0.0 0.0 0.0 2.6 14.2 31.2 31.5 23.9 10.8 1.4 1.1 1.7 1.2 0.6 0.3 0.5 1.0 1.8 2.4 2.7 5.0 1.7 1.3 0.5 0.5 0.2 0.0 0.0 0.0 0.0 0.0 0.0 0.0 0.0 0.0 0.0 0.8 1.9 2.1 2.1 1.7 0.9 0.0 0.3 0.2 0.1 0.2 0.2 0.2 0.2 0.3
0.0 0.0 0.0 0.0 0.0 3.4 28.2 30.1 22.4 16.1 10.4 4.1 3.1 3.5 2.5 0.9 0.0 0.1 0.0 0.8 1.6 3.2 4.4 5.6 3.7 0.9 0.0 0.2 0.3 0.0 0.0 0.0 0.1 0.0 0.0 0.0 0.0 0.0 0.0 0.0 0.0 0.0 0.6 0.7 0.7 0.5 0.3 0.1 0.1 0.2 0.4 0.6 0.6 0.7
0.0 0.0 0.0 0.0 0.0 7.6 13.5 19.9 11.0 8.1 6.0 5.9 5.4 5.3 3.6 1.8 0.5 0.4 0.2 0.1 0.6 3.9 4.9 3.2 0.5 0.1 0.0 0.1 0.2 0.1 0.0 0.0 0.0 0.0 0.0 0.0 0.0 0.0 0.0 0.0 0.0 0.0 0.0 0.0 0.0 0.0 0.0 0.0 0.0 0.0 0.0 0.0 0.0 0.0
0.0 0.0 0.0 0.0 13.8 10.8 8.6 8.4 8.5 7.5 7.0 7.6 9.7 7.4 7.3 4.2 2.9 2.0 3.6 1.5 6.6 7.0 3.3 1.0 0.1 0.0 0.2 0.1 0.0 0.0 0.1 0.0 0.0 0.0 0.0 0.0 0.0 0.0 0.0 0.0 0.0 0.0 0.0 0.0 0.0 0.0 0.0 0.0 0.0 0.0 0.0 0.0 0.0 0.0
0.8 0.0 2.8 1.0 14.8 9.8 7.1 5.0 5.5 6.9 5.5 9.2 11.2 9.8 9.1 8.0 7.7 7.4 6.4 8.7 9.8 4.0 1.1 0.5 0.5 0.6 0.3 0.3 0.2 0.6 0.0 0.3 0.0 0.0 0.0 0.0 0.0 0.0 0.0 0.0 0.0 0.0 0.0 0.0 0.0 0.0 0.0 0.0 0.0 0.0 0.0 0.0 0.0 0.0
0.0 1.6 13.7 17.9 15.2 6.7 8.8 6.4 6.2 8.2 7.9 9.5 9.7 8.5 9.5 8.6 9.6 9.5 10.6 7.1 4.5 2.4 1.5 1.4 1.1 1.3 1.1 0.7 0.4 0.1 0.1 0.0 0.0 0.2 0.1 0.0 0.0 0.0 0.0 0.0 0.0 0.0 0.0 0.0 0.0 0.0 0.0 0.0 0.0 0.0 0.0 0.0 0.0 0.0
0.0 19.2 19.8 13.4 7.5 6.6 4.8 5.3 4.1 4.4 7.4 7.4 7.0 6.1 5.3 7.0 9.0 9.5 6.4 2.6 2.2 2.4 2.0 2.9 2.4 1.3 1.3 1.3 1.4 1.1 0.7 0.3 0.1 0.1 0.7 0.5 0.1 0.0 0.0 0.0 0.0 0.0 0.0 0.0 0.0 0.0 0.0 0.0 0.0 0.0 0.0 0.0 0.0 0.0
20.2 19.2 11.8 7.5 3.2 1.5 1.3 2.6 3.8 3.5 3.1 4.5 5.1 5.4 4.9 5.7 7.5 5.1 2.6 1.9 3.1 4.1 3.4 2.7 2.1 1.8 1.5 1.4 1.0 1.3 1.3 1.6 1.2 0.4 0.2 1.0 0.7 0.4 0.1 0.5 0.2 0.0 0.0 0.0 0.0 0.0 0.0 0.0 0.0 0.0 0.0 0.0 0.0 0.1
10.9 6.8 4.5 1.6 0.5 0.1 0.5 1.1 2.1 2.6 3.0 4.2 4.6 4.3 5.3 5.7 4.0 3.1 1.8 2.1 3.3 4.3 4.4 3.7 2.6 1.6 1.7 1.7 1.5 1.7 1.6 1.6 1.3 1.0 1.6 1.9 1.3 1.3 1.0 0.9 0.8 0.5 0.0 0.3 0.2 0.3 0.3 0.2 0.1 0.1 0.2 0.0 0.6 0.9
4.7 1.4 0.3 0.0 0.0 0.1 0.2 0.6 0.8 1.1 2.6 2.5 1.9 2.0 2.6 3.7 2.7 1.3 1.2 2.1 3.2 3.9 4.3 4.3 3.8 2.4 2.2 2.1 2.3 2.4 2.6 2.5 2.5 1.2 2.4 2.8 2.5 1.7 1.2 1.1 0.6 0.4 0.3 1.4 1.1 0.9 1.0 1.0 1.0 1.1 1.5 1.6 1.7 1.6
0.6 0.1 0.0 0.0 0.0 0.2 0.3 0.5 0.6 0.7 1.0 0.6 1.5 1.7 1.6 1.2 0.6 0.7 1.3 1.9 3.2 4.1 4.8 5.2 5.0 3.4 2.6 2.4 2.7 3.0 3.3 3.6 3.5 3.4 3.1 3.4 3.5 3.4 2.8 3.1 2.8 2.7 2.2 2.4 2.5 2.4 2.2 2.2 2.2 2.1 2.4 2.3 1.9 2.0
0.1 0.0 0.0 0.6 0.9 1.2 1.2 0.8 0.4 0.3 0.1 0.1 0.2 0.4 0.2 0.3 0.5 0.8 1.2 2.1 3.4 4.3 4.8 5.0 4.8 4.3 3.7 3.4 3.5 3.6 3.4 3.6 3.1 2.6 1.9 1.9 2.2 2.8 4.0 4.2 4.2 4.8 4.0 3.4 3.2 3.0 2.5 2.6 2.8 3.0 2.9 2.7 2.5 2.6
0.5 0.6 0.6 1.5 1.2 0.8 0.6 0.2 0.1 0.1 0.1 0.2 0.3 0.2 0.0 0.2 0.5 0.8 1.2 1.6 2.7 3.6 4.4 4.9 4.7 4.6 4.1 3.9 4.1 4.2 4.1 4.0 4.0 3.0 2.3 2.0 1.6 3.1 4.0 4.3 4.3 3.6 4.1 4.2 3.7 3.8 4.0 4.2 3.9 3.9 3.4 3.2 3.1 3.0
1.2 1.0 1.0 1.0 0.7 0.6 0.7 1.2 1.3 1.1 0.8 0.6 0.5 0.6 0.5 0.0 0.3 0.6 1.0 1.5 2.0 2.8 3.6 4.3 4.8 5.0 4.5 4.3 4.3 4.0 3.8 3.9 4.1 4.2 3.9 3.7 3.7 3.6 4.3 4.5 4.3 4.6 4.7 4.5 3.6 3.6 3.2 2.3 1.7 1.9 1.9 2.1 2.5 2.2
1.5 0.9 0.4 0.3 0.5 1.6 1.5 1.3 1.1 0.8 0.8 0.7 0.5 0.3 0.3 0.3 0.2 0.3 0.5 0.9 1.5 2.2 2.9 3.4 3.5 3.7 3.8 3.5 3.4 3.6 3.6 3.4 3.2 3.8 3.7 3.3 3.1 3.4 3.9 3.9 4.3 4.4 4.6 4.9 4.5 4.1 3.8 3.3 3.8 3.6 3.5 3.6 3.5 3.1
2.0 1.5 0.7 1.0 1.4 1.2 1.4 0.9 0.7 0.9 0.9 0.8 0.5 0.3 0.1 0.3 0.3 0.1 0.3 0.7 1.3 1.8 2.2 2.6 2.9 3.2 3.1 3.1 3.1 3.5 3.8 4.3 4.6 4.9 5.1 4.9 4.4 4.2 4.2 4.1 3.9 4.3 4.3 4.3 4.5 4.8 5.0 4.9 4.6 4.1 4.1 4.0 3.9 3.8

GFSWCAN_prec_snow_117.txt.gz
Snowfall_Accumulation
0.0 0.0 0.0 0.0 0.0 0.0 0.0 0.0 0.0 0.0 0.0 0.0 0.0 0.0 0.0 0.0 0.0 0.0 0.0 0.0 0.0 0.0 0.0 0.0 0.0 0.0 0.0 0.0 0.0 0.0 0.0 0.0 0.0 3.5 2.0 1.3 0.3 0.0 0.4 0.0 0.4 0.5 1.6 1.6 1.8 2.4 0.3 0.0 0.0 0.0 0.0 0.0 0.0 0.0
0.0 0.0 0.0 0.0 0.0 0.0 0.0 0.0 0.0 0.0 0.0 0.0 0.0 0.0 0.0 0.0 0.0 0.0 0.0 0.0 0.0 0.0 0.0 0.0 0.0 0.0 0.0 0.0 0.0 0.0 0.0 0.8 2.3 2.6 3.0 2.7 2.6 2.2 0.7 0.7 0.0 0.3 0.0 0.4 0.6 0.1 0.0 0.0 0.0 0.0 0.0 0.0 0.0 0.0
0.0 0.0 0.0 0.0 0.0 0.0 0.0 0.0 0.0 0.0 0.0 0.0 0.0 0.0 0.0 0.0 0.0 0.0 0.0 0.0 0.0 0.1 0.0 0.0 0.0 0.0 0.0 0.0 0.0 0.1 0.0 0.0 0.0 3.0 1.9 0.2 1.6 1.3 0.6 1.0 0.4 0.2 0.3 0.0 0.0 0.0 0.0 0.0 0.0 0.0 0.0 0.0 0.0 0.0
0.0 0.0 0.0 0.0 0.0 0.0 0.0 0.0 0.0 0.0 0.0 0.0 0.0 0.0 0.0 0.0 0.0 0.0 0.0 0.0 0.0 0.0 2.2 0.0 0.0 0.0 0.0 0.0 0.0 0.0 0.0 0.0 0.0 2.2 2.7 1.3 0.3 0.8 0.2 0.3 0.1 0.0 0.0 0.1 0.0 0.0 0.0 0.0 0.0 0.0 0.0 0.0 0.0 0.0
0.0 0.0 0.0 0.0 0.0 0.0 0.0 0.0 0.0 0.0 0.0 0.0 0.0 0.0 0.0 0.0 0.0 0.0 0.0 0.0 0.0 1.2 2.5 0.8 0.0 0.0 0.0 0.0 0.0 0.0 0.0 0.0 0.3 1.4 1.2 1.9 0.9 1.2 0.0 0.0 0.0 0.0 0.0 0.0 0.0 0.0 0.0 0.0 0.0 0.0 0.0 0.0 0.0 0.0
0.0 0.0 0.0 0.0 0.0 0.0 0.0 0.0 0.0 0.0 0.0 0.0 0.0 0.0 0.0 0.0 0.0 0.0 0.0 0.0 0.0 0.0 4.3 3.3 0.0 0.0 0.0 0.0 0.0 0.0 0.0 0.0 0.2 0.4 1.1 0.0 0.0 1.7 1.0 0.6 0.0 0.0 0.0 0.0 0.0 0.0 0.0 0.0 0.0 0.0 0.0 0.0 0.0 0.0
0.0 0.0 0.0 0.0 0.0 0.0 0.0 0.0 0.0 0.0 0.0 0.0 0.0 0.0 0.0 0.0 0.0 0.0 0.0 0.0 0.0 0.0 2.6 5.9 4.2 0.0 0.0 0.0 0.0 0.0 0.0 0.2 0.7 0.8 1.9 1.0 0.0 2.0 2.8 0.1 0.0 0.0 0.0 0.0 0.0 0.0 0.0 0.0 0.0 0.0 0.0 0.0 0.0 0.0
0.0 0.0 0.0 0.0 0.0 0.0 0.0 0.0 0.0 0.0 0.0 0.0 0.0 0.0 0.0 0.0 0.0 0.0 0.0 0.0 0.0 0.0 2.7 4.9 2.2 2.3 0.0 0.2 0.3 0.0 0.3 1.1 1.6 1.6 0.4 0.0 0.2 1.0 1.9 0.0 0.0 0.0 0.1 0.0 0.0 0.0 0.0 0.0 0.0 0.0 0.0 0.0 0.0 0.0
0.0 0.0 0.0 0.0 0.0 0.0 0.0 0.0 0.0 0.0 0.0 0.0 0.0 0.0 0.0 0.0 0.0 0.0 0.0 0.0 0.0 0.0 3.1 3.3 3.4 5.9 0.0 0.0 0.2 0.3 0.7 5.9 0.0 1.8 1.2 0.8 0.0 3.5 0.1 0.0 0.1 0.1 0.2 0.0 0.0 0.0 0.0 0.0 0.0 0.0 0.0 0.0 0.0 0.0
0.0 0.0 0.0 0.0 0.0 0.0 0.0 0.0 0.0 0.0 0.0 0.0 0.0 0.0 8.6 0.0 0.0 0.0 0.0 3.1 3.8 3.4 2.2 1.7 1.1 2.8 0.0 0.0 3.9 0.5 0.9 3.6 6.4 0.0 0.0 1.4 0.6 0.0 0.1 0.1 0.1 0.0 0.0 0.0 0.0 0.0 0.0 0.0 0.0 0.0 0.0 0.0 0.0 0.0
0.0 0.0 0.0 0.0 0.0 0.0 0.0 0.0 0.0 0.0 0.0 0.0 5.7 4.2 0.0 0.0 0.0 0.1 6.1 5.4 2.8 3.1 0.9 0.1 0.1 1.8 0.1 4.6 5.2 3.4 7.5 3.5 8.4 3.8 3.4 4.7 3.4 2.2 0.5 0.4 0.0 0.0 0.0 0.0 0.0 0.0 0.0 0.0 0.0 0.0 0.0 0.0 0.0 0.0
0.0 0.0 0.0 0.0 0.0 0.0 0.0 0.0 0.0 0.0 7.2 0.0 0.0 0.0 0.0 1.7 9.3 8.6 7.0 2.2 1.5 0.0 0.1 0.6 1.6 1.8 0.9 1.1 3.2 1.5 4.9 4.9 3.9 1.0 4.1 3.7 4.4 2.7 1.4 0.2 0.0 0.0 0.0 0.0 0.0 0.0 0.0 0.0 0.0 0.0 0.0 0.0 0.0 0.0
0.0 0.0 0.0 0.0 0.0 0.0 0.0 0.0 0.0 0.0 0.0 0.0 7.1 19.4 16.8 15.6 12.2 4.6 3.0 1.2 0.2 0.0 0.0 2.2 3.0 0.0 1.1 2.6 1.9 2.0 1.6 2.2 1.2 2.6 1.6 2.3 1.0 0.9 1.8 1.1 0.1 0.0 1.2 2.0 0.9 0.4 0.1 0.0 0.0 0.0 0.1 2.1 1.2 2.4
0.0 0.0 0.0 0.0 0.0 0.0 0.0 0.0 0.0 0.0 7.1 7.8 25.6 24.3 10.2 7.2 0.7 1.0 0.4 0.0 0.0 0.0 0.0 0.7 1.8 2.6 0.0 2.8 2.8 2.5 0.9 1.5 1.8 0.7 0.1 0.0 0.0 0.1 0.2 1.2 1.2 1.2 0.1 0.4 0.8 1.2 0.4 0.8 1.1 0.8 1.3 0.6 0.6 0.4
0.0 0.0 0.0 0.0 0.0 0.0 0.0 0.0 0.0 0.0 7.1 24.3 13.3 8.5 4.1 0.8 0.3 0.1 0.4 0.2 0.0 0.0 0.0 0.0 0.0 1.3 2.3 3.2 2.2 1.0 1.5 0.7 0.6 0.5 0.0 0.0 0.1 0.1 0.1 1.0 3.6 3.2 1.8 0.8 0.5 0.3 0.9 1.1 0.8 0.3 0.0 0.0 0.0 0.0
0.0 0.0 0.0 0.0 0.0 0.0 0.0 0.0 0.0 0.0 27.1 20.5 10.8 4.8 0.6 0.1 0.4 0.2 0.2 0.1 0.0 0.0 0.0 0.0 2.3 1.8 1.7 1.8 1.5 0.8 1.2 0.6 0.7 0.4 0.0 0.0 0.0 0.2 0.5 2.1 3.1 1.4 1.3 1.5 1.1 0.0 0.0 0.0 0.0 0.0 0.0 0.0 0.0 0.0
0.0 0.0 0.0 0.0 0.0 0.0 0.0 3.7 9.0 31.4 34.6 22.2 6.0 0.1 0.4 0.7 0.3 0.3 0.4 0.1 0.0 0.6 1.9 3.4 3.0 1.6 0.5 0.9 0.2 0.1 0.1 0.3 0.0 0.2 0.0 0.0 0.0 0.0 0.6 1.2 2.4 1.5 1.9 2.3 1.8 0.5 0.0 0.0 0.0 0.0 0.0 0.0 0.0 0.0
0.0 0.0 0.0 0.0 0.0 0.0 2.6 14.2 31.2 34.1 25.3 11.1 1.4 1.1 1.7 1.2 0.6 0.3 0.5 1.0 1.8 2.4 2.7 5.0 1.7 1.3 0.5 0.5 0.2 0.0 0.0 0.0 0.0 0.0 0.0 0.0 0.0 0.0 0.0 0.8 1.9 2.1 2.1 1.7 0.9 0.0 0.3 0.2 0.1 0.2 0.2 0.2 0.2 0.3
0.0 0.0 0.0 0.0 0.0 3.4 32.4 33.6 24.5 17.3 10.8 4.1 3.1 3.5 2.5 0.9 0.0 0.1 0.0 0.8 1.6 3.2 4.4 5.6 3.7 0.9 0.0 0.2 0.3 0.0 0.0 0.0 0.1 0.0 0.0 0.0 0.0 0.0 0.0 0.0 0.0 0.0 0.6 0.7 0.7 0.5 0.3 0.1 0.1 0.2 0.4 0.6 0.6 0.7
0.0 0.0 0.0 0.0 0.0 9.9 15.6 21.8 12.1 8.9 6.0 5.9 5.4 5.3 3.6 1.8 0.5 0.4 0.2 0.1 0.6 3.9 4.9 3.2 0.5 0.1 0.0 0.1 0.2 0.1 0.0 0.0 0.0 0.0 0.0 0.0 0.0 0.0 0.0 0.0 0.0 0.0 0.0 0.0 0.0 0.0 0.0 0.0 0.0 0.0 0.0 0.0 0.0 0.0
0.0 0.0 0.0 0.0 13.8 13.1 9.9 9.2 9.2 8.1 7.3 7.6 9.7 7.4 7.3 4.2 2.9 2.0 3.6 1.5 6.6 7.2 3.3 1.0 0.1 0.0 0.2 0.1 0.0 0.0 0.1 0.0 0.0 0.0 0.0 0.0 0.0 0.0 0.0 0.0 0.0 0.0 0.0 0.0 0.0 0.0 0.0 0.0 0.0 0.0 0.0 0.0 0.0 0.0
0.8 0.0 2.8 1.0 16.9 11.3 7.8 5.4 5.5 6.9 5.6 9.3 11.2 9.8 9.2 8.1 7.7 7.4 6.4 8.7 9.9 4.0 1.1 0.5 0.5 0.6 0.3 0.3 0.2 0.6 0.0 0.3 0.0 0.0 0.0 0.0 0.0 0.0 0.0 0.0 0.0 0.0 0.0 0.0 0.0 0.0 0.0 0.0 0.0 0.0 0.0 0.0 0.0 0.0
0.0 1.6 13.7 20.0 16.9 7.8 9.6 6.7 6.3 8.3 7.9 9.6 9.9 8.6 9.6 8.6 9.6 9.5 10.7 7.2 4.5 2.4 1.5 1.4 1.1 1.3 1.1 0.7 0.4 0.1 0.1 0.0 0.0 0.2 0.1 0.0 0.0 0.0 0.0 0.0 0.0 0.0 0.0 0.0 0.0 0.0 0.0 0.0 0.0 0.0 0.0 0.0 0.0 0.0
0.0 20.6 21.7 14.7 7.9 7.0 5.4 5.9 4.2 4.4 7.5 7.5 7.1 6.2 5.4 7.0 9.1 9.5 6.4 2.6 2.2 2.4 2.0 2.9 2.4 1.3 1.3 1.3 1.4 1.1 0.7 0.3 0.1 0.1 0.7 0.5 0.1 0.0 0.0 0.0 0.0 0.0 0.0 0.0 0.0 0.0 0.0 0.0 0.0 0.0 0.0 0.0 0.0 0.0
21.8 20.4 12.9 8.7 3.7 1.6 1.4 2.8 3.9 3.5 3.1 4.5 5.1 5.4 5.0 5.8 7.6 5.2 2.6 1.9 3.1 4.1 3.4 2.7 2.1 1.8 1.5 1.4 1.0 1.3 1.3 1.6 1.2 0.5 0.2 1.0 0.7 0.4 0.1 0.6 0.2 0.0 0.0 0.0 0.0 0.0 0.0 0.0 0.0 0.0 0.0 0.0 0.0 0.1
11.9 7.5 5.0 1.9 0.7 0.1 0.5 1.1 2.1 2.6 3.0 4.2 4.6 4.3 5.3 5.9 4.0 3.1 1.8 2.1 3.3 4.3 4.4 3.7 2.6 1.6 1.7 1.7 2.9 2.9 2.1 1.8 1.4 1.0 1.6 1.9 1.3 1.3 1.0 0.9 0.8 0.5 0.0 0.3 0.2 0.3 0.3 0.2 0.1 0.1 0.2 0.0 0.6 0.9
5.5 1.8 0.4 0.0 0.0 0.1 0.2 0.6 0.8 1.1 2.6 2.5 1.9 2.0 2.6 4.0 2.7 1.3 1.2 2.1 3.2 3.9 4.3 4.3 3.8 2.4 2.2 3.2 3.4 3.4 3.2 2.8 2.6 1.2 2.4 2.8 2.5 1.7 1.2 1.1 0.6 0.4 0.3 1.5 1.1 0.9 1.0 1.0 1.0 1.1 1.5 1.6 1.7 1.6
1.0 0.1 0.0 0.0 0.0 0.2 0.3 0.5 0.6 0.7 1.0 0.6 1.5 1.7 1.6 1.2 0.6 0.7 1.3 1.9 3.2 4.1 4.9 5.2 5.0 4.4 4.1 3.8 3.7 3.7 3.7 3.7 3.5 3.4 3.1 3.4 3.5 3.4 2.8 3.1 2.8 2.7 2.2 2.4 2.5 2.4 2.2 2.2 2.2 2.1 2.4 2.3 1.9 2.0
0.1 0.0 0.0 0.6 0.9 1.2 1.2 0.8 0.4 0.3 0.1 0.1 0.2 0.4 0.2 0.3 0.5 0.8 1.2 2.1 3.4 4.5 5.3 5.9 6.2 5.8 5.1 4.5 4.1 3.9 3.5 3.6 3.1 2.6 1.9 1.9 2.3 2.9 4.1 4.2 4.2 4.8 4.0 3.4 3.2 3.0 2.5 2.6 2.8 3.0 2.9 2.7 2.5 2.6
0.5 0.6 0.6 1.5 1.2 0.8 0.6 0.2 0.1 0.1 0.1 0.2 0.3 0.2 0.0 0.2 0.5 0.8 1.2 1.6 2.7 4.2 5.8 6.6 6.3 5.8 4.9 4.3 4.5 4.5 4.2 4.1 4.0 3.0 2.3 2.0 1.6 3.1 4.0 4.3 4.3 3.6 4.1 4.2 3.7 3.8 4.0 4.2 3.9 3.9 3.4 3.2 3.1 3.0
1.2 1.0 1.0 1.0 0.7 0.6 0.7 1.2 1.3 1.1 0.8 0.6 0.5 0.6 0.5 0.0 0.3 0.6 1.0 1.5 2.0 3.5 5.0 6.0 6.7 6.4 5.3 4.8 4.6 4.2 3.9 3.9 4.1 4.2 3.9 3.7 3.7 3.6 4.3 4.5 4.3 4.6 4.7 4.5 3.6 3.6 3.2 2.3 1.7 1.9 1.9 2.1 2.5 2.2
1.6 0.9 0.4 0.3 0.5 1.6 1.5 1.3 1.1 0.8 0.8 0.7 0.5 0.3 0.3 0.3 0.2 0.3 0.5 0.9 1.5 2.8 4.3 4.9 4.9 5.1 4.9 4.2 3.7 3.7 3.6 3.4 3.2 3.8 3.7 3.3 3.1 3.4 3.9 3.9 4.3 4.4 4.6 4.9 4.5 4.1 3.8 3.3 3.8 3.6 3.5 3.6 3.5 3.1
2.0 1.5 0.7 1.0 1.4 1.2 1.5 0.9 0.7 1.0 0.9 0.8 0.5 0.3 0.1 0.3 0.3 0.1 0.3 0.7 1.3 2.2 3.3 3.9 4.3 4.7 4.5 4.0 3.6 3.5 3.8 4.6 4.7 4.9 5.1 4.9 4.4 4.2 4.2 4.1 3.9 4.3 4.3 4.3 4.5 4.8 5.0 4.9 4.6 4.1 4.1 4.0 3.9 3.8

GFSWCAN_prec_snow_120.txt.gz
Snowfall_Accumulation
0.0 0.0 0.0 0.0 0.0 0.0 0.0 0.0 0.0 0.0 0.0 0.0 0.0 0.0 0.0 0.0 0.0 0.0 0.0 0.0 0.0 0.0 0.0 0.0 0.0 0.0 0.0 0.0 0.0 0.0 0.0 0.0 0.0 3.5 2.0 1.3 0.3 0.0 0.4 0.0 0.4 0.5 1.6 1.6 1.8 2.4 0.3 0.0 0.0 0.0 0.0 0.0 0.0 0.0
0.0 0.0 0.0 0.0 0.0 0.0 0.0 0.0 0.0 0.0 0.0 0.0 0.0 0.0 0.0 0.0 0.0 0.0 0.0 0.0 0.0 0.0 0.0 0.0 0.0 0.0 0.0 0.0 0.0 0.0 0.0 0.8 2.3 2.6 3.0 2.7 2.6 2.2 0.7 0.7 0.0 0.3 0.0 0.4 0.6 0.1 0.0 0.0 0.0 0.0 0.0 0.0 0.0 0.0
0.0 0.0 0.0 0.0 0.0 0.0 0.0 0.0 0.0 0.0 0.0 0.0 0.0 0.0 0.0 0.0 0.0 0.0 0.0 0.0 0.0 0.1 0.0 0.0 0.0 0.0 0.0 0.0 0.0 0.1 0.0 0.0 0.0 3.0 1.9 0.2 1.6 1.3 0.6 1.0 0.4 0.2 0.3 0.0 0.0 0.0 0.0 0.0 0.0 0.0 0.0 0.0 0.0 0.0
0.0 0.0 0.0 0.0 0.0 0.0 0.0 0.0 0.0 0.0 0.0 0.0 0.0 0.0 0.0 0.0 0.0 0.0 0.0 0.0 0.0 0.0 2.2 0.0 0.0 0.0 0.0 0.0 0.0 0.0 0.0 0.0 0.0 2.2 2.7 1.3 0.3 0.8 0.2 0.3 0.1 0.0 0.0 0.1 0.0 0.0 0.0 0.0 0.0 0.0 0.0 0.0 0.0 0.0
0.0 0.0 0.0 0.0 0.0 0.0 0.0 0.0 0.0 0.0 0.0 0.0 0.0 0.0 0.0 0.0 0.0 0.0 0.0 0.0 0.0 1.2 2.5 0.8 0.0 0.0 0.0 0.0 0.0 0.0 0.0 0.0 0.3 1.4 1.2 1.9 0.9 1.2 0.0 0.0 0.0 0.0 0.0 0.0 0.0 0.0 0.0 0.0 0.0 0.0 0.0 0.0 0.0 0.0
0.0 0.0 0.0 0.0 0.0 0.0 0.0 0.0 0.0 0.0 0.0 0.0 0.0 0.0 0.0 0.0 0.0 0.0 0.0 0.0 0.0 0.0 4.3 3.3 0.0 0.0 0.0 0.0 0.0 0.0 0.0 0.0 0.2 0.4 1.1 0.0 0.0 1.7 1.0 0.6 0.0 0.0 0.0 0.0 0.0 0.0 0.0 0.0 0.0 0.0 0.0 0.0 0.0 0.0
0.0 0.0 0.0 0.0 0.0 0.0 0.0 0.0 0.0 0.0 0.0 0.0 0.0 0.0 0.0 0.0 0.0 0.0 0.0 0.0 0.0 0.0 2.6 5.9 4.2 0.0 0.0 0.0 0.0 0.0 0.0 0.2 0.7 0.8 1.9 1.0 0.0 2.0 2.8 0.1 0.0 0.0 0.0 0.0 0.0 0.0 0.0 0.0 0.0 0.0 0.0 0.0 0.0 0.0
0.0 0.0 0.0 0.0 0.0 0.0 0.0 0.0 0.0 0.0 0.0 0.0 0.0 0.0 0.0 0.0 0.0 0.0 0.0 0.0 0.0 0.0 2.7 5.0 2.2 2.3 0.0 0.2 0.3 0.0 0.3 1.1 1.6 1.6 0.4 0.0 0.2 1.0 1.9 0.0 0.0 0.0 0.1 0.0 0.0 0.0 0.0 0.0 0.0 0.0 0.0 0.0 0.0 0.0
0.0 0.0 0.0 0.0 0.0 0.0 0.0 0.0 0.0 0.0 0.0 0.0 0.0 0.0 0.0 0.0 0.0 0.0 0.0 0.0 0.0 0.0 3.1 3.5 3.4 5.9 0.0 0.0 0.2 0.3 0.7 5.9 0.0 1.8 1.2 0.8 0.0 3.5 0.1 0.0 0.1 0.1 0.2 0.0 0.0 0.0 0.0 0.0 0.0 0.0 0.0 0.0 0.0 0.0
0.0 0.0 0.0 0.0 0.0 0.0 0.0 0.0 0.0 0.0 0.0 0.0 0.0 0.0 8.6 0.0 0.0 0.0 0.0 3.1 3.8 3.4 2.2 2.0 1.1 2.8 0.0 0.0 3.9 0.5 0.9 3.6 6.4 0.0 0.0 1.4 0.6 0.0 0.1 0.1 0.1 0.0 0.0 0.0 0.0 0.0 0.0 0.0 0.0 0.0 0.0 0.0 0.0 0.0
0.0 0.0 0.0 0.0 0.0 0.0 0.0 0.0 0.0 0.0 0.0 0.0 5.7 4.2 0.0 0.0 0.0 0.1 6.2 5.4 2.8 3.4 1.1 0.2 0.1 1.8 0.1 4.6 5.2 3.4 7.5 3.5 8.4 3.8 3.4 4.7 3.4 2.2 0.5 0.4 0.0 0.0 0.0 0.0 0.0 0.0 0.0 0.0 0.0 0.0 0.0 0.0 0.0 0.0
0.0 0.0 0.0 0.0 0.0 0.0 0.0 0.0 0.0 0.0 7.2 0.0 0.0 0.0 0.0 1.7 10.4 9.4 7.4 2.2 1.5 0.0 0.1 0.6 1.6 1.8 0.9 1.1 3.2 1.5 4.9 4.9 3.9 1.0 4.1 3.7 4.4 2.7 1.4 0.2 0.0 0.0 0.0 0.0 0.0 0.0 0.0 0.0 0.0 0.0 0.0 0.0 0.0 0.0
0.0 0.0 0.0 0.0 0.0 0.0 0.0 0.0 0.0 0.0 0.0 0.0 9.4 22.0 18.5 16.8 13.0 5.1 3.1 1.2 0.2 0.0 0.0 2.2 3.0 0.0 1.1 2.6 1.9 2.0 1.6 2.2 1.2 2.6 1.6 2.3 1.0 0.9 1.8 1.1 0.1 0.0 1.2 2.0 0.9 0.4 0.1 0.0 0.0 0.0 0.1 2.1 1.2 2.4
0.0 0.0 0.0 0.0 0.0 0.0 0.0 0.0 0.0 0.0 7.1 12.1 29.1 26.8 11.1 7.7 0.7 1.0 0.4 0.0 0.0 0.0 0.0 0.7 1.8 2.6 0.0 2.8 2.8 2.5 0.9 1.5 1.8 0.7 0.1 0.0 0.0 0.1 0.2 1.2 1.2 1.2 0.1 0.4 0.8 1.2 0.4 0.8 1.1 0.8 1.3 0.6 0.6 0.4
0.0 0.0 0.0 0.0 0.0 0.0 0.0 0.0 0.0 0.0 7.1 28.8 16.2 9.9 4.6 0.8 0.3 0.1 0.4 0.2 0.0 0.0 0.0 0.0 0.0 1.3 2.3 3.2 2.2 1.0 1.5 0.7 0.6 0.5 0.0 0.0 0.1 0.1 0.1 1.0 3.6 3.2 1.8 0.8 0.5 0.3 0.9 1.1 0.8 0.3 0.0 0.0 0.0 0.0
0.0 0.0 0.0 0.0 0.0 0.0 0.0 0.0 0.0 0.0 32.1 24.2 12.5 4.8 0.6 0.1 0.4 0.2 0.2 0.1 0.0 0.0 0.0 0.0 2.3 1.8 1.7 1.8 1.5 0.8 1.2 0.6 0.7 0.4 0.0 0.0 0.0 0.2 0.5 2.1 3.1 1.4 1.3 1.5 1.1 0.0 0.0 0.0 0.0 0.0 0.0 0.0 0.0 0.0
0.0 0.0 0.0 0.0 0.0 0.0 0.0 3.7 9.0 37.4 39.4 25.5 7.1 0.3 0.4 0.7 0.3 0.3 0.4 0.1 0.0 0.6 1.9 3.4 3.0 1.6 0.5 0.9 0.2 0.1 0.1 0.3 0.0 0.2 0.0 0.0 0.0 0.0 0.6 1.2 2.4 1.5 1.9 2.3 1.8 0.5 0.0 0.0 0.0 0.0 0.0 0.0 0.0 0.0
0.0 0.0 0.0 0.0 0.0 0.0 2.6 20.3 35.5 37.4 27.4 11.9 1.6 1.1 1.7 1.2 0.6 0.3 0.5 1.0 1.8 2.4 2.7 5.0 1.7 1.3 0.5 0.5 0.2 0.0 0.0 0.0 0.0 0.0 0.0 0.0 0.0 0.0 0.0 0.8 1.9 2.1 2.1 1.7 0.9 0.0 0.3 0.2 0.1 0.2 0.2 0.2 0.2 0.3
0.0 0.0 0.0 0.0 0.0 3.4 39.2 39.2 27.9 19.0 11.3 4.2 3.1 3.5 2.5 0.9 0.0 0.1 0.0 0.8 1.6 3.2 4.4 5.6 3.7 0.9 0.0 0.2 0.3 0.0 0.0 0.0 0.1 0.0 0.0 0.0 0.0 0.0 0.0 0.0 0.0 0.0 0.6 0.7 0.7 0.5 0.3 0.1 0.1 0.2 0.4 0.6 0.6 0.7
0.0 0.0 0.0 0.0 0.0 14.0 18.8 24.5 13.9 9.4 6.1 5.9 5.4 5.3 3.6 1.8 0.5 0.4 0.2 0.1 0.6 3.9 4.9 3.2 0.5 0.1 0.0 0.1 0.2 0.1 0.0 0.0 0.0 0.0 0.0 0.0 0.0 0.0 0.0 0.0 0.0 0.0 0.0 0.0 0.0 0.0 0.0 0.0 0.0 0.0 0.0 0.0 0.0 0.0
0.0 0.0 0.0 0.0 13.8 17.2 12.3 10.6 9.8 8.5 7.5 7.6 9.7 7.4 7.3 4.2 2.9 2.0 3.6 1.5 6.6 7.3 3.3 1.0 0.1 0.0 0.2 0.1 0.0 0.0 0.1 0.0 0.0 0.0 0.0 0.0 0.0 0.0 0.0 0.0 0.0 0.0 0.1 0.0 0.0 0.0 0.0 0.0 0.0 0.0 0.0 0.0 0.0 0.0
0.8 0.0 2.8 1.0 21.4 14.2 9.3 6.1 5.5 7.1 5.7 9.3 11.3 9.8 9.3 8.2 7.8 7.4 6.4 8.8 9.9 4.0 1.1 0.5 0.5 0.6 0.3 0.3 0.2 0.6 0.0 0.3 0.0 0.0 0.0 0.0 0.0 0.0 0.0 0.0 0.0 0.0 0.1 0.0 0.0 0.0 0.0 0.0 0.0 0.0 0.0 0.0 0.0 0.0
0.0 1.6 16.6 23.1 19.3 9.2 10.9 7.3 6.3 8.4 7.9 9.8 10.0 8.8 9.8 8.7 9.7 9.5 10.9 7.3 4.5 2.4 1.5 1.4 1.1 1.3 1.1 0.7 0.4 0.1 0.1 0.0 0.0 0.2 0.1 0.0 0.0 0.0 0.0 0.0 0.0 0.0 0.1 0.0 0.0 0.0 0.0 0.0 0.0 0.0 0.0 0.0 0.0 0.0
0.0 23.2 24.1 16.7 9.1 7.7 6.1 6.5 4.4 4.5 7.7 7.8 7.4 6.4 5.5 7.1 9.2 9.7 6.5 2.6 2.2 2.4 2.0 2.9 2.4 1.3 1.3 1.3 1.4 1.1 0.7 0.3 0.1 0.1 0.7 0.5 0.1 0.0 0.0 0.0 0.0 0.0 0.0 0.0 0.0 0.0 0.0 0.0 0.0 0.0 0.0 0.0 0.0 0.0
24.2 23.0 14.6 10.1 4.3 1.8 1.6 3.0 4.1 3.5 3.2 4.6 5.1 5.5 5.1 5.9 7.7 5.3 2.6 1.9 3.1 4.1 3.4 2.7 2.1 1.8 1.5 1.4 1.0 1.3 1.3 1.6 1.2 0.5 0.2 1.0 0.7 0.7 0.2 0.6 0.3 0.1 0.0 0.0 0.0 0.0 0.0 0.0 0.0 0.0 0.0 0.0 0.0 0.1
13.0 8.6 5.7 2.2 0.8 0.1 0.5 1.1 2.1 2.6 3.0 4.2 4.6 4.3 5.3 5.9 4.0 3.1 1.8 2.1 3.3 4.3 4.4 3.7 2.6 1.6 1.7 1.7 2.9 2.9 2.1 1.8 1.4 1.0 1.6 1.9 1.3 1.7 1.2 1.0 0.9 0.6 0.0 0.3 0.2 0.3 0.3 0.2 0.1 0.1 0.2 0.0 0.6 0.9
6.2 2.0 0.6 0.0 0.0 0.1 0.2 0.6 0.8 1.1 2.6 2.5 1.9 2.1 2.6 4.0 2.7 1.3 1.2 2.1 3.2 3.9 4.3 4.3 3.8 2.4 2.2 3.2 3.4 3.4 3.2 2.8 2.6 1.2 2.4 2.8 2.5 1.7 1.2 1.1 0.6 0.4 0.3 1.5 1.1 0.9 1.0 1.0 1.0 1.1 1.5 1.6 1.7 1.6
1.3 0.1 0.0 0.0 0.0 0.2 0.3 0.5 0.6 0.7 1.0 0.6 1.5 1.7 1.6 1.2 0.6 0.7 1.3 1.9 3.2 4.1 4.9 5.2 5.0 4.4 4.1 3.8 3.7 5.2 5.3 5.4 4.9 4.1 3.4 3.5 3.7 3.4 2.9 3.1 2.8 2.7 2.2 2.4 2.5 2.4 2.2 2.2 2.2 2.1 2.4 2.3 1.9 2.0
0.1 0.0 0.0 0.6 0.9 1.2 1.2 0.8 0.4 0.3 0.1 0.1 0.2 0.4 0.2 0.3 0.5 0.8 1.2 2.1 3.4 4.5 5.3 5.9 6.4 5.8 6.2 6.0 5.6 5.1 4.5 4.5 4.0 3.1 2.0 2.0 2.5 3.1 4.2 4.2 4.2 4.8 4.1 3.5 3.3 3.0 2.5 2.6 2.8 3.0 2.9 2.7 2.5 2.6
0.5 0.6 0.6 1.5 1.2 0.8 0.6 0.2 0.1 0.1 0.1 0.2 0.3 0.2 0.0 0.2 0.5 0.8 1.2 1.6 2.7 4.2 5.8 6.6 7.1 6.9 6.2 5.5 5.6 5.8 5.7 5.5 4.6 3.0 2.3 2.0 1.6 3.2 4.1 4.4 4.4 3.6 4.1 4.2 3.7 3.8 4.0 4.2 3.9 3.9 3.4 3.2 3.1 3.0
1.2 1.0 1.0 1.0 0.7 0.6 0.7 1.2 1.3 1.1 0.8 0.6 0.5 0.6 0.5 0.0 0.3 0.6 1.0 1.5 2.0 3.5 5.0 6.0 7.5 7.6 6.6 6.0 5.6 5.0 5.0 5.1 4.9 4.4 3.9 3.7 3.7 3.7 4.3 4.5 4.3 4.6 4.7 4.5 3.6 3.6 3.2 2.3 1.7 1.9 1.9 2.1 2.5 2.2
1.6 0.9 0.4 0.3 0.5 1.7 1.6 1.3 1.1 0.8 0.8 0.7 0.5 0.3 0.3 0.3 0.2 0.3 0.5 0.9 1.5 2.8 4.3 5.5 5.7 6.3 6.4 5.6 4.9 4.5 4.1 3.9 3.6 4.0 3.9 3.4 3.1 3.4 3.9 3.9 4.3 4.4 4.6 4.9 4.5 4.1 3.8 3.3 3.8 3.6 3.5 3.6 3.5 3.1
2.0 1.5 0.7 1.0 1.5 1.2 1.5 0.9 0.7 1.0 0.9 0.8 0.5 0.3 0.1 0.3 0.3 0.1 0.3 0.7 1.3 2.2 3.3 3.9 5.1 5.8 5.8 5.2 4.7 4.3 4.4 5.1 5.1 5.1 5.3 4.9 4.4 4.2 4.2 4.1 3.9 4.3 4.3 4.3 4.5 4.8 5.0 4.9 4.6 4.1 4.1 4.0 3.9 3.8

GFSWCAN_prec_snow_123.txt.gz
Snowfall_Accumulation
0.0 0.0 0.0 0.0 0.0 0.0 0.0 0.0 0.0 0.0 0.0 0.0 0.0 0.0 0.0 0.0 0.0 0.0 0.0 0.0 0.0 0.0 0.0 0.0 0.0 0.0 0.0 0.0 0.0 0.0 0.0 0.0 0.0 3.5 2.0 1.3 0.3 0.0 0.4 0.0 0.4 0.5 1.6 1.6 1.8 2.4 0.3 0.0 0.0 0.0 0.0 0.0 0.0 0.0
0.0 0.0 0.0 0.0 0.0 0.0 0.0 0.0 0.0 0.0 0.0 0.0 0.0 0.0 0.0 0.0 0.0 0.0 0.0 0.0 0.0 0.0 0.0 0.0 0.0 0.0 0.0 0.0 0.0 0.0 0.0 0.8 2.3 2.6 3.0 2.7 2.6 2.2 0.7 0.7 0.0 0.3 0.0 0.4 0.6 0.1 0.0 0.0 0.0 0.0 0.0 0.0 0.0 0.0
0.0 0.0 0.0 0.0 0.0 0.0 0.0 0.0 0.0 0.0 0.0 0.0 0.0 0.0 0.0 0.0 0.0 0.0 0.0 0.0 0.0 0.1 0.0 0.0 0.0 0.0 0.0 0.0 0.0 0.1 0.0 0.0 0.0 3.0 1.9 0.2 1.6 1.3 0.6 1.0 0.4 0.2 0.3 0.0 0.0 0.0 0.0 0.0 0.0 0.0 0.0 0.0 0.0 0.0
0.0 0.0 0.0 0.0 0.0 0.0 0.0 0.0 0.0 0.0 0.0 0.0 0.0 0.0 0.0 0.0 0.0 0.0 0.0 0.0 0.0 0.0 2.2 0.0 0.0 0.0 0.0 0.0 0.0 0.0 0.0 0.0 0.0 2.2 2.7 1.3 0.3 0.8 0.2 0.3 0.1 0.0 0.0 0.1 0.0 0.0 0.0 0.0 0.0 0.0 0.0 0.0 0.0 0.0
0.0 0.0 0.0 0.0 0.0 0.0 0.0 0.0 0.0 0.0 0.0 0.0 0.0 0.0 0.0 0.0 0.0 0.0 0.0 0.0 0.0 1.2 2.5 0.8 0.0 0.0 0.0 0.0 0.0 0.0 0.0 0.0 0.3 1.4 1.2 1.9 0.9 1.2 0.0 0.0 0.0 0.0 0.0 0.0 0.0 0.0 0.0 0.0 0.0 0.0 0.0 0.0 0.0 0.0
0.0 0.0 0.0 0.0 0.0 0.0 0.0 0.0 0.0 0.0 0.0 0.0 0.0 0.0 0.0 0.0 0.0 0.0 0.0 0.0 0.0 0.0 4.3 3.3 0.0 0.0 0.0 0.0 0.0 0.0 0.0 0.0 0.2 0.4 1.1 0.0 0.0 1.7 1.0 0.6 0.0 0.0 0.0 0.0 0.0 0.0 0.0 0.0 0.0 0.0 0.0 0.0 0.0 0.0
0.0 0.0 0.0 0.0 0.0 0.0 0.0 0.0 0.0 0.0 0.0 0.0 0.0 0.0 0.0 0.0 0.0 0.0 0.0 0.0 0.0 0.0 2.6 5.9 4.2 0.0 0.0 0.0 0.0 0.0 0.0 0.2 0.7 0.8 1.9 1.0 0.0 2.0 2.8 0.1 0.0 0.0 0.0 0.0 0.0 0.0 0.0 0.0 0.0 0.0 0.0 0.0 0.0 0.0
0.0 0.0 0.0 0.0 0.0 0.0 0.0 0.0 0.0 0.0 0.0 0.0 0.0 0.0 0.0 0.0 0.0 0.0 0.0 0.0 0.0 0.0 2.7 5.0 2.2 2.3 0.0 0.2 0.3 0.0 0.3 1.1 1.6 1.6 0.4 0.0 0.2 1.0 1.9 0.0 0.0 0.0 0.1 0.0 0.0 0.0 0.0 0.0 0.0 0.0 0.0 0.0 0.0 0.0
0.0 0.0 0.0 0.0 0.0 0.0 0.0 0.0 0.0 0.0 0.0 0.0 0.0 0.0 0.0 0.0 0.0 0.0 0.0 0.0 0.0 0.0 3.1 3.6 3.4 5.9 0.0 0.0 0.2 0.3 0.7 5.9 0.0 1.8 1.2 0.8 0.0 3.5 0.1 0.0 0.1 0.1 0.2 0.0 0.0 0.0 0.0 0.0 0.0 0.0 0.0 0.0 0.0 0.0
0.0 0.0 0.0 0.0 0.0 0.0 0.0 0.0 0.0 0.0 0.0 0.0 0.0 0.0 12.2 0.0 0.0 0.0 0.0 3.1 3.8 3.4 2.2 2.2 1.1 2.8 0.0 0.0 3.9 0.5 0.9 3.6 6.4 0.0 0.0 1.4 0.6 0.0 0.1 0.1 0.1 0.0 0.0 0.0 0.0 0.0 0.0 0.0 0.0 0.0 0.0 0.0 0.0 0.0
0.0 0.0 0.0 0.0 0.0 0.0 0.0 0.0 0.0 0.0 0.0 0.0 11.9 7.9 0.0 0.0 0.0 0.1 8.3 6.6 3.3 3.7 1.1 0.4 0.1 1.8 0.1 4.6 5.2 3.4 7.5 3.5 8.4 3.8 3.4 4.7 3.4 2.2 0.5 0.4 0.0 0.0 0.0 0.0 0.0 0.0 0.0 0.0 0.0 0.0 0.0 0.0 0.0 0.0
0.0 0.0 0.0 0.0 0.0 0.0 0.0 0.0 0.0 0.0 7.2 0.0 0.0 0.0 0.0 3.9 12.5 11.4 9.0 2.7 1.6 0.0 0.1 0.6 1.6 1.8 0.9 1.1 3.2 1.5 4.9 4.9 3.9 1.0 4.1 3.7 4.4 2.7 1.4 0.2 0.0 0.0 0.0 0.0 0.0 0.0 0.0 0.0 0.0 0.0 0.0 0.0 0.0 0.0
0.0 0.0 0.0 0.0 0.0 0.0 0.0 0.0 0.0 0.0 0.0 0.0 13.8 26.7 22.0 19.8 15.1 6.2 3.6 1.3 0.2 0.0 0.0 2.2 3.0 0.0 1.1 2.6 1.9 2.0 1.6 2.2 1.2 2.6 1.6 2.3 1.0 0.9 1.8 1.1 0.1 0.0 1.2 2.0 0.9 0.4 0.1 0.0 0.0 0.0 0.1 2.1 1.2 2.4
0.0 0.0 0.0 0.0 0.0 0.0 0.0 0.0 0.0 0.0 7.1 17.9 34.8 32.0 14.1 9.7 1.3 1.0 0.4 0.0 0.0 0.0 0.0 0.7 1.8 2.6 0.0 2.8 2.8 2.5 0.9 1.5 1.8 0.7 0.1 0.0 0.0 0.1 0.2 1.2 1.2 1.2 0.1 0.4 0.8 1.2 0.4 0.8 1.1 0.8 1.3 0.6 0.6 0.4
0.0 0.0 0.0 0.0 0.0 0.0 0.0 0.0 0.0 0.0 7.1 35.9 22.4 14.0 6.6 1.2 0.3 0.1 0.4 0.2 0.0 0.0 0.0 0.0 0.0 1.3 2.3 3.3 2.2 1.0 1.5 0.7 0.6 0.5 0.0 0.0 0.1 0.1 0.1 1.0 3.6 3.2 1.8 0.8 0.5 0.3 0.9 1.1 0.8 0.3 0.0 0.0 0.0 0.0
0.0 0.0 0.0 0.0 0.0 0.0 0.0 0.0 0.0 0.0 32.1 31.2 17.7 7.4 0.6 0.1 0.4 0.2 0.2 0.1 0.0 0.0 0.0 0.0 2.6 2.2 1.9 1.8 1.5 0.8 1.2 0.6 0.7 0.4 0.0 0.0 0.0 0.2 0.5 2.1 3.1 1.4 1.3 1.5 1.1 0.0 0.0 0.0 0.0 0.0 0.0 0.0 0.0 0.0
0.0 0.0 0.0 0.0 0.0 0.0 0.0 3.7 9.0 45.2 46.6 32.6 11.1 1.5 0.4 0.7 0.3 0.3 0.4 0.1 0.0 0.6 2.2 3.7 3.2 1.7 0.5 0.9 0.2 0.1 0.1 0.3 0.0 0.2 0.0 0.0 0.0 0.0 0.6 1.2 2.4 1.5 1.9 2.3 1.8 0.5 0.0 0.0 0.0 0.0 0.0 0.0 0.0 0.0
0.0 0.0 0.0 0.0 0.0 0.0 2.6 20.3 35.5 43.4 32.8 15.7 2.9 1.1 1.7 1.2 0.6 0.3 0.5 1.0 1.8 2.4 2.8 5.1 1.7 1.3 0.5 0.5 0.2 0.0 0.0 0.0 0.0 0.0 0.0 0.0 0.0 0.0 0.0 0.8 1.9 2.1 2.1 1.7 0.9 0.0 0.3 0.2 0.1 0.2 0.2 0.2 0.2 0.3
0.0 0.0 0.0 0.0 0.0 3.4 48.1 47.2 33.5 23.1 13.7 5.1 3.2 3.5 2.5 0.9 0.0 0.1 0.0 0.8 1.6 3.2 4.4 5.6 4.0 1.0 0.0 0.2 0.3 0.0 0.0 0.0 0.1 0.0 0.0 0.0 0.0 0.0 0.0 0.0 0.0 0.0 0.6 0.7 0.7 0.5 0.3 0.1 0.1 0.2 0.4 0.6 0.6 0.7
0.0 0.0 0.0 0.0 0.0 19.5 23.6 28.4 17.0 10.8 6.6 6.0 5.4 5.3 3.6 1.8 0.5 0.4 0.2 0.1 0.6 4.2 5.5 3.6 0.5 0.1 0.0 0.1 0.2 0.1 0.0 0.0 0.0 0.0 0.0 0.0 0.0 0.0 0.0 0.0 0.0 0.0 0.0 0.0 0.0 0.0 0.0 0.0 0.0 0.0 0.0 0.0 0.0 0.0
0.0 0.0 0.0 0.0 13.8 23.3 15.9 12.5 11.0 9.3 8.0 7.6 9.7 7.4 7.3 4.2 2.9 2.1 3.9 1.5 7.3 8.1 3.7 1.0 0.1 0.0 0.2 0.1 0.0 0.0 0.1 0.0 0.0 0.0 0.0 0.0 0.0 0.0 0.0 0.0 0.0 0.0 0.1 0.0 0.0 0.0 0.0 0.0 0.0 0.0 0.0 0.0 0.0 0.0
0.8 0.0 2.8 1.0 27.7 18.8 11.4 7.0 5.7 7.5 6.0 9.5 11.3 9.8 9.4 8.2 7.9 7.5 6.7 9.7 10.8 4.2 1.1 0.5 0.5 0.6 0.3 0.3 0.2 0.6 0.0 0.3 0.0 0.0 0.0 0.0 0.0 0.0 0.0 0.0 0.0 0.0 0.1 0.0 0.0 0.0 0.0 0.0 0.0 0.0 0.0 0.0 0.0 0.0
0.0 1.6 20.1 27.4 22.7 11.2 12.4 7.9 6.3 8.6 8.3 10.6 10.4 9.4 10.5 9.3 10.3 10.3 12.4 8.3 4.7 2.4 1.5 1.4 1.1 1.3 1.1 0.7 0.4 0.1 0.1 0.0 0.0 0.2 0.1 0.0 0.0 0.0 0.0 0.0 0.0 0.0 0.1 0.0 0.0 0.4 0.2 0.0 0.0 0.0 0.0 0.0 0.0 0.0
0.0 26.7 27.7 19.4 10.4 8.2 6.8 7.1 4.7 4.7 8.1 8.5 8.0 6.9 5.9 7.4 9.8 10.7 7.2 2.7 2.2 2.4 2.0 2.9 2.4 1.3 1.3 1.3 1.4 1.1 0.7 0.3 0.1 0.1 0.7 0.5 0.1 0.0 0.0 0.0 0.0 0.0 0.0 0.0 0.6 0.5 0.1 0.0 0.0 0.0 0.0 0.0 0.0 0.0
27.0 25.5 16.1 11.1 4.7 1.9 1.6 3.2 4.3 3.6 3.5 5.0 5.3 5.9 5.4 6.0 7.9 5.5 2.7 1.9 3.1 4.1 3.4 2.7 2.1 1.8 1.5 1.4 1.0 1.3 1.3 1.6 1.2 0.5 0.2 1.0 0.7 0.7 0.2 0.6 0.3 0.1 0.2 0.4 0.3 0.1 0.0 0.0 0.0 0.0 0.0 0.0 0.0 0.1
14.1 9.4 6.2 2.2 0.9 0.1 0.5 1.1 2.1 2.6 3.0 4.2 4.8 4.6 5.5 5.9 4.0 3.1 1.8 2.1 3.3 4.3 4.4 3.7 2.6 1.6 1.7 1.7 2.9 2.9 2.1 1.8 1.4 1.0 1.6 1.9 1.3 1.7 1.2 1.0 0.9 1.6 0.8 0.6 0.3 0.3 0.3 0.2 0.1 0.1 0.2 0.0 0.6 0.9
6.4 2.1 0.7 0.0 0.0 0.1 0.2 0.6 0.8 1.1 2.6 2.5 2.1 2.2 2.6 4.0 2.7 1.3 1.2 2.1 3.2 3.9 4.3 4.3 3.8 2.4 2.2 3.2 3.4 3.4 3.2 2.8 2.6 1.2 2.4 2.8 2.5 1.7 1.2 1.1 0.6 0.9 0.8 1.7 1.1 0.9 1.0 1.0 1.0 1.1 1.5 1.7 1.7 1.6
1.3 0.1 0.0 0.0 0.0 0.2 0.3 0.5 0.6 0.7 1.0 0.6 1.5 1.7 1.6 1.2 0.6 0.7 1.3 1.9 3.2 4.1 4.9 5.2 5.0 4.4 4.1 3.8 3.7 5.2 5.3 5.4 4.9 4.1 3.4 3.5 3.7 3.4 2.9 3.4 3.2 3.3 2.7 2.5 2.5 2.4 2.2 2.2 2.2 2.2 2.4 2.3 1.9 2.0
0.1 0.0 0.0 0.6 0.9 1.2 1.2 0.8 0.4 0.3 0.1 0.1 0.2 0.4 0.2 0.3 0.5 0.8 1.2 2.1 3.4 4.5 5.3 5.9 6.4 5.8 6.2 6.0 5.6 5.1 4.5 4.5 4.3 3.7 2.0 2.4 2.9 3.6 4.7 4.7 4.8 5.2 4.3 3.5 3.3 3.0 2.5 2.8 3.0 3.1 2.9 2.7 2.5 2.6
0.5 0.6 0.6 1.5 1.2 0.8 0.6 0.2 0.1 0.1 0.1 0.2 0.3 0.2 0.0 0.2 0.5 0.8 1.2 1.6 2.7 4.2 5.8 6.6 7.1 6.9 6.2 5.5 6.1 6.6 6.7 6.2 5.0 3.0 2.3 2.0 1.6 3.2 4.5 4.7 4.7 3.9 4.4 4.5 4.1 4.3 4.4 4.3 3.9 3.9 3.4 3.2 3.1 3.0
1.2 1.0 1.0 1.0 0.7 0.6 0.7 1.2 1.3 1.1 0.8 0.6 0.5 0.6 0.5 0.0 0.3 0.6 1.0 1.5 2.0 3.5 5.0 6.0 7.5 7.6 6.6 6.0 5.9 5.5 5.6 5.8 5.8 5.1 4.3 4.2 4.2 4.3 4.8 4.8 4.6 4.8 5.0 4.7 3.8 3.7 3.2 2.3 1.7 1.9 1.9 2.1 2.5 2.2
1.6 0.9 0.4 0.3 0.5 1.7 1.6 1.3 1.1 0.8 0.8 0.7 0.5 0.3 0.3 0.3 0.2 0.3 0.5 0.9 1.5 2.8 4.3 5.5 5.7 6.3 6.4 5.6 4.9 5.2 4.1 4.5 4.3 4.8 4.6 4.1 3.7 3.8 4.2 4.3 4.7 4.7 5.0 5.2 4.6 4.1 3.8 3.3 3.8 3.6 3.5 3.6 3.5 3.1
2.0 1.5 0.7 1.0 1.5 1.2 1.5 0.9 0.7 1.0 0.9 0.8 0.5 0.3 0.1 0.3 0.3 0.1 0.3 0.7 1.3 2.2 3.3 3.9 5.1 5.8 5.8 5.2 4.7 4.9 4.4 6.2 6.0 5.9 6.0 5.4 4.7 4.5 4.5 4.5 4.3 4.6 4.4 4.3 4.5 4.8 5.0 4.9 4.6 4.1 4.1 4.0 3.9 3.8

GFSWCAN_prec_snow_126.txt.gz
Snowfall_Accumulation
0.0 0.0 0.0 0.0 0.0 0.0 0.0 0.0 0.0 0.0 0.0 0.0 0.0 0.0 0.0 0.0 0.0 0.0 0.0 0.0 0.0 0.0 0.0 0.0 0.0 0.0 0.0 0.0 0.0 0.0 0.0 0.0 0.0 3.5 2.0 1.3 0.3 0.0 0.4 0.0 0.4 0.5 1.6 1.6 1.8 2.4 0.3 0.0 0.0 0.0 0.0 0.0 0.0 0.0
0.0 0.0 0.0 0.0 0.0 0.0 0.0 0.0 0.0 0.0 0.0 0.0 0.0 0.0 0.0 0.0 0.0 0.0 0.0 0.0 0.0 0.0 0.0 0.0 0.0 0.0 0.0 0.0 0.0 0.0 0.0 0.8 2.3 2.6 3.0 2.7 2.6 2.2 0.7 0.7 0.0 0.3 0.0 0.4 0.6 0.1 0.0 0.0 0.0 0.0 0.0 0.0 0.0 0.0
0.0 0.0 0.0 0.0 0.0 0.0 0.0 0.0 0.0 0.0 0.0 0.0 0.0 0.0 0.0 0.0 0.0 0.0 0.0 0.0 0.0 0.1 0.0 0.0 0.0 0.0 0.0 0.0 0.0 0.1 0.0 0.0 0.0 3.0 1.9 0.2 1.6 1.3 0.6 1.0 0.4 0.2 0.3 0.0 0.0 0.0 0.0 0.0 0.0 0.0 0.0 0.0 0.0 0.0
0.0 0.0 0.0 0.0 0.0 0.0 0.0 0.0 0.0 0.0 0.0 0.0 0.0 0.0 0.0 0.0 0.0 0.0 0.0 0.0 0.0 0.0 2.2 0.0 0.0 0.0 0.0 0.0 0.0 0.0 0.0 0.0 0.0 2.2 2.7 1.3 0.3 0.8 0.2 0.3 0.1 0.0 0.0 0.1 0.0 0.0 0.0 0.0 0.0 0.0 0.0 0.0 0.0 0.0
0.0 0.0 0.0 0.0 0.0 0.0 0.0 0.0 0.0 0.0 0.0 0.0 0.0 0.0 0.0 0.0 0.0 0.0 0.0 0.0 0.0 1.2 2.5 0.8 0.0 0.0 0.0 0.0 0.0 0.0 0.0 0.0 0.3 1.4 1.2 1.9 0.9 1.2 0.0 0.0 0.0 0.0 0.0 0.0 0.0 0.0 0.0 0.0 0.0 0.0 0.0 0.0 0.0 0.0
0.0 0.0 0.0 0.0 0.0 0.0 0.0 0.0 0.0 0.0 0.0 0.0 0.0 0.0 0.0 0.0 0.0 0.0 0.0 0.0 0.0 0.0 4.3 3.3 0.0 0.0 0.0 0.0 0.0 0.0 0.0 0.0 0.2 0.4 1.1 0.0 0.0 1.7 1.0 0.6 0.0 0.0 0.0 0.0 0.0 0.0 0.0 0.0 0.0 0.0 0.0 0.0 0.0 0.0
0.0 0.0 0.0 0.0 0.0 0.0 0.0 0.0 0.0 0.0 0.0 0.0 0.0 0.0 0.0 0.0 0.0 0.0 0.0 0.0 0.0 0.0 2.6 6.0 4.2 0.0 0.0 0.0 0.0 0.0 0.0 0.2 0.7 0.8 1.9 1.0 0.0 2.0 2.8 0.1 0.0 0.0 0.0 0.0 0.0 0.0 0.0 0.0 0.0 0.0 0.0 0.0 0.0 0.0
0.0 0.0 0.0 0.0 0.0 0.0 0.0 0.0 0.0 0.0 0.0 0.0 0.0 0.0 0.0 0.0 0.0 0.0 0.0 0.0 0.0 0.0 2.7 5.0 2.2 2.3 0.0 0.2 0.3 0.0 0.3 1.1 1.6 1.6 0.4 0.0 0.2 1.0 1.9 0.0 0.0 0.0 0.1 0.0 0.0 0.0 0.0 0.0 0.0 0.0 0.0 0.0 0.0 0.0
0.0 0.0 0.0 0.0 0.0 0.0 0.0 0.0 0.0 0.0 0.0 0.0 0.0 0.0 0.0 0.0 0.0 0.0 0.0 0.0 0.0 0.0 3.8 3.8 3.4 5.9 0.0 0.0 0.2 0.3 0.7 5.9 0.0 1.8 1.2 0.8 0.0 3.5 0.1 0.0 0.1 0.1 0.2 0.0 0.0 0.0 0.0 0.0 0.0 0.0 0.0 0.0 0.0 0.0
0.0 0.0 0.0 0.0 0.0 0.0 0.0 0.0 0.0 0.0 0.0 0.0 0.0 0.0 19.5 0.0 0.0 0.0 0.0 3.1 3.8 3.4 2.2 2.5 1.1 2.8 0.0 0.0 3.9 0.5 0.9 3.6 6.4 0.0 0.0 1.4 0.6 0.0 0.1 0.1 0.1 0.0 0.0 0.0 0.0 0.0 0.0 0.0 0.0 0.0 0.0 0.0 0.0 0.0
0.0 0.0 0.0 0.0 0.0 0.0 0.0 0.0 0.0 0.0 0.0 0.0 11.9 13.8 0.0 0.0 0.0 0.1 11.9 9.7 4.8 4.3 1.3 0.5 0.1 1.8 0.1 4.6 5.2 3.5 7.5 3.5 8.4 3.8 3.4 4.7 3.4 2.2 0.5 0.4 0.0 0.0 0.0 0.0 0.0 0.0 0.0 0.0 0.0 0.0 0.0 0.0 0.0 0.0
0.0 0.0 0.0 0.0 0.0 0.0 0.0 0.0 0.0 0.0 7.2 0.0 0.0 0.0 0.0 7.8 15.9 14.9 11.7 3.8 2.1 0.0 0.1 0.6 1.6 1.8 0.9 1.1 3.6 1.9 5.2 5.0 3.9 1.0 4.1 3.7 4.4 2.7 1.4 0.2 0.0 0.0 0.0 0.0 0.0 0.0 0.0 0.0 0.0 0.0 0.0 0.0 0.0 0.0
0.0 0.0 0.0 0.0 0.0 0.0 0.0 0.0 0.0 0.0 0.0 0.0 20.1 34.0 28.8 24.7 18.5 8.5 4.6 1.5 0.2 0.0 0.1 2.2 3.0 0.0 1.1 2.9 2.9 2.6 1.8 2.2 1.2 2.6 1.6 2.3 1.0 0.9 1.8 1.1 0.1 0.0 1.2 2.0 0.9 0.4 0.1 0.0 0.0 0.0 0.1 2.1 1.2 2.4
0.0 0.0 0.0 0.0 0.0 0.0 0.0 0.0 0.0 0.0 7.1 23.6 41.4 38.6 18.9 13.7 3.1 1.3 0.4 0.0 0.0 0.0 0.0 0.7 1.8 2.6 0.6 3.5 3.9 3.0 1.0 1.5 1.8 0.7 0.1 0.0 0.0 0.1 0.2 1.2 1.2 1.2 0.1 0.4 0.8 1.2 0.4 0.8 1.1 0.8 1.3 0.6 0.6 0.4
0.0 0.0 0.0 0.0 0.0 0.0 0.0 0.0 0.0 0.0 7.1 41.3 28.5 19.0 10.0 2.4 0.4 0.1 0.4 0.2 0.0 0.0 0.0 0.0 0.1 1.6 2.8 4.3 3.1 1.3 1.6 0.7 0.6 0.5 0.0 0.0 0.1 0.1 0.1 1.0 3.6 3.2 1.8 0.8 0.5 0.3 0.9 1.1 0.8 0.3 0.0 0.0 0.0 0.0
0.0 0.0 0.0 0.0 0.0 0.0 0.0 0.0 0.0 0.0 38.4 36.4 23.0 11.4 2.1 0.1 0.4 0.2 0.2 0.1 0.0 0.0 0.0 0.0 3.0 3.2 2.8 2.2 1.8 0.9 1.2 0.6 0.7 0.4 0.0 0.0 0.0 0.2 0.5 2.1 3.1 1.4 1.3 1.5 1.1 0.0 0.0 0.0 0.0 0.0 0.0 0.0 0.0 0.0
0.0 0.0 0.0 0.0 0.0 0.0 0.0 3.7 9.0 45.2 54.1 39.3 15.9 4.0 0.8 0.7 0.3 0.3 0.4 0.1 0.0 0.6 2.2 3.7 3.8 2.2 0.9 1.2 0.3 0.1 0.1 0.3 0.0 0.2 0.0 0.0 0.0 0.0 0.6 1.2 2.4 1.5 1.9 2.3 1.8 0.5 0.0 0.0 0.0 0.0 0.0 0.0 0.0 0.0
0.0 0.0 0.0 0.0 0.0 0.0 2.6 20.3 35.5 51.6 39.1 19.8 4.9 1.7 1.7 1.2 0.6 0.3 0.5 1.0 1.8 2.4 2.8 5.1 1.9 1.9 0.8 0.6 0.2 0.0 0.0 0.0 0.0 0.0 0.0 0.0 0.0 0.0 0.0 0.8 1.9 2.1 2.1 1.7 0.9 0.0 0.3 0.2 0.1 0.2 0.2 0.2 0.2 0.3
0.0 0.0 0.0 0.0 0.0 3.4 53.8 52.8 39.1 28.5 17.4 6.7 3.5 3.5 2.5 0.9 0.0 0.1 0.0 0.8 1.6 3.2 4.4 5.6 5.4 1.7 0.0 0.2 0.3 0.0 0.0 0.0 0.1 0.0 0.0 0.0 0.0 0.0 0.0 0.0 0.0 0.0 0.6 0.7 0.7 0.5 0.3 0.1 0.1 0.2 0.4 0.6 0.6 0.7
0.0 0.0 0.0 0.0 0.0 28.0 30.4 32.9 20.8 12.8 7.5 6.4 5.5 5.4 3.6 1.8 0.5 0.4 0.2 0.1 0.6 4.8 7.0 5.0 0.5 0.1 0.0 0.1 0.2 0.1 0.0 0.0 0.0 0.0 0.0 0.0 0.0 0.0 0.0 0.0 0.0 0.0 0.0 0.0 0.0 0.0 0.0 0.0 0.0 0.0 0.0 0.0 0.0 0.0
0.0 0.0 0.0 0.0 13.8 30.1 21.5 15.5 12.8 10.3 8.4 7.7 9.7 7.4 7.3 4.2 2.9 2.1 3.9 1.5 8.4 9.6 4.6 1.0 0.1 0.0 0.2 0.1 0.0 0.0 0.1 0.0 0.0 0.0 0.0 0.0 0.0 0.0 0.0 0.0 0.0 0.0 0.1 0.0 0.0 0.0 0.0 0.0 0.0 0.0 0.0 0.0 0.0 0.0
0.8 0.0 2.8 1.0 33.1 23.4 14.4 8.6 6.3 7.9 6.2 9.7 11.3 9.8 9.7 8.5 8.5 8.1 7.3 11.0 11.9 4.2 1.1 0.5 0.5 0.6 0.3 0.3 0.2 0.6 0.0 0.3 0.0 0.0 0.0 0.0 0.0 0.0 0.0 0.0 0.0 0.0 0.1 0.0 0.0 0.0 0.0 0.0 0.0 0.0 0.0 0.0 0.0 0.0
0.0 1.6 24.1 31.9 27.1 13.8 14.0 8.8 6.6 8.9 8.6 11.3 10.9 10.1 11.4 10.1 11.0 10.9 13.7 9.4 4.7 2.4 1.5 1.4 1.1 1.3 1.1 0.7 0.4 0.1 0.1 0.0 0.0 0.2 0.1 0.0 0.0 0.0 0.0 0.0 0.0 0.0 0.1 0.0 0.0 0.4 0.2 0.0 0.0 0.0 0.0 0.0 0.0 0.0
0.0 30.6 32.2 23.4 12.8 9.2 7.6 7.7 5.0 4.9 8.7 9.4 9.0 8.0 6.7 8.0 10.7 11.4 7.8 2.7 2.2 2.4 2.0 2.9 2.4 1.3 1.3 1.3 1.4 1.1 0.7 0.3 0.1 0.1 0.7 0.5 0.1 0.0 0.0 0.0 0.0 0.0 0.0 0.0 0.6 0.5 0.1 0.0 0.0 0.3 0.2 0.1 0.0 0.0
30.8 28.9 18.8 13.1 5.7 2.3 1.8 3.4 4.5 3.8 3.8 5.5 5.8 6.3 5.8 6.3 8.2 5.8 2.8 1.9 3.1 4.1 3.4 2.7 2.1 1.8 1.5 1.4 1.0 1.3 1.3 1.6 1.2 0.5 0.2 1.0 0.7 0.7 0.2 0.6 0.3 0.1 0.2 0.4 0.3 0.1 0.0 0.7 0.4 0.4 0.2 0.1 0.0 0.1
16.8 10.9 7.0 2.5 1.0 0.1 0.5 1.1 2.1 2.6 3.0 4.3 4.9 4.7 5.6 5.9 4.0 3.2 1.8 2.1 3.3 4.3 4.4 3.7 2.6 1.6 1.7 1.7 2.9 2.9 2.1 1.8 1.4 1.0 1.6 1.9 1.3 1.7 1.2 1.0 0.9 1.6 0.8 0.6 0.3 1.6 1.6 1.1 0.8 0.6 0.4 0.0 0.6 0.9
7.3 2.5 0.9 0.0 0.0 0.1 0.2 0.7 0.9 1.1 2.7 2.6 2.3 2.3 2.7 4.2 2.7 1.3 1.2 2.1 3.2 3.9 4.3 4.3 3.8 2.4 2.2 3.2 3.4 3.4 3.2 2.8 2.6 1.2 2.4 2.8 2.5 1.7 1.2 1.1 0.6 0.9 0.8 1.7 2.2 1.9 1.9 1.8 1.6 1.3 1.5 1.7 1.7 1.6
1.4 0.1 0.0 0.0 0.0 0.2 0.3 0.5 0.6 0.7 1.0 0.6 1.5 1.7 1.6 1.2 0.6 0.7 1.3 1.9 3.2 4.1 4.9 5.2 5.0 4.4 4.1 3.8 3.7 5.2 5.3 5.4 4.9 4.1 3.4 3.5 3.7 3.4 2.9 3.4 3.2 3.3 2.7 2.5 3.3 3.3 2.9 2.6 2.3 2.2 2.4 2.3 1.9 2.1
0.1 0.0 0.0 0.6 0.9 1.2 1.2 0.8 0.4 0.3 0.1 0.1 0.2 0.4 0.2 0.3 0.5 0.8 1.2 2.1 3.4 4.5 5.3 5.9 6.4 5.8 6.2 6.0 5.6 5.1 4.5 4.5 4.3 3.7 2.0 2.4 2.9 3.6 4.7 4.7 4.8 5.2 4.3 4.1 3.7 3.3 2.6 2.9 3.0 3.1 3.1 2.8 2.5 2.6
0.5 0.6 0.6 1.5 1.2 0.8 0.6 0.2 0.1 0.1 0.1 0.2 0.3 0.2 0.0 0.2 0.5 0.8 1.2 1.6 2.7 4.2 5.8 6.6 7.1 6.9 6.2 5.5 6.1 6.6 6.7 6.3 5.0 3.0 2.3 2.0 1.6 3.2 4.5 4.8 5.0 3.9 4.4 4.5 4.4 4.8 4.9 4.8 4.3 4.1 3.5 3.2 3.1 3.0
1.2 1.0 1.0 1.0 0.7 0.6 0.7 1.2 1.4 1.1 0.8 0.6 0.5 0.6 0.5 0.0 0.3 0.6 1.0 1.5 2.0 3.5 5.0 6.0 7.5 7.6 6.6 6.0 5.9 5.5 5.7 5.9 6.1 5.5 4.3 4.3 4.4 4.4 4.8 4.8 4.6 5.2 5.2 4.8 3.8 3.9 3.4 2.4 1.8 1.9 1.9 2.1 2.5 2.2
1.6 0.9 0.4 0.3 0.5 1.7 1.6 1.3 1.1 0.8 0.8 0.7 0.5 0.3 0.3 0.3 0.2 0.3 0.5 0.9 1.5 2.8 4.3 5.5 5.7 6.3 6.4 5.6 4.9 5.2 4.1 4.5 4.5 4.9 4.6 4.5 4.0 4.2 4.6 4.7 5.3 5.1 5.0 5.5 4.9 4.4 3.9 3.3 3.8 3.6 3.5 3.6 3.5 3.1
2.0 1.5 0.7 1.0 1.5 1.2 1.5 0.9 0.7 1.0 0.9 0.8 0.5 0.3 0.1 0.3 0.3 0.1 0.3 0.7 1.3 2.2 3.3 3.9 5.1 5.8 5.8 5.2 4.7 4.9 4.4 6.2 6.0 5.9 6.4 5.7 4.9 4.8 4.8 4.9 4.8 5.2 5.1 4.8 4.7 4.9 5.0 4.9 4.6 4.1 4.1 4.0 3.9 3.8

GFSWCAN_prec_snow_129.txt.gz
Snowfall_Accumulation
0.0 0.0 0.0 0.0 0.0 0.0 0.0 0.0 0.0 0.0 0.0 0.0 0.0 0.0 0.0 0.0 0.0 0.0 0.0 0.0 0.0 0.0 0.0 0.0 0.0 0.0 0.0 0.0 0.0 0.0 0.0 0.0 0.0 3.5 2.0 1.3 0.3 0.0 0.4 0.0 0.4 0.5 1.6 1.6 1.8 2.4 0.3 0.0 0.0 0.0 0.0 0.0 0.0 0.0
0.0 0.0 0.0 0.0 0.0 0.0 0.0 0.0 0.0 0.0 0.0 0.0 0.0 0.0 0.0 0.0 0.0 0.0 0.0 0.0 0.0 0.0 0.0 0.0 0.0 0.0 0.0 0.0 0.0 0.0 0.0 0.8 2.3 2.6 3.0 2.7 2.6 2.2 0.7 0.7 0.0 0.3 0.0 0.4 0.6 0.1 0.0 0.0 0.0 0.0 0.0 0.0 0.0 0.0
0.0 0.0 0.0 0.0 0.0 0.0 0.0 0.0 0.0 0.0 0.0 0.0 0.0 0.0 0.0 0.0 0.0 0.0 0.0 0.0 0.0 0.1 0.0 0.0 0.0 0.0 0.0 0.0 0.0 0.1 0.0 0.0 0.0 3.0 1.9 0.2 1.6 1.3 0.6 1.0 0.4 0.2 0.3 0.0 0.0 0.0 0.0 0.0 0.0 0.0 0.0 0.0 0.0 0.0
0.0 0.0 0.0 0.0 0.0 0.0 0.0 0.0 0.0 0.0 0.0 0.0 0.0 0.0 0.0 0.0 0.0 0.0 0.0 0.0 0.0 0.0 2.2 0.0 0.0 0.0 0.0 0.0 0.0 0.0 0.0 0.0 0.0 2.2 2.7 1.3 0.3 0.8 0.2 0.3 0.1 0.0 0.0 0.1 0.0 0.0 0.0 0.0 0.0 0.0 0.0 0.0 0.0 0.0
0.0 0.0 0.0 0.0 0.0 0.0 0.0 0.0 0.0 0.0 0.0 0.0 0.0 0.0 0.0 0.0 0.0 0.0 0.0 0.0 0.0 1.2 2.5 0.8 0.0 0.0 0.0 0.0 0.0 0.0 0.0 0.0 0.3 1.4 1.2 1.9 0.9 1.2 0.0 0.0 0.0 0.0 0.0 0.0 0.0 0.0 0.0 0.0 0.0 0.0 0.0 0.0 0.0 0.0
0.0 0.0 0.0 0.0 0.0 0.0 0.0 0.0 0.0 0.0 0.0 0.0 0.0 0.0 0.0 0.0 0.0 0.0 0.0 0.0 0.0 0.0 4.3 3.4 0.0 0.0 0.0 0.0 0.0 0.0 0.0 0.0 0.2 0.4 1.1 0.0 0.0 1.7 1.0 0.6 0.0 0.0 0.0 0.0 0.0 0.0 0.0 0.0 0.0 0.0 0.0 0.0 0.0 0.0
0.0 0.0 0.0 0.0 0.0 0.0 0.0 0.0 0.0 0.0 0.0 0.0 0.0 0.0 0.0 0.0 0.0 0.0 0.0 0.0 0.0 0.0 2.6 6.4 4.2 0.0 0.0 0.0 0.0 0.0 0.0 0.2 0.7 0.8 1.9 1.0 0.0 2.0 2.8 0.1 0.0 0.0 0.0 0.0 0.0 0.0 0.0 0.0 0.0 0.0 0.0 0.0 0.0 0.0
0.0 0.0 0.0 0.0 0.0 0.0 0.0 0.0 0.0 0.0 0.0 0.0 0.0 0.0 0.0 0.0 0.0 0.0 0.0 0.0 0.0 0.0 2.7 5.5 2.2 2.3 0.0 0.2 0.3 0.0 0.3 1.1 1.6 1.6 0.4 0.0 0.2 1.0 1.9 0.0 0.0 0.0 0.1 0.0 0.0 0.0 0.0 0.0 0.0 0.0 0.0 0.0 0.0 0.0
0.0 0.0 0.0 0.0 0.0 0.0 0.0 0.0 0.0 0.0 0.0 0.0 0.0 0.0 0.0 0.0 0.0 0.0 0.0 0.0 0.0 0.0 5.0 4.1 3.4 5.9 0.0 0.0 0.2 0.3 0.7 5.9 0.0 1.8 1.2 0.8 0.0 3.5 0.1 0.0 0.1 0.1 0.2 0.0 0.0 0.0 0.0 0.0 0.0 0.0 0.0 0.0 0.0 0.0
0.0 0.0 0.0 0.0 0.0 0.0 0.0 0.0 0.0 0.0 0.0 0.0 0.0 0.0 19.5 0.0 0.0 0.0 0.0 3.1 3.8 3.4 2.2 2.7 1.1 2.8 0.0 0.0 3.9 0.5 0.9 3.6 6.4 0.0 0.0 1.4 0.6 0.0 0.1 0.1 0.1 0.0 0.0 0.0 0.0 0.0 0.0 0.0 0.0 0.0 0.0 0.0 0.0 0.0
0.0 0.0 0.0 0.0 0.0 0.0 0.0 0.0 0.0 0.0 0.0 0.0 11.9 13.8 0.0 0.0 0.0 0.1 16.7 14.2 7.4 5.2 1.3 0.5 0.1 1.8 0.1 4.6 5.2 3.5 7.5 3.5 8.4 3.8 3.4 4.7 3.4 2.2 0.5 0.4 0.0 0.0 0.0 0.0 0.0 0.0 0.0 0.0 0.0 0.0 0.0 0.0 0.0 0.0
0.0 0.0 0.0 0.0 0.0 0.0 0.0 0.0 0.0 0.0 7.2 0.0 0.0 0.0 0.0 13.8 20.5 19.8 15.8 6.0 3.0 0.0 0.1 0.6 1.6 1.8 0.9 1.1 3.6 2.5 6.1 5.9 4.1 1.0 4.1 3.7 4.4 2.7 1.4 0.2 0.0 0.0 0.0 0.0 0.0 0.0 0.0 0.0 0.0 0.0 0.0 0.0 0.0 0.0
0.0 0.0 0.0 0.0 0.0 0.0 0.0 0.0 0.0 0.0 0.0 0.0 23.1 38.1 33.7 29.3 22.5 12.1 6.7 2.0 0.3 0.0 0.1 2.2 3.0 0.0 1.1 2.9 2.9 4.3 3.3 2.9 1.3 2.6 1.6 2.3 1.0 0.9 1.8 1.1 0.1 0.0 1.2 2.0 0.9 0.4 0.1 0.0 0.0 0.0 0.1 2.1 1.2 2.4
0.0 0.0 0.0 0.0 0.0 0.0 0.0 0.0 0.0 0.0 7.1 26.4 44.7 42.1 22.2 16.8 4.9 2.3 0.4 0.0 0.0 0.0 0.0 0.7 1.8 2.6 0.8 4.0 5.3 4.4 1.8 1.8 1.9 0.7 0.1 0.0 0.0 0.1 0.2 1.2 1.2 1.2 0.1 0.4 0.8 1.2 0.4 0.8 1.1 0.8 1.3 0.6 0.6 0.4
0.0 0.0 0.0 0.0 0.0 0.0 0.0 0.0 0.0 0.0 7.1 44.8 32.5 21.7 11.8 2.4 0.4 0.1 0.4 0.2 0.0 0.0 0.0 0.0 0.1 1.6 3.3 5.4 4.3 1.3 2.2 0.7 0.6 0.5 0.0 0.0 0.1 0.1 0.1 1.0 3.6 3.2 1.8 0.8 0.5 0.3 0.9 1.1 0.8 0.3 0.0 0.0 0.0 0.0
0.0 0.0 0.0 0.0 0.0 0.0 0.0 0.0 0.0 0.0 38.4 40.1 26.2 14.4 3.7 0.1 0.4 0.2 0.2 0.1 0.0 0.0 0.0 0.0 3.0 4.1 3.9 2.9 2.3 0.9 1.2 0.6 0.7 0.4 0.0 0.0 0.0 0.2 0.5 2.1 3.1 1.4 1.3 1.5 1.1 0.0 0.0 0.0 0.0 0.0 0.0 0.0 0.0 0.0
0.0 0.0 0.0 0.0 0.0 0.0 0.0 3.7 9.0 47.2 57.2 43.4 18.6 4.0 0.8 0.8 0.3 0.3 0.4 0.1 0.0 0.6 2.2 3.7 4.2 2.6 1.3 1.5 0.4 0.1 0.1 0.3 0.0 0.2 0.0 0.0 0.0 0.0 0.6 1.2 2.4 1.5 1.9 2.3 1.8 0.5 0.0 0.0 0.0 0.0 0.0 0.0 0.0 0.0
0.0 0.0 0.0 0.0 0.0 0.0 2.6 20.3 37.0 53.9 41.1 19.8 4.9 1.7 1.7 1.2 0.6 0.3 0.5 1.0 1.8 2.4 2.8 5.1 1.9 2.5 1.3 0.7 0.2 0.0 0.0 0.0 0.0 0.0 0.0 0.0 0.0 0.0 0.0 0.8 1.9 2.1 2.1 1.7 0.9 0.0 0.3 0.2 0.1 0.2 0.2 0.2 0.2 0.3
0.0 0.0 0.0 0.0 0.0 3.4 53.8 52.8 39.1 30.1 17.4 6.7 3.5 3.5 2.5 0.9 0.0 0.1 0.0 0.8 1.6 3.2 4.4 5.6 5.4 2.9 0.2 0.2 0.3 0.0 0.0 0.0 0.1 0.0 0.0 0.0 0.0 0.0 0.0 0.0 0.0 0.0 0.6 0.7 0.7 0.5 0.3 0.1 0.1 0.2 0.4 0.6 0.6 0.7
0.0 0.0 0.0 0.0 0.0 29.8 32.8 34.5 22.2 14.2 8.2 6.6 5.5 5.4 3.6 1.8 0.5 0.4 0.2 0.1 0.6 4.8 7.7 6.3 1.4 0.1 0.0 0.1 0.2 0.1 0.0 0.0 0.0 0.0 0.0 0.0 0.0 0.0 0.0 0.0 0.0 0.0 0.0 0.0 0.0 0.0 0.0 0.0 0.0 0.0 0.0 0.0 0.0 0.0
0.0 0.0 0.0 0.0 13.8 31.3 23.2 16.6 13.5 10.7 8.7 7.7 9.7 7.4 7.4 4.2 2.9 2.1 3.9 1.5 9.1 11.4 6.0 1.4 0.1 0.0 0.2 0.1 0.0 0.0 0.1 0.0 0.0 0.0 0.0 0.0 0.0 0.0 0.0 0.0 0.0 0.0 0.1 0.0 0.0 0.0 0.0 0.0 0.0 0.0 0.0 0.0 0.0 0.0
0.8 0.0 2.8 1.0 34.2 24.8 15.8 9.2 6.3 8.2 6.2 9.7 11.3 9.8 10.1 9.0 8.8 8.1 7.3 12.3 13.4 4.8 1.1 0.5 0.5 0.6 0.3 0.3 0.2 0.6 0.0 0.3 0.0 0.0 0.0 0.0 0.0 0.0 0.0 0.0 0.0 0.0 0.1 0.0 0.0 0.0 0.0 0.0 0.0 0.0 0.0 0.0 0.0 0.0
0.0 1.6 25.2 33.4 29.2 15.9 14.0 8.8 6.6 8.9 9.3 12.0 11.5 10.8 12.2 10.6 11.3 11.1 14.4 10.1 4.7 2.4 1.5 1.4 1.1 1.3 1.1 0.7 0.4 0.1 0.1 0.0 0.0 0.2 0.1 0.0 0.0 0.0 0.0 0.0 0.0 0.0 0.1 0.0 0.0 0.4 0.2 0.0 0.0 0.0 0.0 0.0 0.0 0.0
0.0 31.7 33.6 24.8 14.4 10.4 8.4 8.6 5.8 5.6 9.4 10.0 9.7 8.8 7.2 8.4 11.2 11.8 8.0 2.7 2.2 2.4 2.0 2.9 2.4 1.3 1.3 1.3 1.4 1.1 0.7 0.3 0.1 0.1 0.7 0.5 0.1 0.0 0.0 0.0 0.0 0.0 0.0 0.0 0.6 0.5 0.1 0.0 0.0 0.3 0.2 0.1 0.0 0.3
32.5 28.9 20.0 14.1 6.5 3.1 2.3 3.7 4.9 4.4 4.2 5.9 6.1 6.6 6.1 6.7 8.6 6.0 2.8 1.9 3.1 4.1 3.4 2.7 2.1 1.8 1.5 1.4 1.0 1.3 1.3 1.6 1.2 0.5 0.2 1.0 0.7 0.7 0.2 0.6 0.3 0.1 0.2 0.4 0.3 0.1 0.0 0.7 0.4 0.4 0.2 0.6 0.6 0.9
19.3 10.9 7.8 2.7 1.0 0.1 0.5 1.3 2.2 2.8 3.1 4.3 4.9 4.7 5.7 6.0 4.1 3.2 1.8 2.1 3.3 4.3 4.4 3.7 2.6 1.6 1.7 1.7 2.9 2.9 2.1 1.8 1.4 1.0 1.6 1.9 1.3 1.7 1.2 1.0 0.9 1.6 0.8 0.6 0.3 1.6 1.6 1.1 0.8 0.6 1.5 1.2 1.6 1.6
8.7 3.1 1.4 0.1 0.1 0.2 0.3 0.7 0.9 1.3 3.0 2.9 2.5 2.5 3.1 4.7 3.0 1.3 1.2 2.1 3.2 3.9 4.3 4.3 3.8 2.4 2.2 3.2 3.4 3.4 3.2 2.8 2.6 1.2 2.4 2.8 2.5 1.7 1.2 1.1 0.6 0.9 0.8 1.7 2.2 1.9 1.9 1.8 1.6 2.2 2.5 2.5 2.1 1.8
2.1 0.1 0.3 0.1 0.0 0.2 0.5 0.8 0.6 0.7 1.0 0.6 1.6 1.9 1.9 1.5 0.6 0.7 1.3 1.9 3.2 4.1 4.9 5.2 5.0 4.4 4.1 3.8 3.7 5.2 5.3 5.4 4.9 4.1 3.4 3.5 3.7 3.4 2.9 3.4 3.2 3.3 2.7 2.5 3.3 3.3 2.9 2.6 2.8 2.7 2.8 2.5 2.1 2.2
0.1 0.0 0.0 1.0 1.4 1.8 1.7 1.2 0.6 0.3 0.1 0.2 0.3 0.5 0.3 0.3 0.5 0.8 1.2 2.1 3.4 4.5 5.3 5.9 6.4 5.8 6.2 6.0 5.6 5.1 4.5 4.5 4.3 3.7 2.0 2.4 2.9 3.6 4.7 4.7 4.8 5.2 4.3 4.1 3.7 3.3 2.6 2.9 3.2 3.3 3.3 3.0 2.6 2.6
0.5 0.6 1.2 1.9 1.6 1.0 0.7 0.2 0.2 0.1 0.2 0.2 0.3 0.2 0.0 0.2 0.5 0.8 1.2 1.6 2.7 4.2 5.8 6.6 7.1 6.9 6.2 5.5 6.1 6.6 6.7 6.3 5.0 3.0 2.3 2.0 1.6 3.2 4.5 4.8 5.0 3.9 4.4 4.5 4.6 5.4 5.5 5.2 4.6 4.3 3.5 3.2 3.1 3.1
1.2 1.3 1.4 1.3 0.9 0.6 0.8 1.3 1.4 1.1 0.8 0.6 0.5 0.6 0.5 0.0 0.3 0.6 1.0 1.5 2.0 3.5 5.0 6.0 7.5 7.6 6.6 6.0 5.9 5.5 5.7 5.9 6.1 5.5 4.3 4.3 4.4 4.4 4.8 5.0 4.7 5.3 5.3 4.9 3.9 3.9 3.4 2.4 1.8 1.9 1.9 2.3 2.6 2.2
1.7 1.0 0.5 0.4 0.5 1.7 1.6 1.3 1.1 0.8 0.8 0.7 0.5 0.3 0.3 0.3 0.2 0.3 0.5 0.9 1.5 2.8 4.3 5.5 5.7 6.3 6.4 5.6 4.9 5.2 4.1 4.5 4.5 4.9 4.6 4.5 4.0 4.2 4.6 5.0 5.5 5.4 5.2 5.6 5.0 4.4 3.9 3.3 3.8 3.6 3.6 3.7 3.5 3.1
2.0 1.5 0.7 1.0 1.5 1.2 1.5 0.9 0.7 1.0 0.9 0.8 0.5 0.3 0.1 0.3 0.3 0.1 0.3 0.7 1.3 2.2 3.3 3.9 5.1 5.8 5.8 5.2 4.7 4.9 4.4 6.2 6.0 5.9 6.4 5.7 4.9 4.8 5.1 5.1 4.8 5.2 5.3 5.0 4.7 4.9 5.2 5.0 4.7 4.1 4.1 4.0 3.9 3.8

GFSWCAN_prec_snow_132.txt.gz
Snowfall_Accumulation
0.0 0.0 0.0 0.0 0.0 0.0 0.0 0.0 0.0 0.0 0.0 0.0 0.0 0.0 0.0 0.0 0.0 0.0 0.0 0.0 0.0 0.0 0.0 0.0 0.0 0.0 0.0 0.0 0.0 0.0 0.0 0.0 0.0 3.5 2.0 1.3 0.3 0.0 0.4 0.0 0.4 0.5 1.6 1.6 1.8 2.4 0.3 0.0 0.0 0.0 0.0 0.0 0.0 0.0
0.0 0.0 0.0 0.0 0.0 0.0 0.0 0.0 0.0 0.0 0.0 0.0 0.0 0.0 0.0 0.0 0.0 0.0 0.0 0.0 0.0 0.0 0.0 0.0 0.0 0.0 0.0 0.0 0.0 0.0 0.0 0.8 2.3 2.6 3.0 2.7 2.6 2.2 0.7 0.7 0.0 0.3 0.0 0.4 0.6 0.1 0.0 0.0 0.0 0.0 0.0 0.0 0.0 0.0
0.0 0.0 0.0 0.0 0.0 0.0 0.0 0.0 0.0 0.0 0.0 0.0 0.0 0.0 0.0 0.0 0.0 0.0 0.0 0.0 0.0 0.1 0.0 0.0 0.0 0.0 0.0 0.0 0.0 0.1 0.0 0.0 0.0 3.0 1.9 0.2 1.6 1.3 0.6 1.0 0.4 0.2 0.3 0.0 0.0 0.0 0.0 0.0 0.0 0.0 0.0 0.0 0.0 0.0
0.0 0.0 0.0 0.0 0.0 0.0 0.0 0.0 0.0 0.0 0.0 0.0 0.0 0.0 0.0 0.0 0.0 0.0 0.0 0.0 0.0 0.0 2.3 0.0 0.0 0.0 0.0 0.0 0.0 0.0 0.0 0.0 0.0 2.2 2.7 1.3 0.3 0.8 0.2 0.3 0.1 0.0 0.0 0.1 0.0 0.0 0.0 0.0 0.0 0.0 0.0 0.0 0.0 0.0
0.0 0.0 0.0 0.0 0.0 0.0 0.0 0.0 0.0 0.0 0.0 0.0 0.0 0.0 0.0 0.0 0.0 0.0 0.0 0.0 0.0 1.2 2.5 0.8 0.0 0.0 0.0 0.0 0.0 0.0 0.0 0.0 0.3 1.4 1.2 1.9 0.9 1.2 0.0 0.0 0.0 0.0 0.0 0.0 0.0 0.0 0.0 0.0 0.0 0.0 0.0 0.0 0.0 0.0
0.0 0.0 0.0 0.0 0.0 0.0 0.0 0.0 0.0 0.0 0.0 0.0 0.0 0.0 0.0 0.0 0.0 0.0 0.0 0.0 0.0 0.0 4.3 3.9 0.0 0.0 0.0 0.0 0.0 0.0 0.0 0.0 0.2 0.4 1.1 0.0 0.0 1.7 1.0 0.6 0.0 0.0 0.0 0.0 0.0 0.0 0.0 0.0 0.0 0.0 0.0 0.0 0.0 0.0
0.0 0.0 0.0 0.0 0.0 0.0 0.0 0.0 0.0 0.0 0.0 0.0 0.0 0.0 0.0 0.0 0.0 0.0 0.0 0.0 0.0 0.0 2.6 7.8 4.3 0.0 0.0 0.0 0.0 0.0 0.0 0.2 0.7 0.8 1.9 1.0 0.0 2.0 2.8 0.1 0.0 0.0 0.0 0.0 0.0 0.0 0.0 0.0 0.0 0.0 0.0 0.0 0.0 0.0
0.0 0.0 0.0 0.0 0.0 0.0 0.0 0.0 0.0 0.0 0.0 0.0 0.0 0.0 0.0 0.0 0.0 0.0 0.0 0.0 0.0 0.0 2.7 7.4 2.5 2.3 0.0 0.2 0.3 0.0 0.3 1.1 1.6 1.6 0.4 0.0 0.2 1.0 1.9 0.0 0.0 0.0 0.1 0.0 0.0 0.0 0.0 0.0 0.0 0.0 0.0 0.0 0.0 0.0
0.0 0.0 0.0 0.0 0.0 0.0 0.0 0.0 0.0 0.0 0.0 0.0 0.0 0.0 0.0 0.0 0.0 0.0 0.0 0.0 0.0 0.0 7.1 5.0 3.4 5.9 0.0 0.0 0.2 0.3 0.7 5.9 0.1 1.8 1.2 0.8 0.0 3.5 0.1 0.0 0.1 0.1 0.2 0.0 0.0 0.0 0.0 0.0 0.0 0.0 0.0 0.0 0.0 0.0
0.0 0.0 0.0 0.0 0.0 0.0 0.0 0.0 0.0 0.0 0.0 0.0 0.0 0.0 19.5 0.0 0.0 0.0 0.0 3.1 9.2 6.9 2.2 3.3 1.1 2.8 0.0 0.0 3.9 0.5 0.9 3.7 6.6 0.0 0.0 1.4 0.6 0.0 0.1 0.1 0.1 0.0 0.0 0.0 0.0 0.0 0.0 0.0 0.0 0.0 0.0 0.0 0.0 0.0
0.0 0.0 0.0 0.0 0.0 0.0 0.0 0.0 0.0 0.0 0.0 0.0 11.9 13.8 0.0 0.0 0.0 0.1 22.6 19.9 11.1 6.9 1.8 0.5 0.1 1.8 0.1 4.6 5.2 3.5 7.6 3.8 8.7 3.8 3.4 4.7 3.4 2.2 0.5 0.4 0.0 0.0 0.0 0.0 0.0 0.0 0.0 0.0 0.0 0.0 0.0 0.0 0.0 0.0
0.0 0.0 0.0 0.0 0.0 0.0 0.0 0.0 0.0 0.0 7.2 0.0 0.0 0.0 0.0 16.6 23.1 23.6 20.3 10.2 5.3 0.5 0.1 0.6 1.6 1.8 0.9 1.1 3.6 2.6 6.5 6.8 4.7 1.0 4.1 3.7 4.4 2.7 1.4 0.2 0.0 0.0 0.0 0.0 0.0 0.0 0.0 0.0 0.0 0.0 0.0 0.0 0.0 0.0
0.0 0.0 0.0 0.0 0.0 0.0 0.0 0.0 0.0 0.0 0.0 0.0 23.1 38.1 35.9 31.5 24.4 14.4 9.0 3.7 0.9 0.0 0.1 2.2 3.0 0.0 1.1 2.9 2.9 4.7 4.3 3.5 1.4 2.7 1.6 2.3 1.0 0.9 1.8 1.1 0.1 0.0 1.2 2.0 0.9 0.4 0.1 0.0 0.0 0.0 0.1 2.1 1.2 2.4
0.0 0.0 0.0 0.0 0.0 0.0 0.0 0.0 0.0 0.0 7.1 26.4 45.5 42.9 23.0 18.2 4.9 2.3 0.4 0.0 0.0 0.0 0.0 0.7 1.8 2.6 0.8 4.1 5.3 5.2 2.6 2.2 2.0 0.8 0.1 0.0 0.0 0.1 0.2 1.2 1.2 1.2 0.1 0.4 0.8 1.2 0.4 0.8 1.1 0.8 1.3 0.6 0.6 0.4
0.0 0.0 0.0 0.0 0.0 0.0 0.0 0.0 0.0 0.0 7.1 44.8 33.3 22.5 12.4 2.4 0.4 0.1 0.4 0.2 0.0 0.0 0.0 0.0 0.1 1.7 3.5 5.8 4.9 1.8 3.1 1.0 0.6 0.5 0.0 0.0 0.1 0.1 0.1 1.0 3.6 3.2 1.8 0.8 0.5 0.3 0.9 1.1 0.8 0.3 0.0 0.0 0.0 0.0
0.0 0.0 0.0 0.0 0.0 0.0 0.0 0.0 0.0 0.0 39.3 41.0 27.0 14.4 3.7 0.1 0.4 0.2 0.2 0.1 0.0 0.0 0.0 0.1 3.4 4.7 4.7 3.5 3.0 1.2 1.3 0.6 0.7 0.4 0.0 0.0 0.0 0.2 0.5 2.1 3.1 1.4 1.3 1.5 1.1 0.0 0.0 0.0 0.0 0.0 0.0 0.0 0.0 0.0
0.0 0.0 0.0 0.0 0.0 0.0 0.0 3.7 9.0 48.2 57.8 43.4 18.6 4.0 0.8 0.8 0.3 0.3 0.4 0.1 0.0 0.7 2.3 3.7 4.8 3.1 1.3 2.0 0.6 0.1 0.1 0.3 0.0 0.2 0.0 0.0 0.0 0.0 0.6 1.2 2.4 1.5 1.9 2.3 1.8 0.5 0.0 0.0 0.0 0.0 0.0 0.0 0.0 0.0
0.0 0.0 0.0 0.0 0.0 0.0 2.6 20.3 38.2 54.7 41.6 19.8 4.9 1.7 1.7 1.2 0.6 0.3 0.5 1.0 2.0 3.2 3.3 5.4 2.1 3.4 2.2 1.2 0.2 0.0 0.0 0.0 0.0 0.0 0.0 0.0 0.0 0.0 0.0 0.8 1.9 2.1 2.1 1.7 0.9 0.0 0.3 0.2 0.1 0.2 0.2 0.2 0.2 0.3
0.0 0.0 0.0 0.0 0.0 3.4 54.5 53.2 39.1 30.5 17.4 6.7 3.5 3.5 2.5 0.9 0.0 0.1 0.0 0.8 1.6 3.2 4.4 5.8 6.6 5.3 1.3 0.4 0.3 0.0 0.0 0.0 0.1 0.0 0.0 0.0 0.0 0.0 0.0 0.0 0.0 0.0 0.6 0.7 0.7 0.5 0.3 0.1 0.1 0.2 0.4 0.6 0.6 0.7
0.0 0.0 0.0 0.0 0.0 31.2 34.2 35.0 22.2 14.2 8.2 6.6 5.5 5.4 3.6 1.8 0.5 0.4 0.2 0.1 0.6 4.8 8.7 8.0 2.5 0.5 0.0 0.1 0.2 0.1 0.0 0.0 0.0 0.0 0.0 0.0 0.0 0.0 0.0 0.0 0.0 0.0 0.0 0.0 0.0 0.0 0.0 0.0 0.0 0.0 0.0 0.0 0.0 0.0
0.0 0.0 0.0 0.0 13.8 33.0 25.0 17.1 13.8 10.7 8.7 7.7 9.7 7.4 7.4 4.2 2.9 2.1 3.9 1.5 9.2 11.9 6.7 1.9 0.1 0.0 0.2 0.1 0.0 0.0 0.1 0.0 0.0 0.0 0.0 0.0 0.0 0.0 0.0 0.0 0.0 0.0 0.1 0.0 0.0 0.0 0.0 0.0 0.0 0.0 0.0 0.0 0.0 0.0
0.8 0.0 2.8 1.0 35.1 25.8 16.7 9.3 6.3 8.2 6.2 9.7 11.3 9.8 10.1 9.2 8.8 8.1 7.3 12.5 13.8 5.1 1.2 0.5 0.5 0.6 0.3 0.3 0.2 0.6 0.0 0.3 0.0 0.0 0.0 0.0 0.0 0.0 0.0 0.0 0.0 0.0 0.1 0.0 0.0 0.0 0.0 0.0 0.0 0.0 0.0 0.0 0.0 0.0
0.0 1.6 26.2 33.9 29.8 16.5 14.0 8.8 6.6 8.9 9.3 12.0 11.5 10.9 12.2 10.6 11.3 11.1 15.0 10.5 4.7 2.4 1.5 1.4 1.1 1.3 1.1 0.7 0.4 0.1 0.1 0.0 0.0 0.2 0.1 0.0 0.0 0.0 0.0 0.0 0.0 0.0 0.1 0.0 0.0 0.4 0.2 0.0 0.0 0.0 0.0 0.0 0.0 0.0
0.0 32.9 34.7 25.5 14.7 10.7 8.4 8.6 5.8 5.6 9.4 10.3 10.0 9.1 7.2 8.5 11.2 12.6 8.5 2.7 2.2 2.4 2.0 2.9 2.4 1.3 1.3 1.3 1.4 1.1 0.7 0.3 0.1 0.1 0.7 0.5 0.1 0.0 0.0 0.0 0.0 0.0 0.0 0.0 0.6 0.5 0.1 0.0 0.0 0.3 0.2 0.1 0.0 0.3
33.9 30.3 20.6 14.5 6.7 3.1 2.3 3.7 4.9 4.8 4.8 6.2 6.4 6.9 6.1 7.0 9.3 6.5 2.9 1.9 3.1 4.1 3.4 2.7 2.1 1.8 1.5 1.4 1.0 1.3 1.3 1.6 1.2 0.5 0.2 1.0 0.7 0.7 0.2 0.6 0.3 0.1 0.2 0.4 0.3 0.1 0.0 0.7 0.4 0.4 0.2 0.6 0.6 0.9
20.0 10.9 8.1 2.7 1.0 0.1 0.5 1.3 2.2 2.8 3.1 4.3 4.9 4.7 5.7 6.5 4.6 3.3 1.8 2.1 3.3 4.3 4.4 3.7 2.6 1.6 1.7 1.7 2.9 2.9 2.1 1.8 1.4 1.0 1.6 1.9 1.3 1.7 1.2 1.0 0.9 1.6 0.8 0.6 0.3 1.6 1.6 1.1 0.8 0.6 1.5 1.2 1.6 1.6
9.1 3.1 1.4 0.1 0.1 0.2 0.4 0.7 0.9 1.3 3.2 3.1 2.5 2.5 3.4 5.4 3.0 1.3 1.2 2.1 3.2 3.9 4.3 4.3 3.8 2.4 2.2 3.2 3.4 3.4 3.2 2.8 2.6 1.2 2.4 2.8 2.5 1.7 1.2 1.1 0.6 0.9 0.8 1.7 2.2 1.9 1.9 1.8 1.6 2.2 2.5 2.7 2.4 1.8
2.4 0.1 0.3 0.1 0.0 0.2 0.7 0.8 0.9 0.9 1.1 0.6 1.6 1.9 2.1 1.6 0.6 0.7 1.3 1.9 3.2 4.1 4.9 5.2 5.0 4.4 4.1 3.8 3.7 5.2 5.3 5.4 4.9 4.1 3.4 3.5 3.7 3.4 2.9 3.4 3.2 3.3 2.7 2.5 3.3 3.3 2.9 2.6 2.8 2.7 2.8 2.5 2.1 2.2
0.1 0.0 0.0 1.0 2.0 2.5 2.4 1.6 0.8 0.3 0.1 0.2 0.4 0.6 0.3 0.3 0.5 0.8 1.2 2.1 3.4 4.5 5.3 5.9 6.4 5.8 6.2 6.0 5.6 5.1 4.5 4.5 4.3 3.7 2.0 2.4 2.9 3.6 4.7 4.7 4.8 5.2 4.3 4.1 3.7 3.3 2.6 2.9 3.2 3.3 3.3 3.0 2.6 2.7
0.5 0.6 1.2 1.9 1.6 1.0 0.7 0.2 0.2 0.1 0.7 0.8 0.7 0.5 0.1 0.2 0.5 0.8 1.2 1.6 2.7 4.2 5.8 6.6 7.1 6.9 6.2 5.5 6.1 6.6 6.7 6.3 5.0 3.0 2.3 2.0 1.6 3.2 4.5 4.8 5.0 3.9 4.4 4.5 4.6 5.4 5.7 5.4 4.9 4.5 3.6 3.3 3.2 3.3
1.2 1.3 1.4 1.3 0.9 0.6 0.8 1.3 1.9 1.9 1.6 1.3 1.0 0.9 0.6 0.1 0.3 0.6 1.0 1.5 2.0 3.5 5.0 6.0 7.5 7.6 6.6 6.0 5.9 5.5 5.7 5.9 6.1 5.5 4.3 4.3 4.4 4.4 4.8 5.0 4.7 5.3 5.3 4.9 3.9 4.0 3.5 2.5 1.8 2.0 1.9 2.3 2.6 2.2
1.7 1.0 0.5 0.4 0.5 1.7 2.2 1.9 1.6 1.3 1.1 0.9 0.7 0.4 0.3 0.3 0.2 0.3 0.5 0.9 1.5 2.8 4.3 5.5 5.7 6.3 6.4 5.6 4.9 5.2 4.1 4.5 4.5 4.9 4.6 4.5 4.0 4.2 4.6 5.0 5.5 5.4 5.2 5.7 5.0 4.4 3.9 3.3 3.8 3.6 3.6 3.7 3.5 3.1
2.2 1.7 1.1 1.5 1.9 1.6 1.9 1.2 0.9 1.1 0.9 0.8 0.5 0.3 0.1 0.3 0.3 0.1 0.3 0.7 1.3 2.2 3.3 3.9 5.1 5.8 5.8 5.2 4.7 4.9 4.4 6.2 6.0 5.9 6.4 5.8 4.9 4.8 5.2 5.2 4.9 5.3 5.3 5.0 4.7 4.9 5.2 5.0 4.7 4.1 4.1 4.0 3.9 3.8

GFSWCAN_prec_snow_135.txt.gz
Snowfall_Accumulation
0.0 0.0 0.0 0.0 0.0 0.0 0.0 0.0 0.0 0.0 0.0 0.0 0.0 0.0 0.0 0.0 0.0 0.0 0.0 0.0 0.0 0.0 0.0 0.0 0.0 0.0 0.0 0.0 0.0 0.0 0.0 0.0 0.0 3.5 2.0 1.3 0.3 0.0 0.4 0.0 0.4 0.5 1.6 1.6 1.8 2.4 0.3 0.0 0.0 0.0 0.0 0.0 0.0 0.0
0.0 0.0 0.0 0.0 0.0 0.0 0.0 0.0 0.0 0.0 0.0 0.0 0.0 0.0 0.0 0.0 0.0 0.0 0.0 0.0 0.0 0.0 0.0 0.0 0.0 0.0 0.0 0.0 0.0 0.0 0.0 0.8 2.3 2.6 3.0 2.7 2.6 2.2 0.7 0.7 0.0 0.3 0.0 0.4 0.6 0.1 0.0 0.0 0.0 0.0 0.0 0.0 0.0 0.0
0.0 0.0 0.0 0.0 0.0 0.0 0.0 0.0 0.0 0.0 0.0 0.0 0.0 0.0 0.0 0.0 0.0 0.0 0.0 0.0 0.0 0.1 0.0 0.0 0.0 0.0 0.0 0.0 0.0 0.1 0.0 0.0 0.0 3.0 1.9 0.2 1.6 1.3 0.6 1.0 0.4 0.2 0.3 0.0 0.0 0.0 0.0 0.0 0.0 0.0 0.0 0.0 0.0 0.0
0.0 0.0 0.0 0.0 0.0 0.0 0.0 0.0 0.0 0.0 0.0 0.0 0.0 0.0 0.0 0.0 0.0 0.0 0.0 0.0 0.0 0.0 3.0 0.0 0.0 0.0 0.0 0.0 0.0 0.0 0.0 0.0 0.0 2.2 2.7 1.3 0.3 0.8 0.2 0.3 0.1 0.0 0.0 0.1 0.0 0.0 0.0 0.0 0.0 0.0 0.0 0.0 0.0 0.0
0.0 0.0 0.0 0.0 0.0 0.0 0.0 0.0 0.0 0.0 0.0 0.0 0.0 0.0 0.0 0.0 0.0 0.0 0.0 0.0 0.0 1.2 2.5 0.8 0.0 0.0 0.0 0.0 0.0 0.0 0.0 0.0 0.3 1.4 1.2 1.9 0.9 1.2 0.0 0.0 0.0 0.0 0.0 0.0 0.0 0.0 0.0 0.0 0.0 0.0 0.0 0.0 0.0 0.0
0.0 0.0 0.0 0.0 0.0 0.0 0.0 0.0 0.0 0.0 0.0 0.0 0.0 0.0 0.0 0.0 0.0 0.0 0.0 0.0 0.0 0.0 4.3 4.9 0.0 0.0 0.0 0.0 0.0 0.0 0.0 0.0 0.2 0.4 1.1 0.0 0.0 1.7 1.0 0.6 0.0 0.0 0.0 0.0 0.0 0.0 0.0 0.0 0.0 0.0 0.0 0.0 0.0 0.0
0.0 0.0 0.0 0.0 0.0 0.0 0.0 0.0 0.0 0.0 0.0 0.0 0.0 0.0 0.0 0.0 0.0 0.0 0.0 0.0 0.0 0.0 2.6 10.4 5.5 0.0 0.0 0.0 0.0 0.0 0.0 0.2 0.7 0.8 2.0 1.0 0.0 2.0 2.8 0.1 0.0 0.0 0.0 0.0 0.0 0.0 0.0 0.0 0.0 0.0 0.0 0.0 0.0 0.0
0.0 0.0 0.0 0.0 0.0 0.0 0.0 0.0 0.0 0.0 0.0 0.0 0.0 0.0 0.0 0.0 0.0 0.0 0.0 0.0 0.0 0.0 2.7 11.0 4.0 2.3 0.0 0.2 0.3 0.0 0.3 1.1 1.7 1.6 0.5 0.0 0.2 1.0 1.9 0.0 0.0 0.0 0.1 0.0 0.0 0.0 0.0 0.0 0.0 0.0 0.0 0.0 0.0 0.0
0.0 0.0 0.0 0.0 0.0 0.0 0.0 0.0 0.0 0.0 0.0 0.0 0.0 0.0 0.0 0.0 0.0 0.0 0.0 0.0 0.0 0.0 10.7 7.7 4.2 5.9 0.0 0.0 0.2 0.4 0.7 6.1 0.1 2.2 1.2 0.8 0.0 3.5 0.1 0.0 0.1 0.1 0.2 0.0 0.0 0.0 0.0 0.0 0.0 0.0 0.0 0.0 0.0 0.0
0.0 0.0 0.0 0.0 0.0 0.0 0.0 0.0 0.0 0.0 0.0 0.0 0.0 0.0 19.5 0.0 0.0 0.0 0.0 3.1 14.6 11.6 5.9 5.6 1.1 2.8 0.0 0.0 3.9 0.5 1.0 3.9 7.0 0.1 0.0 1.4 0.6 0.0 0.1 0.1 0.1 0.0 0.0 0.0 0.0 0.0 0.0 0.0 0.0 0.0 0.0 0.0 0.0 0.0
0.0 0.0 0.0 0.0 0.0 0.0 0.0 0.0 0.0 0.0 0.0 0.0 11.9 13.8 0.0 0.0 0.0 0.1 26.0 23.7 14.2 9.4 3.3 1.0 0.1 1.8 0.1 4.6 5.2 3.5 7.9 4.3 9.2 3.8 3.4 4.7 3.4 2.2 0.5 0.4 0.0 0.0 0.0 0.0 0.0 0.0 0.0 0.0 0.0 0.0 0.0 0.0 0.0 0.0
0.0 0.0 0.0 0.0 0.0 0.0 0.0 0.0 0.0 0.0 7.2 0.0 0.0 0.0 0.0 16.6 23.1 23.6 20.3 11.7 6.8 1.0 0.1 0.6 1.6 1.8 0.9 1.1 3.6 2.8 7.0 7.6 5.2 1.0 4.2 3.8 4.4 2.7 1.4 0.2 0.0 0.0 0.0 0.0 0.0 0.0 0.0 0.0 0.0 0.0 0.0 0.0 0.0 0.0
0.0 0.0 0.0 0.0 0.0 0.0 0.0 0.0 0.0 0.0 0.0 0.0 23.1 38.1 36.2 32.1 25.0 14.7 9.0 3.7 1.0 0.0 0.1 2.2 3.0 0.0 1.2 3.0 3.3 5.6 5.7 4.5 1.8 3.0 1.6 2.3 1.0 0.9 1.8 1.1 0.1 0.0 1.2 2.0 0.9 0.4 0.1 0.0 0.0 0.0 0.1 2.1 1.2 2.4
0.0 0.0 0.0 0.0 0.0 0.0 0.0 0.0 0.0 0.0 7.1 26.7 45.5 43.3 23.2 18.4 5.0 2.3 0.4 0.0 0.0 0.0 0.0 0.7 1.8 2.6 1.0 4.5 6.2 6.7 4.0 3.1 2.8 1.0 0.1 0.0 0.0 0.1 0.2 1.2 1.2 1.2 0.1 0.4 0.8 1.2 0.4 0.8 1.1 0.8 1.3 0.6 0.6 0.4
0.0 0.0 0.0 0.0 0.0 0.0 0.0 0.0 0.0 0.0 8.2 45.3 33.5 22.9 12.4 2.4 0.4 0.1 0.4 0.2 0.0 0.0 0.0 0.0 0.1 1.7 4.2 6.9 6.5 3.4 5.0 2.3 1.0 0.5 0.0 0.0 0.1 0.1 0.1 1.0 3.6 3.2 1.8 0.8 0.5 0.3 0.9 1.1 0.8 0.3 0.0 0.0 0.0 0.0
0.0 0.0 0.0 0.0 0.0 0.0 0.0 0.0 0.0 0.0 42.6 41.9 27.2 14.4 3.7 0.1 0.4 0.2 0.2 0.1 0.0 0.0 0.0 1.1 4.5 6.0 5.7 4.2 3.7 2.0 1.7 0.7 0.7 0.4 0.0 0.0 0.0 0.2 0.5 2.1 3.1 1.4 1.3 1.5 1.1 0.0 0.0 0.0 0.0 0.0 0.0 0.0 0.0 0.0
0.0 0.0 0.0 0.0 0.0 0.0 0.0 3.7 9.0 50.5 60.6 44.7 18.8 4.0 0.8 0.8 0.3 0.3 0.4 0.1 0.0 1.0 2.8 4.6 6.3 4.3 2.2 3.4 1.3 0.1 0.1 0.3 0.0 0.2 0.0 0.0 0.0 0.0 0.6 1.2 2.4 1.5 1.9 2.3 1.8 0.5 0.0 0.0 0.0 0.0 0.0 0.0 0.0 0.0
0.0 0.0 0.0 0.0 0.0 0.0 2.6 20.3 40.0 56.7 42.9 20.2 4.9 1.7 1.7 1.2 0.6 0.3 0.5 1.0 2.0 3.2 4.1 6.6 3.1 4.8 3.3 1.8 0.2 0.0 0.0 0.0 0.0 0.0 0.0 0.0 0.0 0.0 0.0 0.8 1.9 2.1 2.1 1.7 0.9 0.0 0.3 0.2 0.1 0.2 0.2 0.2 0.2 0.3
0.0 0.0 0.0 0.0 0.0 3.4 54.5 53.9 39.1 31.6 17.8 6.7 3.5 3.5 2.5 0.9 0.0 0.1 0.0 0.8 1.6 3.2 4.8 6.3 7.9 6.7 1.3 0.4 0.3 0.0 0.0 0.0 0.1 0.0 0.0 0.0 0.0 0.0 0.0 0.0 0.0 0.0 0.6 0.7 0.7 0.5 0.3 0.1 0.1 0.2 0.4 0.6 0.6 0.7
0.0 0.0 0.0 0.0 0.0 32.7 35.9 36.1 22.7 14.3 8.2 6.6 5.5 5.4 3.6 1.8 0.5 0.4 0.2 0.1 0.6 5.1 9.4 8.9 3.5 0.5 0.0 0.1 0.2 0.1 0.0 0.0 0.0 0.0 0.0 0.0 0.0 0.0 0.0 0.0 0.0 0.0 0.0 0.0 0.0 0.0 0.0 0.0 0.0 0.0 0.0 0.0 0.0 0.0
0.0 0.0 0.0 0.0 13.8 34.5 26.6 17.1 14.4 10.8 8.7 7.7 9.7 7.4 7.4 4.2 2.9 2.1 3.9 1.5 9.2 11.9 6.7 1.9 0.1 0.0 0.2 0.1 0.0 0.0 0.1 0.0 0.0 0.0 0.0 0.0 0.0 0.0 0.0 0.0 0.0 0.0 0.1 0.0 0.0 0.0 0.0 0.0 0.0 0.0 0.0 0.0 0.0 0.0
0.8 0.0 2.8 1.0 36.1 27.2 18.2 10.4 7.1 8.4 6.2 9.7 11.3 9.8 10.1 9.3 8.8 8.2 7.3 12.9 14.0 5.1 1.2 0.5 0.5 0.6 0.3 0.3 0.2 0.6 0.0 0.3 0.0 0.0 0.0 0.0 0.0 0.0 0.0 0.0 0.0 0.0 0.1 0.0 0.0 0.0 0.0 0.0 0.0 0.0 0.0 0.0 0.0 0.0
0.0 1.6 26.8 33.9 30.3 17.3 14.6 8.8 6.6 9.0 9.4 12.0 11.5 10.9 12.2 10.6 11.3 11.1 15.0 10.5 4.7 2.4 1.5 1.4 1.1 1.3 1.1 0.7 0.4 0.1 0.1 0.0 0.0 0.2 0.1 0.0 0.0 0.0 0.0 0.0 0.0 0.0 0.1 0.0 0.0 0.4 0.2 0.0 0.0 0.0 0.0 0.0 0.0 0.0
0.0 33.4 35.3 26.4 15.5 11.0 8.4 8.6 5.8 5.6 9.4 10.3 10.0 9.1 7.2 8.5 11.2 12.6 8.6 2.7 2.2 2.4 2.0 2.9 2.4 1.3 1.3 1.3 1.4 1.1 0.7 0.3 0.1 0.1 0.7 0.5 0.1 0.0 0.0 0.0 0.0 0.0 0.0 0.0 0.6 0.5 0.1 0.0 0.0 0.3 0.2 0.1 0.0 0.3
35.7 31.8 21.3 15.2 7.1 3.3 2.5 3.8 4.9 4.8 4.8 6.2 6.4 6.9 6.1 7.0 9.3 6.5 2.9 1.9 3.1 4.1 3.4 2.7 2.1 1.8 1.5 1.4 1.0 1.3 1.3 1.6 1.2 0.5 0.2 1.0 0.7 0.7 0.2 0.6 0.3 0.1 0.2 0.4 0.3 0.1 0.0 0.7 0.4 0.4 0.2 0.6 0.6 0.9
21.2 11.3 8.7 2.7 1.0 0.1 0.5 1.3 2.2 2.8 3.1 4.3 4.9 4.7 5.7 6.7 5.1 3.5 1.8 2.1 3.3 4.3 4.4 3.7 2.6 1.6 1.7 1.7 2.9 2.9 2.1 1.8 1.4 1.0 1.6 1.9 1.3 1.7 1.3 1.0 0.9 1.6 0.8 0.6 0.3 1.6 1.6 1.1 0.8 0.6 1.5 1.2 1.6 1.6
9.5 3.2 1.4 0.1 0.1 0.2 0.4 0.7 0.9 1.3 3.2 3.1 2.5 2.5 3.9 6.0 3.0 1.3 1.2 2.1 3.3 3.9 4.3 4.3 3.8 2.4 2.2 3.2 3.4 3.4 3.2 2.8 2.6 1.2 2.4 2.8 2.5 1.7 1.2 1.1 0.6 0.9 0.8 1.7 2.2 1.9 1.9 1.8 1.6 2.2 2.5 2.7 2.4 1.8
2.4 0.1 0.3 0.1 0.0 0.2 0.7 0.8 0.9 0.9 1.2 0.7 1.8 2.4 2.7 1.8 0.6 0.7 1.3 1.9 3.2 4.1 4.9 5.2 5.0 4.5 4.1 3.8 3.7 5.2 5.3 5.4 4.9 4.1 3.4 3.5 3.7 3.4 2.9 3.4 3.2 3.3 2.7 2.5 3.3 3.3 2.9 2.6 2.8 2.7 2.8 2.5 2.1 2.2
0.1 0.0 0.0 1.0 2.0 2.5 2.4 1.6 0.8 0.3 0.1 0.2 1.0 1.0 0.4 0.3 0.5 0.8 1.2 2.1 3.4 4.5 5.3 6.0 6.5 5.8 6.2 6.0 5.6 5.1 4.5 4.5 4.3 3.7 2.0 2.4 2.9 3.6 4.7 4.7 4.8 5.2 4.3 4.1 3.7 3.3 2.6 2.9 3.2 3.3 3.3 3.0 2.6 2.8
0.5 0.6 1.2 1.9 1.6 1.0 0.7 0.2 0.2 0.1 0.7 0.8 0.7 0.5 0.1 0.2 0.5 0.8 1.2 1.6 2.8 4.4 6.0 6.8 7.1 6.9 6.2 5.5 6.1 6.6 6.7 6.3 5.0 3.0 2.3 2.0 1.6 3.2 4.5 4.8 5.0 3.9 4.4 4.5 4.6 5.4 5.7 5.4 4.9 4.6 3.7 3.5 3.4 3.4
1.2 1.3 1.4 1.3 0.9 0.6 0.8 1.3 1.9 1.9 1.6 1.3 1.0 0.9 0.6 0.1 0.3 0.6 1.0 1.5 2.0 3.5 5.0 6.0 7.5 7.6 6.6 6.0 5.9 5.5 5.7 5.9 6.1 5.5 4.3 4.3 4.4 4.4 4.8 5.0 4.7 5.3 5.3 4.9 3.9 4.0 3.6 2.5 1.8 2.0 2.0 2.3 2.6 2.2
1.7 1.0 0.5 0.4 0.5 1.7 2.2 1.9 1.6 1.3 1.1 0.9 0.7 0.4 0.9 0.8 0.5 0.3 0.5 0.9 1.5 2.8 4.3 5.5 5.7 6.3 6.4 5.6 4.9 5.2 4.1 4.5 4.5 4.9 4.6 4.5 4.0 4.2 4.6 5.0 5.5 5.4 5.2 5.7 5.0 4.4 3.9 3.3 3.8 3.6 3.7 3.7 3.5 3.1
2.2 1.7 1.1 1.5 1.9 1.6 1.9 1.2 1.6 1.6 1.2 1.0 0.5 0.3 0.3 0.4 0.3 0.1 0.3 0.7 1.3 2.2 3.3 3.9 5.1 5.8 5.8 5.2 4.7 4.9 4.4 6.2 6.0 5.9 6.4 5.8 4.9 4.9 5.3 5.3 5.0 5.3 5.3 5.0 4.9 5.0 5.3 5.1 4.7 4.2 4.1 4.0 3.9 3.8

GFSWCAN_prec_snow_138.txt.gz
Snowfall_Accumulation
0.0 0.0 0.0 0.0 0.0 0.0 0.0 0.0 0.0 0.0 0.0 0.0 0.0 0.0 0.0 0.0 0.0 0.0 0.0 0.0 0.0 0.0 0.0 0.0 0.0 0.0 0.0 0.0 0.0 0.0 0.0 0.0 0.0 3.5 2.0 1.3 0.3 0.0 0.4 0.0 0.4 0.5 1.6 1.6 1.8 2.4 0.3 0.0 0.0 0.0 0.0 0.0 0.0 0.0
0.0 0.0 0.0 0.0 0.0 0.0 0.0 0.0 0.0 0.0 0.0 0.0 0.0 0.0 0.0 0.0 0.0 0.0 0.0 0.0 0.0 0.0 0.0 0.0 0.0 0.0 0.0 0.0 0.0 0.0 0.0 0.8 2.3 2.6 3.0 2.7 2.6 2.2 0.7 0.7 0.0 0.3 0.0 0.4 0.6 0.1 0.0 0.0 0.0 0.0 0.0 0.0 0.0 0.0
0.0 0.0 0.0 0.0 0.0 0.0 0.0 0.0 0.0 0.0 0.0 0.0 0.0 0.0 0.0 0.0 0.0 0.0 0.0 0.0 0.0 0.1 0.0 0.0 0.0 0.0 0.0 0.0 0.0 0.1 0.0 0.0 0.0 3.0 1.9 0.2 1.6 1.3 0.6 1.0 0.4 0.2 0.3 0.0 0.0 0.0 0.0 0.0 0.0 0.0 0.0 0.0 0.0 0.0
0.0 0.0 0.0 0.0 0.0 0.0 0.0 0.0 0.0 0.0 0.0 0.0 0.0 0.0 0.0 0.0 0.0 0.0 0.0 0.0 0.0 0.0 3.0 0.0 0.0 0.0 0.0 0.0 0.0 0.0 0.0 0.0 0.0 2.2 2.7 1.3 0.3 0.8 0.2 0.3 0.1 0.0 0.0 0.1 0.0 0.0 0.0 0.0 0.0 0.0 0.0 0.0 0.0 0.0
0.0 0.0 0.0 0.0 0.0 0.0 0.0 0.0 0.0 0.0 0.0 0.0 0.0 0.0 0.0 0.0 0.0 0.0 0.0 0.0 0.0 1.2 2.5 0.8 0.0 0.0 0.0 0.0 0.0 0.0 0.0 0.0 0.3 1.5 1.2 1.9 0.9 1.2 0.0 0.0 0.0 0.0 0.0 0.0 0.0 0.0 0.0 0.0 0.0 0.0 0.0 0.0 0.0 0.0
0.0 0.0 0.0 0.0 0.0 0.0 0.0 0.0 0.0 0.0 0.0 0.0 0.0 0.0 0.0 0.0 0.0 0.0 0.0 0.0 0.0 0.0 4.3 7.2 0.0 0.0 0.0 0.0 0.0 0.0 0.0 0.0 0.2 0.4 1.2 0.0 0.0 1.7 1.0 0.6 0.0 0.0 0.0 0.0 0.0 0.0 0.0 0.0 0.0 0.0 0.0 0.0 0.0 0.0
0.0 0.0 0.0 0.0 0.0 0.0 0.0 0.0 0.0 0.0 0.0 0.0 0.0 0.0 0.0 0.0 0.0 0.0 0.0 0.0 0.0 0.0 2.6 13.5 5.5 0.0 0.0 0.0 0.0 0.0 0.0 0.2 0.7 0.8 2.0 1.0 0.0 2.0 2.8 0.1 0.0 0.0 0.0 0.0 0.0 0.0 0.0 0.0 0.0 0.0 0.0 0.0 0.0 0.0
0.0 0.0 0.0 0.0 0.0 0.0 0.0 0.0 0.0 0.0 0.0 0.0 0.0 0.0 0.0 0.0 0.0 0.0 0.0 0.0 0.0 0.0 2.7 13.7 6.0 2.3 0.0 0.3 0.3 0.0 0.3 1.2 1.7 1.6 0.7 0.0 0.2 1.0 2.1 0.0 0.0 0.0 0.1 0.0 0.0 0.0 0.0 0.0 0.0 0.0 0.0 0.0 0.0 0.0
0.0 0.0 0.0 0.0 0.0 0.0 0.0 0.0 0.0 0.0 0.0 0.0 0.0 0.0 0.0 0.0 0.0 0.0 0.0 0.0 0.0 0.0 13.8 10.2 5.2 6.1 0.0 0.0 0.2 0.4 0.7 6.3 0.4 2.7 1.3 0.8 0.1 3.6 0.1 0.0 0.1 0.1 0.2 0.0 0.0 0.0 0.0 0.0 0.0 0.0 0.0 0.0 0.0 0.0
0.0 0.0 0.0 0.0 0.0 0.0 0.0 0.0 0.0 0.0 0.0 0.0 0.0 0.0 19.5 0.0 0.0 0.0 0.0 3.1 14.6 13.5 7.9 7.8 1.1 3.2 0.1 0.0 3.9 0.6 1.4 4.5 8.1 0.5 0.0 1.6 0.7 0.0 0.1 0.1 0.1 0.0 0.0 0.0 0.0 0.0 0.0 0.0 0.0 0.0 0.0 0.0 0.0 0.0
0.0 0.0 0.0 0.0 0.0 0.0 0.0 0.0 0.0 0.0 0.0 0.0 11.9 13.8 0.0 0.0 0.0 0.1 26.0 24.4 14.2 10.5 4.0 1.2 0.1 1.8 0.1 4.6 5.2 3.7 8.7 5.2 10.3 4.1 3.4 4.9 3.4 2.2 0.5 0.4 0.0 0.0 0.0 0.0 0.0 0.0 0.0 0.0 0.0 0.0 0.0 0.0 0.0 0.0
0.0 0.0 0.0 0.0 0.0 0.0 0.0 0.0 0.0 0.0 7.2 0.0 0.0 0.0 0.0 16.6 23.3 23.7 20.3 11.8 7.1 1.0 0.1 0.6 1.6 1.8 0.9 1.1 4.1 3.8 8.4 9.3 6.7 1.6 4.9 4.1 4.4 2.7 1.4 0.2 0.0 0.0 0.0 0.0 0.0 0.0 0.0 0.0 0.0 0.0 0.0 0.0 0.0 0.0
0.0 0.0 0.0 0.0 0.0 0.0 0.0 0.0 0.0 0.0 0.0 0.0 23.7 38.3 36.2 32.1 25.3 15.1 9.1 3.7 1.1 0.0 0.1 2.2 3.0 0.0 1.2 3.4 4.5 7.2 7.5 5.9 2.8 4.4 2.3 2.3 1.0 0.9 1.8 1.1 0.1 0.0 1.2 2.0 0.9 0.4 0.1 0.0 0.0 0.0 0.1 2.1 1.2 2.4
0.0 0.0 0.0 0.0 0.0 0.0 0.0 0.0 0.0 0.0 7.1 28.4 46.4 43.6 23.2 18.4 5.3 2.3 0.4 0.0 0.0 0.2 0.1 0.7 1.8 2.6 1.0 4.8 6.8 7.7 5.0 4.0 3.8 1.7 0.1 0.0 0.0 0.1 0.2 1.2 1.2 1.2 0.1 0.4 0.8 1.2 0.4 0.8 1.1 0.8 1.3 0.6 0.6 0.4
0.0 0.0 0.0 0.0 0.0 0.0 0.0 0.0 0.0 0.0 9.7 47.5 34.7 23.2 12.5 2.4 0.4 0.1 0.4 0.2 0.0 0.0 0.0 0.0 0.1 1.9 4.7 7.8 6.5 3.4 6.0 2.3 1.0 0.5 0.0 0.0 0.1 0.1 0.1 1.0 3.6 3.2 1.8 0.8 0.5 0.3 0.9 1.1 0.8 0.3 0.0 0.0 0.0 0.0
0.0 0.0 0.0 0.0 0.0 0.0 0.0 0.0 0.0 0.0 43.9 44.2 28.8 14.7 3.7 0.3 0.4 0.2 0.2 0.1 0.0 0.0 0.0 1.7 4.5 7.4 6.6 4.7 4.2 2.7 2.6 1.2 0.7 0.4 0.0 0.0 0.0 0.2 0.5 2.1 3.1 1.4 1.3 1.5 1.1 0.0 0.0 0.0 0.0 0.0 0.0 0.0 0.0 0.0
0.0 0.0 0.0 0.0 0.0 0.0 0.0 3.7 9.0 51.3 61.5 45.7 18.8 4.0 0.8 0.8 0.3 0.3 0.4 0.1 0.0 1.3 3.1 5.2 7.5 5.6 3.4 4.9 2.2 0.1 0.1 0.3 0.0 0.2 0.0 0.0 0.0 0.0 0.6 1.2 2.4 1.5 1.9 2.3 1.8 0.5 0.0 0.0 0.0 0.0 0.0 0.0 0.0 0.0
0.0 0.0 0.0 0.0 0.0 0.0 2.6 20.3 40.7 57.5 43.6 20.2 4.9 1.7 1.7 1.2 0.6 0.3 0.5 1.0 2.1 3.2 4.3 6.6 3.8 4.8 4.5 3.0 0.9 0.6 0.3 0.0 0.0 0.0 0.0 0.0 0.0 0.0 0.0 0.8 1.9 2.1 2.1 1.7 0.9 0.0 0.3 0.2 0.1 0.2 0.2 0.2 0.2 0.3
0.0 0.0 0.0 0.0 0.0 5.0 55.3 54.4 39.4 32.2 17.8 6.7 3.5 3.5 2.5 0.9 0.0 0.1 0.0 0.8 1.6 3.2 4.8 6.3 8.5 6.7 1.3 0.4 0.3 0.0 0.0 0.0 0.1 0.0 0.0 0.0 0.0 0.0 0.0 0.0 0.0 0.0 0.6 0.7 0.7 0.5 0.3 0.1 0.1 0.2 0.4 0.6 0.6 0.7
0.0 0.0 0.0 0.0 0.0 34.5 37.1 36.7 23.4 14.3 8.2 6.6 5.5 5.4 3.6 1.8 0.5 0.4 0.2 0.1 0.6 5.1 9.4 8.9 3.5 0.5 0.0 0.1 0.2 0.1 0.0 0.0 0.0 0.0 0.0 0.0 0.0 0.0 0.0 0.0 0.0 0.0 0.0 0.0 0.0 0.0 0.0 0.0 0.0 0.0 0.0 0.0 0.0 0.0
0.0 0.0 0.0 0.0 13.8 36.0 27.3 17.1 15.0 10.8 8.7 7.7 9.7 7.4 7.4 4.2 2.9 2.1 3.9 1.5 9.2 11.9 6.7 1.9 0.1 0.0 0.2 0.1 0.0 0.0 0.1 0.0 0.0 0.0 0.0 0.0 0.0 0.0 0.0 0.0 0.0 0.0 0.1 0.0 0.0 0.0 0.0 0.0 0.0 0.0 0.0 0.0 0.0 0.0
0.8 0.0 2.8 1.0 38.4 28.6 19.1 10.4 7.3 8.4 6.2 9.7 11.3 9.8 10.1 9.3 8.8 8.2 7.3 13.0 14.0 5.1 1.2 0.5 0.5 0.6 0.3 0.3 0.2 0.6 0.0 0.3 0.0 0.0 0.0 0.0 0.0 0.0 0.0 0.0 0.0 0.0 0.1 0.0 0.0 0.0 0.0 0.0 0.0 0.0 0.0 0.0 0.0 0.0
0.0 1.6 28.5 34.9 31.2 18.1 15.1 8.8 6.6 9.0 9.9 12.4 11.5 11.1 12.3 10.6 11.3 11.1 15.0 10.5 4.7 2.4 1.5 1.4 1.1 1.3 1.1 0.7 0.4 0.1 0.1 0.0 0.0 0.2 0.1 0.0 0.0 0.0 0.0 0.0 0.0 0.0 0.1 0.0 0.0 0.4 0.2 0.0 0.0 0.0 0.0 0.0 0.0 0.0
0.0 34.9 36.8 27.5 15.9 11.2 8.4 8.6 5.8 5.6 9.4 10.3 10.0 9.1 7.2 8.5 11.2 12.6 8.6 2.7 2.2 2.4 2.0 2.9 2.4 1.3 1.3 1.3 1.4 1.1 0.7 0.3 0.1 0.1 0.7 0.5 0.1 0.0 0.0 0.0 0.0 0.0 0.0 0.0 0.6 0.5 0.1 0.0 0.0 0.3 0.2 0.1 0.0 0.3
38.6 34.8 22.2 15.9 7.4 3.5 2.5 3.8 4.9 4.8 4.8 6.2 6.4 6.9 6.1 7.0 9.3 6.5 2.9 1.9 3.1 4.1 3.5 2.8 2.2 1.9 1.6 1.4 1.0 1.3 1.3 1.6 1.2 0.5 0.2 1.0 0.7 0.7 0.2 0.6 0.3 0.1 0.2 0.4 0.3 0.1 0.0 0.7 0.7 0.4 0.2 0.6 0.7 0.9
23.2 12.6 9.9 3.1 1.0 0.1 0.5 1.3 2.2 2.8 3.1 4.3 4.9 4.7 5.7 6.7 5.1 3.5 1.8 2.1 3.4 4.5 4.9 4.2 3.0 2.0 2.2 2.0 3.2 3.1 2.1 1.8 1.4 1.0 1.6 1.9 1.3 1.7 1.3 1.0 0.9 1.6 0.8 0.6 0.3 1.6 1.6 1.1 1.0 0.6 1.6 1.2 1.7 1.6
10.8 3.8 1.6 0.1 0.1 0.2 0.4 0.7 0.9 1.3 3.2 3.1 2.5 2.5 3.9 6.0 3.0 1.3 1.2 2.1 3.3 4.0 4.3 4.3 3.8 3.7 3.4 3.9 3.4 3.4 3.2 2.8 2.6 1.2 2.4 2.8 2.5 1.7 1.2 1.1 0.6 0.9 0.8 1.7 2.2 1.9 1.9 1.8 1.6 2.3 2.5 2.7 2.5 1.8
2.4 0.1 0.3 0.1 0.0 0.2 0.7 0.8 0.9 0.9 1.2 0.7 1.8 2.4 2.7 1.8 0.6 0.7 1.3 1.9 3.2 4.1 4.9 5.2 5.0 4.5 4.7 4.3 4.2 5.6 5.4 5.4 4.9 4.1 3.4 3.5 3.7 3.4 2.9 3.4 3.2 3.3 2.7 2.5 3.3 3.3 2.9 2.6 2.8 2.7 2.8 2.7 2.1 2.2
0.2 0.0 0.0 1.0 2.0 2.5 2.4 1.6 0.8 0.3 0.1 0.2 1.0 1.0 0.4 0.3 0.5 0.8 1.2 2.1 3.4 4.5 5.3 6.0 6.5 5.8 7.4 6.6 6.0 5.4 4.7 4.6 4.3 3.7 2.0 2.4 2.9 3.6 4.7 4.7 4.8 5.2 4.3 4.1 3.7 3.3 2.6 2.9 3.2 3.4 3.3 3.0 2.6 2.8
0.5 0.6 1.2 1.9 1.6 1.0 0.7 0.2 0.2 0.1 0.7 0.8 0.7 0.5 0.1 0.2 0.5 0.8 1.2 1.6 2.8 4.4 6.0 6.8 7.1 7.8 6.5 5.6 6.1 6.6 6.7 6.3 5.1 3.0 2.4 2.0 1.6 3.2 4.5 4.8 5.0 3.9 4.4 4.5 4.6 5.4 5.7 5.4 4.9 4.6 3.8 3.5 3.5 3.5
1.2 1.3 1.4 1.3 0.9 0.6 0.8 1.3 1.9 1.9 1.6 1.3 1.0 0.9 0.6 0.1 0.3 0.6 1.0 1.5 2.0 3.5 5.0 6.0 7.5 7.6 6.6 6.0 5.9 5.5 5.7 5.9 6.1 5.5 4.3 4.3 4.4 4.4 4.8 5.0 4.7 5.3 5.3 4.9 3.9 4.0 3.6 2.5 1.8 2.0 2.0 2.3 2.7 2.2
1.7 1.0 0.5 0.4 0.5 1.7 2.2 1.9 1.6 1.3 1.1 0.9 0.7 0.4 0.9 0.8 0.6 0.3 0.5 0.9 1.5 2.8 4.3 5.5 5.7 6.3 6.4 5.6 4.9 5.2 4.1 4.5 4.5 4.9 4.6 4.5 4.0 4.2 4.6 5.0 5.5 5.4 5.2 5.7 5.0 4.4 3.9 3.3 3.9 3.7 3.7 3.7 3.5 3.1
2.2 1.7 1.1 1.5 1.9 1.6 1.9 1.2 1.6 1.6 1.2 1.0 0.5 0.3 0.3 0.8 0.6 0.1 0.3 0.7 1.3 2.2 3.3 3.9 5.1 5.8 5.8 5.2 4.7 4.9 4.4 6.2 6.0 5.9 6.5 5.8 4.9 4.9 5.3 5.3 5.0 5.4 5.3 5.0 5.0 5.1 5.4 5.2 4.8 4.2 4.1 4.1 4.0 3.8

GFSWCAN_prec_snow_141.txt.gz
Snowfall_Accumulation
0.0 0.0 0.0 0.0 0.0 0.0 0.0 0.0 0.0 0.0 0.0 0.0 0.0 0.0 0.0 0.0 0.0 0.0 0.0 0.0 0.0 0.0 0.0 0.0 0.0 0.0 0.0 0.0 0.0 0.0 0.0 0.0 0.0 3.5 2.0 1.3 0.3 0.0 0.4 0.0 0.4 0.5 1.6 1.6 1.8 2.4 0.3 0.0 0.0 0.0 0.0 0.0 0.0 0.0
0.0 0.0 0.0 0.0 0.0 0.0 0.0 0.0 0.0 0.0 0.0 0.0 0.0 0.0 0.0 0.0 0.0 0.0 0.0 0.0 0.0 0.0 0.0 0.0 0.0 0.0 0.0 0.0 0.0 0.0 0.0 0.8 2.3 2.6 3.0 2.7 2.6 2.2 0.7 0.7 0.0 0.3 0.0 0.4 0.6 0.1 0.0 0.0 0.0 0.0 0.0 0.0 0.0 0.0
0.0 0.0 0.0 0.0 0.0 0.0 0.0 0.0 0.0 0.0 0.0 0.0 0.0 0.0 0.0 0.0 0.0 0.0 0.0 0.0 0.0 0.1 0.0 0.0 0.0 0.0 0.0 0.0 0.0 0.1 0.0 0.0 0.0 3.0 1.9 0.2 1.7 1.3 0.6 1.0 0.4 0.2 0.3 0.0 0.0 0.0 0.0 0.0 0.0 0.0 0.0 0.0 0.0 0.0
0.0 0.0 0.0 0.0 0.0 0.0 0.0 0.0 0.0 0.0 0.0 0.0 0.0 0.0 0.0 0.0 0.0 0.0 0.0 0.0 0.0 0.0 3.0 0.0 0.0 0.0 0.0 0.0 0.0 0.0 0.0 0.0 0.0 2.2 2.7 1.3 0.3 0.8 0.2 0.3 0.1 0.0 0.0 0.1 0.0 0.0 0.0 0.0 0.0 0.0 0.0 0.0 0.0 0.0
0.0 0.0 0.0 0.0 0.0 0.0 0.0 0.0 0.0 0.0 0.0 0.0 0.0 0.0 0.0 0.0 0.0 0.0 0.0 0.0 0.0 1.2 2.5 0.8 0.0 0.0 0.0 0.0 0.0 0.0 0.0 0.0 0.3 1.5 2.1 2.2 0.9 1.2 0.0 0.0 0.0 0.0 0.0 0.0 0.0 0.0 0.0 0.0 0.0 0.0 0.0 0.0 0.0 0.0
0.0 0.0 0.0 0.0 0.0 0.0 0.0 0.0 0.0 0.0 0.0 0.0 0.0 0.0 0.0 0.0 0.0 0.0 0.0 0.0 0.0 0.0 4.3 7.2 0.0 0.0 0.0 0.0 0.0 0.0 0.0 0.0 0.2 1.0 1.7 0.1 0.0 1.7 1.1 0.7 0.0 0.0 0.0 0.0 0.0 0.0 0.0 0.0 0.0 0.0 0.0 0.0 0.0 0.0
0.0 0.0 0.0 0.0 0.0 0.0 0.0 0.0 0.0 0.0 0.0 0.0 0.0 0.0 0.0 0.0 0.0 0.0 0.0 0.0 0.0 0.0 2.6 16.0 5.5 0.0 0.0 0.0 0.0 0.0 0.0 0.2 0.7 0.9 2.3 1.1 0.0 2.0 3.0 0.4 0.0 0.0 0.0 0.0 0.0 0.0 0.0 0.0 0.0 0.0 0.0 0.0 0.0 0.0
0.0 0.0 0.0 0.0 0.0 0.0 0.0 0.0 0.0 0.0 0.0 0.0 0.0 0.0 0.0 0.0 0.0 0.0 0.0 0.0 0.0 0.0 2.7 16.8 7.6 2.3 0.0 0.3 0.3 0.0 0.3 1.4 2.2 2.1 1.4 0.4 0.4 1.2 3.2 0.0 0.0 0.0 0.1 0.0 0.0 0.0 0.0 0.0 0.0 0.0 0.0 0.0 0.0 0.0
0.0 0.0 0.0 0.0 0.0 0.0 0.0 0.0 0.0 0.0 0.0 0.0 0.0 0.0 0.0 0.0 0.0 0.0 0.0 0.0 0.0 0.0 16.1 10.2 6.0 6.5 0.0 0.0 0.2 0.4 1.0 7.2 1.5 4.2 1.9 0.8 1.1 4.6 0.1 0.0 0.1 0.1 0.2 0.0 0.0 0.0 0.0 0.0 0.0 0.0 0.0 0.0 0.0 0.0
0.0 0.0 0.0 0.0 0.0 0.0 0.0 0.0 0.0 0.0 0.0 0.0 0.0 0.0 19.5 0.0 0.0 0.0 0.0 3.1 14.6 13.5 8.9 8.9 1.7 3.9 0.1 0.0 3.9 1.0 2.1 5.0 9.0 0.9 0.0 2.2 0.7 0.0 0.1 0.1 0.1 0.0 0.0 0.0 0.0 0.0 0.0 0.0 0.0 0.0 0.0 0.0 0.0 0.0
0.0 0.0 0.0 0.0 0.0 0.0 0.0 0.0 0.0 0.0 0.0 0.0 11.9 13.8 0.0 0.0 0.0 0.1 26.0 24.6 14.3 10.6 4.0 1.2 0.1 1.8 0.1 4.6 5.2 4.1 9.4 5.6 10.9 4.1 3.4 5.3 3.4 2.2 0.5 0.4 0.0 0.0 0.0 0.0 0.0 0.0 0.0 0.0 0.0 0.0 0.0 0.0 0.0 0.0
0.0 0.0 0.0 0.0 0.0 0.0 0.0 0.0 0.0 0.0 7.2 0.0 0.0 0.0 0.0 16.6 23.3 23.7 20.4 11.8 7.3 1.0 0.1 0.6 1.6 1.8 0.9 1.1 4.2 4.3 8.4 9.9 7.2 1.6 5.6 4.4 4.4 2.7 1.4 0.2 0.0 0.0 0.0 0.0 0.0 0.0 0.0 0.0 0.0 0.0 0.0 0.0 0.0 0.0
0.0 0.0 0.0 0.0 0.0 0.0 0.0 0.0 0.0 0.0 0.0 0.0 23.7 39.3 36.6 32.2 25.5 15.5 9.3 3.9 1.1 0.0 0.1 2.2 3.0 0.1 1.4 3.7 5.4 8.3 8.4 6.4 2.8 5.2 2.3 2.3 1.0 0.9 1.8 1.1 0.1 0.0 1.2 2.0 0.9 0.4 0.1 0.0 0.0 0.0 0.1 2.1 1.2 2.4
0.0 0.0 0.0 0.0 0.0 0.0 0.0 0.0 0.0 0.0 7.1 29.0 47.4 44.6 23.6 18.4 5.3 2.3 0.4 0.0 0.0 0.2 0.5 0.7 2.0 2.9 1.2 5.7 7.6 8.5 5.0 4.8 3.8 2.5 0.3 0.0 0.0 0.1 0.2 1.2 1.2 1.2 0.1 0.4 0.8 1.2 0.4 0.8 1.1 0.8 1.3 0.6 0.6 0.4
0.0 0.0 0.0 0.0 0.0 0.0 0.0 0.0 0.0 0.0 11.1 48.5 35.8 23.7 12.5 2.4 0.4 0.2 0.5 0.2 0.0 0.1 0.0 0.0 0.1 2.4 4.7 8.5 6.5 3.4 6.3 2.3 1.0 0.5 0.0 0.0 0.1 0.1 0.1 1.0 3.6 3.2 1.8 0.8 0.5 0.3 0.9 1.1 0.8 0.3 0.0 0.0 0.0 0.0
0.0 0.0 0.0 0.0 0.0 0.0 0.0 0.0 0.0 0.0 46.8 45.4 29.6 14.9 3.7 0.3 0.4 0.2 0.2 0.1 0.0 0.0 0.0 2.0 4.8 8.0 7.7 6.0 5.7 3.8 3.5 1.5 0.7 0.4 0.0 0.1 0.0 0.2 0.5 2.1 3.1 1.4 1.3 1.5 1.1 0.0 0.0 0.0 0.0 0.0 0.0 0.0 0.0 0.0
0.0 0.0 0.0 0.0 0.0 0.0 0.0 3.7 9.0 54.4 64.0 46.7 18.9 4.0 0.8 0.8 0.3 0.3 0.4 0.1 0.0 1.8 3.1 5.5 7.9 5.9 3.4 4.9 2.2 0.1 0.5 0.6 0.0 0.3 0.1 0.0 0.0 0.0 0.6 1.2 2.4 1.5 1.9 2.3 1.8 0.5 0.0 0.0 0.0 0.0 0.0 0.0 0.0 0.0
0.0 0.0 0.0 0.0 0.0 0.0 2.6 20.3 44.2 60.0 44.7 20.4 4.9 1.7 1.7 1.2 0.6 0.3 0.5 1.0 2.1 3.2 4.3 6.8 4.0 5.0 4.7 3.1 0.9 0.6 0.3 0.0 0.0 0.0 0.0 0.0 0.0 0.0 0.0 0.8 1.9 2.1 2.1 1.7 0.9 0.0 0.3 0.2 0.1 0.2 0.2 0.2 0.2 0.3
0.0 0.0 0.0 0.0 0.0 5.0 57.3 56.5 41.5 34.1 18.2 6.7 3.5 3.5 2.5 0.9 0.0 0.1 0.0 0.8 1.6 3.2 5.0 6.5 8.7 6.8 1.3 0.4 0.3 0.0 0.0 0.0 0.1 0.0 0.0 0.0 0.0 0.0 0.0 0.0 0.0 0.0 0.6 0.7 0.7 0.5 0.3 0.1 0.1 0.2 0.4 0.6 0.6 0.7
0.0 0.0 0.0 0.0 0.0 37.5 40.6 38.1 24.0 14.6 8.3 6.6 5.5 5.4 3.6 1.8 0.5 0.4 0.2 0.1 0.6 5.1 9.4 9.1 3.5 0.5 0.0 0.1 0.2 0.1 0.0 0.0 0.0 0.0 0.0 0.0 0.0 0.0 0.0 0.0 0.0 0.0 0.0 0.0 0.0 0.0 0.0 0.0 0.0 0.0 0.0 0.0 0.0 0.0
0.0 0.0 0.0 0.0 13.8 39.0 29.6 18.2 15.6 10.9 8.7 7.7 9.7 7.4 7.4 4.2 2.9 2.1 3.9 1.5 9.3 12.0 6.7 1.9 0.1 0.0 0.2 0.1 0.0 0.0 0.1 0.0 0.0 0.0 0.0 0.0 0.0 0.0 0.0 0.0 0.0 0.0 0.1 0.0 0.0 0.0 0.0 0.0 0.0 0.0 0.0 0.0 0.0 0.0
0.8 0.0 2.8 1.0 41.0 32.2 21.9 11.1 7.4 8.4 6.2 9.7 11.3 9.8 10.1 9.3 8.8 8.2 7.3 13.0 14.0 5.1 1.2 0.5 0.5 0.6 0.3 0.3 0.2 0.6 0.0 0.3 0.0 0.0 0.0 0.0 0.0 0.0 0.0 0.0 0.0 0.0 0.1 0.0 0.0 0.0 0.0 0.0 0.0 0.0 0.0 0.0 0.0 0.0
0.0 1.6 29.5 36.4 33.3 20.2 17.0 9.5 7.1 9.2 9.9 12.4 11.5 11.1 12.3 10.6 11.3 11.1 15.0 10.5 4.7 2.4 1.5 1.4 1.1 1.3 1.1 0.7 0.4 0.1 0.1 0.0 0.0 0.2 0.1 0.0 0.0 0.0 0.0 0.0 0.0 0.0 0.1 0.0 0.0 0.4 0.2 0.0 0.0 0.0 0.0 0.1 0.0 0.1
0.0 35.9 38.3 29.3 17.2 12.2 9.0 9.1 6.1 5.7 9.4 10.3 10.0 9.1 7.2 8.5 11.2 12.6 8.6 2.7 2.2 2.4 2.0 2.9 2.4 1.3 1.4 1.3 1.5 1.1 0.7 0.4 0.3 0.2 0.7 0.5 0.1 0.0 0.0 0.0 0.0 0.0 0.0 0.0 0.6 0.5 0.1 0.0 0.0 0.3 0.2 0.1 0.4 0.6
41.0 37.0 23.2 17.0 8.4 4.0 2.8 3.9 5.0 4.8 4.8 6.2 6.4 6.9 6.1 7.0 9.3 6.5 2.9 1.9 3.1 4.1 3.5 2.8 2.5 2.5 1.6 2.5 1.5 1.7 1.3 2.1 2.5 1.5 0.6 1.0 0.7 0.7 0.2 0.6 0.3 0.1 0.2 0.4 0.3 0.1 0.0 0.7 0.7 0.4 0.2 0.6 1.3 1.4
25.3 13.6 10.8 3.1 1.0 0.1 0.5 1.3 2.2 2.8 3.1 4.3 4.9 4.7 5.7 6.7 5.1 3.5 1.8 2.1 3.4 4.5 4.9 4.2 3.0 2.0 2.8 2.0 4.2 3.1 2.1 1.8 1.4 3.1 2.6 2.0 1.3 1.8 1.4 1.0 0.9 1.6 0.8 0.6 0.3 1.6 1.6 1.1 1.0 0.6 1.6 1.7 2.4 2.2
11.8 4.6 2.2 0.1 0.1 0.2 0.4 0.7 0.9 1.3 3.2 3.1 2.5 2.5 3.9 6.0 3.0 1.3 1.2 2.1 3.3 4.0 4.3 4.3 3.8 3.7 3.4 3.9 3.4 3.4 3.2 2.8 3.2 1.2 2.4 2.8 2.5 1.7 1.2 1.1 0.6 0.9 0.8 1.7 2.2 1.9 1.9 1.8 1.6 2.3 2.9 3.3 3.3 2.3
2.4 0.1 0.3 0.1 0.0 0.2 0.7 0.8 0.9 0.9 1.2 0.7 1.8 2.4 2.7 1.8 0.6 0.7 1.3 1.9 3.2 4.1 4.9 5.2 5.0 4.5 4.7 4.3 4.2 5.6 5.4 5.4 5.2 4.3 3.5 3.5 3.7 3.4 2.9 3.4 3.2 3.3 2.7 2.5 3.3 3.3 2.9 2.6 2.8 2.8 3.2 3.3 2.9 2.6
0.4 0.0 0.0 1.0 2.0 2.5 2.4 1.6 0.8 0.3 0.1 0.2 1.0 1.0 0.4 0.3 0.5 0.8 1.2 2.1 3.4 4.5 5.3 6.0 6.5 5.8 7.4 7.0 6.0 5.4 4.7 5.2 4.7 3.9 2.1 2.4 2.9 3.6 4.7 4.7 4.8 5.2 4.3 4.1 3.7 3.3 2.6 3.3 3.5 3.6 3.8 3.7 3.2 3.3
0.5 0.6 1.2 1.9 1.6 1.0 0.7 0.2 0.2 0.1 0.7 0.8 0.7 0.5 0.1 0.2 0.5 0.8 1.2 1.6 2.8 4.4 6.0 6.8 7.1 8.0 6.8 5.7 6.1 6.7 7.0 6.7 5.4 3.3 2.7 2.3 1.8 3.4 4.5 4.9 5.2 3.9 4.4 4.5 4.6 6.0 5.7 5.4 5.5 5.2 4.3 4.0 3.9 3.8
1.2 1.3 1.4 1.3 0.9 0.6 0.8 1.3 1.9 1.9 1.6 1.3 1.0 0.9 0.6 0.1 0.3 0.6 1.0 1.5 2.1 3.5 5.5 6.4 7.8 7.9 6.7 6.1 5.9 5.5 5.7 5.9 6.1 5.5 4.3 4.3 4.4 4.4 4.8 5.0 4.7 5.3 5.4 5.0 4.0 4.1 3.7 2.8 2.1 2.4 2.3 2.5 2.8 2.3
1.7 1.0 0.5 0.4 0.5 1.7 2.2 1.9 1.6 1.3 1.1 0.9 0.7 0.4 0.9 0.8 0.6 0.3 0.5 0.9 1.5 2.8 4.3 5.5 5.9 6.4 6.4 5.6 4.9 5.2 4.1 4.5 4.5 4.9 4.6 4.5 4.0 4.2 4.6 5.0 5.5 5.4 5.2 5.7 5.0 4.4 3.9 3.3 4.0 3.7 3.8 3.8 3.6 3.2
2.2 1.7 1.1 1.5 1.9 1.6 1.9 1.2 1.6 1.6 1.2 1.0 0.5 0.3 0.3 0.8 0.7 0.1 0.3 0.7 1.3 2.2 3.3 3.9 5.1 5.9 5.8 5.2 4.7 4.9 4.4 6.2 6.0 5.9 6.5 5.8 4.9 4.9 5.3 5.4 5.0 5.4 5.3 5.2 5.2 5.2 5.5 5.2 4.9 4.3 4.2 4.2 4.1 3.9

GFSWCAN_prec_snow_144.txt.gz
Snowfall_Accumulation
0.0 0.0 0.0 0.0 0.0 0.0 0.0 0.0 0.0 0.0 0.0 0.0 0.0 0.0 0.0 0.0 0.0 0.0 0.0 0.0 0.0 0.0 0.0 0.0 0.0 0.0 0.0 0.0 0.0 0.0 0.0 0.0 0.0 3.5 2.0 1.3 0.3 0.0 0.4 0.0 0.4 0.5 1.6 1.6 1.8 2.4 0.3 0.0 0.0 0.0 0.0 0.0 0.0 0.0
0.0 0.0 0.0 0.0 0.0 0.0 0.0 0.0 0.0 0.0 0.0 0.0 0.0 0.0 0.0 0.0 0.0 0.0 0.0 0.0 0.0 0.0 0.0 0.0 0.0 0.0 0.0 0.0 0.0 0.0 0.0 0.8 2.3 2.6 3.0 2.7 2.6 2.2 0.7 0.7 0.0 0.3 0.0 0.4 0.6 0.1 0.0 0.0 0.0 0.0 0.0 0.0 0.0 0.0
0.0 0.0 0.0 0.0 0.0 0.0 0.0 0.0 0.0 0.0 0.0 0.0 0.0 0.0 0.0 0.0 0.0 0.0 0.0 0.0 0.0 0.1 0.0 0.0 0.0 0.0 0.0 0.0 0.0 0.1 0.0 0.0 0.0 3.0 1.9 0.2 1.9 1.3 0.6 1.0 0.4 0.2 0.3 0.0 0.0 0.0 0.0 0.0 0.0 0.0 0.0 0.0 0.0 0.0
0.0 0.0 0.0 0.0 0.0 0.0 0.0 0.0 0.0 0.0 0.0 0.0 0.0 0.0 0.0 0.0 0.0 0.0 0.0 0.0 0.0 0.0 3.4 0.0 0.0 0.0 0.0 0.0 0.0 0.0 0.0 0.0 0.0 2.2 2.7 2.4 0.9 0.8 0.2 0.3 0.1 0.0 0.0 0.1 0.0 0.0 0.0 0.0 0.0 0.0 0.0 0.0 0.0 0.0
0.0 0.0 0.0 0.0 0.0 0.0 0.0 0.0 0.0 0.0 0.0 0.0 0.0 0.0 0.0 0.0 0.0 0.0 0.0 0.0 0.0 1.2 2.5 0.8 0.0 0.0 0.0 0.0 0.0 0.0 0.0 0.0 0.3 3.2 4.4 3.7 1.3 1.3 0.0 0.4 0.2 0.0 0.0 0.0 0.0 0.0 0.0 0.0 0.0 0.0 0.0 0.0 0.0 0.0
0.0 0.0 0.0 0.0 0.0 0.0 0.0 0.0 0.0 0.0 0.0 0.0 0.0 0.0 0.0 0.0 0.0 0.0 0.0 0.0 0.0 0.0 4.3 7.7 0.0 0.0 0.0 0.0 0.0 0.0 0.0 0.0 0.2 2.5 3.2 0.9 0.0 1.7 1.9 1.5 0.0 0.0 0.0 0.0 0.0 0.0 0.0 0.0 0.0 0.0 0.0 0.0 0.0 0.0
0.0 0.0 0.0 0.0 0.0 0.0 0.0 0.0 0.0 0.0 0.0 0.0 0.0 0.0 0.0 0.0 0.0 0.0 0.0 0.0 0.0 0.0 2.6 17.7 5.5 0.0 0.0 0.0 0.0 0.0 0.0 0.2 0.7 0.9 3.0 1.1 0.0 2.0 3.6 0.9 0.0 0.0 0.0 0.0 0.0 0.0 0.0 0.0 0.0 0.0 0.0 0.0 0.0 0.0
0.0 0.0 0.0 0.0 0.0 0.0 0.0 0.0 0.0 0.0 0.0 0.0 0.0 0.0 0.0 0.0 0.0 0.0 0.0 0.0 0.0 0.0 2.7 16.8 7.6 2.3 0.0 0.3 0.3 0.0 0.3 1.9 3.3 3.2 2.2 0.7 0.4 1.2 4.2 0.0 0.0 0.0 0.1 0.0 0.0 0.0 0.0 0.0 0.0 0.0 0.0 0.0 0.0 0.0
0.0 0.0 0.0 0.0 0.0 0.0 0.0 0.0 0.0 0.0 0.0 0.0 0.0 0.0 0.0 0.0 0.0 0.0 0.0 0.0 0.0 0.0 16.1 10.2 6.0 6.5 0.0 0.0 0.2 0.6 1.3 7.7 2.1 5.3 2.3 1.2 1.8 5.2 0.1 0.0 0.1 0.1 0.2 0.0 0.0 0.0 0.0 0.0 0.0 0.0 0.0 0.0 0.0 0.0
0.0 0.0 0.0 0.0 0.0 0.0 0.0 0.0 0.0 0.0 0.0 0.0 0.0 0.0 19.5 0.0 0.0 0.0 0.0 3.1 14.6 13.5 8.9 9.6 1.7 3.9 0.1 0.0 3.9 1.0 2.5 5.0 9.6 0.9 0.0 3.0 1.2 0.0 0.1 0.1 0.1 0.0 0.0 0.0 0.0 0.0 0.0 0.0 0.0 0.0 0.0 0.0 0.0 0.0
0.0 0.0 0.0 0.0 0.0 0.0 0.0 0.0 0.0 0.0 0.0 0.0 12.0 13.8 0.0 0.0 0.0 0.1 26.0 24.8 14.6 11.0 4.2 1.2 0.1 1.8 0.1 4.6 5.2 4.1 9.4 5.6 11.4 4.1 3.4 5.5 3.4 2.2 0.5 0.4 0.0 0.0 0.0 0.0 0.0 0.0 0.0 0.0 0.0 0.0 0.0 0.0 0.0 0.0
0.0 0.0 0.0 0.0 0.0 0.0 0.0 0.0 0.0 0.0 7.2 0.0 0.0 0.0 0.0 16.6 23.3 23.9 20.6 11.8 7.3 1.0 0.1 0.6 1.6 1.8 1.0 1.1 4.6 5.0 9.0 10.4 7.5 1.6 5.8 4.6 4.4 2.7 1.4 0.2 0.0 0.0 0.0 0.0 0.0 0.0 0.0 0.0 0.0 0.0 0.0 0.0 0.0 0.0
0.0 0.0 0.0 0.0 0.0 0.0 0.0 0.0 0.0 0.0 0.0 0.0 25.1 39.7 36.6 32.2 25.9 15.8 9.3 3.9 1.1 0.0 0.1 2.2 3.0 0.5 1.7 3.7 6.6 9.3 9.0 6.4 2.8 5.7 2.3 2.3 1.0 1.0 1.9 1.1 0.1 0.0 1.2 2.0 0.9 0.4 0.1 0.0 0.0 0.0 0.1 2.1 1.2 2.4
0.0 0.0 0.0 0.0 0.0 0.0 0.0 0.0 0.0 0.0 7.1 31.5 48.8 45.2 23.7 18.4 5.3 2.3 0.4 0.0 0.0 0.2 0.7 1.0 2.0 3.3 1.7 6.6 8.4 9.4 5.6 5.5 4.6 3.0 0.3 0.0 0.0 0.1 0.2 1.2 1.2 1.2 0.1 0.4 0.8 1.2 0.4 0.8 1.1 0.8 1.3 0.6 0.6 0.4
0.0 0.0 0.0 0.0 0.0 0.0 0.0 0.0 0.0 0.0 13.6 51.8 37.6 24.2 12.5 2.4 0.4 0.2 0.5 0.2 0.0 0.1 0.2 0.0 0.1 2.4 4.7 8.9 6.5 3.4 6.5 2.6 1.0 0.5 0.0 0.0 0.1 0.1 0.1 1.1 3.6 3.2 1.8 0.8 0.5 0.3 0.9 1.1 0.8 0.3 0.0 0.0 0.0 0.0
0.0 0.0 0.0 0.0 0.0 0.0 0.0 0.0 0.0 0.0 50.1 48.6 31.2 15.2 3.7 0.3 0.4 0.2 0.2 0.1 0.0 0.0 0.0 2.0 5.1 8.3 7.7 6.2 6.1 3.8 4.8 2.7 1.1 0.4 0.0 0.1 0.1 0.3 0.5 2.1 3.1 1.4 1.3 1.5 1.1 0.0 0.0 0.0 0.0 0.0 0.0 0.0 0.0 0.0
0.0 0.0 0.0 0.0 0.0 0.0 0.0 3.7 9.0 56.0 66.3 49.0 20.0 4.0 0.8 0.8 0.3 0.3 0.4 0.1 0.0 1.8 3.1 5.8 8.4 6.4 3.8 5.2 2.3 0.1 0.6 0.6 0.0 0.3 0.1 0.0 0.0 0.0 0.6 1.2 2.4 1.5 1.9 2.3 1.8 0.5 0.0 0.0 0.0 0.0 0.0 0.0 0.0 0.0
0.0 0.0 0.0 0.0 0.0 0.0 2.6 20.3 46.2 61.9 45.9 20.4 4.9 1.7 1.7 1.2 0.6 0.3 0.5 1.0 2.1 3.2 4.3 6.8 4.0 5.0 5.6 3.1 0.9 0.6 0.3 0.0 0.0 0.0 0.0 0.0 0.0 0.0 0.0 0.8 1.9 2.1 2.1 1.7 0.9 0.0 0.3 0.2 0.1 0.2 0.2 0.2 0.2 0.3
0.0 0.0 0.0 0.0 0.0 6.2 59.0 57.3 41.5 35.1 18.6 6.7 3.5 3.5 2.5 0.9 0.0 0.1 0.0 0.8 1.6 3.2 5.0 6.5 9.1 6.8 1.3 0.4 0.3 0.0 0.0 0.0 0.1 0.0 0.0 0.0 0.0 0.0 0.0 0.0 0.0 0.0 0.6 0.7 0.7 0.5 0.3 0.1 0.1 0.2 0.4 0.6 0.6 0.7
0.0 0.0 0.0 0.0 0.0 39.3 42.9 39.5 24.6 15.0 8.3 6.6 5.5 5.4 3.6 1.8 0.5 0.4 0.2 0.1 0.6 5.1 9.4 9.1 3.5 0.5 0.0 0.1 0.2 0.1 0.0 0.0 0.0 0.0 0.0 0.0 0.0 0.0 0.0 0.0 0.0 0.0 0.0 0.0 0.0 0.0 0.0 0.0 0.0 0.0 0.0 0.0 0.0 0.0
0.0 0.0 0.0 0.0 15.1 41.2 31.7 19.1 16.2 10.9 8.7 7.7 9.7 7.4 7.4 4.2 2.9 2.1 3.9 1.5 9.3 12.0 6.7 1.9 0.1 0.0 0.2 0.1 0.0 0.0 0.1 0.0 0.0 0.0 0.0 0.0 0.0 0.0 0.0 0.0 0.0 0.0 0.1 0.0 0.0 0.0 0.0 0.0 0.0 0.0 0.0 0.0 0.0 0.0
0.8 0.0 3.3 1.0 42.9 34.3 23.8 11.1 8.0 8.6 6.3 9.7 11.3 9.8 10.1 9.3 8.8 8.2 7.3 13.0 14.0 5.1 1.2 0.5 0.5 0.6 0.3 0.3 0.2 0.6 0.0 0.3 0.0 0.0 0.0 0.0 0.0 0.0 0.0 0.0 0.0 0.0 0.1 0.0 0.0 0.0 0.0 0.0 0.0 0.0 0.0 0.0 0.0 0.0
0.0 2.1 30.4 37.3 34.7 21.7 18.1 9.9 7.5 9.2 10.3 12.7 11.6 11.1 12.3 10.6 11.3 11.1 15.0 10.5 4.7 2.4 1.5 1.4 1.1 1.3 1.1 0.7 0.4 0.1 0.1 0.0 0.0 0.2 0.1 0.0 0.0 0.0 0.0 0.0 0.0 0.0 0.1 0.0 0.0 0.4 0.2 0.0 0.0 0.0 0.0 0.1 0.0 0.1
0.0 37.5 39.7 31.1 18.2 12.9 9.5 9.7 6.5 5.7 9.6 10.4 10.0 9.1 7.2 8.5 11.2 12.6 8.6 2.7 2.2 2.4 2.0 2.9 2.4 1.3 1.4 1.3 1.5 1.1 0.7 0.4 0.3 0.2 0.7 0.5 0.2 0.0 0.0 0.0 0.0 0.0 0.0 0.0 0.6 0.5 0.1 0.0 0.0 0.3 0.2 0.1 0.4 1.6
44.4 39.4 24.8 17.9 9.0 4.6 3.0 4.1 5.0 4.9 4.8 6.2 6.4 6.9 6.1 7.0 9.3 6.5 2.9 1.9 3.1 4.1 3.5 2.8 2.5 2.5 1.6 2.5 1.5 1.7 1.3 2.1 2.5 1.5 0.6 1.1 1.2 1.4 0.4 0.6 0.3 0.1 0.2 0.4 0.3 0.1 0.0 0.7 0.7 0.4 0.2 0.6 1.3 1.4
27.3 14.8 11.7 3.4 1.0 0.1 0.5 1.3 2.2 2.8 3.1 4.3 4.9 4.7 5.7 6.7 5.1 3.5 1.8 2.1 3.4 4.5 4.9 4.2 3.0 2.0 2.8 2.0 4.2 3.1 2.1 1.8 1.4 3.4 2.6 2.0 1.3 2.3 1.8 1.1 0.9 1.6 0.8 0.6 0.3 1.6 1.6 1.1 1.0 0.6 1.6 1.7 2.4 3.2
12.6 5.2 2.8 0.1 0.1 0.2 0.4 0.7 0.9 1.3 3.2 3.1 2.5 2.5 3.9 6.0 3.0 1.3 1.2 2.1 3.3 4.0 4.3 4.3 3.8 3.7 3.4 3.9 3.4 3.4 3.2 2.8 3.2 1.2 2.4 2.8 2.5 2.0 1.4 1.4 0.7 0.9 0.8 1.7 2.2 1.9 1.9 1.8 1.6 2.3 2.9 3.3 3.3 3.1
2.4 0.1 0.3 0.1 0.0 0.2 0.7 0.8 0.9 0.9 1.2 0.7 1.8 2.4 2.7 1.8 0.6 0.7 1.3 1.9 3.2 4.1 4.9 5.2 5.0 4.5 4.7 4.3 4.2 5.6 5.4 5.4 5.2 4.3 3.5 3.6 3.7 3.4 2.9 3.4 3.2 3.3 2.7 2.5 3.3 3.3 2.9 2.6 2.8 2.8 3.2 3.3 2.9 3.4
0.6 0.0 0.0 1.0 2.0 2.5 2.4 1.6 0.8 0.3 0.1 0.2 1.0 1.0 0.4 0.3 0.5 0.8 1.2 2.1 3.4 4.5 5.3 6.0 6.5 5.8 7.4 7.0 6.0 5.4 5.0 5.7 5.3 4.1 2.3 2.5 3.0 3.6 4.7 4.7 4.8 5.2 4.3 4.1 3.7 3.3 2.6 3.3 3.5 3.6 3.8 3.7 3.8 4.1
0.5 0.6 1.2 1.9 1.6 1.0 0.7 0.2 0.2 0.1 0.7 0.8 0.7 0.5 0.1 0.2 0.5 0.8 1.2 1.6 2.8 4.4 6.0 6.8 7.1 8.0 7.2 6.3 6.6 7.2 7.6 7.3 6.2 4.0 3.1 2.5 2.0 3.5 4.7 5.1 5.5 4.4 4.4 4.5 4.6 6.0 5.7 5.4 5.5 6.0 5.2 4.8 4.7 4.7
1.2 1.3 1.4 1.3 0.9 0.6 0.8 1.3 1.9 1.9 1.6 1.3 1.0 0.9 0.6 0.1 0.3 0.6 1.0 1.6 2.1 3.5 5.5 6.4 7.8 8.4 7.3 6.5 6.4 5.9 6.0 6.3 6.5 5.9 4.7 4.6 4.6 4.6 5.0 5.2 4.9 5.6 5.7 5.3 4.4 4.5 4.2 3.2 2.4 2.7 2.7 3.0 3.3 2.7
1.7 1.0 0.5 0.4 0.5 1.7 2.2 1.9 1.6 1.3 1.1 0.9 0.7 0.4 0.9 0.8 0.6 0.3 0.5 0.9 1.5 2.8 4.4 5.6 6.1 6.8 6.4 6.1 5.2 5.3 4.1 4.5 4.5 4.9 4.7 4.6 4.1 4.3 4.6 5.0 5.5 5.4 5.3 5.8 5.1 4.6 4.2 3.6 4.4 4.2 4.2 4.3 4.0 3.4
2.2 1.7 1.1 1.5 1.9 1.6 1.9 1.2 1.6 1.6 1.2 1.0 0.5 0.3 0.3 0.8 0.9 0.1 0.3 0.7 1.3 2.3 3.5 4.0 5.1 6.0 6.1 5.6 4.9 4.9 4.4 6.2 6.0 5.9 6.5 5.8 4.9 4.9 5.4 5.4 5.0 5.4 5.4 5.4 5.6 5.3 5.5 5.2 5.0 4.5 4.4 4.3 4.3 4.1